<?xml version="1.0" encoding="UTF-8"?>
<gpx version="1.1" creator="Garmin Connect"
  xsi:schemaLocation="http://www.topografix.com/GPX/1/1 http://www.topografix.com/GPX/1/1/gpx.xsd http://www.garmin.com/xmlschemas/GpxExtensions/v3 http://www.garmin.com/xmlschemas/GpxExtensionsv3.xsd http://www.garmin.com/xmlschemas/TrackPointExtension/v1 http://www.garmin.com/xmlschemas/TrackPointExtensionv1.xsd"
  xmlns="http://www.topografix.com/GPX/1/1"
  xmlns:gpxtpx="http://www.garmin.com/xmlschemas/TrackPointExtension/v1"
  xmlns:gpxx="http://www.garmin.com/xmlschemas/GpxExtensions/v3" xmlns:xsi="http://www.w3.org/2001/XMLSchema-instance">
  <metadata>
    <link href="connect.garmin.com">
      <text>Garmin Connect</text>
    </link>
    <time>2014-02-07T05:47:27.000Z</time>
  </metadata>
  <trk>
    <name>Arad-Mizada-Arad</name>
    <trkseg>
      <trkpt lon="35.23417797870934" lat="31.26055439002812">
        <ele>619.2000122070312</ele>
        <time>2014-02-07T05:47:27.000Z</time>
      </trkpt>
      <trkpt lon="35.23418979719281" lat="31.260539637878537">
        <ele>620.2000122070312</ele>
        <time>2014-02-07T05:47:48.000Z</time>
      </trkpt>
      <trkpt lon="35.23419323377311" lat="31.260527400299907">
        <ele>619.2000122070312</ele>
        <time>2014-02-07T05:48:08.000Z</time>
      </trkpt>
      <trkpt lon="35.2341974247247" lat="31.260517006739974">
        <ele>619.2000122070312</ele>
        <time>2014-02-07T05:48:30.000Z</time>
      </trkpt>
      <trkpt lon="35.23421351797879" lat="31.260534189641476">
        <ele>620.2000122070312</ele>
        <time>2014-02-07T05:48:58.000Z</time>
      </trkpt>
      <trkpt lon="35.23421376943588" lat="31.260537710040808">
        <ele>620.5999755859375</ele>
        <time>2014-02-07T05:49:15.000Z</time>
      </trkpt>
      <trkpt lon="35.23420345969498" lat="31.260541817173362">
        <ele>620.5999755859375</ele>
        <time>2014-02-07T05:49:39.000Z</time>
      </trkpt>
      <trkpt lon="35.23420823737979" lat="31.260544415563345">
        <ele>619.2000122070312</ele>
        <time>2014-02-07T05:49:54.000Z</time>
      </trkpt>
      <trkpt lon="35.234198682010174" lat="31.26054567284882">
        <ele>619.2000122070312</ele>
        <time>2014-02-07T05:50:12.000Z</time>
      </trkpt>
      <trkpt lon="35.23419750854373" lat="31.2605657055974">
        <ele>618.7999877929688</ele>
        <time>2014-02-07T05:50:37.000Z</time>
      </trkpt>
      <trkpt lon="35.23418979719281" lat="31.2605691421777">
        <ele>617.2000122070312</ele>
        <time>2014-02-07T05:50:55.000Z</time>
      </trkpt>
      <trkpt lon="35.23418728262186" lat="31.260573668405414">
        <ele>616.7999877929688</ele>
        <time>2014-02-07T05:51:06.000Z</time>
      </trkpt>
      <trkpt lon="35.234196251258254" lat="31.260566879063845">
        <ele>615.7999877929688</ele>
        <time>2014-02-07T05:51:22.000Z</time>
      </trkpt>
      <trkpt lon="35.234200274571776" lat="31.260572746396065">
        <ele>615.7999877929688</ele>
        <time>2014-02-07T05:51:47.000Z</time>
      </trkpt>
      <trkpt lon="35.2342042978853" lat="31.26057735644281">
        <ele>615.7999877929688</ele>
        <time>2014-02-07T05:52:08.000Z</time>
      </trkpt>
      <trkpt lon="35.234207985922694" lat="31.260576099157333">
        <ele>616.4000244140625</ele>
        <time>2014-02-07T05:52:34.000Z</time>
      </trkpt>
      <trkpt lon="35.23418091237545" lat="31.26055388711393">
        <ele>616.4000244140625</ele>
        <time>2014-02-07T05:52:58.000Z</time>
      </trkpt>
      <trkpt lon="35.234157694503665" lat="31.260566040873528">
        <ele>616.4000244140625</ele>
        <time>2014-02-07T05:53:21.000Z</time>
      </trkpt>
      <trkpt lon="35.23418124765158" lat="31.260556736961007">
        <ele>617.7999877929688</ele>
        <time>2014-02-07T05:53:43.000Z</time>
      </trkpt>
      <trkpt lon="35.23419792763889" lat="31.26054801978171">
        <ele>617.7999877929688</ele>
        <time>2014-02-07T05:54:04.000Z</time>
      </trkpt>
      <trkpt lon="35.234178733080626" lat="31.260542487725616">
        <ele>618.7999877929688</ele>
        <time>2014-02-07T05:54:31.000Z</time>
      </trkpt>
      <trkpt lon="35.23416381329298" lat="31.260538464412093">
        <ele>619.2000122070312</ele>
        <time>2014-02-07T05:55:01.000Z</time>
      </trkpt>
      <trkpt lon="35.234180660918355" lat="31.260524047538638">
        <ele>616.7999877929688</ele>
        <time>2014-02-07T05:55:19.000Z</time>
      </trkpt>
      <trkpt lon="35.234181080013514" lat="31.260532680898905">
        <ele>617.7999877929688</ele>
        <time>2014-02-07T05:55:42.000Z</time>
      </trkpt>
      <trkpt lon="35.2341678366065" lat="31.26053150743246">
        <ele>617.2000122070312</ele>
        <time>2014-02-07T05:56:09.000Z</time>
      </trkpt>
      <trkpt lon="35.23416724987328" lat="31.26054030843079">
        <ele>617.7999877929688</ele>
        <time>2014-02-07T05:56:29.000Z</time>
      </trkpt>
      <trkpt lon="35.23416766896844" lat="31.260533519089222">
        <ele>617.7999877929688</ele>
        <time>2014-02-07T05:56:47.000Z</time>
      </trkpt>
      <trkpt lon="35.234210416674614" lat="31.260523293167353">
        <ele>618.7999877929688</ele>
        <time>2014-02-07T05:57:04.000Z</time>
      </trkpt>
      <trkpt lon="35.2342130150646" lat="31.26052128151059">
        <ele>618.2000122070312</ele>
        <time>2014-02-07T05:57:30.000Z</time>
      </trkpt>
      <trkpt lon="35.234194407239556" lat="31.260527819395065">
        <ele>618.7999877929688</ele>
        <time>2014-02-07T05:57:49.000Z</time>
      </trkpt>
      <trkpt lon="35.234187450259924" lat="31.260521030053496">
        <ele>619.2000122070312</ele>
        <time>2014-02-07T05:58:11.000Z</time>
      </trkpt>
      <trkpt lon="35.234158197417855" lat="31.260516503825784">
        <ele>620.5999755859375</ele>
        <time>2014-02-07T05:58:29.000Z</time>
      </trkpt>
      <trkpt lon="35.23416331037879" lat="31.260518934577703">
        <ele>621.5999755859375</ele>
        <time>2014-02-07T05:58:42.000Z</time>
      </trkpt>
      <trkpt lon="35.234176302328706" lat="31.260512229055166">
        <ele>621.2000122070312</ele>
        <time>2014-02-07T05:59:03.000Z</time>
      </trkpt>
      <trkpt lon="35.2341490611434" lat="31.260509211570024">
        <ele>619.7999877929688</ele>
        <time>2014-02-07T05:59:21.000Z</time>
      </trkpt>
      <trkpt lon="35.234143529087305" lat="31.260507367551327">
        <ele>618.7999877929688</ele>
        <time>2014-02-07T05:59:35.000Z</time>
      </trkpt>
      <trkpt lon="35.23415610194206" lat="31.2605070322752">
        <ele>620.5999755859375</ele>
        <time>2014-02-07T05:59:46.000Z</time>
      </trkpt>
      <trkpt lon="35.23415199480951" lat="31.260522287338972">
        <ele>618.7999877929688</ele>
        <time>2014-02-07T05:59:56.000Z</time>
      </trkpt>
      <trkpt lon="35.234160209074616" lat="31.260527316480875">
        <ele>616.7999877929688</ele>
        <time>2014-02-07T06:00:13.000Z</time>
      </trkpt>
      <trkpt lon="35.23414830677211" lat="31.260522790253162">
        <ele>617.7999877929688</ele>
        <time>2014-02-07T06:00:22.000Z</time>
      </trkpt>
      <trkpt lon="35.234137158840895" lat="31.260512061417103">
        <ele>615.7999877929688</ele>
        <time>2014-02-07T06:00:37.000Z</time>
      </trkpt>
      <trkpt lon="35.234130872413516" lat="31.26050753518939">
        <ele>616.4000244140625</ele>
        <time>2014-02-07T06:00:50.000Z</time>
      </trkpt>
      <trkpt lon="35.23412718437612" lat="31.260489765554667">
        <ele>615.7999877929688</ele>
        <time>2014-02-07T06:01:03.000Z</time>
      </trkpt>
      <trkpt lon="35.234155766665936" lat="31.26045129261911">
        <ele>614.4000244140625</ele>
        <time>2014-02-07T06:01:11.000Z</time>
      </trkpt>
      <trkpt lon="35.2341384999454" lat="31.260452549904585">
        <ele>615.7999877929688</ele>
        <time>2014-02-07T06:01:21.000Z</time>
      </trkpt>
      <trkpt lon="35.234122071415186" lat="31.260454645380378">
        <ele>615.7999877929688</ele>
        <time>2014-02-07T06:01:31.000Z</time>
      </trkpt>
      <trkpt lon="35.23411997593939" lat="31.260456489399076">
        <ele>615.4000244140625</ele>
        <time>2014-02-07T06:01:33.000Z</time>
      </trkpt>
      <trkpt lon="35.233992068096995" lat="31.260403683409095">
        <ele>616.7999877929688</ele>
        <time>2014-02-07T06:01:41.000Z</time>
      </trkpt>
      <trkpt lon="35.23374270647764" lat="31.26043285243213">
        <ele>616.7999877929688</ele>
        <time>2014-02-07T06:01:49.000Z</time>
      </trkpt>
      <trkpt lon="35.23350206203759" lat="31.26045087352395">
        <ele>617.2000122070312</ele>
        <time>2014-02-07T06:01:57.000Z</time>
      </trkpt>
      <trkpt lon="35.23335470817983" lat="31.260450622066855">
        <ele>616.4000244140625</ele>
        <time>2014-02-07T06:02:04.000Z</time>
      </trkpt>
      <trkpt lon="35.233161840587854" lat="31.260430421680212">
        <ele>615.4000244140625</ele>
        <time>2014-02-07T06:02:12.000Z</time>
      </trkpt>
      <trkpt lon="35.23279177956283" lat="31.26041424460709">
        <ele>615.4000244140625</ele>
        <time>2014-02-07T06:02:21.000Z</time>
      </trkpt>
      <trkpt lon="35.232302863150835" lat="31.260408209636807">
        <ele>614.0</ele>
        <time>2014-02-07T06:02:30.000Z</time>
      </trkpt>
      <trkpt lon="35.23169903084636" lat="31.260443245992064">
        <ele>612.0</ele>
        <time>2014-02-07T06:02:38.000Z</time>
      </trkpt>
      <trkpt lon="35.2309681288898" lat="31.26052564010024">
        <ele>608.5999755859375</ele>
        <time>2014-02-07T06:02:46.000Z</time>
      </trkpt>
      <trkpt lon="35.230608796700835" lat="31.260574087500572">
        <ele>607.2000122070312</ele>
        <time>2014-02-07T06:02:51.000Z</time>
      </trkpt>
      <trkpt lon="35.23044132627547" lat="31.260566040873528">
        <ele>605.7999877929688</ele>
        <time>2014-02-07T06:02:55.000Z</time>
      </trkpt>
      <trkpt lon="35.23041064850986" lat="31.260541817173362">
        <ele>605.7999877929688</ele>
        <time>2014-02-07T06:02:56.000Z</time>
      </trkpt>
      <trkpt lon="35.23038877174258" lat="31.26051298342645">
        <ele>605.7999877929688</ele>
        <time>2014-02-07T06:02:57.000Z</time>
      </trkpt>
      <trkpt lon="35.230374773964286" lat="31.26047970727086">
        <ele>605.2000122070312</ele>
        <time>2014-02-07T06:02:58.000Z</time>
      </trkpt>
      <trkpt lon="35.23037351667881" lat="31.260445090010762">
        <ele>605.2000122070312</ele>
        <time>2014-02-07T06:02:59.000Z</time>
      </trkpt>
      <trkpt lon="35.230373768135905" lat="31.260409550741315">
        <ele>604.7999877929688</ele>
        <time>2014-02-07T06:03:00.000Z</time>
      </trkpt>
      <trkpt lon="35.230374019593" lat="31.260140407830477">
        <ele>602.7999877929688</ele>
        <time>2014-02-07T06:03:06.000Z</time>
      </trkpt>
      <trkpt lon="35.230280896648765" lat="31.2596557661891">
        <ele>600.4000244140625</ele>
        <time>2014-02-07T06:03:14.000Z</time>
      </trkpt>
      <trkpt lon="35.2302513923496" lat="31.25945845618844">
        <ele>600.0</ele>
        <time>2014-02-07T06:03:17.000Z</time>
      </trkpt>
      <trkpt lon="35.230190036818385" lat="31.258897706866264">
        <ele>598.0</ele>
        <time>2014-02-07T06:03:26.000Z</time>
      </trkpt>
      <trkpt lon="35.230183666571975" lat="31.258836016058922">
        <ele>598.5999755859375</ele>
        <time>2014-02-07T06:03:27.000Z</time>
      </trkpt>
      <trkpt lon="35.2301771286875" lat="31.258772984147072">
        <ele>598.5999755859375</ele>
        <time>2014-02-07T06:03:28.000Z</time>
      </trkpt>
      <trkpt lon="35.23016547784209" lat="31.25871188007295">
        <ele>598.5999755859375</ele>
        <time>2014-02-07T06:03:29.000Z</time>
      </trkpt>
      <trkpt lon="35.230022985488176" lat="31.258162697777152">
        <ele>599.5999755859375</ele>
        <time>2014-02-07T06:03:39.000Z</time>
      </trkpt>
      <trkpt lon="35.229871440678835" lat="31.257699178531766">
        <ele>600.0</ele>
        <time>2014-02-07T06:03:49.000Z</time>
      </trkpt>
      <trkpt lon="35.229636915028095" lat="31.257220739498734">
        <ele>600.4000244140625</ele>
        <time>2014-02-07T06:04:00.000Z</time>
      </trkpt>
      <trkpt lon="35.229486376047134" lat="31.256852857768536">
        <ele>602.0</ele>
        <time>2014-02-07T06:04:09.000Z</time>
      </trkpt>
      <trkpt lon="35.229404736310244" lat="31.256560664623976">
        <ele>602.7999877929688</ele>
        <time>2014-02-07T06:04:17.000Z</time>
      </trkpt>
      <trkpt lon="35.22939149290323" lat="31.25610888004303">
        <ele>604.7999877929688</ele>
        <time>2014-02-07T06:04:29.000Z</time>
      </trkpt>
      <trkpt lon="35.22944362834096" lat="31.255757678300142">
        <ele>606.2000122070312</ele>
        <time>2014-02-07T06:04:38.000Z</time>
      </trkpt>
      <trkpt lon="35.22946768440306" lat="31.25564477406442">
        <ele>606.2000122070312</ele>
        <time>2014-02-07T06:04:41.000Z</time>
      </trkpt>
      <trkpt lon="35.22958762943745" lat="31.25533347018063">
        <ele>606.7999877929688</ele>
        <time>2014-02-07T06:04:50.000Z</time>
      </trkpt>
      <trkpt lon="35.22978183813393" lat="31.254978831857443">
        <ele>607.2000122070312</ele>
        <time>2014-02-07T06:05:00.000Z</time>
      </trkpt>
      <trkpt lon="35.22997587919235" lat="31.254728883504868">
        <ele>607.5999755859375</ele>
        <time>2014-02-07T06:05:07.000Z</time>
      </trkpt>
      <trkpt lon="35.230008317157626" lat="31.25469669699669">
        <ele>607.5999755859375</ele>
        <time>2014-02-07T06:05:08.000Z</time>
      </trkpt>
      <trkpt lon="35.23024024441838" lat="31.254471810534596">
        <ele>608.5999755859375</ele>
        <time>2014-02-07T06:05:16.000Z</time>
      </trkpt>
      <trkpt lon="35.23030947893858" lat="31.254438366740942">
        <ele>608.5999755859375</ele>
        <time>2014-02-07T06:05:20.000Z</time>
      </trkpt>
      <trkpt lon="35.23032121360302" lat="31.254426883533597">
        <ele>608.5999755859375</ele>
        <time>2014-02-07T06:05:21.000Z</time>
      </trkpt>
      <trkpt lon="35.23033244535327" lat="31.25441187992692">
        <ele>608.5999755859375</ele>
        <time>2014-02-07T06:05:22.000Z</time>
      </trkpt>
      <trkpt lon="35.23045364767313" lat="31.25431515276432">
        <ele>608.2000122070312</ele>
        <time>2014-02-07T06:05:28.000Z</time>
      </trkpt>
      <trkpt lon="35.23069764487445" lat="31.254246337339282">
        <ele>605.7999877929688</ele>
        <time>2014-02-07T06:05:35.000Z</time>
      </trkpt>
      <trkpt lon="35.23087383247912" lat="31.254164865240455">
        <ele>604.7999877929688</ele>
        <time>2014-02-07T06:05:42.000Z</time>
      </trkpt>
      <trkpt lon="35.23108237423003" lat="31.25412220135331">
        <ele>603.7999877929688</ele>
        <time>2014-02-07T06:05:49.000Z</time>
      </trkpt>
      <trkpt lon="35.231253784149885" lat="31.253988929092884">
        <ele>601.4000244140625</ele>
        <time>2014-02-07T06:05:56.000Z</time>
      </trkpt>
      <trkpt lon="35.23135378025472" lat="31.25380008481443">
        <ele>597.5999755859375</ele>
        <time>2014-02-07T06:06:02.000Z</time>
      </trkpt>
      <trkpt lon="35.23149970918894" lat="31.253672428429127">
        <ele>595.5999755859375</ele>
        <time>2014-02-07T06:06:08.000Z</time>
      </trkpt>
      <trkpt lon="35.231556287035346" lat="31.253540078178048">
        <ele>593.7999877929688</ele>
        <time>2014-02-07T06:06:13.000Z</time>
      </trkpt>
      <trkpt lon="35.23159987293184" lat="31.253350982442498">
        <ele>592.4000244140625</ele>
        <time>2014-02-07T06:06:20.000Z</time>
      </trkpt>
      <trkpt lon="35.23158981464803" lat="31.25332952477038">
        <ele>591.7999877929688</ele>
        <time>2014-02-07T06:06:21.000Z</time>
      </trkpt>
      <trkpt lon="35.23157690651715" lat="31.253310665488243">
        <ele>591.7999877929688</ele>
        <time>2014-02-07T06:06:22.000Z</time>
      </trkpt>
      <trkpt lon="35.23154513910413" lat="31.25319331884384">
        <ele>591.4000244140625</ele>
        <time>2014-02-07T06:06:28.000Z</time>
      </trkpt>
      <trkpt lon="35.231556287035346" lat="31.253091897815466">
        <ele>590.7999877929688</ele>
        <time>2014-02-07T06:06:34.000Z</time>
      </trkpt>
      <trkpt lon="35.231553856283426" lat="31.25298259779811">
        <ele>590.4000244140625</ele>
        <time>2014-02-07T06:06:40.000Z</time>
      </trkpt>
      <trkpt lon="35.23160146549344" lat="31.25281110405922">
        <ele>589.4000244140625</ele>
        <time>2014-02-07T06:06:47.000Z</time>
      </trkpt>
      <trkpt lon="35.231644213199615" lat="31.252573477104306">
        <ele>588.0</ele>
        <time>2014-02-07T06:06:55.000Z</time>
      </trkpt>
      <trkpt lon="35.23174571804702" lat="31.25235035084188">
        <ele>586.0</ele>
        <time>2014-02-07T06:07:03.000Z</time>
      </trkpt>
      <trkpt lon="35.23200471885502" lat="31.25216913409531">
        <ele>583.2000122070312</ele>
        <time>2014-02-07T06:07:11.000Z</time>
      </trkpt>
      <trkpt lon="35.232145534828305" lat="31.251932932063937">
        <ele>579.7999877929688</ele>
        <time>2014-02-07T06:07:19.000Z</time>
      </trkpt>
      <trkpt lon="35.232208566740155" lat="31.251766718924046">
        <ele>580.2000122070312</ele>
        <time>2014-02-07T06:07:26.000Z</time>
      </trkpt>
      <trkpt lon="35.23223530501127" lat="31.251682313159108">
        <ele>579.7999877929688</ele>
        <time>2014-02-07T06:07:31.000Z</time>
      </trkpt>
      <trkpt lon="35.2322961576283" lat="31.25150696374476">
        <ele>578.7999877929688</ele>
        <time>2014-02-07T06:07:38.000Z</time>
      </trkpt>
      <trkpt lon="35.23231820203364" lat="31.251392969861627">
        <ele>578.4000244140625</ele>
        <time>2014-02-07T06:07:44.000Z</time>
      </trkpt>
      <trkpt lon="35.232312586158514" lat="31.251340080052614">
        <ele>577.7999877929688</ele>
        <time>2014-02-07T06:07:47.000Z</time>
      </trkpt>
      <trkpt lon="35.23231669329107" lat="31.251324573531747">
        <ele>577.4000244140625</ele>
        <time>2014-02-07T06:07:48.000Z</time>
      </trkpt>
      <trkpt lon="35.23231971077621" lat="31.25130428932607">
        <ele>577.4000244140625</ele>
        <time>2014-02-07T06:07:49.000Z</time>
      </trkpt>
      <trkpt lon="35.2323252428323" lat="31.25128023326397">
        <ele>577.0</ele>
        <time>2014-02-07T06:07:50.000Z</time>
      </trkpt>
      <trkpt lon="35.23233345709741" lat="31.251253243535757">
        <ele>577.0</ele>
        <time>2014-02-07T06:07:51.000Z</time>
      </trkpt>
      <trkpt lon="35.23234577849507" lat="31.251070266589522">
        <ele>577.0</ele>
        <time>2014-02-07T06:07:57.000Z</time>
      </trkpt>
      <trkpt lon="35.23237159475684" lat="31.250968342646956">
        <ele>577.4000244140625</ele>
        <time>2014-02-07T06:08:02.000Z</time>
      </trkpt>
      <trkpt lon="35.2323632966727" lat="31.250953171402216">
        <ele>577.4000244140625</ele>
        <time>2014-02-07T06:08:03.000Z</time>
      </trkpt>
      <trkpt lon="35.23235835134983" lat="31.250935569405556">
        <ele>577.4000244140625</ele>
        <time>2014-02-07T06:08:04.000Z</time>
      </trkpt>
      <trkpt lon="35.23235600441694" lat="31.250918554142118">
        <ele>577.4000244140625</ele>
        <time>2014-02-07T06:08:05.000Z</time>
      </trkpt>
      <trkpt lon="35.232346365228295" lat="31.250902377068996">
        <ele>577.7999877929688</ele>
        <time>2014-02-07T06:08:06.000Z</time>
      </trkpt>
      <trkpt lon="35.23233488202095" lat="31.250882679596543">
        <ele>577.7999877929688</ele>
        <time>2014-02-07T06:08:07.000Z</time>
      </trkpt>
      <trkpt lon="35.23232566192746" lat="31.250859210267663">
        <ele>577.4000244140625</ele>
        <time>2014-02-07T06:08:08.000Z</time>
      </trkpt>
      <trkpt lon="35.232319962233305" lat="31.2508331425488">
        <ele>577.4000244140625</ele>
        <time>2014-02-07T06:08:09.000Z</time>
      </trkpt>
      <trkpt lon="35.23231484927237" lat="31.250809589400887">
        <ele>577.4000244140625</ele>
        <time>2014-02-07T06:08:10.000Z</time>
      </trkpt>
      <trkpt lon="35.23231468163431" lat="31.250787544995546">
        <ele>577.4000244140625</ele>
        <time>2014-02-07T06:08:11.000Z</time>
      </trkpt>
      <trkpt lon="35.2323167771101" lat="31.250765500590205">
        <ele>577.0</ele>
        <time>2014-02-07T06:08:12.000Z</time>
      </trkpt>
      <trkpt lon="35.23232515901327" lat="31.25074722804129">
        <ele>577.0</ele>
        <time>2014-02-07T06:08:13.000Z</time>
      </trkpt>
      <trkpt lon="35.23233630694449" lat="31.250728787854314">
        <ele>576.4000244140625</ele>
        <time>2014-02-07T06:08:14.000Z</time>
      </trkpt>
      <trkpt lon="35.23241484537721" lat="31.250554528087378">
        <ele>575.0</ele>
        <time>2014-02-07T06:08:22.000Z</time>
      </trkpt>
      <trkpt lon="35.232552057132125" lat="31.250352608039975">
        <ele>573.0</ele>
        <time>2014-02-07T06:08:30.000Z</time>
      </trkpt>
      <trkpt lon="35.23262456059456" lat="31.25024724751711">
        <ele>571.5999755859375</ele>
        <time>2014-02-07T06:08:35.000Z</time>
      </trkpt>
      <trkpt lon="35.2326191123575" lat="31.250167870894074">
        <ele>570.5999755859375</ele>
        <time>2014-02-07T06:08:39.000Z</time>
      </trkpt>
      <trkpt lon="35.232625901699066" lat="31.250147502869368">
        <ele>570.2000122070312</ele>
        <time>2014-02-07T06:08:40.000Z</time>
      </trkpt>
      <trkpt lon="35.23263646289706" lat="31.25012663193047">
        <ele>569.7999877929688</ele>
        <time>2014-02-07T06:08:41.000Z</time>
      </trkpt>
      <trkpt lon="35.232645934447646" lat="31.250105509534478">
        <ele>568.7999877929688</ele>
        <time>2014-02-07T06:08:42.000Z</time>
      </trkpt>
      <trkpt lon="35.23265548981726" lat="31.250086901709437">
        <ele>568.2000122070312</ele>
        <time>2014-02-07T06:08:43.000Z</time>
      </trkpt>
      <trkpt lon="35.23266521282494" lat="31.25007290393114">
        <ele>568.2000122070312</ele>
        <time>2014-02-07T06:08:44.000Z</time>
      </trkpt>
      <trkpt lon="35.23269069381058" lat="31.249935189262033">
        <ele>565.4000244140625</ele>
        <time>2014-02-07T06:08:50.000Z</time>
      </trkpt>
      <trkpt lon="35.232694717124104" lat="31.2497590854764">
        <ele>563.0</ele>
        <time>2014-02-07T06:08:56.000Z</time>
      </trkpt>
      <trkpt lon="35.232845088467" lat="31.24963067471981">
        <ele>560.5999755859375</ele>
        <time>2014-02-07T06:09:04.000Z</time>
      </trkpt>
      <trkpt lon="35.232880460098386" lat="31.249578539282084">
        <ele>559.2000122070312</ele>
        <time>2014-02-07T06:09:09.000Z</time>
      </trkpt>
      <trkpt lon="35.23289286531508" lat="31.249586334452033">
        <ele>560.5999755859375</ele>
        <time>2014-02-07T06:09:24.000Z</time>
      </trkpt>
      <trkpt lon="35.23290568962693" lat="31.24956127256155">
        <ele>559.2000122070312</ele>
        <time>2014-02-07T06:09:32.000Z</time>
      </trkpt>
      <trkpt lon="35.232919938862324" lat="31.24954903498292">
        <ele>558.2000122070312</ele>
        <time>2014-02-07T06:09:52.000Z</time>
      </trkpt>
      <trkpt lon="35.232922872528434" lat="31.249552806839347">
        <ele>559.5999755859375</ele>
        <time>2014-02-07T06:10:03.000Z</time>
      </trkpt>
      <trkpt lon="35.23292320780456" lat="31.24956663697958">
        <ele>560.5999755859375</ele>
        <time>2014-02-07T06:10:15.000Z</time>
      </trkpt>
      <trkpt lon="35.23289244621992" lat="31.24955247156322">
        <ele>559.5999755859375</ele>
        <time>2014-02-07T06:10:30.000Z</time>
      </trkpt>
      <trkpt lon="35.232913149520755" lat="31.24947435222566">
        <ele>558.2000122070312</ele>
        <time>2014-02-07T06:10:36.000Z</time>
      </trkpt>
      <trkpt lon="35.23297308012843" lat="31.249372344464064">
        <ele>556.7999877929688</ele>
        <time>2014-02-07T06:10:42.000Z</time>
      </trkpt>
      <trkpt lon="35.23305664770305" lat="31.249270252883434">
        <ele>554.7999877929688</ele>
        <time>2014-02-07T06:10:49.000Z</time>
      </trkpt>
      <trkpt lon="35.23308296687901" lat="31.249273186549544">
        <ele>554.4000244140625</ele>
        <time>2014-02-07T06:10:50.000Z</time>
      </trkpt>
      <trkpt lon="35.23310702294111" lat="31.2492788862437">
        <ele>553.7999877929688</ele>
        <time>2014-02-07T06:10:51.000Z</time>
      </trkpt>
      <trkpt lon="35.2331283967942" lat="31.249287603423">
        <ele>553.7999877929688</ele>
        <time>2014-02-07T06:10:52.000Z</time>
      </trkpt>
      <trkpt lon="35.233147172257304" lat="31.249299002811313">
        <ele>553.4000244140625</ele>
        <time>2014-02-07T06:10:53.000Z</time>
      </trkpt>
      <trkpt lon="35.233168713748455" lat="31.249310486018658">
        <ele>553.0</ele>
        <time>2014-02-07T06:10:54.000Z</time>
      </trkpt>
      <trkpt lon="35.233191680163145" lat="31.249323477968574">
        <ele>552.4000244140625</ele>
        <time>2014-02-07T06:10:55.000Z</time>
      </trkpt>
      <trkpt lon="35.23335797712207" lat="31.249356921762228">
        <ele>549.5999755859375</ele>
        <time>2014-02-07T06:11:02.000Z</time>
      </trkpt>
      <trkpt lon="35.23348647169769" lat="31.24934091232717">
        <ele>547.2000122070312</ele>
        <time>2014-02-07T06:11:08.000Z</time>
      </trkpt>
      <trkpt lon="35.23349820636213" lat="31.249330937862396">
        <ele>546.5999755859375</ele>
        <time>2014-02-07T06:11:09.000Z</time>
      </trkpt>
      <trkpt lon="35.23350080475211" lat="31.249315766617656">
        <ele>546.5999755859375</ele>
        <time>2014-02-07T06:11:10.000Z</time>
      </trkpt>
      <trkpt lon="35.23349535651505" lat="31.249301182106137">
        <ele>546.2000122070312</ele>
        <time>2014-02-07T06:11:11.000Z</time>
      </trkpt>
      <trkpt lon="35.23348420858383" lat="31.24929053708911">
        <ele>545.5999755859375</ele>
        <time>2014-02-07T06:11:12.000Z</time>
      </trkpt>
      <trkpt lon="35.23347130045295" lat="31.249281652271748">
        <ele>545.2000122070312</ele>
        <time>2014-02-07T06:11:13.000Z</time>
      </trkpt>
      <trkpt lon="35.233456967398524" lat="31.249276204034686">
        <ele>545.2000122070312</ele>
        <time>2014-02-07T06:11:14.000Z</time>
      </trkpt>
      <trkpt lon="35.233443304896355" lat="31.24926463700831">
        <ele>544.7999877929688</ele>
        <time>2014-02-07T06:11:15.000Z</time>
      </trkpt>
      <trkpt lon="35.23342779837549" lat="31.249250136315823">
        <ele>544.2000122070312</ele>
        <time>2014-02-07T06:11:16.000Z</time>
      </trkpt>
      <trkpt lon="35.233412962406874" lat="31.249239910393953">
        <ele>544.2000122070312</ele>
        <time>2014-02-07T06:11:17.000Z</time>
      </trkpt>
      <trkpt lon="35.233395444229245" lat="31.249233204871416">
        <ele>543.7999877929688</ele>
        <time>2014-02-07T06:11:18.000Z</time>
      </trkpt>
      <trkpt lon="35.23337256163359" lat="31.24922557733953">
        <ele>543.7999877929688</ele>
        <time>2014-02-07T06:11:19.000Z</time>
      </trkpt>
      <trkpt lon="35.233352445065975" lat="31.249215016141534">
        <ele>543.7999877929688</ele>
        <time>2014-02-07T06:11:20.000Z</time>
      </trkpt>
      <trkpt lon="35.23333844728768" lat="31.249201521277428">
        <ele>543.2000122070312</ele>
        <time>2014-02-07T06:11:21.000Z</time>
      </trkpt>
      <trkpt lon="35.233322186395526" lat="31.249187272042036">
        <ele>542.7999877929688</ele>
        <time>2014-02-07T06:11:22.000Z</time>
      </trkpt>
      <trkpt lon="35.23330131545663" lat="31.249171514064074">
        <ele>542.4000244140625</ele>
        <time>2014-02-07T06:11:23.000Z</time>
      </trkpt>
      <trkpt lon="35.233279103413224" lat="31.249153492972255">
        <ele>542.4000244140625</ele>
        <time>2014-02-07T06:11:24.000Z</time>
      </trkpt>
      <trkpt lon="35.23326091468334" lat="31.249134382233024">
        <ele>541.7999877929688</ele>
        <time>2014-02-07T06:11:25.000Z</time>
      </trkpt>
      <trkpt lon="35.2331767603755" lat="31.24899884685874">
        <ele>539.4000244140625</ele>
        <time>2014-02-07T06:11:32.000Z</time>
      </trkpt>
      <trkpt lon="35.23314256221056" lat="31.248831879347563">
        <ele>537.5999755859375</ele>
        <time>2014-02-07T06:11:39.000Z</time>
      </trkpt>
      <trkpt lon="35.233161421492696" lat="31.24864110723138">
        <ele>535.5999755859375</ele>
        <time>2014-02-07T06:11:46.000Z</time>
      </trkpt>
      <trkpt lon="35.23328782059252" lat="31.248409934341908">
        <ele>532.7999877929688</ele>
        <time>2014-02-07T06:11:53.000Z</time>
      </trkpt>
      <trkpt lon="35.23342058993876" lat="31.248073736205697">
        <ele>526.0</ele>
        <time>2014-02-07T06:12:02.000Z</time>
      </trkpt>
      <trkpt lon="35.233578169718385" lat="31.247936440631747">
        <ele>522.5999755859375</ele>
        <time>2014-02-07T06:12:08.000Z</time>
      </trkpt>
      <trkpt lon="35.23379685357213" lat="31.247762516140938">
        <ele>518.2000122070312</ele>
        <time>2014-02-07T06:12:16.000Z</time>
      </trkpt>
      <trkpt lon="35.23403867147863" lat="31.247613821178675">
        <ele>515.0</ele>
        <time>2014-02-07T06:12:23.000Z</time>
      </trkpt>
      <trkpt lon="35.23433840833604" lat="31.247454984113574">
        <ele>511.6000061035156</ele>
        <time>2014-02-07T06:12:30.000Z</time>
      </trkpt>
      <trkpt lon="35.23437830619514" lat="31.247421707957983">
        <ele>510.6000061035156</ele>
        <time>2014-02-07T06:12:31.000Z</time>
      </trkpt>
      <trkpt lon="35.23441191762686" lat="31.24738742597401">
        <ele>510.20001220703125</ele>
        <time>2014-02-07T06:12:32.000Z</time>
      </trkpt>
      <trkpt lon="35.23444343358278" lat="31.2473482824862">
        <ele>509.6000061035156</ele>
        <time>2014-02-07T06:12:33.000Z</time>
      </trkpt>
      <trkpt lon="35.23446933366358" lat="31.24731156975031">
        <ele>509.20001220703125</ele>
        <time>2014-02-07T06:12:34.000Z</time>
      </trkpt>
      <trkpt lon="35.234648790210485" lat="31.24708140268922">
        <ele>504.79998779296875</ele>
        <time>2014-02-07T06:12:42.000Z</time>
      </trkpt>
      <trkpt lon="35.23484844714403" lat="31.246883925050497">
        <ele>501.0</ele>
        <time>2014-02-07T06:12:50.000Z</time>
      </trkpt>
      <trkpt lon="35.23497551679611" lat="31.246769092977047">
        <ele>498.20001220703125</ele>
        <time>2014-02-07T06:12:57.000Z</time>
      </trkpt>
      <trkpt lon="35.23509512655437" lat="31.246634228155017">
        <ele>495.20001220703125</ele>
        <time>2014-02-07T06:13:03.000Z</time>
      </trkpt>
      <trkpt lon="35.2352281473577" lat="31.246521407738328">
        <ele>493.20001220703125</ele>
        <time>2014-02-07T06:13:10.000Z</time>
      </trkpt>
      <trkpt lon="35.2353439014405" lat="31.246388219296932">
        <ele>490.0</ele>
        <time>2014-02-07T06:13:17.000Z</time>
      </trkpt>
      <trkpt lon="35.23545705713332" lat="31.246321834623814">
        <ele>488.0</ele>
        <time>2014-02-07T06:13:23.000Z</time>
      </trkpt>
      <trkpt lon="35.23549041710794" lat="31.24630657956004">
        <ele>487.0</ele>
        <time>2014-02-07T06:13:25.000Z</time>
      </trkpt>
      <trkpt lon="35.23552696220577" lat="31.246301382780075">
        <ele>486.0</ele>
        <time>2014-02-07T06:13:27.000Z</time>
      </trkpt>
      <trkpt lon="35.23554313927889" lat="31.24629241414368">
        <ele>484.6000061035156</ele>
        <time>2014-02-07T06:13:32.000Z</time>
      </trkpt>
      <trkpt lon="35.23552184924483" lat="31.246259389445186">
        <ele>483.6000061035156</ele>
        <time>2014-02-07T06:13:39.000Z</time>
      </trkpt>
      <trkpt lon="35.235523944720626" lat="31.246247151866555">
        <ele>483.20001220703125</ele>
        <time>2014-02-07T06:13:42.000Z</time>
      </trkpt>
      <trkpt lon="35.23560374043882" lat="31.246144641190767">
        <ele>482.20001220703125</ele>
        <time>2014-02-07T06:13:48.000Z</time>
      </trkpt>
      <trkpt lon="35.23583399131894" lat="31.246045734733343">
        <ele>478.0</ele>
        <time>2014-02-07T06:13:55.000Z</time>
      </trkpt>
      <trkpt lon="35.23597531020641" lat="31.245951438322663">
        <ele>476.0</ele>
        <time>2014-02-07T06:14:01.000Z</time>
      </trkpt>
      <trkpt lon="35.23608511313796" lat="31.245796540752053">
        <ele>473.6000061035156</ele>
        <time>2014-02-07T06:14:09.000Z</time>
      </trkpt>
      <trkpt lon="35.23613741621375" lat="31.245748344808817">
        <ele>472.20001220703125</ele>
        <time>2014-02-07T06:14:15.000Z</time>
      </trkpt>
      <trkpt lon="35.23619499988854" lat="31.24574264511466">
        <ele>471.20001220703125</ele>
        <time>2014-02-07T06:14:23.000Z</time>
      </trkpt>
      <trkpt lon="35.2362176310271" lat="31.245696963742375">
        <ele>471.20001220703125</ele>
        <time>2014-02-07T06:14:31.000Z</time>
      </trkpt>
      <trkpt lon="35.23622777312994" lat="31.24568640254438">
        <ele>471.20001220703125</ele>
        <time>2014-02-07T06:14:32.000Z</time>
      </trkpt>
      <trkpt lon="35.23623934015632" lat="31.245672488585114">
        <ele>470.79998779296875</ele>
        <time>2014-02-07T06:14:33.000Z</time>
      </trkpt>
      <trkpt lon="35.236266665160656" lat="31.245655976235867">
        <ele>470.79998779296875</ele>
        <time>2014-02-07T06:14:35.000Z</time>
      </trkpt>
      <trkpt lon="35.236379066482186" lat="31.24558632262051">
        <ele>468.20001220703125</ele>
        <time>2014-02-07T06:14:40.000Z</time>
      </trkpt>
      <trkpt lon="35.23647411726415" lat="31.24543536454439">
        <ele>465.3999938964844</ele>
        <time>2014-02-07T06:14:47.000Z</time>
      </trkpt>
      <trkpt lon="35.23648886941373" lat="31.245313826948404">
        <ele>464.3999938964844</ele>
        <time>2014-02-07T06:14:53.000Z</time>
      </trkpt>
      <trkpt lon="35.23654293268919" lat="31.24515775591135">
        <ele>463.0</ele>
        <time>2014-02-07T06:15:00.000Z</time>
      </trkpt>
      <trkpt lon="35.236604288220406" lat="31.2449461966753">
        <ele>459.6000061035156</ele>
        <time>2014-02-07T06:15:07.000Z</time>
      </trkpt>
      <trkpt lon="35.23670369759202" lat="31.244687950238585">
        <ele>456.20001220703125</ele>
        <time>2014-02-07T06:15:14.000Z</time>
      </trkpt>
      <trkpt lon="35.23684484884143" lat="31.24450681731105">
        <ele>454.3999938964844</ele>
        <time>2014-02-07T06:15:21.000Z</time>
      </trkpt>
      <trkpt lon="35.23698759265244" lat="31.24429291114211">
        <ele>451.3999938964844</ele>
        <time>2014-02-07T06:15:29.000Z</time>
      </trkpt>
      <trkpt lon="35.237038135528564" lat="31.244221162050962">
        <ele>450.6000061035156</ele>
        <time>2014-02-07T06:15:31.000Z</time>
      </trkpt>
      <trkpt lon="35.237060599029064" lat="31.244183275848627">
        <ele>449.6000061035156</ele>
        <time>2014-02-07T06:15:32.000Z</time>
      </trkpt>
      <trkpt lon="35.23716336116195" lat="31.24402611516416">
        <ele>447.6000061035156</ele>
        <time>2014-02-07T06:15:38.000Z</time>
      </trkpt>
      <trkpt lon="35.23730090819299" lat="31.24388387426734">
        <ele>446.20001220703125</ele>
        <time>2014-02-07T06:15:45.000Z</time>
      </trkpt>
      <trkpt lon="35.23755194619298" lat="31.2437891587615">
        <ele>445.79998779296875</ele>
        <time>2014-02-07T06:15:52.000Z</time>
      </trkpt>
      <trkpt lon="35.237752860412" lat="31.24366896227002">
        <ele>445.20001220703125</ele>
        <time>2014-02-07T06:15:59.000Z</time>
      </trkpt>
      <trkpt lon="35.23782326839864" lat="31.243460504338145">
        <ele>443.3999938964844</ele>
        <time>2014-02-07T06:16:06.000Z</time>
      </trkpt>
      <trkpt lon="35.23778705857694" lat="31.24325791373849">
        <ele>441.79998779296875</ele>
        <time>2014-02-07T06:16:13.000Z</time>
      </trkpt>
      <trkpt lon="35.237780353054404" lat="31.24323897063732">
        <ele>441.79998779296875</ele>
        <time>2014-02-07T06:16:14.000Z</time>
      </trkpt>
      <trkpt lon="35.23778454400599" lat="31.243220614269376">
        <ele>441.79998779296875</ele>
        <time>2014-02-07T06:16:15.000Z</time>
      </trkpt>
      <trkpt lon="35.23779443465173" lat="31.243202593177557">
        <ele>441.3999938964844</ele>
        <time>2014-02-07T06:16:16.000Z</time>
      </trkpt>
      <trkpt lon="35.23780348710716" lat="31.243181554600596">
        <ele>440.79998779296875</ele>
        <time>2014-02-07T06:16:17.000Z</time>
      </trkpt>
      <trkpt lon="35.237808683887124" lat="31.243160348385572">
        <ele>440.3999938964844</ele>
        <time>2014-02-07T06:16:18.000Z</time>
      </trkpt>
      <trkpt lon="35.23781195282936" lat="31.24313537031412">
        <ele>440.3999938964844</ele>
        <time>2014-02-07T06:16:19.000Z</time>
      </trkpt>
      <trkpt lon="35.23781471885741" lat="31.243112068623304">
        <ele>440.3999938964844</ele>
        <time>2014-02-07T06:16:20.000Z</time>
      </trkpt>
      <trkpt lon="35.23782083764672" lat="31.24308935366571">
        <ele>440.3999938964844</ele>
        <time>2014-02-07T06:16:21.000Z</time>
      </trkpt>
      <trkpt lon="35.23783324286342" lat="31.24306445941329">
        <ele>440.0</ele>
        <time>2014-02-07T06:16:22.000Z</time>
      </trkpt>
      <trkpt lon="35.23785042576492" lat="31.24303906224668">
        <ele>440.0</ele>
        <time>2014-02-07T06:16:23.000Z</time>
      </trkpt>
      <trkpt lon="35.23787054233253" lat="31.243014754727483">
        <ele>439.3999938964844</ele>
        <time>2014-02-07T06:16:24.000Z</time>
      </trkpt>
      <trkpt lon="35.237891329452395" lat="31.242991536855698">
        <ele>439.0</ele>
        <time>2014-02-07T06:16:25.000Z</time>
      </trkpt>
      <trkpt lon="35.237992918118834" lat="31.242906376719475">
        <ele>438.0</ele>
        <time>2014-02-07T06:16:30.000Z</time>
      </trkpt>
      <trkpt lon="35.238012447953224" lat="31.242897156625986">
        <ele>438.6000061035156</ele>
        <time>2014-02-07T06:16:31.000Z</time>
      </trkpt>
      <trkpt lon="35.2380327321589" lat="31.242888439446688">
        <ele>438.6000061035156</ele>
        <time>2014-02-07T06:16:32.000Z</time>
      </trkpt>
      <trkpt lon="35.238207411020994" lat="31.242825156077743">
        <ele>437.6000061035156</ele>
        <time>2014-02-07T06:16:38.000Z</time>
      </trkpt>
      <trkpt lon="35.2383538428694" lat="31.242819288745522">
        <ele>436.20001220703125</ele>
        <time>2014-02-07T06:16:45.000Z</time>
      </trkpt>
      <trkpt lon="35.23851024918258" lat="31.24280503951013">
        <ele>434.6000061035156</ele>
        <time>2014-02-07T06:16:51.000Z</time>
      </trkpt>
      <trkpt lon="35.23854453116655" lat="31.242800429463387">
        <ele>434.6000061035156</ele>
        <time>2014-02-07T06:16:53.000Z</time>
      </trkpt>
      <trkpt lon="35.2385697606951" lat="31.24279271811247">
        <ele>434.6000061035156</ele>
        <time>2014-02-07T06:16:57.000Z</time>
      </trkpt>
      <trkpt lon="35.23871493525803" lat="31.242793137207627">
        <ele>433.20001220703125</ele>
        <time>2014-02-07T06:17:03.000Z</time>
      </trkpt>
      <trkpt lon="35.23885474540293" lat="31.242804871872067">
        <ele>429.79998779296875</ele>
        <time>2014-02-07T06:17:10.000Z</time>
      </trkpt>
      <trkpt lon="35.238857343792915" lat="31.24280068092048">
        <ele>428.3999938964844</ele>
        <time>2014-02-07T06:17:19.000Z</time>
      </trkpt>
      <trkpt lon="35.23884426802397" lat="31.24279959127307">
        <ele>429.79998779296875</ele>
        <time>2014-02-07T06:17:43.000Z</time>
      </trkpt>
      <trkpt lon="35.23886212147772" lat="31.242793472483754">
        <ele>430.79998779296875</ele>
        <time>2014-02-07T06:18:06.000Z</time>
      </trkpt>
      <trkpt lon="35.238850554451346" lat="31.242814930155873">
        <ele>429.3999938964844</ele>
        <time>2014-02-07T06:18:20.000Z</time>
      </trkpt>
      <trkpt lon="35.23890604265034" lat="31.242821300402284">
        <ele>427.3999938964844</ele>
        <time>2014-02-07T06:18:26.000Z</time>
      </trkpt>
      <trkpt lon="35.23891920223832" lat="31.242813169956207">
        <ele>427.3999938964844</ele>
        <time>2014-02-07T06:18:27.000Z</time>
      </trkpt>
      <trkpt lon="35.23893177509308" lat="31.24280260875821">
        <ele>427.0</ele>
        <time>2014-02-07T06:18:28.000Z</time>
      </trkpt>
      <trkpt lon="35.2390116546303" lat="31.242701523005962">
        <ele>426.3999938964844</ele>
        <time>2014-02-07T06:18:35.000Z</time>
      </trkpt>
      <trkpt lon="35.23908072151244" lat="31.24267009086907">
        <ele>425.0</ele>
        <time>2014-02-07T06:18:41.000Z</time>
      </trkpt>
      <trkpt lon="35.23909077979624" lat="31.242672270163894">
        <ele>425.6000061035156</ele>
        <time>2014-02-07T06:18:52.000Z</time>
      </trkpt>
      <trkpt lon="35.23908717557788" lat="31.24269414693117">
        <ele>426.0</ele>
        <time>2014-02-07T06:19:08.000Z</time>
      </trkpt>
      <trkpt lon="35.23908223025501" lat="31.242685178294778">
        <ele>426.3999938964844</ele>
        <time>2014-02-07T06:19:16.000Z</time>
      </trkpt>
      <trkpt lon="35.23906865157187" lat="31.242650393396616">
        <ele>426.3999938964844</ele>
        <time>2014-02-07T06:19:38.000Z</time>
      </trkpt>
      <trkpt lon="35.239074770361185" lat="31.242647795006633">
        <ele>427.3999938964844</ele>
        <time>2014-02-07T06:19:53.000Z</time>
      </trkpt>
      <trkpt lon="35.2390724234283" lat="31.24265399761498">
        <ele>427.0</ele>
        <time>2014-02-07T06:20:18.000Z</time>
      </trkpt>
      <trkpt lon="35.23907049559057" lat="31.24264913611114">
        <ele>426.0</ele>
        <time>2014-02-07T06:20:40.000Z</time>
      </trkpt>
      <trkpt lon="35.23906823247671" lat="31.24264477752149">
        <ele>426.3999938964844</ele>
        <time>2014-02-07T06:21:04.000Z</time>
      </trkpt>
      <trkpt lon="35.23906923830509" lat="31.242646034806967">
        <ele>426.0</ele>
        <time>2014-02-07T06:21:22.000Z</time>
      </trkpt>
      <trkpt lon="35.239067394286394" lat="31.24264368787408">
        <ele>427.0</ele>
        <time>2014-02-07T06:21:50.000Z</time>
      </trkpt>
      <trkpt lon="35.239069825038314" lat="31.242647292092443">
        <ele>427.3999938964844</ele>
        <time>2014-02-07T06:22:16.000Z</time>
      </trkpt>
      <trkpt lon="35.23906663991511" lat="31.2426442746073">
        <ele>426.3999938964844</ele>
        <time>2014-02-07T06:22:40.000Z</time>
      </trkpt>
      <trkpt lon="35.239064544439316" lat="31.242640586569905">
        <ele>427.0</ele>
        <time>2014-02-07T06:23:07.000Z</time>
      </trkpt>
      <trkpt lon="35.23907510563731" lat="31.24264125712216">
        <ele>426.3999938964844</ele>
        <time>2014-02-07T06:23:32.000Z</time>
      </trkpt>
      <trkpt lon="35.239066891372204" lat="31.242637652903795">
        <ele>426.0</ele>
        <time>2014-02-07T06:24:01.000Z</time>
      </trkpt>
      <trkpt lon="35.23907175287604" lat="31.242646034806967">
        <ele>427.0</ele>
        <time>2014-02-07T06:24:27.000Z</time>
      </trkpt>
      <trkpt lon="35.23906856775284" lat="31.242645364254713">
        <ele>427.3999938964844</ele>
        <time>2014-02-07T06:24:49.000Z</time>
      </trkpt>
      <trkpt lon="35.2390652988106" lat="31.242644945159554">
        <ele>428.0</ele>
        <time>2014-02-07T06:25:11.000Z</time>
      </trkpt>
      <trkpt lon="35.2390568330884" lat="31.24265743419528">
        <ele>428.3999938964844</ele>
        <time>2014-02-07T06:25:34.000Z</time>
      </trkpt>
      <trkpt lon="35.23905549198389" lat="31.24266137368977">
        <ele>429.79998779296875</ele>
        <time>2014-02-07T06:26:02.000Z</time>
      </trkpt>
      <trkpt lon="35.239049289375544" lat="31.24266422353685">
        <ele>430.3999938964844</ele>
        <time>2014-02-07T06:26:25.000Z</time>
      </trkpt>
      <trkpt lon="35.239026909694076" lat="31.242665397003293">
        <ele>433.6000061035156</ele>
        <time>2014-02-07T06:26:50.000Z</time>
      </trkpt>
      <trkpt lon="35.239028837531805" lat="31.242665145546198">
        <ele>436.6000061035156</ele>
        <time>2014-02-07T06:27:13.000Z</time>
      </trkpt>
      <trkpt lon="35.23903973400593" lat="31.24267310835421">
        <ele>437.6000061035156</ele>
        <time>2014-02-07T06:27:35.000Z</time>
      </trkpt>
      <trkpt lon="35.2390325255692" lat="31.242671012878418">
        <ele>436.6000061035156</ele>
        <time>2014-02-07T06:27:58.000Z</time>
      </trkpt>
      <trkpt lon="35.23902816697955" lat="31.242667995393276">
        <ele>437.6000061035156</ele>
        <time>2014-02-07T06:28:26.000Z</time>
      </trkpt>
      <trkpt lon="35.23901936598122" lat="31.24266866594553">
        <ele>438.6000061035156</ele>
        <time>2014-02-07T06:28:44.000Z</time>
      </trkpt>
      <trkpt lon="35.23902598768473" lat="31.242674365639687">
        <ele>439.3999938964844</ele>
        <time>2014-02-07T06:29:04.000Z</time>
      </trkpt>
      <trkpt lon="35.239023892208934" lat="31.24267059378326">
        <ele>440.3999938964844</ele>
        <time>2014-02-07T06:29:28.000Z</time>
      </trkpt>
      <trkpt lon="35.23902070708573" lat="31.242677802219987">
        <ele>440.79998779296875</ele>
        <time>2014-02-07T06:29:48.000Z</time>
      </trkpt>
      <trkpt lon="35.23902917280793" lat="31.24267067760229">
        <ele>440.3999938964844</ele>
        <time>2014-02-07T06:30:21.000Z</time>
      </trkpt>
      <trkpt lon="35.23902900516987" lat="31.242676796391606">
        <ele>441.3999938964844</ele>
        <time>2014-02-07T06:30:45.000Z</time>
      </trkpt>
      <trkpt lon="35.23903286084533" lat="31.242679813876748">
        <ele>440.79998779296875</ele>
        <time>2014-02-07T06:31:08.000Z</time>
      </trkpt>
      <trkpt lon="35.23903210647404" lat="31.24267796985805">
        <ele>441.3999938964844</ele>
        <time>2014-02-07T06:31:31.000Z</time>
      </trkpt>
      <trkpt lon="35.239024898037314" lat="31.2426736112684">
        <ele>441.3999938964844</ele>
        <time>2014-02-07T06:31:54.000Z</time>
      </trkpt>
      <trkpt lon="35.2390256524086" lat="31.24267503619194">
        <ele>442.3999938964844</ele>
        <time>2014-02-07T06:32:15.000Z</time>
      </trkpt>
      <trkpt lon="35.239028334617615" lat="31.242680149152875">
        <ele>443.79998779296875</ele>
        <time>2014-02-07T06:32:37.000Z</time>
      </trkpt>
      <trkpt lon="35.239029759541154" lat="31.24267847277224">
        <ele>444.20001220703125</ele>
        <time>2014-02-07T06:32:58.000Z</time>
      </trkpt>
      <trkpt lon="35.23901768960059" lat="31.242672353982925">
        <ele>443.79998779296875</ele>
        <time>2014-02-07T06:33:18.000Z</time>
      </trkpt>
      <trkpt lon="35.23903160355985" lat="31.242683418095112">
        <ele>444.79998779296875</ele>
        <time>2014-02-07T06:33:34.000Z</time>
      </trkpt>
      <trkpt lon="35.23901592940092" lat="31.2426754552871">
        <ele>444.20001220703125</ele>
        <time>2014-02-07T06:33:55.000Z</time>
      </trkpt>
      <trkpt lon="35.23901475593448" lat="31.2426770478487">
        <ele>445.20001220703125</ele>
        <time>2014-02-07T06:34:20.000Z</time>
      </trkpt>
      <trkpt lon="35.23901701904833" lat="31.242682160809636">
        <ele>446.20001220703125</ele>
        <time>2014-02-07T06:34:49.000Z</time>
      </trkpt>
      <trkpt lon="35.23901442065835" lat="31.242676209658384">
        <ele>447.20001220703125</ele>
        <time>2014-02-07T06:35:10.000Z</time>
      </trkpt>
      <trkpt lon="35.23901651613414" lat="31.24267788603902">
        <ele>449.0</ele>
        <time>2014-02-07T06:35:35.000Z</time>
      </trkpt>
      <trkpt lon="35.239008301869035" lat="31.242678808048368">
        <ele>450.6000061035156</ele>
        <time>2014-02-07T06:36:04.000Z</time>
      </trkpt>
      <trkpt lon="35.23900402709842" lat="31.24268325045705">
        <ele>452.0</ele>
        <time>2014-02-07T06:36:27.000Z</time>
      </trkpt>
      <trkpt lon="35.23900888860226" lat="31.24268869869411">
        <ele>453.3999938964844</ele>
        <time>2014-02-07T06:36:57.000Z</time>
      </trkpt>
      <trkpt lon="35.239007379859686" lat="31.24268325045705">
        <ele>454.79998779296875</ele>
        <time>2014-02-07T06:37:22.000Z</time>
      </trkpt>
      <trkpt lon="35.2390119060874" lat="31.24268333427608">
        <ele>455.79998779296875</ele>
        <time>2014-02-07T06:37:49.000Z</time>
      </trkpt>
      <trkpt lon="35.23900712840259" lat="31.242683166638017">
        <ele>456.20001220703125</ele>
        <time>2014-02-07T06:38:11.000Z</time>
      </trkpt>
      <trkpt lon="35.239016097038984" lat="31.242688447237015">
        <ele>456.79998779296875</ele>
        <time>2014-02-07T06:38:31.000Z</time>
      </trkpt>
      <trkpt lon="35.239009223878384" lat="31.242678305134177">
        <ele>457.79998779296875</ele>
        <time>2014-02-07T06:39:00.000Z</time>
      </trkpt>
      <trkpt lon="35.2390031889081" lat="31.24267595820129">
        <ele>457.79998779296875</ele>
        <time>2014-02-07T06:39:22.000Z</time>
      </trkpt>
      <trkpt lon="35.23901525884867" lat="31.242685765028">
        <ele>457.79998779296875</ele>
        <time>2014-02-07T06:39:45.000Z</time>
      </trkpt>
      <trkpt lon="35.23902179673314" lat="31.242684591561556">
        <ele>458.6000061035156</ele>
        <time>2014-02-07T06:40:12.000Z</time>
      </trkpt>
      <trkpt lon="35.23902816697955" lat="31.242682747542858">
        <ele>459.20001220703125</ele>
        <time>2014-02-07T06:40:32.000Z</time>
      </trkpt>
      <trkpt lon="35.2390290889889" lat="31.242681741714478">
        <ele>459.20001220703125</ele>
        <time>2014-02-07T06:40:48.000Z</time>
      </trkpt>
      <trkpt lon="35.239019617438316" lat="31.242681238800287">
        <ele>458.20001220703125</ele>
        <time>2014-02-07T06:41:08.000Z</time>
      </trkpt>
      <trkpt lon="35.239025484770536" lat="31.24268283136189">
        <ele>456.79998779296875</ele>
        <time>2014-02-07T06:41:21.000Z</time>
      </trkpt>
      <trkpt lon="35.239029340445995" lat="31.242680065333843">
        <ele>454.3999938964844</ele>
        <time>2014-02-07T06:41:38.000Z</time>
      </trkpt>
      <trkpt lon="35.23902481421828" lat="31.242681993171573">
        <ele>451.3999938964844</ele>
        <time>2014-02-07T06:41:58.000Z</time>
      </trkpt>
      <trkpt lon="35.2390203718096" lat="31.242688531056046">
        <ele>445.79998779296875</ele>
        <time>2014-02-07T06:42:23.000Z</time>
      </trkpt>
      <trkpt lon="35.239024981856346" lat="31.242687944322824">
        <ele>442.3999938964844</ele>
        <time>2014-02-07T06:42:45.000Z</time>
      </trkpt>
      <trkpt lon="35.23903001099825" lat="31.242680735886097">
        <ele>440.3999938964844</ele>
        <time>2014-02-07T06:43:06.000Z</time>
      </trkpt>
      <trkpt lon="35.239061610773206" lat="31.24268484301865">
        <ele>435.20001220703125</ele>
        <time>2014-02-07T06:43:25.000Z</time>
      </trkpt>
      <trkpt lon="35.239073764532804" lat="31.242674784734845">
        <ele>430.79998779296875</ele>
        <time>2014-02-07T06:43:51.000Z</time>
      </trkpt>
      <trkpt lon="35.239066472277045" lat="31.242668414488435">
        <ele>429.3999938964844</ele>
        <time>2014-02-07T06:44:14.000Z</time>
      </trkpt>
      <trkpt lon="35.23906295187771" lat="31.24266824685037">
        <ele>428.0</ele>
        <time>2014-02-07T06:44:34.000Z</time>
      </trkpt>
      <trkpt lon="35.23907016031444" lat="31.242668917402625">
        <ele>428.0</ele>
        <time>2014-02-07T06:44:55.000Z</time>
      </trkpt>
      <trkpt lon="35.23906437680125" lat="31.242670426145196">
        <ele>427.3999938964844</ele>
        <time>2014-02-07T06:45:23.000Z</time>
      </trkpt>
      <trkpt lon="35.23906630463898" lat="31.24266774393618">
        <ele>428.0</ele>
        <time>2014-02-07T06:45:40.000Z</time>
      </trkpt>
      <trkpt lon="35.23907016031444" lat="31.242672856897116">
        <ele>428.0</ele>
        <time>2014-02-07T06:45:56.000Z</time>
      </trkpt>
      <trkpt lon="35.23905876092613" lat="31.242668330669403">
        <ele>428.0</ele>
        <time>2014-02-07T06:46:13.000Z</time>
      </trkpt>
      <trkpt lon="35.239066472277045" lat="31.242670929059386">
        <ele>428.79998779296875</ele>
        <time>2014-02-07T06:46:34.000Z</time>
      </trkpt>
      <trkpt lon="35.239063957706094" lat="31.242672773078084">
        <ele>428.79998779296875</ele>
        <time>2014-02-07T06:46:46.000Z</time>
      </trkpt>
      <trkpt lon="35.23905876092613" lat="31.242669001221657">
        <ele>428.79998779296875</ele>
        <time>2014-02-07T06:47:00.000Z</time>
      </trkpt>
      <trkpt lon="35.239068986848" lat="31.242677634581923">
        <ele>428.0</ele>
        <time>2014-02-07T06:47:17.000Z</time>
      </trkpt>
      <trkpt lon="35.239085080102086" lat="31.242681741714478">
        <ele>427.0</ele>
        <time>2014-02-07T06:47:29.000Z</time>
      </trkpt>
      <trkpt lon="35.23909748531878" lat="31.24265994876623">
        <ele>428.79998779296875</ele>
        <time>2014-02-07T06:47:39.000Z</time>
      </trkpt>
      <trkpt lon="35.23910712450743" lat="31.24261929653585">
        <ele>428.79998779296875</ele>
        <time>2014-02-07T06:47:47.000Z</time>
      </trkpt>
      <trkpt lon="35.23912690579891" lat="31.24257638119161">
        <ele>428.79998779296875</ele>
        <time>2014-02-07T06:47:55.000Z</time>
      </trkpt>
      <trkpt lon="35.23916303180158" lat="31.24254503287375">
        <ele>428.79998779296875</ele>
        <time>2014-02-07T06:48:03.000Z</time>
      </trkpt>
      <trkpt lon="35.23917183279991" lat="31.24252114444971">
        <ele>429.3999938964844</ele>
        <time>2014-02-07T06:48:09.000Z</time>
      </trkpt>
      <trkpt lon="35.23916479200125" lat="31.242483761161566">
        <ele>429.79998779296875</ele>
        <time>2014-02-07T06:48:16.000Z</time>
      </trkpt>
      <trkpt lon="35.23914341814816" lat="31.2424233276397">
        <ele>430.3999938964844</ele>
        <time>2014-02-07T06:48:25.000Z</time>
      </trkpt>
      <trkpt lon="35.239119697362185" lat="31.24241209588945">
        <ele>430.79998779296875</ele>
        <time>2014-02-07T06:48:33.000Z</time>
      </trkpt>
      <trkpt lon="35.23910083808005" lat="31.24238384887576">
        <ele>432.20001220703125</ele>
        <time>2014-02-07T06:48:40.000Z</time>
      </trkpt>
      <trkpt lon="35.239087510854006" lat="31.24240438453853">
        <ele>431.79998779296875</ele>
        <time>2014-02-07T06:48:46.000Z</time>
      </trkpt>
      <trkpt lon="35.23909321054816" lat="31.24241318553686">
        <ele>432.20001220703125</ele>
        <time>2014-02-07T06:48:52.000Z</time>
      </trkpt>
      <trkpt lon="35.23911056108773" lat="31.242400528863072">
        <ele>432.79998779296875</ele>
        <time>2014-02-07T06:48:59.000Z</time>
      </trkpt>
      <trkpt lon="35.23911936208606" lat="31.24238334596157">
        <ele>432.20001220703125</ele>
        <time>2014-02-07T06:49:06.000Z</time>
      </trkpt>
      <trkpt lon="35.239130426198244" lat="31.242382926866412">
        <ele>432.79998779296875</ele>
        <time>2014-02-07T06:49:15.000Z</time>
      </trkpt>
      <trkpt lon="35.23911994881928" lat="31.242383429780602">
        <ele>432.79998779296875</ele>
        <time>2014-02-07T06:49:45.000Z</time>
      </trkpt>
      <trkpt lon="35.2391242235899" lat="31.242383094504476">
        <ele>431.79998779296875</ele>
        <time>2014-02-07T06:50:09.000Z</time>
      </trkpt>
      <trkpt lon="35.2391205355525" lat="31.24237890355289">
        <ele>431.79998779296875</ele>
        <time>2014-02-07T06:50:33.000Z</time>
      </trkpt>
      <trkpt lon="35.23911508731544" lat="31.24238032847643">
        <ele>432.79998779296875</ele>
        <time>2014-02-07T06:51:06.000Z</time>
      </trkpt>
      <trkpt lon="35.23911760188639" lat="31.242381166666746">
        <ele>432.20001220703125</ele>
        <time>2014-02-07T06:51:32.000Z</time>
      </trkpt>
      <trkpt lon="35.23911324329674" lat="31.242380999028683">
        <ele>432.79998779296875</ele>
        <time>2014-02-07T06:52:01.000Z</time>
      </trkpt>
      <trkpt lon="35.23912598378956" lat="31.242381753399968">
        <ele>433.20001220703125</ele>
        <time>2014-02-07T06:52:23.000Z</time>
      </trkpt>
      <trkpt lon="35.239122714847326" lat="31.242387369275093">
        <ele>433.6000061035156</ele>
        <time>2014-02-07T06:52:47.000Z</time>
      </trkpt>
      <trkpt lon="35.239118188619614" lat="31.242385022342205">
        <ele>433.6000061035156</ele>
        <time>2014-02-07T06:53:09.000Z</time>
      </trkpt>
      <trkpt lon="35.23913319222629" lat="31.24238921329379">
        <ele>434.6000061035156</ele>
        <time>2014-02-07T06:53:37.000Z</time>
      </trkpt>
      <trkpt lon="35.239128498360515" lat="31.242380160838366">
        <ele>433.20001220703125</ele>
        <time>2014-02-07T06:54:05.000Z</time>
      </trkpt>
      <trkpt lon="35.23912975564599" lat="31.24238569289446">
        <ele>433.20001220703125</ele>
        <time>2014-02-07T06:54:25.000Z</time>
      </trkpt>
      <trkpt lon="35.23912522941828" lat="31.24238485470414">
        <ele>433.6000061035156</ele>
        <time>2014-02-07T06:54:50.000Z</time>
      </trkpt>
      <trkpt lon="35.23912003263831" lat="31.242376640439034">
        <ele>435.20001220703125</ele>
        <time>2014-02-07T06:55:23.000Z</time>
      </trkpt>
      <trkpt lon="35.239141657948494" lat="31.242375299334526">
        <ele>436.20001220703125</ele>
        <time>2014-02-07T06:55:41.000Z</time>
      </trkpt>
      <trkpt lon="35.239130929112434" lat="31.242367504164577">
        <ele>436.6000061035156</ele>
        <time>2014-02-07T06:55:55.000Z</time>
      </trkpt>
      <trkpt lon="35.23914241231978" lat="31.24236431904137">
        <ele>436.20001220703125</ele>
        <time>2014-02-07T06:56:15.000Z</time>
      </trkpt>
      <trkpt lon="35.2391395624727" lat="31.242371276021004">
        <ele>436.6000061035156</ele>
        <time>2014-02-07T06:56:31.000Z</time>
      </trkpt>
      <trkpt lon="35.23914475925267" lat="31.24236088246107">
        <ele>438.0</ele>
        <time>2014-02-07T06:56:52.000Z</time>
      </trkpt>
      <trkpt lon="35.23913302458823" lat="31.242365911602974">
        <ele>439.0</ele>
        <time>2014-02-07T06:57:14.000Z</time>
      </trkpt>
      <trkpt lon="35.23911936208606" lat="31.242370773106813">
        <ele>438.6000061035156</ele>
        <time>2014-02-07T06:57:25.000Z</time>
      </trkpt>
      <trkpt lon="35.239130929112434" lat="31.242376808077097">
        <ele>437.6000061035156</ele>
        <time>2014-02-07T06:57:54.000Z</time>
      </trkpt>
      <trkpt lon="35.239142999053" lat="31.24236918054521">
        <ele>438.0</ele>
        <time>2014-02-07T06:58:15.000Z</time>
      </trkpt>
      <trkpt lon="35.23914434015751" lat="31.242360547184944">
        <ele>438.6000061035156</ele>
        <time>2014-02-07T06:58:40.000Z</time>
      </trkpt>
      <trkpt lon="35.23913503624499" lat="31.242366833612323">
        <ele>438.0</ele>
        <time>2014-02-07T06:59:07.000Z</time>
      </trkpt>
      <trkpt lon="35.23914886638522" lat="31.24235501512885">
        <ele>439.0</ele>
        <time>2014-02-07T06:59:31.000Z</time>
      </trkpt>
      <trkpt lon="35.23915188387036" lat="31.242361133918166">
        <ele>440.3999938964844</ele>
        <time>2014-02-07T06:59:57.000Z</time>
      </trkpt>
      <trkpt lon="35.239142999053" lat="31.242353254929185">
        <ele>440.0</ele>
        <time>2014-02-07T07:00:27.000Z</time>
      </trkpt>
      <trkpt lon="35.23913746699691" lat="31.242359960451722">
        <ele>440.79998779296875</ele>
        <time>2014-02-07T07:00:53.000Z</time>
      </trkpt>
      <trkpt lon="35.239142244681716" lat="31.242360714823008">
        <ele>439.3999938964844</ele>
        <time>2014-02-07T07:01:20.000Z</time>
      </trkpt>
      <trkpt lon="35.23913319222629" lat="31.242361050099134">
        <ele>438.6000061035156</ele>
        <time>2014-02-07T07:01:42.000Z</time>
      </trkpt>
      <trkpt lon="35.23912497796118" lat="31.242361972108483">
        <ele>438.6000061035156</ele>
        <time>2014-02-07T07:02:10.000Z</time>
      </trkpt>
      <trkpt lon="35.23913025856018" lat="31.242364402860403">
        <ele>437.0</ele>
        <time>2014-02-07T07:02:38.000Z</time>
      </trkpt>
      <trkpt lon="35.23914308287203" lat="31.242371946573257">
        <ele>438.0</ele>
        <time>2014-02-07T07:03:08.000Z</time>
      </trkpt>
      <trkpt lon="35.23911751806736" lat="31.242383932694793">
        <ele>440.0</ele>
        <time>2014-02-07T07:03:39.000Z</time>
      </trkpt>
      <trkpt lon="35.23911768570542" lat="31.242377059534192">
        <ele>440.0</ele>
        <time>2014-02-07T07:04:01.000Z</time>
      </trkpt>
      <trkpt lon="35.23913604207337" lat="31.242381082847714">
        <ele>439.0</ele>
        <time>2014-02-07T07:04:27.000Z</time>
      </trkpt>
      <trkpt lon="35.23914685472846" lat="31.24237353913486">
        <ele>440.3999938964844</ele>
        <time>2014-02-07T07:04:58.000Z</time>
      </trkpt>
      <trkpt lon="35.23915037512779" lat="31.242365073412657">
        <ele>442.3999938964844</ele>
        <time>2014-02-07T07:05:26.000Z</time>
      </trkpt>
      <trkpt lon="35.239148614928126" lat="31.242377227172256">
        <ele>440.79998779296875</ele>
        <time>2014-02-07T07:06:01.000Z</time>
      </trkpt>
      <trkpt lon="35.23914962075651" lat="31.24238041229546">
        <ele>440.79998779296875</ele>
        <time>2014-02-07T07:06:28.000Z</time>
      </trkpt>
      <trkpt lon="35.23914727382362" lat="31.242374125868082">
        <ele>440.3999938964844</ele>
        <time>2014-02-07T07:06:57.000Z</time>
      </trkpt>
      <trkpt lon="35.239140735939145" lat="31.242370354011655">
        <ele>440.0</ele>
        <time>2014-02-07T07:07:27.000Z</time>
      </trkpt>
      <trkpt lon="35.239141238853335" lat="31.24237605370581">
        <ele>440.0</ele>
        <time>2014-02-07T07:07:58.000Z</time>
      </trkpt>
      <trkpt lon="35.23914962075651" lat="31.242374293506145">
        <ele>439.3999938964844</ele>
        <time>2014-02-07T07:08:26.000Z</time>
      </trkpt>
      <trkpt lon="35.239144088700414" lat="31.242374377325177">
        <ele>439.3999938964844</ele>
        <time>2014-02-07T07:08:51.000Z</time>
      </trkpt>
      <trkpt lon="35.23915163241327" lat="31.24237211421132">
        <ele>439.3999938964844</ele>
        <time>2014-02-07T07:09:18.000Z</time>
      </trkpt>
      <trkpt lon="35.23916261270642" lat="31.24237203039229">
        <ele>440.0</ele>
        <time>2014-02-07T07:09:51.000Z</time>
      </trkpt>
      <trkpt lon="35.23915280587971" lat="31.24237068928778">
        <ele>440.79998779296875</ele>
        <time>2014-02-07T07:10:20.000Z</time>
      </trkpt>
      <trkpt lon="35.239153476431966" lat="31.242378568276763">
        <ele>442.79998779296875</ele>
        <time>2014-02-07T07:10:49.000Z</time>
      </trkpt>
      <trkpt lon="35.239170994609594" lat="31.242359960451722">
        <ele>440.79998779296875</ele>
        <time>2014-02-07T07:11:17.000Z</time>
      </trkpt>
      <trkpt lon="35.239159259945154" lat="31.24236909672618">
        <ele>440.0</ele>
        <time>2014-02-07T07:11:43.000Z</time>
      </trkpt>
      <trkpt lon="35.23915607482195" lat="31.24236859381199">
        <ele>440.79998779296875</ele>
        <time>2014-02-07T07:12:04.000Z</time>
      </trkpt>
      <trkpt lon="35.23914727382362" lat="31.242365073412657">
        <ele>439.0</ele>
        <time>2014-02-07T07:12:32.000Z</time>
      </trkpt>
      <trkpt lon="35.23915138095617" lat="31.242368007078767">
        <ele>440.0</ele>
        <time>2014-02-07T07:12:58.000Z</time>
      </trkpt>
      <trkpt lon="35.239139813929796" lat="31.24237596988678">
        <ele>437.6000061035156</ele>
        <time>2014-02-07T07:13:21.000Z</time>
      </trkpt>
      <trkpt lon="35.239133946597576" lat="31.2423784006387">
        <ele>437.6000061035156</ele>
        <time>2014-02-07T07:13:54.000Z</time>
      </trkpt>
      <trkpt lon="35.23912631906569" lat="31.242364570498466">
        <ele>437.6000061035156</ele>
        <time>2014-02-07T07:14:14.000Z</time>
      </trkpt>
      <trkpt lon="35.23912497796118" lat="31.242374293506145">
        <ele>438.0</ele>
        <time>2014-02-07T07:14:38.000Z</time>
      </trkpt>
      <trkpt lon="35.23912833072245" lat="31.242379657924175">
        <ele>436.6000061035156</ele>
        <time>2014-02-07T07:15:02.000Z</time>
      </trkpt>
      <trkpt lon="35.239129923284054" lat="31.242380999028683">
        <ele>435.6000061035156</ele>
        <time>2014-02-07T07:15:31.000Z</time>
      </trkpt>
      <trkpt lon="35.23912447504699" lat="31.242369264364243">
        <ele>435.20001220703125</ele>
        <time>2014-02-07T07:15:54.000Z</time>
      </trkpt>
      <trkpt lon="35.23912623524666" lat="31.242381166666746">
        <ele>434.20001220703125</ele>
        <time>2014-02-07T07:16:19.000Z</time>
      </trkpt>
      <trkpt lon="35.23912975564599" lat="31.242373790591955">
        <ele>434.20001220703125</ele>
        <time>2014-02-07T07:16:42.000Z</time>
      </trkpt>
      <trkpt lon="35.23911005817354" lat="31.242388961836696">
        <ele>433.6000061035156</ele>
        <time>2014-02-07T07:17:13.000Z</time>
      </trkpt>
      <trkpt lon="35.2391242235899" lat="31.242388375103474">
        <ele>433.6000061035156</ele>
        <time>2014-02-07T07:17:33.000Z</time>
      </trkpt>
      <trkpt lon="35.239128079265356" lat="31.24239164404571">
        <ele>435.20001220703125</ele>
        <time>2014-02-07T07:17:55.000Z</time>
      </trkpt>
      <trkpt lon="35.23913604207337" lat="31.242391895502806">
        <ele>436.20001220703125</ele>
        <time>2014-02-07T07:18:17.000Z</time>
      </trkpt>
      <trkpt lon="35.23912933655083" lat="31.242385357618332">
        <ele>436.6000061035156</ele>
        <time>2014-02-07T07:18:46.000Z</time>
      </trkpt>
      <trkpt lon="35.23911357857287" lat="31.24236909672618">
        <ele>436.20001220703125</ele>
        <time>2014-02-07T07:19:19.000Z</time>
      </trkpt>
      <trkpt lon="35.23912439122796" lat="31.242389883846045">
        <ele>436.20001220703125</ele>
        <time>2014-02-07T07:19:54.000Z</time>
      </trkpt>
      <trkpt lon="35.23912028409541" lat="31.24237638898194">
        <ele>436.6000061035156</ele>
        <time>2014-02-07T07:20:24.000Z</time>
      </trkpt>
      <trkpt lon="35.23911785334349" lat="31.24238326214254">
        <ele>435.20001220703125</ele>
        <time>2014-02-07T07:20:51.000Z</time>
      </trkpt>
      <trkpt lon="35.23911961354315" lat="31.24238477088511">
        <ele>434.20001220703125</ele>
        <time>2014-02-07T07:21:22.000Z</time>
      </trkpt>
      <trkpt lon="35.239115841686726" lat="31.242387872189283">
        <ele>433.20001220703125</ele>
        <time>2014-02-07T07:21:50.000Z</time>
      </trkpt>
      <trkpt lon="35.2391189429909" lat="31.24238963238895">
        <ele>433.6000061035156</ele>
        <time>2014-02-07T07:22:11.000Z</time>
      </trkpt>
      <trkpt lon="35.23911952972412" lat="31.24238720163703">
        <ele>433.6000061035156</ele>
        <time>2014-02-07T07:22:45.000Z</time>
      </trkpt>
      <trkpt lon="35.239099748432636" lat="31.24237890355289">
        <ele>433.20001220703125</ele>
        <time>2014-02-07T07:23:13.000Z</time>
      </trkpt>
      <trkpt lon="35.239095725119114" lat="31.242380077019334">
        <ele>432.79998779296875</ele>
        <time>2014-02-07T07:23:36.000Z</time>
      </trkpt>
      <trkpt lon="35.239102095365524" lat="31.24237362295389">
        <ele>432.79998779296875</ele>
        <time>2014-02-07T07:24:03.000Z</time>
      </trkpt>
      <trkpt lon="35.239091366529465" lat="31.242379071190953">
        <ele>433.6000061035156</ele>
        <time>2014-02-07T07:24:31.000Z</time>
      </trkpt>
      <trkpt lon="35.239099161699414" lat="31.24237932264805">
        <ele>434.20001220703125</ele>
        <time>2014-02-07T07:25:00.000Z</time>
      </trkpt>
      <trkpt lon="35.23910536430776" lat="31.242381837219">
        <ele>433.6000061035156</ele>
        <time>2014-02-07T07:25:30.000Z</time>
      </trkpt>
      <trkpt lon="35.23909790441394" lat="31.242372952401638">
        <ele>435.6000061035156</ele>
        <time>2014-02-07T07:26:02.000Z</time>
      </trkpt>
      <trkpt lon="35.23910393938422" lat="31.242381082847714">
        <ele>434.6000061035156</ele>
        <time>2014-02-07T07:26:27.000Z</time>
      </trkpt>
      <trkpt lon="35.23910041898489" lat="31.24238133430481">
        <ele>435.20001220703125</ele>
        <time>2014-02-07T07:26:57.000Z</time>
      </trkpt>
      <trkpt lon="35.23909245617688" lat="31.24237890355289">
        <ele>436.20001220703125</ele>
        <time>2014-02-07T07:27:26.000Z</time>
      </trkpt>
      <trkpt lon="35.239101173356175" lat="31.242382675409317">
        <ele>435.20001220703125</ele>
        <time>2014-02-07T07:27:59.000Z</time>
      </trkpt>
      <trkpt lon="35.239109471440315" lat="31.24237932264805">
        <ele>435.6000061035156</ele>
        <time>2014-02-07T07:28:27.000Z</time>
      </trkpt>
      <trkpt lon="35.23910226300359" lat="31.242367336526513">
        <ele>435.20001220703125</ele>
        <time>2014-02-07T07:28:57.000Z</time>
      </trkpt>
      <trkpt lon="35.23910528048873" lat="31.242382004857063">
        <ele>434.6000061035156</ele>
        <time>2014-02-07T07:29:13.000Z</time>
      </trkpt>
      <trkpt lon="35.239105615764856" lat="31.242375802248716">
        <ele>436.20001220703125</ele>
        <time>2014-02-07T07:29:45.000Z</time>
      </trkpt>
      <trkpt lon="35.23910058662295" lat="31.242374880239367">
        <ele>436.6000061035156</ele>
        <time>2014-02-07T07:30:17.000Z</time>
      </trkpt>
      <trkpt lon="35.239099245518446" lat="31.242365911602974">
        <ele>438.0</ele>
        <time>2014-02-07T07:30:49.000Z</time>
      </trkpt>
      <trkpt lon="35.23910779505968" lat="31.24237890355289">
        <ele>437.6000061035156</ele>
        <time>2014-02-07T07:31:18.000Z</time>
      </trkpt>
      <trkpt lon="35.239105531945825" lat="31.24237253330648">
        <ele>438.0</ele>
        <time>2014-02-07T07:31:35.000Z</time>
      </trkpt>
      <trkpt lon="35.23918381892145" lat="31.242336658760905">
        <ele>436.6000061035156</ele>
        <time>2014-02-07T07:31:42.000Z</time>
      </trkpt>
      <trkpt lon="35.23936612531543" lat="31.24223087914288">
        <ele>432.79998779296875</ele>
        <time>2014-02-07T07:31:51.000Z</time>
      </trkpt>
      <trkpt lon="35.23942647501826" lat="31.242225263267756">
        <ele>430.3999938964844</ele>
        <time>2014-02-07T07:31:57.000Z</time>
      </trkpt>
      <trkpt lon="35.239420272409916" lat="31.242225095629692">
        <ele>428.79998779296875</ele>
        <time>2014-02-07T07:32:14.000Z</time>
      </trkpt>
      <trkpt lon="35.239425553008914" lat="31.24222358688712">
        <ele>424.6000061035156</ele>
        <time>2014-02-07T07:32:26.000Z</time>
      </trkpt>
      <trkpt lon="35.23942203260958" lat="31.2422142829746">
        <ele>427.0</ele>
        <time>2014-02-07T07:32:42.000Z</time>
      </trkpt>
      <trkpt lon="35.23941809311509" lat="31.242215540260077">
        <ele>427.0</ele>
        <time>2014-02-07T07:32:55.000Z</time>
      </trkpt>
      <trkpt lon="35.23942639119923" lat="31.242228113114834">
        <ele>425.6000061035156</ele>
        <time>2014-02-07T07:33:15.000Z</time>
      </trkpt>
      <trkpt lon="35.239411974325776" lat="31.24222400598228">
        <ele>425.6000061035156</ele>
        <time>2014-02-07T07:33:29.000Z</time>
      </trkpt>
      <trkpt lon="35.239483723416924" lat="31.242208583280444">
        <ele>425.0</ele>
        <time>2014-02-07T07:33:41.000Z</time>
      </trkpt>
      <trkpt lon="35.23962018080056" lat="31.24215804040432">
        <ele>424.0</ele>
        <time>2014-02-07T07:33:48.000Z</time>
      </trkpt>
      <trkpt lon="35.239764768630266" lat="31.242145048454404">
        <ele>422.20001220703125</ele>
        <time>2014-02-07T07:33:55.000Z</time>
      </trkpt>
      <trkpt lon="35.24000105448067" lat="31.24210288748145">
        <ele>417.3999938964844</ele>
        <time>2014-02-07T07:34:04.000Z</time>
      </trkpt>
      <trkpt lon="35.24023306556046" lat="31.242031892761588">
        <ele>414.3999938964844</ele>
        <time>2014-02-07T07:34:13.000Z</time>
      </trkpt>
      <trkpt lon="35.24046725593507" lat="31.241927705705166">
        <ele>411.20001220703125</ele>
        <time>2014-02-07T07:34:22.000Z</time>
      </trkpt>
      <trkpt lon="35.24063338525593" lat="31.241852017119527">
        <ele>407.20001220703125</ele>
        <time>2014-02-07T07:34:30.000Z</time>
      </trkpt>
      <trkpt lon="35.24075006134808" lat="31.24179652892053">
        <ele>406.20001220703125</ele>
        <time>2014-02-07T07:34:37.000Z</time>
      </trkpt>
      <trkpt lon="35.24087302386761" lat="31.2417602352798">
        <ele>404.79998779296875</ele>
        <time>2014-02-07T07:34:44.000Z</time>
      </trkpt>
      <trkpt lon="35.240873442962766" lat="31.241723438724875">
        <ele>403.79998779296875</ele>
        <time>2014-02-07T07:34:50.000Z</time>
      </trkpt>
      <trkpt lon="35.24088584817946" lat="31.24165864661336">
        <ele>403.3999938964844</ele>
        <time>2014-02-07T07:34:57.000Z</time>
      </trkpt>
      <trkpt lon="35.24093412794173" lat="31.241631656885147">
        <ele>403.0</ele>
        <time>2014-02-07T07:35:04.000Z</time>
      </trkpt>
      <trkpt lon="35.24095223285258" lat="31.241628136485815">
        <ele>402.3999938964844</ele>
        <time>2014-02-07T07:35:06.000Z</time>
      </trkpt>
      <trkpt lon="35.241008726879954" lat="31.241598213091493">
        <ele>401.0</ele>
        <time>2014-02-07T07:35:12.000Z</time>
      </trkpt>
      <trkpt lon="35.24117426946759" lat="31.241515399888158">
        <ele>399.6000061035156</ele>
        <time>2014-02-07T07:35:19.000Z</time>
      </trkpt>
      <trkpt lon="35.24132665246725" lat="31.24146862886846">
        <ele>396.6000061035156</ele>
        <time>2014-02-07T07:35:25.000Z</time>
      </trkpt>
      <trkpt lon="35.24145271629095" lat="31.241466449573636">
        <ele>393.3999938964844</ele>
        <time>2014-02-07T07:35:31.000Z</time>
      </trkpt>
      <trkpt lon="35.24147576652467" lat="31.241484554484487">
        <ele>392.3999938964844</ele>
        <time>2014-02-07T07:35:37.000Z</time>
      </trkpt>
      <trkpt lon="35.24151910096407" lat="31.2414666172117">
        <ele>391.0</ele>
        <time>2014-02-07T07:35:44.000Z</time>
      </trkpt>
      <trkpt lon="35.24157517589629" lat="31.24144264496863">
        <ele>391.3999938964844</ele>
        <time>2014-02-07T07:35:52.000Z</time>
      </trkpt>
      <trkpt lon="35.24159931577742" lat="31.24145731329918">
        <ele>390.3999938964844</ele>
        <time>2014-02-07T07:36:00.000Z</time>
      </trkpt>
      <trkpt lon="35.2416833024472" lat="31.24144717119634">
        <ele>388.0</ele>
        <time>2014-02-07T07:36:08.000Z</time>
      </trkpt>
      <trkpt lon="35.241712890565395" lat="31.241465276107192">
        <ele>386.6000061035156</ele>
        <time>2014-02-07T07:36:15.000Z</time>
      </trkpt>
      <trkpt lon="35.241778856143355" lat="31.24147198162973">
        <ele>384.20001220703125</ele>
        <time>2014-02-07T07:36:22.000Z</time>
      </trkpt>
      <trkpt lon="35.24193450808525" lat="31.24148522503674">
        <ele>379.79998779296875</ele>
        <time>2014-02-07T07:36:29.000Z</time>
      </trkpt>
      <trkpt lon="35.242145732045174" lat="31.24150374904275">
        <ele>376.0</ele>
        <time>2014-02-07T07:36:37.000Z</time>
      </trkpt>
      <trkpt lon="35.242291409522295" lat="31.241530906409025">
        <ele>373.6000061035156</ele>
        <time>2014-02-07T07:36:43.000Z</time>
      </trkpt>
      <trkpt lon="35.24246525019407" lat="31.24153652228415">
        <ele>368.79998779296875</ele>
        <time>2014-02-07T07:36:50.000Z</time>
      </trkpt>
      <trkpt lon="35.24258251301944" lat="31.241549598053098">
        <ele>366.79998779296875</ele>
        <time>2014-02-07T07:36:56.000Z</time>
      </trkpt>
      <trkpt lon="35.242583099752665" lat="31.241540797054768">
        <ele>366.0</ele>
        <time>2014-02-07T07:37:02.000Z</time>
      </trkpt>
      <trkpt lon="35.242642778903246" lat="31.241570468991995">
        <ele>365.3999938964844</ele>
        <time>2014-02-07T07:37:10.000Z</time>
      </trkpt>
      <trkpt lon="35.242690136656165" lat="31.24158823862672">
        <ele>364.0</ele>
        <time>2014-02-07T07:37:17.000Z</time>
      </trkpt>
      <trkpt lon="35.24273866787553" lat="31.24155412428081">
        <ele>363.0</ele>
        <time>2014-02-07T07:37:24.000Z</time>
      </trkpt>
      <trkpt lon="35.24277722463012" lat="31.241571055725217">
        <ele>362.0</ele>
        <time>2014-02-07T07:37:33.000Z</time>
      </trkpt>
      <trkpt lon="35.24278753437102" lat="31.241589412093163">
        <ele>362.0</ele>
        <time>2014-02-07T07:37:37.000Z</time>
      </trkpt>
      <trkpt lon="35.24293723516166" lat="31.241651438176632">
        <ele>359.20001220703125</ele>
        <time>2014-02-07T07:37:45.000Z</time>
      </trkpt>
      <trkpt lon="35.24304661899805" lat="31.241705417633057">
        <ele>357.20001220703125</ele>
        <time>2014-02-07T07:37:50.000Z</time>
      </trkpt>
      <trkpt lon="35.2430493850261" lat="31.241672225296497">
        <ele>357.20001220703125</ele>
        <time>2014-02-07T07:37:55.000Z</time>
      </trkpt>
      <trkpt lon="35.24307302199304" lat="31.24163123778999">
        <ele>357.20001220703125</ele>
        <time>2014-02-07T07:38:04.000Z</time>
      </trkpt>
      <trkpt lon="35.243118619546294" lat="31.241570133715868">
        <ele>356.3999938964844</ele>
        <time>2014-02-07T07:38:11.000Z</time>
      </trkpt>
      <trkpt lon="35.24315306916833" lat="31.241560243070126">
        <ele>355.79998779296875</ele>
        <time>2014-02-07T07:38:20.000Z</time>
      </trkpt>
      <trkpt lon="35.243172431364655" lat="31.241565439850092">
        <ele>355.79998779296875</ele>
        <time>2014-02-07T07:38:29.000Z</time>
      </trkpt>
      <trkpt lon="35.243182657286525" lat="31.241570888087153">
        <ele>355.3999938964844</ele>
        <time>2014-02-07T07:38:36.000Z</time>
      </trkpt>
      <trkpt lon="35.243211993947625" lat="31.241539791226387">
        <ele>353.79998779296875</ele>
        <time>2014-02-07T07:38:44.000Z</time>
      </trkpt>
      <trkpt lon="35.24326488375664" lat="31.241532750427723">
        <ele>352.3999938964844</ele>
        <time>2014-02-07T07:38:50.000Z</time>
      </trkpt>
      <trkpt lon="35.24336856789887" lat="31.24152327887714">
        <ele>350.6000061035156</ele>
        <time>2014-02-07T07:39:01.000Z</time>
      </trkpt>
      <trkpt lon="35.2434619423002" lat="31.24150819145143">
        <ele>348.20001220703125</ele>
        <time>2014-02-07T07:39:12.000Z</time>
      </trkpt>
      <trkpt lon="35.24352497421205" lat="31.241500228643417">
        <ele>345.20001220703125</ele>
        <time>2014-02-07T07:39:22.000Z</time>
      </trkpt>
      <trkpt lon="35.24354634806514" lat="31.241487991064787">
        <ele>345.20001220703125</ele>
        <time>2014-02-07T07:39:24.000Z</time>
      </trkpt>
      <trkpt lon="35.24364232085645" lat="31.241425462067127">
        <ele>343.3999938964844</ele>
        <time>2014-02-07T07:39:33.000Z</time>
      </trkpt>
      <trkpt lon="35.24371499195695" lat="31.24139780178666">
        <ele>342.79998779296875</ele>
        <time>2014-02-07T07:39:42.000Z</time>
      </trkpt>
      <trkpt lon="35.24374516680837" lat="31.24138112179935">
        <ele>344.79998779296875</ele>
        <time>2014-02-07T07:39:49.000Z</time>
      </trkpt>
      <trkpt lon="35.243731336668134" lat="31.24135329388082">
        <ele>344.20001220703125</ele>
        <time>2014-02-07T07:39:53.000Z</time>
      </trkpt>
      <trkpt lon="35.24362471885979" lat="31.241308031603694">
        <ele>343.3999938964844</ele>
        <time>2014-02-07T07:40:04.000Z</time>
      </trkpt>
      <trkpt lon="35.243672328069806" lat="31.24128196388483">
        <ele>344.79998779296875</ele>
        <time>2014-02-07T07:40:12.000Z</time>
      </trkpt>
      <trkpt lon="35.24369646795094" lat="31.241267463192344">
        <ele>345.79998779296875</ele>
        <time>2014-02-07T07:40:18.000Z</time>
      </trkpt>
      <trkpt lon="35.24373862892389" lat="31.241265116259456">
        <ele>347.20001220703125</ele>
        <time>2014-02-07T07:40:26.000Z</time>
      </trkpt>
      <trkpt lon="35.243832506239414" lat="31.24123846180737">
        <ele>349.6000061035156</ele>
        <time>2014-02-07T07:40:37.000Z</time>
      </trkpt>
      <trkpt lon="35.24389042519033" lat="31.241239048540592">
        <ele>351.0</ele>
        <time>2014-02-07T07:40:45.000Z</time>
      </trkpt>
      <trkpt lon="35.243962006643414" lat="31.241213819012046">
        <ele>353.0</ele>
        <time>2014-02-07T07:40:55.000Z</time>
      </trkpt>
      <trkpt lon="35.24401749484241" lat="31.241181129589677">
        <ele>353.3999938964844</ele>
        <time>2014-02-07T07:41:04.000Z</time>
      </trkpt>
      <trkpt lon="35.24406208656728" lat="31.241147266700864">
        <ele>353.79998779296875</ele>
        <time>2014-02-07T07:41:13.000Z</time>
      </trkpt>
      <trkpt lon="35.2440801076591" lat="31.241155145689845">
        <ele>353.3999938964844</ele>
        <time>2014-02-07T07:41:20.000Z</time>
      </trkpt>
      <trkpt lon="35.24408672936261" lat="31.241156989708543">
        <ele>353.0</ele>
        <time>2014-02-07T07:41:23.000Z</time>
      </trkpt>
      <trkpt lon="35.2442841231823" lat="31.24114324338734">
        <ele>352.0</ele>
        <time>2014-02-07T07:41:32.000Z</time>
      </trkpt>
      <trkpt lon="35.24453893303871" lat="31.24113435856998">
        <ele>351.0</ele>
        <time>2014-02-07T07:41:40.000Z</time>
      </trkpt>
      <trkpt lon="35.24464387446642" lat="31.241122875362635">
        <ele>350.0</ele>
        <time>2014-02-07T07:41:43.000Z</time>
      </trkpt>
      <trkpt lon="35.244704307988286" lat="31.241132263094187">
        <ele>349.6000061035156</ele>
        <time>2014-02-07T07:41:44.000Z</time>
      </trkpt>
      <trkpt lon="35.24476172402501" lat="31.241148356348276">
        <ele>349.20001220703125</ele>
        <time>2014-02-07T07:41:45.000Z</time>
      </trkpt>
      <trkpt lon="35.244811261072755" lat="31.24116654507816">
        <ele>349.20001220703125</ele>
        <time>2014-02-07T07:41:46.000Z</time>
      </trkpt>
      <trkpt lon="35.244858199730515" lat="31.24118624255061">
        <ele>349.20001220703125</ele>
        <time>2014-02-07T07:41:47.000Z</time>
      </trkpt>
      <trkpt lon="35.24511502124369" lat="31.24123804271221">
        <ele>348.6000061035156</ele>
        <time>2014-02-07T07:41:53.000Z</time>
      </trkpt>
      <trkpt lon="35.245342338457704" lat="31.24128590337932">
        <ele>348.6000061035156</ele>
        <time>2014-02-07T07:41:59.000Z</time>
      </trkpt>
      <trkpt lon="35.245558340102434" lat="31.241414984688163">
        <ele>348.20001220703125</ele>
        <time>2014-02-07T07:42:05.000Z</time>
      </trkpt>
      <trkpt lon="35.24575950577855" lat="31.24151749536395">
        <ele>349.20001220703125</ele>
        <time>2014-02-07T07:42:11.000Z</time>
      </trkpt>
      <trkpt lon="35.245909206569195" lat="31.24164456501603">
        <ele>349.20001220703125</ele>
        <time>2014-02-07T07:42:18.000Z</time>
      </trkpt>
      <trkpt lon="35.245973663404584" lat="31.241753865033388">
        <ele>348.20001220703125</ele>
        <time>2014-02-07T07:42:24.000Z</time>
      </trkpt>
      <trkpt lon="35.24596997536719" lat="31.241760402917862">
        <ele>347.6000061035156</ele>
        <time>2014-02-07T07:42:31.000Z</time>
      </trkpt>
      <trkpt lon="35.2459726575762" lat="31.241727797314525">
        <ele>347.20001220703125</ele>
        <time>2014-02-07T07:42:51.000Z</time>
      </trkpt>
      <trkpt lon="35.245983973145485" lat="31.24175545759499">
        <ele>346.6000061035156</ele>
        <time>2014-02-07T07:42:59.000Z</time>
      </trkpt>
      <trkpt lon="35.24602429009974" lat="31.24177498742938">
        <ele>346.6000061035156</ele>
        <time>2014-02-07T07:43:03.000Z</time>
      </trkpt>
      <trkpt lon="35.246087070554495" lat="31.241797115653753">
        <ele>344.79998779296875</ele>
        <time>2014-02-07T07:43:08.000Z</time>
      </trkpt>
      <trkpt lon="35.24612939916551" lat="31.241868948563933">
        <ele>345.20001220703125</ele>
        <time>2014-02-07T07:43:17.000Z</time>
      </trkpt>
      <trkpt lon="35.2461592387408" lat="31.24190834350884">
        <ele>346.20001220703125</ele>
        <time>2014-02-07T07:43:24.000Z</time>
      </trkpt>
      <trkpt lon="35.24629754014313" lat="31.241955030709505">
        <ele>345.79998779296875</ele>
        <time>2014-02-07T07:43:30.000Z</time>
      </trkpt>
      <trkpt lon="35.2464459836483" lat="31.241953102871776">
        <ele>346.20001220703125</ele>
        <time>2014-02-07T07:43:36.000Z</time>
      </trkpt>
      <trkpt lon="35.24656458757818" lat="31.242013787850738">
        <ele>346.20001220703125</ele>
        <time>2014-02-07T07:43:43.000Z</time>
      </trkpt>
      <trkpt lon="35.24676952511072" lat="31.242043375968933">
        <ele>347.6000061035156</ele>
        <time>2014-02-07T07:43:51.000Z</time>
      </trkpt>
      <trkpt lon="35.2467895578593" lat="31.242043375968933">
        <ele>347.6000061035156</ele>
        <time>2014-02-07T07:43:52.000Z</time>
      </trkpt>
      <trkpt lon="35.24681193754077" lat="31.241958970203996">
        <ele>348.20001220703125</ele>
        <time>2014-02-07T07:43:58.000Z</time>
      </trkpt>
      <trkpt lon="35.246844962239265" lat="31.241930639371276">
        <ele>348.20001220703125</ele>
        <time>2014-02-07T07:44:00.000Z</time>
      </trkpt>
      <trkpt lon="35.24687346071005" lat="31.24191764742136">
        <ele>347.6000061035156</ele>
        <time>2014-02-07T07:44:01.000Z</time>
      </trkpt>
      <trkpt lon="35.24690120480955" lat="31.241906667128205">
        <ele>347.6000061035156</ele>
        <time>2014-02-07T07:44:02.000Z</time>
      </trkpt>
      <trkpt lon="35.24693020619452" lat="31.241899291053414">
        <ele>347.6000061035156</ele>
        <time>2014-02-07T07:44:03.000Z</time>
      </trkpt>
      <trkpt lon="35.246968595311046" lat="31.241898285225034">
        <ele>347.20001220703125</ele>
        <time>2014-02-07T07:44:04.000Z</time>
      </trkpt>
      <trkpt lon="35.2470020391047" lat="31.24190842732787">
        <ele>347.6000061035156</ele>
        <time>2014-02-07T07:44:05.000Z</time>
      </trkpt>
      <trkpt lon="35.24701729416847" lat="31.241924688220024">
        <ele>347.6000061035156</ele>
        <time>2014-02-07T07:44:06.000Z</time>
      </trkpt>
      <trkpt lon="35.2470329683274" lat="31.24195327050984">
        <ele>347.6000061035156</ele>
        <time>2014-02-07T07:44:11.000Z</time>
      </trkpt>
      <trkpt lon="35.24704176932573" lat="31.24196307733655">
        <ele>348.20001220703125</ele>
        <time>2014-02-07T07:44:12.000Z</time>
      </trkpt>
      <trkpt lon="35.247109830379486" lat="31.242076233029366">
        <ele>348.20001220703125</ele>
        <time>2014-02-07T07:44:18.000Z</time>
      </trkpt>
      <trkpt lon="35.24715190753341" lat="31.242162063717842">
        <ele>348.20001220703125</ele>
        <time>2014-02-07T07:44:24.000Z</time>
      </trkpt>
      <trkpt lon="35.247281324118376" lat="31.24228360131383">
        <ele>348.6000061035156</ele>
        <time>2014-02-07T07:44:31.000Z</time>
      </trkpt>
      <trkpt lon="35.24739540182054" lat="31.242382591590285">
        <ele>348.20001220703125</ele>
        <time>2014-02-07T07:44:38.000Z</time>
      </trkpt>
      <trkpt lon="35.24753713980317" lat="31.24249038286507">
        <ele>345.79998779296875</ele>
        <time>2014-02-07T07:44:46.000Z</time>
      </trkpt>
      <trkpt lon="35.24771156720817" lat="31.242517288774252">
        <ele>346.20001220703125</ele>
        <time>2014-02-07T07:44:53.000Z</time>
      </trkpt>
      <trkpt lon="35.24774425663054" lat="31.242514019832015">
        <ele>346.20001220703125</ele>
        <time>2014-02-07T07:44:59.000Z</time>
      </trkpt>
      <trkpt lon="35.24776236154139" lat="31.24250111170113">
        <ele>345.20001220703125</ele>
        <time>2014-02-07T07:45:07.000Z</time>
      </trkpt>
      <trkpt lon="35.24787534959614" lat="31.242522737011313">
        <ele>346.20001220703125</ele>
        <time>2014-02-07T07:45:13.000Z</time>
      </trkpt>
      <trkpt lon="35.24799479171634" lat="31.242555510252714">
        <ele>345.79998779296875</ele>
        <time>2014-02-07T07:45:19.000Z</time>
      </trkpt>
      <trkpt lon="35.24801842868328" lat="31.242562048137188">
        <ele>345.20001220703125</ele>
        <time>2014-02-07T07:45:24.000Z</time>
      </trkpt>
      <trkpt lon="35.24808154441416" lat="31.24255039729178">
        <ele>345.20001220703125</ele>
        <time>2014-02-07T07:45:31.000Z</time>
      </trkpt>
      <trkpt lon="35.24815027602017" lat="31.242520725354552">
        <ele>344.20001220703125</ele>
        <time>2014-02-07T07:45:39.000Z</time>
      </trkpt>
      <trkpt lon="35.24820844642818" lat="31.242479737848043">
        <ele>343.3999938964844</ele>
        <time>2014-02-07T07:45:47.000Z</time>
      </trkpt>
      <trkpt lon="35.248250272125006" lat="31.24245995655656">
        <ele>342.79998779296875</ele>
        <time>2014-02-07T07:45:53.000Z</time>
      </trkpt>
      <trkpt lon="35.24827005341649" lat="31.242471942678094">
        <ele>342.79998779296875</ele>
        <time>2014-02-07T07:45:56.000Z</time>
      </trkpt>
      <trkpt lon="35.248293690383434" lat="31.242492981255054">
        <ele>342.79998779296875</ele>
        <time>2014-02-07T07:45:58.000Z</time>
      </trkpt>
      <trkpt lon="35.24833291769028" lat="31.24256171286106">
        <ele>342.3999938964844</ele>
        <time>2014-02-07T07:46:06.000Z</time>
      </trkpt>
      <trkpt lon="35.24841254577041" lat="31.24266724102199">
        <ele>343.3999938964844</ele>
        <time>2014-02-07T07:46:17.000Z</time>
      </trkpt>
      <trkpt lon="35.248427633196115" lat="31.242670845240355">
        <ele>343.79998779296875</ele>
        <time>2014-02-07T07:46:18.000Z</time>
      </trkpt>
      <trkpt lon="35.24843920022249" lat="31.242671012878418">
        <ele>343.79998779296875</ele>
        <time>2014-02-07T07:46:19.000Z</time>
      </trkpt>
      <trkpt lon="35.248486725613475" lat="31.24267009086907">
        <ele>345.20001220703125</ele>
        <time>2014-02-07T07:46:25.000Z</time>
      </trkpt>
      <trkpt lon="35.24862385354936" lat="31.242629438638687">
        <ele>345.20001220703125</ele>
        <time>2014-02-07T07:46:32.000Z</time>
      </trkpt>
      <trkpt lon="35.24868688546121" lat="31.24260370619595">
        <ele>344.79998779296875</ele>
        <time>2014-02-07T07:46:34.000Z</time>
      </trkpt>
      <trkpt lon="35.248721335083246" lat="31.242604879662395">
        <ele>345.20001220703125</ele>
        <time>2014-02-07T07:46:35.000Z</time>
      </trkpt>
      <trkpt lon="35.248878076672554" lat="31.242646872997284">
        <ele>346.20001220703125</ele>
        <time>2014-02-07T07:46:42.000Z</time>
      </trkpt>
      <trkpt lon="35.24918418377638" lat="31.242720717564225">
        <ele>346.6000061035156</ele>
        <time>2014-02-07T07:46:50.000Z</time>
      </trkpt>
      <trkpt lon="35.24944670498371" lat="31.24282062985003">
        <ele>346.6000061035156</ele>
        <time>2014-02-07T07:46:57.000Z</time>
      </trkpt>
      <trkpt lon="35.24969095364213" lat="31.242801938205957">
        <ele>346.20001220703125</ele>
        <time>2014-02-07T07:47:04.000Z</time>
      </trkpt>
      <trkpt lon="35.24984886869788" lat="31.242740750312805">
        <ele>345.79998779296875</ele>
        <time>2014-02-07T07:47:10.000Z</time>
      </trkpt>
      <trkpt lon="35.24991634301841" lat="31.24274200759828">
        <ele>345.79998779296875</ele>
        <time>2014-02-07T07:47:12.000Z</time>
      </trkpt>
      <trkpt lon="35.24996118620038" lat="31.24276061542332">
        <ele>345.20001220703125</ele>
        <time>2014-02-07T07:47:13.000Z</time>
      </trkpt>
      <trkpt lon="35.24999764747918" lat="31.242789113894105">
        <ele>345.20001220703125</ele>
        <time>2014-02-07T07:47:14.000Z</time>
      </trkpt>
      <trkpt lon="35.25009755976498" lat="31.242874525487423">
        <ele>346.20001220703125</ele>
        <time>2014-02-07T07:47:19.000Z</time>
      </trkpt>
      <trkpt lon="35.25024885311723" lat="31.24293495900929">
        <ele>347.20001220703125</ele>
        <time>2014-02-07T07:47:24.000Z</time>
      </trkpt>
      <trkpt lon="35.25042252615094" lat="31.24298483133316">
        <ele>349.20001220703125</ele>
        <time>2014-02-07T07:47:32.000Z</time>
      </trkpt>
      <trkpt lon="35.2506232727319" lat="31.242989022284746">
        <ele>349.6000061035156</ele>
        <time>2014-02-07T07:47:39.000Z</time>
      </trkpt>
      <trkpt lon="35.250847740098834" lat="31.243009474128485">
        <ele>349.20001220703125</ele>
        <time>2014-02-07T07:47:47.000Z</time>
      </trkpt>
      <trkpt lon="35.250919153913856" lat="31.24301274307072">
        <ele>349.20001220703125</ele>
        <time>2014-02-07T07:47:53.000Z</time>
      </trkpt>
      <trkpt lon="35.25099216029048" lat="31.24299799092114">
        <ele>349.20001220703125</ele>
        <time>2014-02-07T07:48:00.000Z</time>
      </trkpt>
      <trkpt lon="35.251114116981626" lat="31.243030093610287">
        <ele>349.6000061035156</ele>
        <time>2014-02-07T07:48:05.000Z</time>
      </trkpt>
      <trkpt lon="35.25119776837528" lat="31.243073847144842">
        <ele>351.0</ele>
        <time>2014-02-07T07:48:11.000Z</time>
      </trkpt>
      <trkpt lon="35.25125694461167" lat="31.243112068623304">
        <ele>353.79998779296875</ele>
        <time>2014-02-07T07:48:20.000Z</time>
      </trkpt>
      <trkpt lon="35.251338416710496" lat="31.243146853521466">
        <ele>355.3999938964844</ele>
        <time>2014-02-07T07:48:29.000Z</time>
      </trkpt>
      <trkpt lon="35.25141871534288" lat="31.243175016716123">
        <ele>356.79998779296875</ele>
        <time>2014-02-07T07:48:38.000Z</time>
      </trkpt>
      <trkpt lon="35.25148778222501" lat="31.243176022544503">
        <ele>357.20001220703125</ele>
        <time>2014-02-07T07:48:48.000Z</time>
      </trkpt>
      <trkpt lon="35.25150664150715" lat="31.24316747300327">
        <ele>357.20001220703125</ele>
        <time>2014-02-07T07:48:58.000Z</time>
      </trkpt>
      <trkpt lon="35.251540672034025" lat="31.24316898174584">
        <ele>357.20001220703125</ele>
        <time>2014-02-07T07:49:01.000Z</time>
      </trkpt>
      <trkpt lon="35.251561626791954" lat="31.24316663481295">
        <ele>356.79998779296875</ele>
        <time>2014-02-07T07:49:02.000Z</time>
      </trkpt>
      <trkpt lon="35.251580234616995" lat="31.243158085271716">
        <ele>356.3999938964844</ele>
        <time>2014-02-07T07:49:03.000Z</time>
      </trkpt>
      <trkpt lon="35.25178475305438" lat="31.24308105558157">
        <ele>357.20001220703125</ele>
        <time>2014-02-07T07:49:10.000Z</time>
      </trkpt>
      <trkpt lon="35.25192640721798" lat="31.24300050549209">
        <ele>359.20001220703125</ele>
        <time>2014-02-07T07:49:16.000Z</time>
      </trkpt>
      <trkpt lon="35.25210770778358" lat="31.242967564612627">
        <ele>359.20001220703125</ele>
        <time>2014-02-07T07:49:22.000Z</time>
      </trkpt>
      <trkpt lon="35.252281883731484" lat="31.24286999925971">
        <ele>359.6000061035156</ele>
        <time>2014-02-07T07:49:30.000Z</time>
      </trkpt>
      <trkpt lon="35.2524796128273" lat="31.24273211695254">
        <ele>358.79998779296875</ele>
        <time>2014-02-07T07:49:38.000Z</time>
      </trkpt>
      <trkpt lon="35.25264314375818" lat="31.242676209658384">
        <ele>358.20001220703125</ele>
        <time>2014-02-07T07:49:44.000Z</time>
      </trkpt>
      <trkpt lon="35.25282075628638" lat="31.242627426981926">
        <ele>356.3999938964844</ele>
        <time>2014-02-07T07:49:49.000Z</time>
      </trkpt>
      <trkpt lon="35.25300532579422" lat="31.24260219745338">
        <ele>354.3999938964844</ele>
        <time>2014-02-07T07:49:56.000Z</time>
      </trkpt>
      <trkpt lon="35.25318168103695" lat="31.24259289354086">
        <ele>353.3999938964844</ele>
        <time>2014-02-07T07:50:02.000Z</time>
      </trkpt>
      <trkpt lon="35.253372956067324" lat="31.242581913247705">
        <ele>353.3999938964844</ele>
        <time>2014-02-07T07:50:08.000Z</time>
      </trkpt>
      <trkpt lon="35.25350094772875" lat="31.242523742839694">
        <ele>353.3999938964844</ele>
        <time>2014-02-07T07:50:15.000Z</time>
      </trkpt>
      <trkpt lon="35.25371083058417" lat="31.242507146671414">
        <ele>350.0</ele>
        <time>2014-02-07T07:50:23.000Z</time>
      </trkpt>
      <trkpt lon="35.253893891349435" lat="31.242403462529182">
        <ele>347.6000061035156</ele>
        <time>2014-02-07T07:50:30.000Z</time>
      </trkpt>
      <trkpt lon="35.254120035097" lat="31.24237102456391">
        <ele>345.79998779296875</ele>
        <time>2014-02-07T07:50:37.000Z</time>
      </trkpt>
      <trkpt lon="35.254278955981135" lat="31.242339592427015">
        <ele>344.20001220703125</ele>
        <time>2014-02-07T07:50:43.000Z</time>
      </trkpt>
      <trkpt lon="35.2542981505394" lat="31.242346884682775">
        <ele>344.20001220703125</ele>
        <time>2014-02-07T07:50:44.000Z</time>
      </trkpt>
      <trkpt lon="35.25431432761252" lat="31.242359038442373">
        <ele>343.79998779296875</ele>
        <time>2014-02-07T07:50:45.000Z</time>
      </trkpt>
      <trkpt lon="35.25434022769332" lat="31.242422992363572">
        <ele>342.3999938964844</ele>
        <time>2014-02-07T07:50:49.000Z</time>
      </trkpt>
      <trkpt lon="35.25435531511903" lat="31.242428021505475">
        <ele>341.3999938964844</ele>
        <time>2014-02-07T07:50:50.000Z</time>
      </trkpt>
      <trkpt lon="35.25437434203923" lat="31.242426093667746">
        <ele>341.0</ele>
        <time>2014-02-07T07:50:51.000Z</time>
      </trkpt>
      <trkpt lon="35.25438951328397" lat="31.242416873574257">
        <ele>341.0</ele>
        <time>2014-02-07T07:50:52.000Z</time>
      </trkpt>
      <trkpt lon="35.25440317578614" lat="31.24240522272885">
        <ele>341.0</ele>
        <time>2014-02-07T07:50:53.000Z</time>
      </trkpt>
      <trkpt lon="35.25440778583288" lat="31.24239156022668">
        <ele>341.0</ele>
        <time>2014-02-07T07:50:54.000Z</time>
      </trkpt>
      <trkpt lon="35.25440275669098" lat="31.242372868582606">
        <ele>341.0</ele>
        <time>2014-02-07T07:50:55.000Z</time>
      </trkpt>
      <trkpt lon="35.254394710063934" lat="31.242357026785612">
        <ele>340.3999938964844</ele>
        <time>2014-02-07T07:50:56.000Z</time>
      </trkpt>
      <trkpt lon="35.25438716635108" lat="31.242339005693793">
        <ele>340.3999938964844</ele>
        <time>2014-02-07T07:50:57.000Z</time>
      </trkpt>
      <trkpt lon="35.254383478313684" lat="31.242324337363243">
        <ele>340.3999938964844</ele>
        <time>2014-02-07T07:50:58.000Z</time>
      </trkpt>
      <trkpt lon="35.25437450967729" lat="31.242305394262075">
        <ele>340.3999938964844</ele>
        <time>2014-02-07T07:50:59.000Z</time>
      </trkpt>
      <trkpt lon="35.25436604395509" lat="31.24228502623737">
        <ele>340.3999938964844</ele>
        <time>2014-02-07T07:51:00.000Z</time>
      </trkpt>
      <trkpt lon="35.25435992516577" lat="31.24226155690849">
        <ele>340.3999938964844</ele>
        <time>2014-02-07T07:51:01.000Z</time>
      </trkpt>
      <trkpt lon="35.254355147480965" lat="31.24224211089313">
        <ele>340.0</ele>
        <time>2014-02-07T07:51:02.000Z</time>
      </trkpt>
      <trkpt lon="35.25434156879783" lat="31.242101714015007">
        <ele>337.6000061035156</ele>
        <time>2014-02-07T07:51:09.000Z</time>
      </trkpt>
      <trkpt lon="35.254334192723036" lat="31.24193910509348">
        <ele>334.6000061035156</ele>
        <time>2014-02-07T07:51:15.000Z</time>
      </trkpt>
      <trkpt lon="35.25430267676711" lat="31.241745483130217">
        <ele>330.79998779296875</ele>
        <time>2014-02-07T07:51:21.000Z</time>
      </trkpt>
      <trkpt lon="35.25433553382754" lat="31.241611121222377">
        <ele>329.3999938964844</ele>
        <time>2014-02-07T07:51:25.000Z</time>
      </trkpt>
      <trkpt lon="35.25433989241719" lat="31.241568624973297">
        <ele>328.3999938964844</ele>
        <time>2014-02-07T07:51:26.000Z</time>
      </trkpt>
      <trkpt lon="35.254368307068944" lat="31.241314401850104">
        <ele>325.0</ele>
        <time>2014-02-07T07:51:31.000Z</time>
      </trkpt>
      <trkpt lon="35.2543946262449" lat="31.241247933357954">
        <ele>324.6000061035156</ele>
        <time>2014-02-07T07:51:32.000Z</time>
      </trkpt>
      <trkpt lon="35.25445807725191" lat="31.241108626127243">
        <ele>323.6000061035156</ele>
        <time>2014-02-07T07:51:34.000Z</time>
      </trkpt>
      <trkpt lon="35.25449571199715" lat="31.24105523340404">
        <ele>323.20001220703125</ele>
        <time>2014-02-07T07:51:35.000Z</time>
      </trkpt>
      <trkpt lon="35.25453192181885" lat="31.241016844287515">
        <ele>323.6000061035156</ele>
        <time>2014-02-07T07:51:36.000Z</time>
      </trkpt>
      <trkpt lon="35.25469251908362" lat="31.240858677774668">
        <ele>325.0</ele>
        <time>2014-02-07T07:51:42.000Z</time>
      </trkpt>
      <trkpt lon="35.254827132448554" lat="31.24067209661007">
        <ele>329.3999938964844</ele>
        <time>2014-02-07T07:51:51.000Z</time>
      </trkpt>
      <trkpt lon="35.25491061620414" lat="31.240502195432782">
        <ele>329.79998779296875</ele>
        <time>2014-02-07T07:51:57.000Z</time>
      </trkpt>
      <trkpt lon="35.25491044856608" lat="31.240326091647148">
        <ele>329.79998779296875</ele>
        <time>2014-02-07T07:52:03.000Z</time>
      </trkpt>
      <trkpt lon="35.254863845184445" lat="31.240142779424787">
        <ele>329.0</ele>
        <time>2014-02-07T07:52:09.000Z</time>
      </trkpt>
      <trkpt lon="35.2548764180392" lat="31.239976063370705">
        <ele>326.6000061035156</ele>
        <time>2014-02-07T07:52:12.000Z</time>
      </trkpt>
      <trkpt lon="35.25487968698144" lat="31.239916468039155">
        <ele>326.0</ele>
        <time>2014-02-07T07:52:13.000Z</time>
      </trkpt>
      <trkpt lon="35.25489158928394" lat="31.23985469341278">
        <ele>325.6000061035156</ele>
        <time>2014-02-07T07:52:14.000Z</time>
      </trkpt>
      <trkpt lon="35.25491522625089" lat="31.239797277376056">
        <ele>325.6000061035156</ele>
        <time>2014-02-07T07:52:15.000Z</time>
      </trkpt>
      <trkpt lon="35.254941545426846" lat="31.239749500527978">
        <ele>325.0</ele>
        <time>2014-02-07T07:52:16.000Z</time>
      </trkpt>
      <trkpt lon="35.254975240677595" lat="31.239577839151025">
        <ele>326.6000061035156</ele>
        <time>2014-02-07T07:52:21.000Z</time>
      </trkpt>
      <trkpt lon="35.25498295202851" lat="31.239537270739675">
        <ele>326.6000061035156</ele>
        <time>2014-02-07T07:52:22.000Z</time>
      </trkpt>
      <trkpt lon="35.25502477772534" lat="31.239321352913976">
        <ele>326.6000061035156</ele>
        <time>2014-02-07T07:52:27.000Z</time>
      </trkpt>
      <trkpt lon="35.2550093550235" lat="31.239272821694613">
        <ele>326.6000061035156</ele>
        <time>2014-02-07T07:52:28.000Z</time>
      </trkpt>
      <trkpt lon="35.2549749892205" lat="31.239229068160057">
        <ele>326.6000061035156</ele>
        <time>2014-02-07T07:52:29.000Z</time>
      </trkpt>
      <trkpt lon="35.25492805056274" lat="31.239190427586436">
        <ele>326.6000061035156</ele>
        <time>2014-02-07T07:52:30.000Z</time>
      </trkpt>
      <trkpt lon="35.254871640354395" lat="31.23915974982083">
        <ele>326.6000061035156</ele>
        <time>2014-02-07T07:52:31.000Z</time>
      </trkpt>
      <trkpt lon="35.2548127155751" lat="31.239133765920997">
        <ele>326.0</ele>
        <time>2014-02-07T07:52:32.000Z</time>
      </trkpt>
      <trkpt lon="35.254762172698975" lat="31.239102417603135">
        <ele>325.6000061035156</ele>
        <time>2014-02-07T07:52:33.000Z</time>
      </trkpt>
      <trkpt lon="35.25472839362919" lat="31.239061513915658">
        <ele>325.6000061035156</ele>
        <time>2014-02-07T07:52:34.000Z</time>
      </trkpt>
      <trkpt lon="35.25470903143287" lat="31.23901323415339">
        <ele>325.0</ele>
        <time>2014-02-07T07:52:35.000Z</time>
      </trkpt>
      <trkpt lon="35.254703080281615" lat="31.238960679620504">
        <ele>325.0</ele>
        <time>2014-02-07T07:52:36.000Z</time>
      </trkpt>
      <trkpt lon="35.25470852851868" lat="31.238910304382443">
        <ele>324.6000061035156</ele>
        <time>2014-02-07T07:52:37.000Z</time>
      </trkpt>
      <trkpt lon="35.2547212690115" lat="31.23885875567794">
        <ele>324.6000061035156</ele>
        <time>2014-02-07T07:52:38.000Z</time>
      </trkpt>
      <trkpt lon="35.25475848466158" lat="31.238747779279947">
        <ele>323.20001220703125</ele>
        <time>2014-02-07T07:52:40.000Z</time>
      </trkpt>
      <trkpt lon="35.25478933006525" lat="31.23868642374873">
        <ele>322.20001220703125</ele>
        <time>2014-02-07T07:52:41.000Z</time>
      </trkpt>
      <trkpt lon="35.25481657125056" lat="31.23861886560917">
        <ele>321.20001220703125</ele>
        <time>2014-02-07T07:52:42.000Z</time>
      </trkpt>
      <trkpt lon="35.254834508523345" lat="31.2385412491858">
        <ele>320.20001220703125</ele>
        <time>2014-02-07T07:52:43.000Z</time>
      </trkpt>
      <trkpt lon="35.25483878329396" lat="31.238459944725037">
        <ele>319.79998779296875</ele>
        <time>2014-02-07T07:52:44.000Z</time>
      </trkpt>
      <trkpt lon="35.25483073666692" lat="31.238382160663605">
        <ele>319.20001220703125</ele>
        <time>2014-02-07T07:52:45.000Z</time>
      </trkpt>
      <trkpt lon="35.25480634532869" lat="31.238313261419535">
        <ele>319.20001220703125</ele>
        <time>2014-02-07T07:52:46.000Z</time>
      </trkpt>
      <trkpt lon="35.25477357208729" lat="31.23825383372605">
        <ele>319.20001220703125</ele>
        <time>2014-02-07T07:52:47.000Z</time>
      </trkpt>
      <trkpt lon="35.254739206284285" lat="31.23820505104959">
        <ele>319.79998779296875</ele>
        <time>2014-02-07T07:52:48.000Z</time>
      </trkpt>
      <trkpt lon="35.25470240972936" lat="31.23816641047597">
        <ele>320.20001220703125</ele>
        <time>2014-02-07T07:52:49.000Z</time>
      </trkpt>
      <trkpt lon="35.25461523793638" lat="31.23801746405661">
        <ele>323.20001220703125</ele>
        <time>2014-02-07T07:52:54.000Z</time>
      </trkpt>
      <trkpt lon="35.25461490266025" lat="31.237831385806203">
        <ele>323.20001220703125</ele>
        <time>2014-02-07T07:53:01.000Z</time>
      </trkpt>
      <trkpt lon="35.25482294149697" lat="31.23764405027032">
        <ele>321.20001220703125</ele>
        <time>2014-02-07T07:53:08.000Z</time>
      </trkpt>
      <trkpt lon="35.25495336391032" lat="31.23751656152308">
        <ele>320.20001220703125</ele>
        <time>2014-02-07T07:53:12.000Z</time>
      </trkpt>
      <trkpt lon="35.2549768332392" lat="31.23748043552041">
        <ele>320.20001220703125</ele>
        <time>2014-02-07T07:53:13.000Z</time>
      </trkpt>
      <trkpt lon="35.25506006553769" lat="31.237297793850303">
        <ele>319.20001220703125</ele>
        <time>2014-02-07T07:53:17.000Z</time>
      </trkpt>
      <trkpt lon="35.25507138110697" lat="31.237242557108402">
        <ele>318.79998779296875</ele>
        <time>2014-02-07T07:53:18.000Z</time>
      </trkpt>
      <trkpt lon="35.25508060120046" lat="31.237189918756485">
        <ele>318.3999938964844</ele>
        <time>2014-02-07T07:53:19.000Z</time>
      </trkpt>
      <trkpt lon="35.25515176355839" lat="31.236862186342478">
        <ele>317.79998779296875</ele>
        <time>2014-02-07T07:53:25.000Z</time>
      </trkpt>
      <trkpt lon="35.255153607577085" lat="31.23679446056485">
        <ele>317.79998779296875</ele>
        <time>2014-02-07T07:53:26.000Z</time>
      </trkpt>
      <trkpt lon="35.25515536777675" lat="31.23664534650743">
        <ele>317.3999938964844</ele>
        <time>2014-02-07T07:53:28.000Z</time>
      </trkpt>
      <trkpt lon="35.25517104193568" lat="31.23656856827438">
        <ele>316.79998779296875</ele>
        <time>2014-02-07T07:53:29.000Z</time>
      </trkpt>
      <trkpt lon="35.25520138442516" lat="31.236494723707438">
        <ele>316.3999938964844</ele>
        <time>2014-02-07T07:53:30.000Z</time>
      </trkpt>
      <trkpt lon="35.2553394343704" lat="31.236246954649687">
        <ele>316.79998779296875</ele>
        <time>2014-02-07T07:53:34.000Z</time>
      </trkpt>
      <trkpt lon="35.255354354158044" lat="31.236187862232327">
        <ele>316.79998779296875</ele>
        <time>2014-02-07T07:53:35.000Z</time>
      </trkpt>
      <trkpt lon="35.25540783070028" lat="31.23601645231247">
        <ele>316.79998779296875</ele>
        <time>2014-02-07T07:53:38.000Z</time>
      </trkpt>
      <trkpt lon="35.25544747710228" lat="31.23596859164536">
        <ele>316.79998779296875</ele>
        <time>2014-02-07T07:53:39.000Z</time>
      </trkpt>
      <trkpt lon="35.25549089536071" lat="31.235928693786263">
        <ele>316.79998779296875</ele>
        <time>2014-02-07T07:53:40.000Z</time>
      </trkpt>
      <trkpt lon="35.255606481805444" lat="31.235826099291444">
        <ele>316.79998779296875</ele>
        <time>2014-02-07T07:53:43.000Z</time>
      </trkpt>
      <trkpt lon="35.25563037022948" lat="31.235786033794284">
        <ele>316.79998779296875</ele>
        <time>2014-02-07T07:53:44.000Z</time>
      </trkpt>
      <trkpt lon="35.25577110238373" lat="31.23549660667777">
        <ele>316.79998779296875</ele>
        <time>2014-02-07T07:53:50.000Z</time>
      </trkpt>
      <trkpt lon="35.25580898858607" lat="31.235446566715837">
        <ele>316.3999938964844</ele>
        <time>2014-02-07T07:53:51.000Z</time>
      </trkpt>
      <trkpt lon="35.25585366412997" lat="31.235396610572934">
        <ele>316.3999938964844</ele>
        <time>2014-02-07T07:53:52.000Z</time>
      </trkpt>
      <trkpt lon="35.255903620272875" lat="31.23534707352519">
        <ele>316.3999938964844</ele>
        <time>2014-02-07T07:53:53.000Z</time>
      </trkpt>
      <trkpt lon="35.25595282204449" lat="31.23529870994389">
        <ele>316.3999938964844</ele>
        <time>2014-02-07T07:53:54.000Z</time>
      </trkpt>
      <trkpt lon="35.25600789114833" lat="31.235253028571606">
        <ele>316.0</ele>
        <time>2014-02-07T07:53:55.000Z</time>
      </trkpt>
      <trkpt lon="35.25607092306018" lat="31.23521212488413">
        <ele>316.0</ele>
        <time>2014-02-07T07:53:56.000Z</time>
      </trkpt>
      <trkpt lon="35.25614485144615" lat="31.23517792671919">
        <ele>315.3999938964844</ele>
        <time>2014-02-07T07:53:57.000Z</time>
      </trkpt>
      <trkpt lon="35.256728399544954" lat="31.234935270622373">
        <ele>313.6000061035156</ele>
        <time>2014-02-07T07:54:04.000Z</time>
      </trkpt>
      <trkpt lon="35.25728269480169" lat="31.23472111299634">
        <ele>310.6000061035156</ele>
        <time>2014-02-07T07:54:11.000Z</time>
      </trkpt>
      <trkpt lon="35.25736249051988" lat="31.234710048884153">
        <ele>310.20001220703125</ele>
        <time>2014-02-07T07:54:12.000Z</time>
      </trkpt>
      <trkpt lon="35.25799515657127" lat="31.23466302640736">
        <ele>307.20001220703125</ele>
        <time>2014-02-07T07:54:20.000Z</time>
      </trkpt>
      <trkpt lon="35.25807042606175" lat="31.234669983386993">
        <ele>306.79998779296875</ele>
        <time>2014-02-07T07:54:21.000Z</time>
      </trkpt>
      <trkpt lon="35.25814066641033" lat="31.234681382775307">
        <ele>306.79998779296875</ele>
        <time>2014-02-07T07:54:22.000Z</time>
      </trkpt>
      <trkpt lon="35.2582077216357" lat="31.234705103561282">
        <ele>306.79998779296875</ele>
        <time>2014-02-07T07:54:23.000Z</time>
      </trkpt>
      <trkpt lon="35.2582748606801" lat="31.234738547354937">
        <ele>306.3999938964844</ele>
        <time>2014-02-07T07:54:24.000Z</time>
      </trkpt>
      <trkpt lon="35.258341412991285" lat="31.23477199114859">
        <ele>306.3999938964844</ele>
        <time>2014-02-07T07:54:25.000Z</time>
      </trkpt>
      <trkpt lon="35.258479127660394" lat="31.234832257032394">
        <ele>306.3999938964844</ele>
        <time>2014-02-07T07:54:27.000Z</time>
      </trkpt>
      <trkpt lon="35.258551463484764" lat="31.234853798523545">
        <ele>305.79998779296875</ele>
        <time>2014-02-07T07:54:28.000Z</time>
      </trkpt>
      <trkpt lon="35.258625727146864" lat="31.234866119921207">
        <ele>306.3999938964844</ele>
        <time>2014-02-07T07:54:29.000Z</time>
      </trkpt>
      <trkpt lon="35.25919980369508" lat="31.23494499363005">
        <ele>304.3999938964844</ele>
        <time>2014-02-07T07:54:36.000Z</time>
      </trkpt>
      <trkpt lon="35.259826770052314" lat="31.235075667500496">
        <ele>302.0</ele>
        <time>2014-02-07T07:54:43.000Z</time>
      </trkpt>
      <trkpt lon="35.260014440864325" lat="31.23510961420834">
        <ele>301.6000061035156</ele>
        <time>2014-02-07T07:54:45.000Z</time>
      </trkpt>
      <trkpt lon="35.26028215885162" lat="31.235134759917855">
        <ele>300.6000061035156</ele>
        <time>2014-02-07T07:54:48.000Z</time>
      </trkpt>
      <trkpt lon="35.26034996844828" lat="31.235152278095484">
        <ele>300.6000061035156</ele>
        <time>2014-02-07T07:54:49.000Z</time>
      </trkpt>
      <trkpt lon="35.26040495373309" lat="31.235175663605332">
        <ele>300.6000061035156</ele>
        <time>2014-02-07T07:54:50.000Z</time>
      </trkpt>
      <trkpt lon="35.26045700535178" lat="31.235203240066767">
        <ele>300.6000061035156</ele>
        <time>2014-02-07T07:54:51.000Z</time>
      </trkpt>
      <trkpt lon="35.26050578802824" lat="31.23523668386042">
        <ele>300.0</ele>
        <time>2014-02-07T07:54:52.000Z</time>
      </trkpt>
      <trkpt lon="35.26074039749801" lat="31.235406417399645">
        <ele>298.20001220703125</ele>
        <time>2014-02-07T07:54:56.000Z</time>
      </trkpt>
      <trkpt lon="35.261059161275625" lat="31.23563583008945">
        <ele>297.6000061035156</ele>
        <time>2014-02-07T07:55:03.000Z</time>
      </trkpt>
      <trkpt lon="35.2611122187227" lat="31.23565980233252">
        <ele>297.6000061035156</ele>
        <time>2014-02-07T07:55:04.000Z</time>
      </trkpt>
      <trkpt lon="35.26159727945924" lat="31.235804557800293">
        <ele>296.20001220703125</ele>
        <time>2014-02-07T07:55:11.000Z</time>
      </trkpt>
      <trkpt lon="35.262455586344004" lat="31.2360286898911">
        <ele>294.79998779296875</ele>
        <time>2014-02-07T07:55:21.000Z</time>
      </trkpt>
      <trkpt lon="35.26313460431993" lat="31.236256677657366">
        <ele>293.79998779296875</ele>
        <time>2014-02-07T07:55:29.000Z</time>
      </trkpt>
      <trkpt lon="35.26368630118668" lat="31.23651634901762">
        <ele>293.79998779296875</ele>
        <time>2014-02-07T07:55:37.000Z</time>
      </trkpt>
      <trkpt lon="35.264154598116875" lat="31.236775601282716">
        <ele>293.79998779296875</ele>
        <time>2014-02-07T07:55:45.000Z</time>
      </trkpt>
      <trkpt lon="35.26453932747245" lat="31.236904095858335">
        <ele>293.3999938964844</ele>
        <time>2014-02-07T07:55:51.000Z</time>
      </trkpt>
      <trkpt lon="35.26513368822634" lat="31.236978694796562">
        <ele>291.79998779296875</ele>
        <time>2014-02-07T07:55:59.000Z</time>
      </trkpt>
      <trkpt lon="35.26520594023168" lat="31.236990094184875">
        <ele>291.79998779296875</ele>
        <time>2014-02-07T07:56:00.000Z</time>
      </trkpt>
      <trkpt lon="35.265659568831325" lat="31.23713937588036">
        <ele>289.0</ele>
        <time>2014-02-07T07:56:07.000Z</time>
      </trkpt>
      <trkpt lon="35.26572184637189" lat="31.23718128539622">
        <ele>288.0</ele>
        <time>2014-02-07T07:56:08.000Z</time>
      </trkpt>
      <trkpt lon="35.2657818607986" lat="31.23723308555782">
        <ele>287.6000061035156</ele>
        <time>2014-02-07T07:56:09.000Z</time>
      </trkpt>
      <trkpt lon="35.26589627377689" lat="31.237344816327095">
        <ele>287.0</ele>
        <time>2014-02-07T07:56:11.000Z</time>
      </trkpt>
      <trkpt lon="35.266001131385565" lat="31.237417235970497">
        <ele>287.0</ele>
        <time>2014-02-07T07:56:13.000Z</time>
      </trkpt>
      <trkpt lon="35.26611085049808" lat="31.237469790503383">
        <ele>287.6000061035156</ele>
        <time>2014-02-07T07:56:15.000Z</time>
      </trkpt>
      <trkpt lon="35.266480492427945" lat="31.237570457160473">
        <ele>287.0</ele>
        <time>2014-02-07T07:56:21.000Z</time>
      </trkpt>
      <trkpt lon="35.26668584905565" lat="31.237591579556465">
        <ele>287.0</ele>
        <time>2014-02-07T07:56:25.000Z</time>
      </trkpt>
      <trkpt lon="35.26701333001256" lat="31.23757716268301">
        <ele>286.6000061035156</ele>
        <time>2014-02-07T07:56:31.000Z</time>
      </trkpt>
      <trkpt lon="35.26712916791439" lat="31.237573390826583">
        <ele>286.6000061035156</ele>
        <time>2014-02-07T07:56:33.000Z</time>
      </trkpt>
      <trkpt lon="35.26745698414743" lat="31.237601302564144">
        <ele>285.20001220703125</ele>
        <time>2014-02-07T07:56:38.000Z</time>
      </trkpt>
      <trkpt lon="35.26782193221152" lat="31.237606750801206">
        <ele>284.6000061035156</ele>
        <time>2014-02-07T07:56:43.000Z</time>
      </trkpt>
      <trkpt lon="35.267884293571115" lat="31.23758504167199">
        <ele>284.20001220703125</ele>
        <time>2014-02-07T07:56:44.000Z</time>
      </trkpt>
      <trkpt lon="35.267943888902664" lat="31.23755025677383">
        <ele>283.79998779296875</ele>
        <time>2014-02-07T07:56:45.000Z</time>
      </trkpt>
      <trkpt lon="35.26800323277712" lat="31.237507676705718">
        <ele>282.79998779296875</ele>
        <time>2014-02-07T07:56:46.000Z</time>
      </trkpt>
      <trkpt lon="35.26806056499481" lat="31.23746132478118">
        <ele>282.20001220703125</ele>
        <time>2014-02-07T07:56:47.000Z</time>
      </trkpt>
      <trkpt lon="35.26836331933737" lat="31.237241216003895">
        <ele>282.20001220703125</ele>
        <time>2014-02-07T07:56:53.000Z</time>
      </trkpt>
      <trkpt lon="35.26887310668826" lat="31.236969977617264">
        <ele>280.79998779296875</ele>
        <time>2014-02-07T07:57:02.000Z</time>
      </trkpt>
      <trkpt lon="35.268940748646855" lat="31.236939886584878">
        <ele>280.3999938964844</ele>
        <time>2014-02-07T07:57:03.000Z</time>
      </trkpt>
      <trkpt lon="35.26950107887387" lat="31.236582063138485">
        <ele>279.3999938964844</ele>
        <time>2014-02-07T07:57:12.000Z</time>
      </trkpt>
      <trkpt lon="35.26999385096133" lat="31.236219378188252">
        <ele>277.3999938964844</ele>
        <time>2014-02-07T07:57:20.000Z</time>
      </trkpt>
      <trkpt lon="35.27031655423343" lat="31.235979991033673">
        <ele>277.0</ele>
        <time>2014-02-07T07:57:26.000Z</time>
      </trkpt>
      <trkpt lon="35.27072450146079" lat="31.23552728444338">
        <ele>277.0</ele>
        <time>2014-02-07T07:57:35.000Z</time>
      </trkpt>
      <trkpt lon="35.270869340747595" lat="31.235338104888797">
        <ele>277.0</ele>
        <time>2014-02-07T07:57:38.000Z</time>
      </trkpt>
      <trkpt lon="35.270930444821715" lat="31.235278844833374">
        <ele>276.6000061035156</ele>
        <time>2014-02-07T07:57:39.000Z</time>
      </trkpt>
      <trkpt lon="35.27106933295727" lat="31.235172143206">
        <ele>276.0</ele>
        <time>2014-02-07T07:57:41.000Z</time>
      </trkpt>
      <trkpt lon="35.271148374304175" lat="31.235126880928874">
        <ele>275.6000061035156</ele>
        <time>2014-02-07T07:57:42.000Z</time>
      </trkpt>
      <trkpt lon="35.27147979475558" lat="31.23495714738965">
        <ele>276.6000061035156</ele>
        <time>2014-02-07T07:57:47.000Z</time>
      </trkpt>
      <trkpt lon="35.27159705758095" lat="31.234915405511856">
        <ele>279.0</ele>
        <time>2014-02-07T07:57:51.000Z</time>
      </trkpt>
      <trkpt lon="35.27177852578461" lat="31.234901575371623">
        <ele>281.3999938964844</ele>
        <time>2014-02-07T07:57:59.000Z</time>
      </trkpt>
      <trkpt lon="35.27199435979128" lat="31.234897887334228">
        <ele>282.79998779296875</ele>
        <time>2014-02-07T07:58:05.000Z</time>
      </trkpt>
      <trkpt lon="35.27220223098993" lat="31.23497659340501">
        <ele>282.20001220703125</ele>
        <time>2014-02-07T07:58:10.000Z</time>
      </trkpt>
      <trkpt lon="35.272255036979914" lat="31.2349821254611">
        <ele>282.20001220703125</ele>
        <time>2014-02-07T07:58:11.000Z</time>
      </trkpt>
      <trkpt lon="35.27262761257589" lat="31.235051611438394">
        <ele>284.20001220703125</ele>
        <time>2014-02-07T07:58:18.000Z</time>
      </trkpt>
      <trkpt lon="35.272906897589564" lat="31.23514230363071">
        <ele>286.6000061035156</ele>
        <time>2014-02-07T07:58:26.000Z</time>
      </trkpt>
      <trkpt lon="35.273176208138466" lat="31.235227631404996">
        <ele>288.0</ele>
        <time>2014-02-07T07:58:35.000Z</time>
      </trkpt>
      <trkpt lon="35.27346228249371" lat="31.23524682596326">
        <ele>288.0</ele>
        <time>2014-02-07T07:58:43.000Z</time>
      </trkpt>
      <trkpt lon="35.273511903360486" lat="31.23524632304907">
        <ele>288.0</ele>
        <time>2014-02-07T07:58:44.000Z</time>
      </trkpt>
      <trkpt lon="35.27402378618717" lat="31.23518731445074">
        <ele>287.0</ele>
        <time>2014-02-07T07:58:53.000Z</time>
      </trkpt>
      <trkpt lon="35.27445084415376" lat="31.235052533447742">
        <ele>283.20001220703125</ele>
        <time>2014-02-07T07:58:59.000Z</time>
      </trkpt>
      <trkpt lon="35.274612279608846" lat="31.234982209280133">
        <ele>281.79998779296875</ele>
        <time>2014-02-07T07:59:01.000Z</time>
      </trkpt>
      <trkpt lon="35.27495635673404" lat="31.234754724428058">
        <ele>279.79998779296875</ele>
        <time>2014-02-07T07:59:06.000Z</time>
      </trkpt>
      <trkpt lon="35.27499885298312" lat="31.23470795340836">
        <ele>279.3999938964844</ele>
        <time>2014-02-07T07:59:07.000Z</time>
      </trkpt>
      <trkpt lon="35.2750291954726" lat="31.234664535149932">
        <ele>279.0</ele>
        <time>2014-02-07T07:59:08.000Z</time>
      </trkpt>
      <trkpt lon="35.27506163343787" lat="31.234625475481153">
        <ele>279.0</ele>
        <time>2014-02-07T07:59:09.000Z</time>
      </trkpt>
      <trkpt lon="35.27510739862919" lat="31.234590774402022">
        <ele>278.3999938964844</ele>
        <time>2014-02-07T07:59:10.000Z</time>
      </trkpt>
      <trkpt lon="35.27516263537109" lat="31.234558084979653">
        <ele>278.0</ele>
        <time>2014-02-07T07:59:11.000Z</time>
      </trkpt>
      <trkpt lon="35.2753312792629" lat="31.234465716406703">
        <ele>277.0</ele>
        <time>2014-02-07T07:59:14.000Z</time>
      </trkpt>
      <trkpt lon="35.27537570334971" lat="31.234427159652114">
        <ele>276.6000061035156</ele>
        <time>2014-02-07T07:59:15.000Z</time>
      </trkpt>
      <trkpt lon="35.27540545910597" lat="31.234384160488844">
        <ele>276.0</ele>
        <time>2014-02-07T07:59:16.000Z</time>
      </trkpt>
      <trkpt lon="35.275427335873246" lat="31.234341580420732">
        <ele>275.6000061035156</ele>
        <time>2014-02-07T07:59:17.000Z</time>
      </trkpt>
      <trkpt lon="35.27545331977308" lat="31.234294306486845">
        <ele>274.6000061035156</ele>
        <time>2014-02-07T07:59:18.000Z</time>
      </trkpt>
      <trkpt lon="35.27549187652767" lat="31.234248289838433">
        <ele>274.20001220703125</ele>
        <time>2014-02-07T07:59:19.000Z</time>
      </trkpt>
      <trkpt lon="35.275541162118316" lat="31.23420520685613">
        <ele>273.20001220703125</ele>
        <time>2014-02-07T07:59:20.000Z</time>
      </trkpt>
      <trkpt lon="35.275592962279916" lat="31.234159357845783">
        <ele>272.6000061035156</ele>
        <time>2014-02-07T07:59:21.000Z</time>
      </trkpt>
      <trkpt lon="35.275643672794104" lat="31.234108982607722">
        <ele>272.20001220703125</ele>
        <time>2014-02-07T07:59:22.000Z</time>
      </trkpt>
      <trkpt lon="35.27591801248491" lat="31.233834894374013">
        <ele>269.79998779296875</ele>
        <time>2014-02-07T07:59:27.000Z</time>
      </trkpt>
      <trkpt lon="35.27598255313933" lat="31.233791392296553">
        <ele>269.79998779296875</ele>
        <time>2014-02-07T07:59:28.000Z</time>
      </trkpt>
      <trkpt lon="35.276047345250845" lat="31.233756775036454">
        <ele>269.3999938964844</ele>
        <time>2014-02-07T07:59:29.000Z</time>
      </trkpt>
      <trkpt lon="35.27621129527688" lat="31.23366423882544">
        <ele>268.3999938964844</ele>
        <time>2014-02-07T07:59:32.000Z</time>
      </trkpt>
      <trkpt lon="35.27638622559607" lat="31.233451925218105">
        <ele>269.79998779296875</ele>
        <time>2014-02-07T07:59:37.000Z</time>
      </trkpt>
      <trkpt lon="35.27643115259707" lat="31.233410350978374">
        <ele>270.20001220703125</ele>
        <time>2014-02-07T07:59:38.000Z</time>
      </trkpt>
      <trkpt lon="35.27648203074932" lat="31.23337196186185">
        <ele>270.20001220703125</ele>
        <time>2014-02-07T07:59:39.000Z</time>
      </trkpt>
      <trkpt lon="35.27658806182444" lat="31.233293088153005">
        <ele>270.79998779296875</ele>
        <time>2014-02-07T07:59:41.000Z</time>
      </trkpt>
      <trkpt lon="35.27682828716934" lat="31.233050180599093">
        <ele>273.6000061035156</ele>
        <time>2014-02-07T07:59:47.000Z</time>
      </trkpt>
      <trkpt lon="35.276973797008395" lat="31.232902072370052">
        <ele>275.0</ele>
        <time>2014-02-07T07:59:53.000Z</time>
      </trkpt>
      <trkpt lon="35.27701394632459" lat="31.232875501737">
        <ele>274.6000061035156</ele>
        <time>2014-02-07T07:59:54.000Z</time>
      </trkpt>
      <trkpt lon="35.277062226086855" lat="31.23284230940044">
        <ele>273.6000061035156</ele>
        <time>2014-02-07T07:59:55.000Z</time>
      </trkpt>
      <trkpt lon="35.27738073840737" lat="31.232616417109966">
        <ele>269.3999938964844</ele>
        <time>2014-02-07T08:00:00.000Z</time>
      </trkpt>
      <trkpt lon="35.27744620107114" lat="31.23258196748793">
        <ele>268.79998779296875</ele>
        <time>2014-02-07T08:00:01.000Z</time>
      </trkpt>
      <trkpt lon="35.27751845307648" lat="31.23255011625588">
        <ele>267.79998779296875</ele>
        <time>2014-02-07T08:00:02.000Z</time>
      </trkpt>
      <trkpt lon="35.27791642583907" lat="31.232421286404133">
        <ele>264.6000061035156</ele>
        <time>2014-02-07T08:00:06.000Z</time>
      </trkpt>
      <trkpt lon="35.27823359705508" lat="31.232337215915322">
        <ele>261.6000061035156</ele>
        <time>2014-02-07T08:00:09.000Z</time>
      </trkpt>
      <trkpt lon="35.27832311578095" lat="31.23229991644621">
        <ele>260.6000061035156</ele>
        <time>2014-02-07T08:00:10.000Z</time>
      </trkpt>
      <trkpt lon="35.2784070186317" lat="31.232255408540368">
        <ele>259.6000061035156</ele>
        <time>2014-02-07T08:00:11.000Z</time>
      </trkpt>
      <trkpt lon="35.27848832309246" lat="31.23220620676875">
        <ele>259.20001220703125</ele>
        <time>2014-02-07T08:00:12.000Z</time>
      </trkpt>
      <trkpt lon="35.278565185144544" lat="31.232147701084614">
        <ele>258.79998779296875</ele>
        <time>2014-02-07T08:00:13.000Z</time>
      </trkpt>
      <trkpt lon="35.27863777242601" lat="31.232086345553398">
        <ele>258.20001220703125</ele>
        <time>2014-02-07T08:00:14.000Z</time>
      </trkpt>
      <trkpt lon="35.27906893752515" lat="31.231668004766107">
        <ele>255.39999389648438</ele>
        <time>2014-02-07T08:00:21.000Z</time>
      </trkpt>
      <trkpt lon="35.27935082092881" lat="31.23137153685093">
        <ele>253.0</ele>
        <time>2014-02-07T08:00:26.000Z</time>
      </trkpt>
      <trkpt lon="35.27938636019826" lat="31.231303559616208">
        <ele>252.39999389648438</ele>
        <time>2014-02-07T08:00:27.000Z</time>
      </trkpt>
      <trkpt lon="35.279417373239994" lat="31.23122652992606">
        <ele>252.0</ele>
        <time>2014-02-07T08:00:28.000Z</time>
      </trkpt>
      <trkpt lon="35.27943765744567" lat="31.231154780834913">
        <ele>251.60000610351562</ele>
        <time>2014-02-07T08:00:29.000Z</time>
      </trkpt>
      <trkpt lon="35.279442770406604" lat="31.23109652660787">
        <ele>251.60000610351562</ele>
        <time>2014-02-07T08:00:30.000Z</time>
      </trkpt>
      <trkpt lon="35.27943916618824" lat="31.231046738103032">
        <ele>251.60000610351562</ele>
        <time>2014-02-07T08:00:31.000Z</time>
      </trkpt>
      <trkpt lon="35.27942751534283" lat="31.231006421148777">
        <ele>251.0</ele>
        <time>2014-02-07T08:00:32.000Z</time>
      </trkpt>
      <trkpt lon="35.27941611595452" lat="31.230971049517393">
        <ele>251.0</ele>
        <time>2014-02-07T08:00:33.000Z</time>
      </trkpt>
      <trkpt lon="35.27940530329943" lat="31.230935510247946">
        <ele>251.60000610351562</ele>
        <time>2014-02-07T08:00:34.000Z</time>
      </trkpt>
      <trkpt lon="35.279397424310446" lat="31.23089661821723">
        <ele>251.60000610351562</ele>
        <time>2014-02-07T08:00:35.000Z</time>
      </trkpt>
      <trkpt lon="35.27935719117522" lat="31.23061280697584">
        <ele>251.0</ele>
        <time>2014-02-07T08:00:40.000Z</time>
      </trkpt>
      <trkpt lon="35.27936398051679" lat="31.230552960187197">
        <ele>251.0</ele>
        <time>2014-02-07T08:00:41.000Z</time>
      </trkpt>
      <trkpt lon="35.27938401326537" lat="31.23050426132977">
        <ele>251.0</ele>
        <time>2014-02-07T08:00:42.000Z</time>
      </trkpt>
      <trkpt lon="35.27941720560193" lat="31.230465872213244">
        <ele>251.0</ele>
        <time>2014-02-07T08:00:43.000Z</time>
      </trkpt>
      <trkpt lon="35.279458025470376" lat="31.23043150641024">
        <ele>251.0</ele>
        <time>2014-02-07T08:00:44.000Z</time>
      </trkpt>
      <trkpt lon="35.27950521558523" lat="31.230401331558824">
        <ele>251.0</ele>
        <time>2014-02-07T08:00:45.000Z</time>
      </trkpt>
      <trkpt lon="35.27955684810877" lat="31.23037383891642">
        <ele>251.0</ele>
        <time>2014-02-07T08:00:46.000Z</time>
      </trkpt>
      <trkpt lon="35.27961099520326" lat="31.230355817824602">
        <ele>251.0</ele>
        <time>2014-02-07T08:00:47.000Z</time>
      </trkpt>
      <trkpt lon="35.279659274965525" lat="31.230345172807574">
        <ele>251.0</ele>
        <time>2014-02-07T08:00:48.000Z</time>
      </trkpt>
      <trkpt lon="35.27970822528005" lat="31.230340311303735">
        <ele>251.0</ele>
        <time>2014-02-07T08:00:49.000Z</time>
      </trkpt>
      <trkpt lon="35.27974862605333" lat="31.23034064657986">
        <ele>250.60000610351562</ele>
        <time>2014-02-07T08:00:50.000Z</time>
      </trkpt>
      <trkpt lon="35.27996437624097" lat="31.23027794994414">
        <ele>248.60000610351562</ele>
        <time>2014-02-07T08:00:56.000Z</time>
      </trkpt>
      <trkpt lon="35.280009387061" lat="31.230274932458997">
        <ele>247.60000610351562</ele>
        <time>2014-02-07T08:00:57.000Z</time>
      </trkpt>
      <trkpt lon="35.28006034903228" lat="31.23027510009706">
        <ele>247.1999969482422</ele>
        <time>2014-02-07T08:00:58.000Z</time>
      </trkpt>
      <trkpt lon="35.28012019582093" lat="31.230282308533788">
        <ele>246.8000030517578</ele>
        <time>2014-02-07T08:00:59.000Z</time>
      </trkpt>
      <trkpt lon="35.28018532320857" lat="31.230288930237293">
        <ele>245.8000030517578</ele>
        <time>2014-02-07T08:01:00.000Z</time>
      </trkpt>
      <trkpt lon="35.280246594920754" lat="31.230283649638295">
        <ele>245.1999969482422</ele>
        <time>2014-02-07T08:01:01.000Z</time>
      </trkpt>
      <trkpt lon="35.28030266985297" lat="31.23027065768838">
        <ele>244.39999389648438</ele>
        <time>2014-02-07T08:01:02.000Z</time>
      </trkpt>
      <trkpt lon="35.28035128489137" lat="31.230242662131786">
        <ele>243.8000030517578</ele>
        <time>2014-02-07T08:01:03.000Z</time>
      </trkpt>
      <trkpt lon="35.28038850054145" lat="31.230196561664343">
        <ele>243.39999389648438</ele>
        <time>2014-02-07T08:01:04.000Z</time>
      </trkpt>
      <trkpt lon="35.280404509976506" lat="31.23013881035149">
        <ele>242.39999389648438</ele>
        <time>2014-02-07T08:01:05.000Z</time>
      </trkpt>
      <trkpt lon="35.28041683137417" lat="31.230080220848322">
        <ele>241.39999389648438</ele>
        <time>2014-02-07T08:01:06.000Z</time>
      </trkpt>
      <trkpt lon="35.2804309129715" lat="31.230022804811597">
        <ele>240.39999389648438</ele>
        <time>2014-02-07T08:01:07.000Z</time>
      </trkpt>
      <trkpt lon="35.280449353158474" lat="31.22996723279357">
        <ele>240.0</ele>
        <time>2014-02-07T08:01:08.000Z</time>
      </trkpt>
      <trkpt lon="35.28048053383827" lat="31.229917779564857">
        <ele>239.60000610351562</ele>
        <time>2014-02-07T08:01:09.000Z</time>
      </trkpt>
      <trkpt lon="35.280624786391854" lat="31.22972633689642">
        <ele>239.60000610351562</ele>
        <time>2014-02-07T08:01:13.000Z</time>
      </trkpt>
      <trkpt lon="35.28064062818885" lat="31.229672944173217">
        <ele>240.0</ele>
        <time>2014-02-07T08:01:14.000Z</time>
      </trkpt>
      <trkpt lon="35.28063886798918" lat="31.229627933353186">
        <ele>240.0</ele>
        <time>2014-02-07T08:01:15.000Z</time>
      </trkpt>
      <trkpt lon="35.280620930716395" lat="31.229591388255358">
        <ele>239.60000610351562</ele>
        <time>2014-02-07T08:01:16.000Z</time>
      </trkpt>
      <trkpt lon="35.28059528209269" lat="31.229556100443006">
        <ele>239.60000610351562</ele>
        <time>2014-02-07T08:01:17.000Z</time>
      </trkpt>
      <trkpt lon="35.280572986230254" lat="31.229516118764877">
        <ele>239.60000610351562</ele>
        <time>2014-02-07T08:01:18.000Z</time>
      </trkpt>
      <trkpt lon="35.28055521659553" lat="31.229474963620305">
        <ele>239.0</ele>
        <time>2014-02-07T08:01:19.000Z</time>
      </trkpt>
      <trkpt lon="35.28054834343493" lat="31.229431377723813">
        <ele>239.0</ele>
        <time>2014-02-07T08:01:20.000Z</time>
      </trkpt>
      <trkpt lon="35.280553959310055" lat="31.22938678599894">
        <ele>239.0</ele>
        <time>2014-02-07T08:01:21.000Z</time>
      </trkpt>
      <trkpt lon="35.280574914067984" lat="31.22934428974986">
        <ele>238.60000610351562</ele>
        <time>2014-02-07T08:01:22.000Z</time>
      </trkpt>
      <trkpt lon="35.28061179444194" lat="31.22931193560362">
        <ele>238.60000610351562</ele>
        <time>2014-02-07T08:01:23.000Z</time>
      </trkpt>
      <trkpt lon="35.28065781109035" lat="31.22930129058659">
        <ele>238.0</ele>
        <time>2014-02-07T08:01:24.000Z</time>
      </trkpt>
      <trkpt lon="35.28070701286197" lat="31.229299949482083">
        <ele>238.0</ele>
        <time>2014-02-07T08:01:25.000Z</time>
      </trkpt>
      <trkpt lon="35.2809867169708" lat="31.229311265051365">
        <ele>238.0</ele>
        <time>2014-02-07T08:01:32.000Z</time>
      </trkpt>
      <trkpt lon="35.28107950463891" lat="31.229301542043686">
        <ele>238.0</ele>
        <time>2014-02-07T08:01:37.000Z</time>
      </trkpt>
      <trkpt lon="35.28108889237046" lat="31.229285448789597">
        <ele>238.60000610351562</ele>
        <time>2014-02-07T08:01:39.000Z</time>
      </trkpt>
      <trkpt lon="35.28117706999183" lat="31.229190733283758">
        <ele>239.0</ele>
        <time>2014-02-07T08:01:46.000Z</time>
      </trkpt>
      <trkpt lon="35.281226271763444" lat="31.22902083210647">
        <ele>240.39999389648438</ele>
        <time>2014-02-07T08:01:52.000Z</time>
      </trkpt>
      <trkpt lon="35.28121730312705" lat="31.228974144905806">
        <ele>241.39999389648438</ele>
        <time>2014-02-07T08:01:54.000Z</time>
      </trkpt>
      <trkpt lon="35.2812266908586" lat="31.228945897892118">
        <ele>241.39999389648438</ele>
        <time>2014-02-07T08:01:55.000Z</time>
      </trkpt>
      <trkpt lon="35.281250746920705" lat="31.22891471721232">
        <ele>241.0</ele>
        <time>2014-02-07T08:01:56.000Z</time>
      </trkpt>
      <trkpt lon="35.28129458427429" lat="31.2288829497993">
        <ele>240.39999389648438</ele>
        <time>2014-02-07T08:01:57.000Z</time>
      </trkpt>
      <trkpt lon="35.281355772167444" lat="31.22885512188077">
        <ele>239.60000610351562</ele>
        <time>2014-02-07T08:01:58.000Z</time>
      </trkpt>
      <trkpt lon="35.28142609633505" lat="31.228841794654727">
        <ele>239.0</ele>
        <time>2014-02-07T08:01:59.000Z</time>
      </trkpt>
      <trkpt lon="35.281495582312346" lat="31.22884347103536">
        <ele>238.60000610351562</ele>
        <time>2014-02-07T08:02:00.000Z</time>
      </trkpt>
      <trkpt lon="35.281560542061925" lat="31.228856211528182">
        <ele>238.0</ele>
        <time>2014-02-07T08:02:01.000Z</time>
      </trkpt>
      <trkpt lon="35.281623071059585" lat="31.228875489905477">
        <ele>238.0</ele>
        <time>2014-02-07T08:02:02.000Z</time>
      </trkpt>
      <trkpt lon="35.281688030809164" lat="31.22889284044504">
        <ele>237.60000610351562</ele>
        <time>2014-02-07T08:02:03.000Z</time>
      </trkpt>
      <trkpt lon="35.282165464013815" lat="31.228965763002634">
        <ele>233.1999969482422</ele>
        <time>2014-02-07T08:02:10.000Z</time>
      </trkpt>
      <trkpt lon="35.28222438879311" lat="31.228991243988276">
        <ele>233.1999969482422</ele>
        <time>2014-02-07T08:02:11.000Z</time>
      </trkpt>
      <trkpt lon="35.282272500917315" lat="31.229028794914484">
        <ele>233.1999969482422</ele>
        <time>2014-02-07T08:02:12.000Z</time>
      </trkpt>
      <trkpt lon="35.28230904601514" lat="31.22906911186874">
        <ele>233.1999969482422</ele>
        <time>2014-02-07T08:02:13.000Z</time>
      </trkpt>
      <trkpt lon="35.282338466495275" lat="31.229112362489104">
        <ele>233.1999969482422</ele>
        <time>2014-02-07T08:02:14.000Z</time>
      </trkpt>
      <trkpt lon="35.28236419893801" lat="31.2291591335088">
        <ele>233.1999969482422</ele>
        <time>2014-02-07T08:02:15.000Z</time>
      </trkpt>
      <trkpt lon="35.282384902238846" lat="31.22920699417591">
        <ele>232.8000030517578</ele>
        <time>2014-02-07T08:02:16.000Z</time>
      </trkpt>
      <trkpt lon="35.28241281397641" lat="31.229252088814974">
        <ele>232.39999389648438</ele>
        <time>2014-02-07T08:02:17.000Z</time>
      </trkpt>
      <trkpt lon="35.28245556168258" lat="31.22929098084569">
        <ele>231.8000030517578</ele>
        <time>2014-02-07T08:02:18.000Z</time>
      </trkpt>
      <trkpt lon="35.28251549229026" lat="31.22932811267674">
        <ele>231.39999389648438</ele>
        <time>2014-02-07T08:02:19.000Z</time>
      </trkpt>
      <trkpt lon="35.28258849866688" lat="31.22935694642365">
        <ele>231.39999389648438</ele>
        <time>2014-02-07T08:02:20.000Z</time>
      </trkpt>
      <trkpt lon="35.2826686296612" lat="31.229372872039676">
        <ele>230.8000030517578</ele>
        <time>2014-02-07T08:02:21.000Z</time>
      </trkpt>
      <trkpt lon="35.28275404125452" lat="31.229373291134834">
        <ele>230.39999389648438</ele>
        <time>2014-02-07T08:02:22.000Z</time>
      </trkpt>
      <trkpt lon="35.28283945284784" lat="31.229357533156872">
        <ele>230.39999389648438</ele>
        <time>2014-02-07T08:02:23.000Z</time>
      </trkpt>
      <trkpt lon="35.28291832655668" lat="31.22932953760028">
        <ele>229.8000030517578</ele>
        <time>2014-02-07T08:02:24.000Z</time>
      </trkpt>
      <trkpt lon="35.2830608189106" lat="31.229280419647694">
        <ele>229.8000030517578</ele>
        <time>2014-02-07T08:02:26.000Z</time>
      </trkpt>
      <trkpt lon="35.283123180270195" lat="31.229266924783587">
        <ele>229.8000030517578</ele>
        <time>2014-02-07T08:02:27.000Z</time>
      </trkpt>
      <trkpt lon="35.283446218818426" lat="31.229244880378246">
        <ele>230.39999389648438</ele>
        <time>2014-02-07T08:02:33.000Z</time>
      </trkpt>
      <trkpt lon="35.28350179083645" lat="31.22922845184803">
        <ele>230.39999389648438</ele>
        <time>2014-02-07T08:02:34.000Z</time>
      </trkpt>
      <trkpt lon="35.28355694375932" lat="31.2292040605098">
        <ele>230.39999389648438</ele>
        <time>2014-02-07T08:02:35.000Z</time>
      </trkpt>
      <trkpt lon="35.28361930511892" lat="31.229177238419652">
        <ele>230.39999389648438</ele>
        <time>2014-02-07T08:02:36.000Z</time>
      </trkpt>
      <trkpt lon="35.283685522153974" lat="31.229155780747533">
        <ele>229.8000030517578</ele>
        <time>2014-02-07T08:02:37.000Z</time>
      </trkpt>
      <trkpt lon="35.283750062808394" lat="31.229143207892776">
        <ele>229.8000030517578</ele>
        <time>2014-02-07T08:02:38.000Z</time>
      </trkpt>
      <trkpt lon="35.28380907140672" lat="31.229135245084763">
        <ele>229.8000030517578</ele>
        <time>2014-02-07T08:02:39.000Z</time>
      </trkpt>
      <trkpt lon="35.28386238031089" lat="31.229131305590272">
        <ele>229.8000030517578</ele>
        <time>2014-02-07T08:02:40.000Z</time>
      </trkpt>
      <trkpt lon="35.28396975249052" lat="31.229121247306466">
        <ele>229.39999389648438</ele>
        <time>2014-02-07T08:02:42.000Z</time>
      </trkpt>
      <trkpt lon="35.284023731946945" lat="31.229108842089772">
        <ele>229.0</ele>
        <time>2014-02-07T08:02:43.000Z</time>
      </trkpt>
      <trkpt lon="35.28452287428081" lat="31.229022005572915">
        <ele>228.39999389648438</ele>
        <time>2014-02-07T08:02:51.000Z</time>
      </trkpt>
      <trkpt lon="35.285120252519846" lat="31.228925362229347">
        <ele>225.60000610351562</ele>
        <time>2014-02-07T08:02:59.000Z</time>
      </trkpt>
      <trkpt lon="35.28554571792483" lat="31.22876920737326">
        <ele>223.60000610351562</ele>
        <time>2014-02-07T08:03:05.000Z</time>
      </trkpt>
      <trkpt lon="35.28593312948942" lat="31.228650771081448">
        <ele>222.60000610351562</ele>
        <time>2014-02-07T08:03:11.000Z</time>
      </trkpt>
      <trkpt lon="35.28604594990611" lat="31.228593522682786">
        <ele>222.1999969482422</ele>
        <time>2014-02-07T08:03:13.000Z</time>
      </trkpt>
      <trkpt lon="35.28611141256988" lat="31.228567706421018">
        <ele>221.8000030517578</ele>
        <time>2014-02-07T08:03:14.000Z</time>
      </trkpt>
      <trkpt lon="35.28618190437555" lat="31.228545578196645">
        <ele>221.8000030517578</ele>
        <time>2014-02-07T08:03:15.000Z</time>
      </trkpt>
      <trkpt lon="35.286445850506425" lat="31.228493945673108">
        <ele>221.1999969482422</ele>
        <time>2014-02-07T08:03:19.000Z</time>
      </trkpt>
      <trkpt lon="35.286795292049646" lat="31.22840409167111">
        <ele>220.8000030517578</ele>
        <time>2014-02-07T08:03:24.000Z</time>
      </trkpt>
      <trkpt lon="35.28710919432342" lat="31.228349106386304">
        <ele>220.8000030517578</ele>
        <time>2014-02-07T08:03:28.000Z</time>
      </trkpt>
      <trkpt lon="35.287276497110724" lat="31.22833569534123">
        <ele>220.1999969482422</ele>
        <time>2014-02-07T08:03:30.000Z</time>
      </trkpt>
      <trkpt lon="35.28735604137182" lat="31.228318512439728">
        <ele>220.1999969482422</ele>
        <time>2014-02-07T08:03:31.000Z</time>
      </trkpt>
      <trkpt lon="35.28742661699653" lat="31.22829663567245">
        <ele>220.1999969482422</ele>
        <time>2014-02-07T08:03:32.000Z</time>
      </trkpt>
      <trkpt lon="35.287489984184504" lat="31.22827065177262">
        <ele>220.1999969482422</ele>
        <time>2014-02-07T08:03:33.000Z</time>
      </trkpt>
      <trkpt lon="35.287543376907706" lat="31.228238381445408">
        <ele>220.1999969482422</ele>
        <time>2014-02-07T08:03:34.000Z</time>
      </trkpt>
      <trkpt lon="35.28758939355612" lat="31.22820041142404">
        <ele>220.1999969482422</ele>
        <time>2014-02-07T08:03:35.000Z</time>
      </trkpt>
      <trkpt lon="35.28762677684426" lat="31.228152131661773">
        <ele>219.8000030517578</ele>
        <time>2014-02-07T08:03:36.000Z</time>
      </trkpt>
      <trkpt lon="35.2876644115895" lat="31.228101085871458">
        <ele>219.8000030517578</ele>
        <time>2014-02-07T08:03:37.000Z</time>
      </trkpt>
      <trkpt lon="35.28771059587598" lat="31.228057499974966">
        <ele>219.39999389648438</ele>
        <time>2014-02-07T08:03:38.000Z</time>
      </trkpt>
      <trkpt lon="35.28776499442756" lat="31.228024726733565">
        <ele>218.8000030517578</ele>
        <time>2014-02-07T08:03:39.000Z</time>
      </trkpt>
      <trkpt lon="35.28782148845494" lat="31.228010561317205">
        <ele>218.8000030517578</ele>
        <time>2014-02-07T08:03:40.000Z</time>
      </trkpt>
      <trkpt lon="35.287877563387156" lat="31.228008130565286">
        <ele>218.39999389648438</ele>
        <time>2014-02-07T08:03:41.000Z</time>
      </trkpt>
      <trkpt lon="35.28792953118682" lat="31.228011902421713">
        <ele>218.8000030517578</ele>
        <time>2014-02-07T08:03:42.000Z</time>
      </trkpt>
      <trkpt lon="35.28816506266594" lat="31.227975776419044">
        <ele>220.1999969482422</ele>
        <time>2014-02-07T08:03:48.000Z</time>
      </trkpt>
      <trkpt lon="35.28837754391134" lat="31.227880055084825">
        <ele>221.8000030517578</ele>
        <time>2014-02-07T08:03:56.000Z</time>
      </trkpt>
      <trkpt lon="35.28853143565357" lat="31.22782993130386">
        <ele>221.1999969482422</ele>
        <time>2014-02-07T08:03:59.000Z</time>
      </trkpt>
      <trkpt lon="35.28878423385322" lat="31.2277518119663">
        <ele>220.8000030517578</ele>
        <time>2014-02-07T08:04:03.000Z</time>
      </trkpt>
      <trkpt lon="35.28883452527225" lat="31.227720798924565">
        <ele>220.1999969482422</ele>
        <time>2014-02-07T08:04:04.000Z</time>
      </trkpt>
      <trkpt lon="35.288934018462896" lat="31.227651815861464">
        <ele>219.8000030517578</ele>
        <time>2014-02-07T08:04:06.000Z</time>
      </trkpt>
      <trkpt lon="35.2889908477664" lat="31.227623401209712">
        <ele>219.39999389648438</ele>
        <time>2014-02-07T08:04:07.000Z</time>
      </trkpt>
      <trkpt lon="35.289050275459886" lat="31.227597501128912">
        <ele>219.39999389648438</ele>
        <time>2014-02-07T08:04:08.000Z</time>
      </trkpt>
      <trkpt lon="35.289497869089246" lat="31.22740237042308">
        <ele>219.39999389648438</ele>
        <time>2014-02-07T08:04:15.000Z</time>
      </trkpt>
      <trkpt lon="35.289616137742996" lat="31.227347385138273">
        <ele>219.39999389648438</ele>
        <time>2014-02-07T08:04:17.000Z</time>
      </trkpt>
      <trkpt lon="35.28967430815101" lat="31.22732919640839">
        <ele>218.8000030517578</ele>
        <time>2014-02-07T08:04:18.000Z</time>
      </trkpt>
      <trkpt lon="35.28973859734833" lat="31.227317629382014">
        <ele>218.39999389648438</ele>
        <time>2014-02-07T08:04:19.000Z</time>
      </trkpt>
      <trkpt lon="35.28980900533497" lat="31.227307487279177">
        <ele>217.8000030517578</ele>
        <time>2014-02-07T08:04:20.000Z</time>
      </trkpt>
      <trkpt lon="35.28988662175834" lat="31.22729877009988">
        <ele>217.39999389648438</ele>
        <time>2014-02-07T08:04:21.000Z</time>
      </trkpt>
      <trkpt lon="35.29030077159405" lat="31.22723389416933">
        <ele>214.60000610351562</ele>
        <time>2014-02-07T08:04:26.000Z</time>
      </trkpt>
      <trkpt lon="35.29045633971691" lat="31.227167258039117">
        <ele>213.0</ele>
        <time>2014-02-07T08:04:28.000Z</time>
      </trkpt>
      <trkpt lon="35.290526831522584" lat="31.22712534852326">
        <ele>212.60000610351562</ele>
        <time>2014-02-07T08:04:29.000Z</time>
      </trkpt>
      <trkpt lon="35.29059170745313" lat="31.22708042152226">
        <ele>212.1999969482422</ele>
        <time>2014-02-07T08:04:30.000Z</time>
      </trkpt>
      <trkpt lon="35.290650548413396" lat="31.227031471207738">
        <ele>211.60000610351562</ele>
        <time>2014-02-07T08:04:31.000Z</time>
      </trkpt>
      <trkpt lon="35.290705198422074" lat="31.22697682119906">
        <ele>211.60000610351562</ele>
        <time>2014-02-07T08:04:32.000Z</time>
      </trkpt>
      <trkpt lon="35.29075523838401" lat="31.22692066244781">
        <ele>211.1999969482422</ele>
        <time>2014-02-07T08:04:33.000Z</time>
      </trkpt>
      <trkpt lon="35.291050700470805" lat="31.226663505658507">
        <ele>209.1999969482422</ele>
        <time>2014-02-07T08:04:38.000Z</time>
      </trkpt>
      <trkpt lon="35.29112119227648" lat="31.226622769609094">
        <ele>209.1999969482422</ele>
        <time>2014-02-07T08:04:39.000Z</time>
      </trkpt>
      <trkpt lon="35.291330236941576" lat="31.22651313431561">
        <ele>207.8000030517578</ele>
        <time>2014-02-07T08:04:42.000Z</time>
      </trkpt>
      <trkpt lon="35.29139771126211" lat="31.22647021897137">
        <ele>207.39999389648438</ele>
        <time>2014-02-07T08:04:43.000Z</time>
      </trkpt>
      <trkpt lon="35.29168177396059" lat="31.22631079517305">
        <ele>206.8000030517578</ele>
        <time>2014-02-07T08:04:47.000Z</time>
      </trkpt>
      <trkpt lon="35.2918213326484" lat="31.226243991404772">
        <ele>206.39999389648438</ele>
        <time>2014-02-07T08:04:49.000Z</time>
      </trkpt>
      <trkpt lon="35.29188268817961" lat="31.226199064403772">
        <ele>206.39999389648438</ele>
        <time>2014-02-07T08:04:50.000Z</time>
      </trkpt>
      <trkpt lon="35.2919368352741" lat="31.22614860534668">
        <ele>205.8000030517578</ele>
        <time>2014-02-07T08:04:51.000Z</time>
      </trkpt>
      <trkpt lon="35.29198578558862" lat="31.226094290614128">
        <ele>205.39999389648438</ele>
        <time>2014-02-07T08:04:52.000Z</time>
      </trkpt>
      <trkpt lon="35.292041609063745" lat="31.22604265809059">
        <ele>204.8000030517578</ele>
        <time>2014-02-07T08:04:53.000Z</time>
      </trkpt>
      <trkpt lon="35.292101707309484" lat="31.225992450490594">
        <ele>204.8000030517578</ele>
        <time>2014-02-07T08:04:54.000Z</time>
      </trkpt>
      <trkpt lon="35.29217043891549" lat="31.225946098566055">
        <ele>204.39999389648438</ele>
        <time>2014-02-07T08:04:55.000Z</time>
      </trkpt>
      <trkpt lon="35.2922460436821" lat="31.225904608145356">
        <ele>204.0</ele>
        <time>2014-02-07T08:04:56.000Z</time>
      </trkpt>
      <trkpt lon="35.292325001209974" lat="31.22586965560913">
        <ele>203.39999389648438</ele>
        <time>2014-02-07T08:04:57.000Z</time>
      </trkpt>
      <trkpt lon="35.29240638948977" lat="31.225842414423823">
        <ele>203.0</ele>
        <time>2014-02-07T08:04:58.000Z</time>
      </trkpt>
      <trkpt lon="35.292662708088756" lat="31.225778460502625">
        <ele>202.0</ele>
        <time>2014-02-07T08:05:01.000Z</time>
      </trkpt>
      <trkpt lon="35.292745269834995" lat="31.22577485628426">
        <ele>201.60000610351562</ele>
        <time>2014-02-07T08:05:02.000Z</time>
      </trkpt>
      <trkpt lon="35.293068727478385" lat="31.22579539194703">
        <ele>201.0</ele>
        <time>2014-02-07T08:05:07.000Z</time>
      </trkpt>
      <trkpt lon="35.29312564060092" lat="31.225791284814477">
        <ele>201.60000610351562</ele>
        <time>2014-02-07T08:05:08.000Z</time>
      </trkpt>
      <trkpt lon="35.293179200962186" lat="31.225778963416815">
        <ele>201.60000610351562</ele>
        <time>2014-02-07T08:05:09.000Z</time>
      </trkpt>
      <trkpt lon="35.29328581877053" lat="31.225747279822826">
        <ele>202.0</ele>
        <time>2014-02-07T08:05:11.000Z</time>
      </trkpt>
      <trkpt lon="35.293330578133464" lat="31.225723726674914">
        <ele>202.0</ele>
        <time>2014-02-07T08:05:12.000Z</time>
      </trkpt>
      <trkpt lon="35.29357600025833" lat="31.22554033063352">
        <ele>201.60000610351562</ele>
        <time>2014-02-07T08:05:17.000Z</time>
      </trkpt>
      <trkpt lon="35.293638948351145" lat="31.225515101104975">
        <ele>201.60000610351562</ele>
        <time>2014-02-07T08:05:18.000Z</time>
      </trkpt>
      <trkpt lon="35.29376484453678" lat="31.22547822073102">
        <ele>201.60000610351562</ele>
        <time>2014-02-07T08:05:20.000Z</time>
      </trkpt>
      <trkpt lon="35.29383416287601" lat="31.225466653704643">
        <ele>201.60000610351562</ele>
        <time>2014-02-07T08:05:21.000Z</time>
      </trkpt>
      <trkpt lon="35.2939916588366" lat="31.22544452548027">
        <ele>201.0</ele>
        <time>2014-02-07T08:05:23.000Z</time>
      </trkpt>
      <trkpt lon="35.29407748952508" lat="31.225446201860905">
        <ele>200.60000610351562</ele>
        <time>2014-02-07T08:05:24.000Z</time>
      </trkpt>
      <trkpt lon="35.294164745137095" lat="31.225460954010487">
        <ele>200.60000610351562</ele>
        <time>2014-02-07T08:05:25.000Z</time>
      </trkpt>
      <trkpt lon="35.29444537125528" lat="31.22549096122384">
        <ele>200.60000610351562</ele>
        <time>2014-02-07T08:05:29.000Z</time>
      </trkpt>
      <trkpt lon="35.294493148103356" lat="31.225477633997798">
        <ele>200.60000610351562</ele>
        <time>2014-02-07T08:05:30.000Z</time>
      </trkpt>
      <trkpt lon="35.294535057619214" lat="31.225452655926347">
        <ele>200.60000610351562</ele>
        <time>2014-02-07T08:05:31.000Z</time>
      </trkpt>
      <trkpt lon="35.29457394964993" lat="31.225412003695965">
        <ele>200.0</ele>
        <time>2014-02-07T08:05:32.000Z</time>
      </trkpt>
      <trkpt lon="35.294618122279644" lat="31.225359281525016">
        <ele>199.1999969482422</ele>
        <time>2014-02-07T08:05:33.000Z</time>
      </trkpt>
      <trkpt lon="35.29487687163055" lat="31.22508980333805">
        <ele>196.8000030517578</ele>
        <time>2014-02-07T08:05:38.000Z</time>
      </trkpt>
      <trkpt lon="35.29512128792703" lat="31.224834490567446">
        <ele>194.8000030517578</ele>
        <time>2014-02-07T08:05:44.000Z</time>
      </trkpt>
      <trkpt lon="35.295268055051565" lat="31.224691327661276">
        <ele>193.8000030517578</ele>
        <time>2014-02-07T08:05:47.000Z</time>
      </trkpt>
      <trkpt lon="35.295299319550395" lat="31.224636510014534">
        <ele>193.39999389648438</ele>
        <time>2014-02-07T08:05:48.000Z</time>
      </trkpt>
      <trkpt lon="35.295314993709326" lat="31.224574148654938">
        <ele>192.8000030517578</ele>
        <time>2014-02-07T08:05:49.000Z</time>
      </trkpt>
      <trkpt lon="35.29531675390899" lat="31.22450726106763">
        <ele>192.39999389648438</ele>
        <time>2014-02-07T08:05:50.000Z</time>
      </trkpt>
      <trkpt lon="35.29531356878579" lat="31.224438613280654">
        <ele>192.0</ele>
        <time>2014-02-07T08:05:51.000Z</time>
      </trkpt>
      <trkpt lon="35.295316418632865" lat="31.224368792027235">
        <ele>191.0</ele>
        <time>2014-02-07T08:05:52.000Z</time>
      </trkpt>
      <trkpt lon="35.295331086963415" lat="31.224303245544434">
        <ele>190.39999389648438</ele>
        <time>2014-02-07T08:05:53.000Z</time>
      </trkpt>
      <trkpt lon="35.29542915523052" lat="31.224066708236933">
        <ele>191.0</ele>
        <time>2014-02-07T08:05:58.000Z</time>
      </trkpt>
      <trkpt lon="35.29549243859947" lat="31.2239371240139">
        <ele>192.8000030517578</ele>
        <time>2014-02-07T08:06:03.000Z</time>
      </trkpt>
      <trkpt lon="35.29550660401583" lat="31.223902255296707">
        <ele>193.39999389648438</ele>
        <time>2014-02-07T08:06:05.000Z</time>
      </trkpt>
      <trkpt lon="35.29550425708294" lat="31.22388574294746">
        <ele>193.39999389648438</ele>
        <time>2014-02-07T08:06:06.000Z</time>
      </trkpt>
      <trkpt lon="35.29544533230364" lat="31.223764456808567">
        <ele>194.8000030517578</ele>
        <time>2014-02-07T08:06:13.000Z</time>
      </trkpt>
      <trkpt lon="35.29538649134338" lat="31.223671920597553">
        <ele>196.1999969482422</ele>
        <time>2014-02-07T08:06:19.000Z</time>
      </trkpt>
      <trkpt lon="35.295254895463586" lat="31.22359304688871">
        <ele>197.60000610351562</ele>
        <time>2014-02-07T08:06:27.000Z</time>
      </trkpt>
      <trkpt lon="35.29514961875975" lat="31.223559686914086">
        <ele>198.1999969482422</ele>
        <time>2014-02-07T08:06:33.000Z</time>
      </trkpt>
      <trkpt lon="35.29514769092202" lat="31.223562955856323">
        <ele>198.60000610351562</ele>
        <time>2014-02-07T08:06:44.000Z</time>
      </trkpt>
      <trkpt lon="35.2951521333307" lat="31.2235658057034">
        <ele>196.8000030517578</ele>
        <time>2014-02-07T08:07:05.000Z</time>
      </trkpt>
      <trkpt lon="35.29516437090933" lat="31.223570499569178">
        <ele>196.1999969482422</ele>
        <time>2014-02-07T08:07:17.000Z</time>
      </trkpt>
      <trkpt lon="35.295162945985794" lat="31.22357544489205">
        <ele>195.8000030517578</ele>
        <time>2014-02-07T08:07:38.000Z</time>
      </trkpt>
      <trkpt lon="35.295157665386796" lat="31.223578294739127">
        <ele>196.8000030517578</ele>
        <time>2014-02-07T08:07:52.000Z</time>
      </trkpt>
      <trkpt lon="35.29516898095608" lat="31.223577205091715">
        <ele>198.1999969482422</ele>
        <time>2014-02-07T08:08:09.000Z</time>
      </trkpt>
      <trkpt lon="35.295166382566094" lat="31.22358382679522">
        <ele>196.8000030517578</ele>
        <time>2014-02-07T08:08:26.000Z</time>
      </trkpt>
      <trkpt lon="35.295162443071604" lat="31.223581982776523">
        <ele>195.8000030517578</ele>
        <time>2014-02-07T08:08:48.000Z</time>
      </trkpt>
      <trkpt lon="35.295160515233874" lat="31.22358030639589">
        <ele>196.1999969482422</ele>
        <time>2014-02-07T08:09:10.000Z</time>
      </trkpt>
      <trkpt lon="35.29516277834773" lat="31.22358474880457">
        <ele>196.1999969482422</ele>
        <time>2014-02-07T08:09:35.000Z</time>
      </trkpt>
      <trkpt lon="35.29515800066292" lat="31.223583575338125">
        <ele>196.8000030517578</ele>
        <time>2014-02-07T08:09:58.000Z</time>
      </trkpt>
      <trkpt lon="35.29516411945224" lat="31.22357988730073">
        <ele>197.1999969482422</ele>
        <time>2014-02-07T08:10:18.000Z</time>
      </trkpt>
      <trkpt lon="35.295160515233874" lat="31.22358374297619">
        <ele>197.1999969482422</ele>
        <time>2014-02-07T08:10:44.000Z</time>
      </trkpt>
      <trkpt lon="35.295164957642555" lat="31.223586425185204">
        <ele>197.1999969482422</ele>
        <time>2014-02-07T08:11:06.000Z</time>
      </trkpt>
      <trkpt lon="35.29515347443521" lat="31.223577624186873">
        <ele>197.60000610351562</ele>
        <time>2014-02-07T08:11:37.000Z</time>
      </trkpt>
      <trkpt lon="35.29515640810132" lat="31.22358189895749">
        <ele>198.60000610351562</ele>
        <time>2014-02-07T08:12:00.000Z</time>
      </trkpt>
      <trkpt lon="35.295148780569434" lat="31.223576199263334">
        <ele>199.1999969482422</ele>
        <time>2014-02-07T08:12:08.000Z</time>
      </trkpt>
      <trkpt lon="35.295135620981455" lat="31.22356228530407">
        <ele>199.60000610351562</ele>
        <time>2014-02-07T08:12:30.000Z</time>
      </trkpt>
      <trkpt lon="35.29513210058212" lat="31.223569326102734">
        <ele>198.60000610351562</ele>
        <time>2014-02-07T08:12:53.000Z</time>
      </trkpt>
      <trkpt lon="35.29510762542486" lat="31.223572175949812">
        <ele>198.60000610351562</ele>
        <time>2014-02-07T08:13:09.000Z</time>
      </trkpt>
      <trkpt lon="35.29510737396777" lat="31.2235676497221">
        <ele>198.60000610351562</ele>
        <time>2014-02-07T08:13:20.000Z</time>
      </trkpt>
      <trkpt lon="35.295054484158754" lat="31.223564129322767">
        <ele>199.1999969482422</ele>
        <time>2014-02-07T08:13:35.000Z</time>
      </trkpt>
      <trkpt lon="35.29502724297345" lat="31.223565470427275">
        <ele>199.60000610351562</ele>
        <time>2014-02-07T08:13:40.000Z</time>
      </trkpt>
      <trkpt lon="35.295011484995484" lat="31.223565470427275">
        <ele>199.60000610351562</ele>
        <time>2014-02-07T08:13:41.000Z</time>
      </trkpt>
      <trkpt lon="35.29483797959983" lat="31.223559603095055">
        <ele>199.60000610351562</ele>
        <time>2014-02-07T08:13:48.000Z</time>
      </trkpt>
      <trkpt lon="35.294810151681304" lat="31.22354770079255">
        <ele>200.0</ele>
        <time>2014-02-07T08:13:49.000Z</time>
      </trkpt>
      <trkpt lon="35.29479280114174" lat="31.223532194271684">
        <ele>200.0</ele>
        <time>2014-02-07T08:13:50.000Z</time>
      </trkpt>
      <trkpt lon="35.29479078948498" lat="31.22351149097085">
        <ele>200.60000610351562</ele>
        <time>2014-02-07T08:13:51.000Z</time>
      </trkpt>
      <trkpt lon="35.294803362339735" lat="31.22348609380424">
        <ele>201.0</ele>
        <time>2014-02-07T08:13:52.000Z</time>
      </trkpt>
      <trkpt lon="35.29482498764992" lat="31.22345969080925">
        <ele>201.60000610351562</ele>
        <time>2014-02-07T08:13:53.000Z</time>
      </trkpt>
      <trkpt lon="35.29485600069165" lat="31.22343622148037">
        <ele>201.60000610351562</ele>
        <time>2014-02-07T08:13:54.000Z</time>
      </trkpt>
      <trkpt lon="35.294887935742736" lat="31.223413422703743">
        <ele>201.60000610351562</ele>
        <time>2014-02-07T08:13:55.000Z</time>
      </trkpt>
      <trkpt lon="35.29493168927729" lat="31.223288783803582">
        <ele>202.0</ele>
        <time>2014-02-07T08:14:00.000Z</time>
      </trkpt>
      <trkpt lon="35.29480470344424" lat="31.223180489614606">
        <ele>202.0</ele>
        <time>2014-02-07T08:14:05.000Z</time>
      </trkpt>
      <trkpt lon="35.29462072066963" lat="31.223097257316113">
        <ele>202.0</ele>
        <time>2014-02-07T08:14:10.000Z</time>
      </trkpt>
      <trkpt lon="35.2945944853127" lat="31.223069680854678">
        <ele>202.0</ele>
        <time>2014-02-07T08:14:11.000Z</time>
      </trkpt>
      <trkpt lon="35.29457629658282" lat="31.22303506359458">
        <ele>201.60000610351562</ele>
        <time>2014-02-07T08:14:12.000Z</time>
      </trkpt>
      <trkpt lon="35.294565400108695" lat="31.22299457900226">
        <ele>201.60000610351562</ele>
        <time>2014-02-07T08:14:13.000Z</time>
      </trkpt>
      <trkpt lon="35.294558526948094" lat="31.222949232906103">
        <ele>201.0</ele>
        <time>2014-02-07T08:14:14.000Z</time>
      </trkpt>
      <trkpt lon="35.29455492272973" lat="31.22290162369609">
        <ele>200.60000610351562</ele>
        <time>2014-02-07T08:14:15.000Z</time>
      </trkpt>
      <trkpt lon="35.294558107852936" lat="31.222856864333153">
        <ele>200.0</ele>
        <time>2014-02-07T08:14:16.000Z</time>
      </trkpt>
      <trkpt lon="35.29456866905093" lat="31.22281906194985">
        <ele>199.1999969482422</ele>
        <time>2014-02-07T08:14:17.000Z</time>
      </trkpt>
      <trkpt lon="35.294585013762116" lat="31.222785701975226">
        <ele>198.60000610351562</ele>
        <time>2014-02-07T08:14:18.000Z</time>
      </trkpt>
      <trkpt lon="35.294615188613534" lat="31.22275896370411">
        <ele>198.1999969482422</ele>
        <time>2014-02-07T08:14:19.000Z</time>
      </trkpt>
      <trkpt lon="35.29465248808265" lat="31.22273306362331">
        <ele>197.60000610351562</ele>
        <time>2014-02-07T08:14:20.000Z</time>
      </trkpt>
      <trkpt lon="35.29469163157046" lat="31.22269794344902">
        <ele>197.1999969482422</ele>
        <time>2014-02-07T08:14:21.000Z</time>
      </trkpt>
      <trkpt lon="35.29472985304892" lat="31.22265595011413">
        <ele>196.8000030517578</ele>
        <time>2014-02-07T08:14:22.000Z</time>
      </trkpt>
      <trkpt lon="35.29482171870768" lat="31.222565174102783">
        <ele>195.1999969482422</ele>
        <time>2014-02-07T08:14:24.000Z</time>
      </trkpt>
      <trkpt lon="35.2948775421828" lat="31.222534580156207">
        <ele>194.8000030517578</ele>
        <time>2014-02-07T08:14:25.000Z</time>
      </trkpt>
      <trkpt lon="35.2949364669621" lat="31.222512535750866">
        <ele>194.8000030517578</ele>
        <time>2014-02-07T08:14:26.000Z</time>
      </trkpt>
      <trkpt lon="35.29499480500817" lat="31.222495520487428">
        <ele>193.8000030517578</ele>
        <time>2014-02-07T08:14:27.000Z</time>
      </trkpt>
      <trkpt lon="35.295056914910674" lat="31.222481103613973">
        <ele>193.8000030517578</ele>
        <time>2014-02-07T08:14:28.000Z</time>
      </trkpt>
      <trkpt lon="35.29511969536543" lat="31.222472554072738">
        <ele>193.39999389648438</ele>
        <time>2014-02-07T08:14:29.000Z</time>
      </trkpt>
      <trkpt lon="35.295184068381786" lat="31.22246626764536">
        <ele>193.39999389648438</ele>
        <time>2014-02-07T08:14:30.000Z</time>
      </trkpt>
      <trkpt lon="35.29531608335674" lat="31.222447408363223">
        <ele>192.8000030517578</ele>
        <time>2014-02-07T08:14:32.000Z</time>
      </trkpt>
      <trkpt lon="35.29538322240114" lat="31.222428046166897">
        <ele>192.0</ele>
        <time>2014-02-07T08:14:33.000Z</time>
      </trkpt>
      <trkpt lon="35.2954494394362" lat="31.222398206591606">
        <ele>191.39999389648438</ele>
        <time>2014-02-07T08:14:34.000Z</time>
      </trkpt>
      <trkpt lon="35.29551557265222" lat="31.222373312339187">
        <ele>191.0</ele>
        <time>2014-02-07T08:14:35.000Z</time>
      </trkpt>
      <trkpt lon="35.29558153823018" lat="31.222365433350205">
        <ele>190.0</ele>
        <time>2014-02-07T08:14:36.000Z</time>
      </trkpt>
      <trkpt lon="35.29564549215138" lat="31.222371887415648">
        <ele>189.60000610351562</ele>
        <time>2014-02-07T08:14:37.000Z</time>
      </trkpt>
      <trkpt lon="35.29570743441582" lat="31.222390914335847">
        <ele>189.60000610351562</ele>
        <time>2014-02-07T08:14:38.000Z</time>
      </trkpt>
      <trkpt lon="35.295764431357384" lat="31.22242083773017">
        <ele>189.60000610351562</ele>
        <time>2014-02-07T08:14:39.000Z</time>
      </trkpt>
      <trkpt lon="35.295819668099284" lat="31.22245159931481">
        <ele>189.60000610351562</ele>
        <time>2014-02-07T08:14:40.000Z</time>
      </trkpt>
      <trkpt lon="35.29587968252599" lat="31.222475403919816">
        <ele>189.60000610351562</ele>
        <time>2014-02-07T08:14:41.000Z</time>
      </trkpt>
      <trkpt lon="35.295942798256874" lat="31.222493005916476">
        <ele>190.0</ele>
        <time>2014-02-07T08:14:42.000Z</time>
      </trkpt>
      <trkpt lon="35.29600650072098" lat="31.222505494952202">
        <ele>190.0</ele>
        <time>2014-02-07T08:14:43.000Z</time>
      </trkpt>
      <trkpt lon="35.29617187567055" lat="31.222535334527493">
        <ele>191.39999389648438</ele>
        <time>2014-02-07T08:14:46.000Z</time>
      </trkpt>
      <trkpt lon="35.29622074216604" lat="31.222539022564888">
        <ele>192.0</ele>
        <time>2014-02-07T08:14:47.000Z</time>
      </trkpt>
      <trkpt lon="35.29631730169058" lat="31.222533071413636">
        <ele>192.0</ele>
        <time>2014-02-07T08:14:49.000Z</time>
      </trkpt>
      <trkpt lon="35.29636390507221" lat="31.222521169111133">
        <ele>192.0</ele>
        <time>2014-02-07T08:14:50.000Z</time>
      </trkpt>
      <trkpt lon="35.29641034081578" lat="31.222507590427995">
        <ele>192.0</ele>
        <time>2014-02-07T08:14:51.000Z</time>
      </trkpt>
      <trkpt lon="35.296459794044495" lat="31.22249661013484">
        <ele>192.0</ele>
        <time>2014-02-07T08:14:52.000Z</time>
      </trkpt>
      <trkpt lon="35.29651025310159" lat="31.22249082662165">
        <ele>192.0</ele>
        <time>2014-02-07T08:14:53.000Z</time>
      </trkpt>
      <trkpt lon="35.29656163416803" lat="31.222490156069398">
        <ele>192.39999389648438</ele>
        <time>2014-02-07T08:14:54.000Z</time>
      </trkpt>
      <trkpt lon="35.29666238464415" lat="31.22248579747975">
        <ele>192.8000030517578</ele>
        <time>2014-02-07T08:14:56.000Z</time>
      </trkpt>
      <trkpt lon="35.29670940712094" lat="31.22247808612883">
        <ele>192.8000030517578</ele>
        <time>2014-02-07T08:14:57.000Z</time>
      </trkpt>
      <trkpt lon="35.29675416648388" lat="31.222467022016644">
        <ele>192.8000030517578</ele>
        <time>2014-02-07T08:14:58.000Z</time>
      </trkpt>
      <trkpt lon="35.29679766856134" lat="31.2224536947906">
        <ele>192.8000030517578</ele>
        <time>2014-02-07T08:14:59.000Z</time>
      </trkpt>
      <trkpt lon="35.29683924280107" lat="31.222442463040352">
        <ele>192.8000030517578</ele>
        <time>2014-02-07T08:15:00.000Z</time>
      </trkpt>
      <trkpt lon="35.297102853655815" lat="31.22238320298493">
        <ele>195.1999969482422</ele>
        <time>2014-02-07T08:15:07.000Z</time>
      </trkpt>
      <trkpt lon="35.29729035682976" lat="31.222360907122493">
        <ele>195.8000030517578</ele>
        <time>2014-02-07T08:15:13.000Z</time>
      </trkpt>
      <trkpt lon="35.29744416475296" lat="31.222319919615984">
        <ele>196.8000030517578</ele>
        <time>2014-02-07T08:15:17.000Z</time>
      </trkpt>
      <trkpt lon="35.29749261215329" lat="31.222297959029675">
        <ele>196.1999969482422</ele>
        <time>2014-02-07T08:15:18.000Z</time>
      </trkpt>
      <trkpt lon="35.29754374176264" lat="31.222272729501128">
        <ele>196.1999969482422</ele>
        <time>2014-02-07T08:15:19.000Z</time>
      </trkpt>
      <trkpt lon="35.297750271856785" lat="31.22218145057559">
        <ele>195.8000030517578</ele>
        <time>2014-02-07T08:15:23.000Z</time>
      </trkpt>
      <trkpt lon="35.297980355098844" lat="31.22212185524404">
        <ele>195.8000030517578</ele>
        <time>2014-02-07T08:15:27.000Z</time>
      </trkpt>
      <trkpt lon="35.29803751967847" lat="31.222124034538865">
        <ele>195.1999969482422</ele>
        <time>2014-02-07T08:15:28.000Z</time>
      </trkpt>
      <trkpt lon="35.298523250967264" lat="31.222158735617995">
        <ele>192.39999389648438</ele>
        <time>2014-02-07T08:15:35.000Z</time>
      </trkpt>
      <trkpt lon="35.29928223229945" lat="31.22213208116591">
        <ele>189.0</ele>
        <time>2014-02-07T08:15:44.000Z</time>
      </trkpt>
      <trkpt lon="35.29982085339725" lat="31.22206670232117">
        <ele>186.60000610351562</ele>
        <time>2014-02-07T08:15:51.000Z</time>
      </trkpt>
      <trkpt lon="35.29989939182997" lat="31.222073743119836">
        <ele>187.1999969482422</ele>
        <time>2014-02-07T08:15:52.000Z</time>
      </trkpt>
      <trkpt lon="35.29997834935784" lat="31.22208656743169">
        <ele>187.1999969482422</ele>
        <time>2014-02-07T08:15:53.000Z</time>
      </trkpt>
      <trkpt lon="35.30005680397153" lat="31.222097547724843">
        <ele>187.1999969482422</ele>
        <time>2014-02-07T08:15:54.000Z</time>
      </trkpt>
      <trkpt lon="35.30013165436685" lat="31.222101571038365">
        <ele>187.60000610351562</ele>
        <time>2014-02-07T08:15:55.000Z</time>
      </trkpt>
      <trkpt lon="35.30020298436284" lat="31.22210123576224">
        <ele>187.60000610351562</ele>
        <time>2014-02-07T08:15:56.000Z</time>
      </trkpt>
      <trkpt lon="35.300272051244974" lat="31.222099727019668">
        <ele>187.60000610351562</ele>
        <time>2014-02-07T08:15:57.000Z</time>
      </trkpt>
      <trkpt lon="35.300403060391545" lat="31.222107438370585">
        <ele>188.0</ele>
        <time>2014-02-07T08:15:59.000Z</time>
      </trkpt>
      <trkpt lon="35.3007972612977" lat="31.222250433638692">
        <ele>188.60000610351562</ele>
        <time>2014-02-07T08:16:06.000Z</time>
      </trkpt>
      <trkpt lon="35.30101653188467" lat="31.2223363481462">
        <ele>189.60000610351562</ele>
        <time>2014-02-07T08:16:10.000Z</time>
      </trkpt>
      <trkpt lon="35.301378294825554" lat="31.22239694930613">
        <ele>190.39999389648438</ele>
        <time>2014-02-07T08:16:17.000Z</time>
      </trkpt>
      <trkpt lon="35.301624136045575" lat="31.222469117492437">
        <ele>192.39999389648438</ele>
        <time>2014-02-07T08:16:25.000Z</time>
      </trkpt>
      <trkpt lon="35.30181088484824" lat="31.22261982411146">
        <ele>194.39999389648438</ele>
        <time>2014-02-07T08:16:33.000Z</time>
      </trkpt>
      <trkpt lon="35.301973996683955" lat="31.22288452461362">
        <ele>195.8000030517578</ele>
        <time>2014-02-07T08:16:42.000Z</time>
      </trkpt>
      <trkpt lon="35.30217910185456" lat="31.22309608384967">
        <ele>195.1999969482422</ele>
        <time>2014-02-07T08:16:49.000Z</time>
      </trkpt>
      <trkpt lon="35.30241253785789" lat="31.223234133794904">
        <ele>194.8000030517578</ele>
        <time>2014-02-07T08:16:55.000Z</time>
      </trkpt>
      <trkpt lon="35.302627282217145" lat="31.223343014717102">
        <ele>192.8000030517578</ele>
        <time>2014-02-07T08:16:59.000Z</time>
      </trkpt>
      <trkpt lon="35.30268277041614" lat="31.223378721624613">
        <ele>192.39999389648438</ele>
        <time>2014-02-07T08:17:00.000Z</time>
      </trkpt>
      <trkpt lon="35.30304905958474" lat="31.223673513159156">
        <ele>188.60000610351562</ele>
        <time>2014-02-07T08:17:06.000Z</time>
      </trkpt>
      <trkpt lon="35.303106140345335" lat="31.223736628890038">
        <ele>187.1999969482422</ele>
        <time>2014-02-07T08:17:07.000Z</time>
      </trkpt>
      <trkpt lon="35.303160874173045" lat="31.223799576982856">
        <ele>186.1999969482422</ele>
        <time>2014-02-07T08:17:08.000Z</time>
      </trkpt>
      <trkpt lon="35.3032218106091" lat="31.223858082666993">
        <ele>185.60000610351562</ele>
        <time>2014-02-07T08:17:09.000Z</time>
      </trkpt>
      <trkpt lon="35.30328995548189" lat="31.22390879318118">
        <ele>185.1999969482422</ele>
        <time>2014-02-07T08:17:10.000Z</time>
      </trkpt>
      <trkpt lon="35.30336178839207" lat="31.22395170852542">
        <ele>184.8000030517578</ele>
        <time>2014-02-07T08:17:11.000Z</time>
      </trkpt>
      <trkpt lon="35.303434459492564" lat="31.223986744880676">
        <ele>184.8000030517578</ele>
        <time>2014-02-07T08:17:12.000Z</time>
      </trkpt>
      <trkpt lon="35.30350562185049" lat="31.224014572799206">
        <ele>184.8000030517578</ele>
        <time>2014-02-07T08:17:13.000Z</time>
      </trkpt>
      <trkpt lon="35.30357561074197" lat="31.224034689366817">
        <ele>184.8000030517578</ele>
        <time>2014-02-07T08:17:14.000Z</time>
      </trkpt>
      <trkpt lon="35.30364484526217" lat="31.22404843568802">
        <ele>185.1999969482422</ele>
        <time>2014-02-07T08:17:15.000Z</time>
      </trkpt>
      <trkpt lon="35.30371516942978" lat="31.224059332162142">
        <ele>185.1999969482422</ele>
        <time>2014-02-07T08:17:16.000Z</time>
      </trkpt>
      <trkpt lon="35.30406310223043" lat="31.224086908623576">
        <ele>184.1999969482422</ele>
        <time>2014-02-07T08:17:21.000Z</time>
      </trkpt>
      <trkpt lon="35.304134264588356" lat="31.224080622196198">
        <ele>183.8000030517578</ele>
        <time>2014-02-07T08:17:22.000Z</time>
      </trkpt>
      <trkpt lon="35.30420324765146" lat="31.224064780399203">
        <ele>183.8000030517578</ele>
        <time>2014-02-07T08:17:23.000Z</time>
      </trkpt>
      <trkpt lon="35.30426695011556" lat="31.22404357418418">
        <ele>183.1999969482422</ele>
        <time>2014-02-07T08:17:24.000Z</time>
      </trkpt>
      <trkpt lon="35.30432486906648" lat="31.224016332998872">
        <ele>183.1999969482422</ele>
        <time>2014-02-07T08:17:25.000Z</time>
      </trkpt>
      <trkpt lon="35.3043772559613" lat="31.22398749925196">
        <ele>183.1999969482422</ele>
        <time>2014-02-07T08:17:26.000Z</time>
      </trkpt>
      <trkpt lon="35.30442855320871" lat="31.22395908460021">
        <ele>182.8000030517578</ele>
        <time>2014-02-07T08:17:27.000Z</time>
      </trkpt>
      <trkpt lon="35.30448253266513" lat="31.223935279995203">
        <ele>182.8000030517578</ele>
        <time>2014-02-07T08:17:28.000Z</time>
      </trkpt>
      <trkpt lon="35.30501143075526" lat="31.223742999136448">
        <ele>180.8000030517578</ele>
        <time>2014-02-07T08:17:37.000Z</time>
      </trkpt>
      <trkpt lon="35.305277053266764" lat="31.223625065758824">
        <ele>181.39999389648438</ele>
        <time>2014-02-07T08:17:43.000Z</time>
      </trkpt>
      <trkpt lon="35.30557100661099" lat="31.223465306684375">
        <ele>180.8000030517578</ele>
        <time>2014-02-07T08:17:51.000Z</time>
      </trkpt>
      <trkpt lon="35.30569380149245" lat="31.223289789631963">
        <ele>180.8000030517578</ele>
        <time>2014-02-07T08:17:57.000Z</time>
      </trkpt>
      <trkpt lon="35.30569556169212" lat="31.22312592342496">
        <ele>180.8000030517578</ele>
        <time>2014-02-07T08:18:04.000Z</time>
      </trkpt>
      <trkpt lon="35.30568617396057" lat="31.222958117723465">
        <ele>180.39999389648438</ele>
        <time>2014-02-07T08:18:12.000Z</time>
      </trkpt>
      <trkpt lon="35.305708469823" lat="31.222791401669383">
        <ele>179.0</ele>
        <time>2014-02-07T08:18:20.000Z</time>
      </trkpt>
      <trkpt lon="35.3057155944407" lat="31.22263147495687">
        <ele>177.60000610351562</ele>
        <time>2014-02-07T08:18:28.000Z</time>
      </trkpt>
      <trkpt lon="35.30576219782233" lat="31.222472889348865">
        <ele>175.1999969482422</ele>
        <time>2014-02-07T08:18:33.000Z</time>
      </trkpt>
      <trkpt lon="35.3057777043432" lat="31.222434751689434">
        <ele>174.1999969482422</ele>
        <time>2014-02-07T08:18:34.000Z</time>
      </trkpt>
      <trkpt lon="35.30593687668443" lat="31.222219755873084">
        <ele>169.8000030517578</ele>
        <time>2014-02-07T08:18:41.000Z</time>
      </trkpt>
      <trkpt lon="35.30597082339227" lat="31.222198298200965">
        <ele>168.39999389648438</ele>
        <time>2014-02-07T08:18:46.000Z</time>
      </trkpt>
      <trkpt lon="35.30595322139561" lat="31.222211122512817">
        <ele>170.1999969482422</ele>
        <time>2014-02-07T08:19:10.000Z</time>
      </trkpt>
      <trkpt lon="35.30601281672716" lat="31.222182624042034">
        <ele>170.1999969482422</ele>
        <time>2014-02-07T08:19:22.000Z</time>
      </trkpt>
      <trkpt lon="35.30617509037256" lat="31.22208656743169">
        <ele>165.39999389648438</ele>
        <time>2014-02-07T08:19:30.000Z</time>
      </trkpt>
      <trkpt lon="35.306349685415626" lat="31.221984224393964">
        <ele>160.60000610351562</ele>
        <time>2014-02-07T08:19:38.000Z</time>
      </trkpt>
      <trkpt lon="35.306568117812276" lat="31.221928568556905">
        <ele>154.39999389648438</ele>
        <time>2014-02-07T08:19:46.000Z</time>
      </trkpt>
      <trkpt lon="35.30676760710776" lat="31.221836367622018">
        <ele>149.60000610351562</ele>
        <time>2014-02-07T08:19:55.000Z</time>
      </trkpt>
      <trkpt lon="35.3068810980767" lat="31.221748692914844">
        <ele>144.8000030517578</ele>
        <time>2014-02-07T08:20:02.000Z</time>
      </trkpt>
      <trkpt lon="35.30710087157786" lat="31.221631849184632">
        <ele>138.60000610351562</ele>
        <time>2014-02-07T08:20:09.000Z</time>
      </trkpt>
      <trkpt lon="35.30714605003595" lat="31.221614833921194">
        <ele>137.60000610351562</ele>
        <time>2014-02-07T08:20:10.000Z</time>
      </trkpt>
      <trkpt lon="35.307195000350475" lat="31.221602093428373">
        <ele>136.60000610351562</ele>
        <time>2014-02-07T08:20:11.000Z</time>
      </trkpt>
      <trkpt lon="35.30747872777283" lat="31.22149983420968">
        <ele>131.8000030517578</ele>
        <time>2014-02-07T08:20:18.000Z</time>
      </trkpt>
      <trkpt lon="35.307605462148786" lat="31.2213365547359">
        <ele>129.0</ele>
        <time>2014-02-07T08:20:24.000Z</time>
      </trkpt>
      <trkpt lon="35.30780704692006" lat="31.2212052103132">
        <ele>124.5999984741211</ele>
        <time>2014-02-07T08:20:30.000Z</time>
      </trkpt>
      <trkpt lon="35.30785675160587" lat="31.221188697963953">
        <ele>123.5999984741211</ele>
        <time>2014-02-07T08:20:31.000Z</time>
      </trkpt>
      <trkpt lon="35.30791215598583" lat="31.221175203099847">
        <ele>122.80000305175781</ele>
        <time>2014-02-07T08:20:32.000Z</time>
      </trkpt>
      <trkpt lon="35.30823980458081" lat="31.221066657453775">
        <ele>118.4000015258789</ele>
        <time>2014-02-07T08:20:38.000Z</time>
      </trkpt>
      <trkpt lon="35.308429738506675" lat="31.22095115482807">
        <ele>115.5999984741211</ele>
        <time>2014-02-07T08:20:44.000Z</time>
      </trkpt>
      <trkpt lon="35.30853099189699" lat="31.220797682181">
        <ele>111.5999984741211</ele>
        <time>2014-02-07T08:20:51.000Z</time>
      </trkpt>
      <trkpt lon="35.308596873655915" lat="31.22067019343376">
        <ele>107.80000305175781</ele>
        <time>2014-02-07T08:20:57.000Z</time>
      </trkpt>
      <trkpt lon="35.30862143263221" lat="31.22066038660705">
        <ele>107.4000015258789</ele>
        <time>2014-02-07T08:20:58.000Z</time>
      </trkpt>
      <trkpt lon="35.30865169130266" lat="31.220658039674163">
        <ele>106.80000305175781</ele>
        <time>2014-02-07T08:20:59.000Z</time>
      </trkpt>
      <trkpt lon="35.308686308562756" lat="31.220658626407385">
        <ele>106.4000015258789</ele>
        <time>2014-02-07T08:21:00.000Z</time>
      </trkpt>
      <trkpt lon="35.30872285366058" lat="31.220660218968987">
        <ele>105.80000305175781</ele>
        <time>2014-02-07T08:21:01.000Z</time>
      </trkpt>
      <trkpt lon="35.308881187811494" lat="31.22058369219303">
        <ele>103.0</ele>
        <time>2014-02-07T08:21:06.000Z</time>
      </trkpt>
      <trkpt lon="35.30901865102351" lat="31.220537507906556">
        <ele>102.5999984741211</ele>
        <time>2014-02-07T08:21:12.000Z</time>
      </trkpt>
      <trkpt lon="35.309220822528005" lat="31.220546225085855">
        <ele>104.4000015258789</ele>
        <time>2014-02-07T08:21:20.000Z</time>
      </trkpt>
      <trkpt lon="35.30945677310228" lat="31.220542369410396">
        <ele>105.80000305175781</ele>
        <time>2014-02-07T08:21:30.000Z</time>
      </trkpt>
      <trkpt lon="35.30962600372732" lat="31.220535915344954">
        <ele>107.80000305175781</ele>
        <time>2014-02-07T08:21:39.000Z</time>
      </trkpt>
      <trkpt lon="35.309808226302266" lat="31.220529209822416">
        <ele>107.4000015258789</ele>
        <time>2014-02-07T08:21:46.000Z</time>
      </trkpt>
      <trkpt lon="35.309870168566704" lat="31.220520995557308">
        <ele>107.4000015258789</ele>
        <time>2014-02-07T08:21:52.000Z</time>
      </trkpt>
      <trkpt lon="35.30986446887255" lat="31.220521414652467">
        <ele>109.19999694824219</ele>
        <time>2014-02-07T08:22:12.000Z</time>
      </trkpt>
      <trkpt lon="35.30988056212664" lat="31.220511021092534">
        <ele>110.19999694824219</ele>
        <time>2014-02-07T08:22:31.000Z</time>
      </trkpt>
      <trkpt lon="35.309883411973715" lat="31.220521749928594">
        <ele>110.19999694824219</ele>
        <time>2014-02-07T08:22:45.000Z</time>
      </trkpt>
      <trkpt lon="35.30993504449725" lat="31.220507584512234">
        <ele>111.5999984741211</ele>
        <time>2014-02-07T08:22:57.000Z</time>
      </trkpt>
      <trkpt lon="35.31009782105684" lat="31.220464752987027">
        <ele>110.5999984741211</ele>
        <time>2014-02-07T08:23:03.000Z</time>
      </trkpt>
      <trkpt lon="35.31044307164848" lat="31.220464501529932">
        <ele>108.80000305175781</ele>
        <time>2014-02-07T08:23:12.000Z</time>
      </trkpt>
      <trkpt lon="35.31053175218403" lat="31.220454443246126">
        <ele>107.80000305175781</ele>
        <time>2014-02-07T08:23:14.000Z</time>
      </trkpt>
      <trkpt lon="35.310709699988365" lat="31.220409432426095">
        <ele>105.80000305175781</ele>
        <time>2014-02-07T08:23:17.000Z</time>
      </trkpt>
      <trkpt lon="35.31076074577868" lat="31.220406498759985">
        <ele>105.80000305175781</ele>
        <time>2014-02-07T08:23:18.000Z</time>
      </trkpt>
      <trkpt lon="35.31080634333193" lat="31.220406414940953">
        <ele>105.4000015258789</ele>
        <time>2014-02-07T08:23:19.000Z</time>
      </trkpt>
      <trkpt lon="35.31115058809519" lat="31.220386466011405">
        <ele>105.0</ele>
        <time>2014-02-07T08:23:26.000Z</time>
      </trkpt>
      <trkpt lon="35.31127120368183" lat="31.220380179584026">
        <ele>104.4000015258789</ele>
        <time>2014-02-07T08:23:28.000Z</time>
      </trkpt>
      <trkpt lon="35.311333732679486" lat="31.220384957268834">
        <ele>104.4000015258789</ele>
        <time>2014-02-07T08:23:29.000Z</time>
      </trkpt>
      <trkpt lon="35.31139257363975" lat="31.22039493173361">
        <ele>105.0</ele>
        <time>2014-02-07T08:23:30.000Z</time>
      </trkpt>
      <trkpt lon="35.311442110687494" lat="31.220407001674175">
        <ele>105.0</ele>
        <time>2014-02-07T08:23:31.000Z</time>
      </trkpt>
      <trkpt lon="35.31148502603173" lat="31.220421502366662">
        <ele>105.4000015258789</ele>
        <time>2014-02-07T08:23:32.000Z</time>
      </trkpt>
      <trkpt lon="35.31152014620602" lat="31.220436254516244">
        <ele>105.80000305175781</ele>
        <time>2014-02-07T08:23:33.000Z</time>
      </trkpt>
      <trkpt lon="35.311777302995324" lat="31.22045653872192">
        <ele>106.4000015258789</ele>
        <time>2014-02-07T08:23:40.000Z</time>
      </trkpt>
      <trkpt lon="35.31205625273287" lat="31.220446480438113">
        <ele>106.4000015258789</ele>
        <time>2014-02-07T08:23:47.000Z</time>
      </trkpt>
      <trkpt lon="35.31236085109413" lat="31.220430973917246">
        <ele>105.0</ele>
        <time>2014-02-07T08:23:54.000Z</time>
      </trkpt>
      <trkpt lon="35.31248456798494" lat="31.220423011109233">
        <ele>104.4000015258789</ele>
        <time>2014-02-07T08:23:56.000Z</time>
      </trkpt>
      <trkpt lon="35.3128111269325" lat="31.220449917018414">
        <ele>103.0</ele>
        <time>2014-02-07T08:24:01.000Z</time>
      </trkpt>
      <trkpt lon="35.3128700517118" lat="31.22044287621975">
        <ele>102.5999984741211</ele>
        <time>2014-02-07T08:24:02.000Z</time>
      </trkpt>
      <trkpt lon="35.31292973086238" lat="31.220438685268164">
        <ele>102.0</ele>
        <time>2014-02-07T08:24:03.000Z</time>
      </trkpt>
      <trkpt lon="35.31298781745136" lat="31.220441283658147">
        <ele>101.5999984741211</ele>
        <time>2014-02-07T08:24:04.000Z</time>
      </trkpt>
      <trkpt lon="35.31304850243032" lat="31.220445223152637">
        <ele>101.5999984741211</ele>
        <time>2014-02-07T08:24:05.000Z</time>
      </trkpt>
      <trkpt lon="35.31317808665335" lat="31.220457460731268">
        <ele>101.5999984741211</ele>
        <time>2014-02-07T08:24:07.000Z</time>
      </trkpt>
      <trkpt lon="35.313569186255336" lat="31.220498699694872">
        <ele>102.0</ele>
        <time>2014-02-07T08:24:13.000Z</time>
      </trkpt>
      <trkpt lon="35.31363716349006" lat="31.220486713573337">
        <ele>102.0</ele>
        <time>2014-02-07T08:24:14.000Z</time>
      </trkpt>
      <trkpt lon="35.31370220705867" lat="31.220463076606393">
        <ele>101.5999984741211</ele>
        <time>2014-02-07T08:24:15.000Z</time>
      </trkpt>
      <trkpt lon="35.31376004219055" lat="31.220431309193373">
        <ele>101.5999984741211</ele>
        <time>2014-02-07T08:24:16.000Z</time>
      </trkpt>
      <trkpt lon="35.31381477601826" lat="31.22039895504713">
        <ele>101.0</ele>
        <time>2014-02-07T08:24:17.000Z</time>
      </trkpt>
      <trkpt lon="35.31387344934046" lat="31.220368528738618">
        <ele>100.5999984741211</ele>
        <time>2014-02-07T08:24:18.000Z</time>
      </trkpt>
      <trkpt lon="35.313942432403564" lat="31.220340533182025">
        <ele>100.5999984741211</ele>
        <time>2014-02-07T08:24:19.000Z</time>
      </trkpt>
      <trkpt lon="35.31407159753144" lat="31.22030264697969">
        <ele>101.0</ele>
        <time>2014-02-07T08:24:21.000Z</time>
      </trkpt>
      <trkpt lon="35.314122727140784" lat="31.22030859813094">
        <ele>102.0</ele>
        <time>2014-02-07T08:24:22.000Z</time>
      </trkpt>
      <trkpt lon="35.31440092250705" lat="31.220375737175345">
        <ele>103.4000015258789</ele>
        <time>2014-02-07T08:24:29.000Z</time>
      </trkpt>
      <trkpt lon="35.314549868926406" lat="31.220508003607392">
        <ele>103.4000015258789</ele>
        <time>2014-02-07T08:24:34.000Z</time>
      </trkpt>
      <trkpt lon="35.314613403752446" lat="31.220593750476837">
        <ele>103.0</ele>
        <time>2014-02-07T08:24:36.000Z</time>
      </trkpt>
      <trkpt lon="35.31464491970837" lat="31.22063633054495">
        <ele>102.5999984741211</ele>
        <time>2014-02-07T08:24:37.000Z</time>
      </trkpt>
      <trkpt lon="35.314679369330406" lat="31.220677318051457">
        <ele>102.0</ele>
        <time>2014-02-07T08:24:38.000Z</time>
      </trkpt>
      <trkpt lon="35.314720775932074" lat="31.220715958625078">
        <ele>102.0</ele>
        <time>2014-02-07T08:24:39.000Z</time>
      </trkpt>
      <trkpt lon="35.31476553529501" lat="31.22075267136097">
        <ele>102.0</ele>
        <time>2014-02-07T08:24:40.000Z</time>
      </trkpt>
      <trkpt lon="35.31481817364693" lat="31.220786115154624">
        <ele>101.5999984741211</ele>
        <time>2014-02-07T08:24:41.000Z</time>
      </trkpt>
      <trkpt lon="35.31527079641819" lat="31.22098971158266">
        <ele>100.19999694824219</ele>
        <time>2014-02-07T08:24:48.000Z</time>
      </trkpt>
      <trkpt lon="35.3155982773751" lat="31.221050061285496">
        <ele>99.5999984741211</ele>
        <time>2014-02-07T08:24:52.000Z</time>
      </trkpt>
      <trkpt lon="35.3156812582165" lat="31.221075793728232">
        <ele>99.19999694824219</ele>
        <time>2014-02-07T08:24:53.000Z</time>
      </trkpt>
      <trkpt lon="35.31592475250363" lat="31.221152739599347">
        <ele>98.19999694824219</ele>
        <time>2014-02-07T08:24:56.000Z</time>
      </trkpt>
      <trkpt lon="35.31601016409695" lat="31.221166905015707">
        <ele>98.19999694824219</ele>
        <time>2014-02-07T08:24:57.000Z</time>
      </trkpt>
      <trkpt lon="35.31642305664718" lat="31.22116648592055">
        <ele>96.80000305175781</ele>
        <time>2014-02-07T08:25:02.000Z</time>
      </trkpt>
      <trkpt lon="35.31658214516938" lat="31.22113874182105">
        <ele>95.80000305175781</ele>
        <time>2014-02-07T08:25:04.000Z</time>
      </trkpt>
      <trkpt lon="35.31666722148657" lat="31.221134131774306">
        <ele>95.4000015258789</ele>
        <time>2014-02-07T08:25:05.000Z</time>
      </trkpt>
      <trkpt lon="35.31674995087087" lat="31.221128180623055">
        <ele>94.80000305175781</ele>
        <time>2014-02-07T08:25:06.000Z</time>
      </trkpt>
      <trkpt lon="35.316832764074206" lat="31.22112164273858">
        <ele>94.4000015258789</ele>
        <time>2014-02-07T08:25:07.000Z</time>
      </trkpt>
      <trkpt lon="35.316913817077875" lat="31.221110578626394">
        <ele>93.80000305175781</ele>
        <time>2014-02-07T08:25:08.000Z</time>
      </trkpt>
      <trkpt lon="35.31726392917335" lat="31.221103202551603">
        <ele>93.80000305175781</ele>
        <time>2014-02-07T08:25:13.000Z</time>
      </trkpt>
      <trkpt lon="35.31747054308653" lat="31.221117787063122">
        <ele>93.4000015258789</ele>
        <time>2014-02-07T08:25:16.000Z</time>
      </trkpt>
      <trkpt lon="35.31755025498569" lat="31.22111476957798">
        <ele>93.0</ele>
        <time>2014-02-07T08:25:17.000Z</time>
      </trkpt>
      <trkpt lon="35.31808585859835" lat="31.22106892056763">
        <ele>91.4000015258789</ele>
        <time>2014-02-07T08:25:24.000Z</time>
      </trkpt>
      <trkpt lon="35.31815207563341" lat="31.221069674938917">
        <ele>91.4000015258789</ele>
        <time>2014-02-07T08:25:25.000Z</time>
      </trkpt>
      <trkpt lon="35.31821435317397" lat="31.22106104157865">
        <ele>91.4000015258789</ele>
        <time>2014-02-07T08:25:26.000Z</time>
      </trkpt>
      <trkpt lon="35.31827202066779" lat="31.221048217266798">
        <ele>91.4000015258789</ele>
        <time>2014-02-07T08:25:27.000Z</time>
      </trkpt>
      <trkpt lon="35.31832616776228" lat="31.221034890040755">
        <ele>91.4000015258789</ele>
        <time>2014-02-07T08:25:28.000Z</time>
      </trkpt>
      <trkpt lon="35.31837570481002" lat="31.221026508137584">
        <ele>91.4000015258789</ele>
        <time>2014-02-07T08:25:29.000Z</time>
      </trkpt>
      <trkpt lon="35.31859732232988" lat="31.22102927416563">
        <ele>92.4000015258789</ele>
        <time>2014-02-07T08:25:34.000Z</time>
      </trkpt>
      <trkpt lon="35.31864912249148" lat="31.22102784924209">
        <ele>92.4000015258789</ele>
        <time>2014-02-07T08:25:35.000Z</time>
      </trkpt>
      <trkpt lon="35.31879588961601" lat="31.22103706933558">
        <ele>93.4000015258789</ele>
        <time>2014-02-07T08:25:38.000Z</time>
      </trkpt>
      <trkpt lon="35.3188500367105" lat="31.221056012436748">
        <ele>93.0</ele>
        <time>2014-02-07T08:25:39.000Z</time>
      </trkpt>
      <trkpt lon="35.31904139555991" lat="31.221191380172968">
        <ele>94.80000305175781</ele>
        <time>2014-02-07T08:25:44.000Z</time>
      </trkpt>
      <trkpt lon="35.31917869113386" lat="31.221480974927545">
        <ele>94.80000305175781</ele>
        <time>2014-02-07T08:25:51.000Z</time>
      </trkpt>
      <trkpt lon="35.31922881491482" lat="31.221592454239726">
        <ele>94.4000015258789</ele>
        <time>2014-02-07T08:25:53.000Z</time>
      </trkpt>
      <trkpt lon="35.31926351599395" lat="31.221646685153246">
        <ele>93.80000305175781</ele>
        <time>2014-02-07T08:25:54.000Z</time>
      </trkpt>
      <trkpt lon="35.319391088560224" lat="31.221810467541218">
        <ele>95.4000015258789</ele>
        <time>2014-02-07T08:25:58.000Z</time>
      </trkpt>
      <trkpt lon="35.31942570582032" lat="31.22184089384973">
        <ele>95.4000015258789</ele>
        <time>2014-02-07T08:25:59.000Z</time>
      </trkpt>
      <trkpt lon="35.31946778297424" lat="31.22186587192118">
        <ele>95.80000305175781</ele>
        <time>2014-02-07T08:26:00.000Z</time>
      </trkpt>
      <trkpt lon="35.31951790675521" lat="31.221886994317174">
        <ele>95.80000305175781</ele>
        <time>2014-02-07T08:26:01.000Z</time>
      </trkpt>
      <trkpt lon="35.31957423314452" lat="31.221906021237373">
        <ele>95.4000015258789</ele>
        <time>2014-02-07T08:26:02.000Z</time>
      </trkpt>
      <trkpt lon="35.31969744712114" lat="31.221946086734533">
        <ele>95.4000015258789</ele>
        <time>2014-02-07T08:26:04.000Z</time>
      </trkpt>
      <trkpt lon="35.31976215541363" lat="31.22196251526475">
        <ele>95.4000015258789</ele>
        <time>2014-02-07T08:26:05.000Z</time>
      </trkpt>
      <trkpt lon="35.31982837244868" lat="31.221975507214665">
        <ele>95.4000015258789</ele>
        <time>2014-02-07T08:26:06.000Z</time>
      </trkpt>
      <trkpt lon="35.32003775238991" lat="31.221997048705816">
        <ele>94.4000015258789</ele>
        <time>2014-02-07T08:26:09.000Z</time>
      </trkpt>
      <trkpt lon="35.3201090823859" lat="31.222015656530857">
        <ele>93.4000015258789</ele>
        <time>2014-02-07T08:26:10.000Z</time>
      </trkpt>
      <trkpt lon="35.32062431797385" lat="31.2221463304013">
        <ele>90.5999984741211</ele>
        <time>2014-02-07T08:26:17.000Z</time>
      </trkpt>
      <trkpt lon="35.32076437957585" lat="31.222182624042034">
        <ele>91.0</ele>
        <time>2014-02-07T08:26:19.000Z</time>
      </trkpt>
      <trkpt lon="35.32083830796182" lat="31.22219905257225">
        <ele>91.0</ele>
        <time>2014-02-07T08:26:20.000Z</time>
      </trkpt>
      <trkpt lon="35.320911817252636" lat="31.222220174968243">
        <ele>91.0</ele>
        <time>2014-02-07T08:26:21.000Z</time>
      </trkpt>
      <trkpt lon="35.32138438895345" lat="31.22233785688877">
        <ele>90.0</ele>
        <time>2014-02-07T08:26:28.000Z</time>
      </trkpt>
      <trkpt lon="35.3214405477047" lat="31.222357638180256">
        <ele>90.0</ele>
        <time>2014-02-07T08:26:29.000Z</time>
      </trkpt>
      <trkpt lon="35.32149729318917" lat="31.222377503290772">
        <ele>90.0</ele>
        <time>2014-02-07T08:26:30.000Z</time>
      </trkpt>
      <trkpt lon="35.32155554741621" lat="31.2223934289068">
        <ele>90.0</ele>
        <time>2014-02-07T08:26:31.000Z</time>
      </trkpt>
      <trkpt lon="35.3216147236526" lat="31.222409019246697">
        <ele>90.0</ele>
        <time>2014-02-07T08:26:32.000Z</time>
      </trkpt>
      <trkpt lon="35.32167515717447" lat="31.22243072837591">
        <ele>90.0</ele>
        <time>2014-02-07T08:26:33.000Z</time>
      </trkpt>
      <trkpt lon="35.32181245274842" lat="31.222480181604624">
        <ele>89.0</ele>
        <time>2014-02-07T08:26:35.000Z</time>
      </trkpt>
      <trkpt lon="35.32189157791436" lat="31.222499208524823">
        <ele>88.0</ele>
        <time>2014-02-07T08:26:36.000Z</time>
      </trkpt>
      <trkpt lon="35.32220204360783" lat="31.222565760836005">
        <ele>87.19999694824219</ele>
        <time>2014-02-07T08:26:40.000Z</time>
      </trkpt>
      <trkpt lon="35.32226113602519" lat="31.222591577097774">
        <ele>87.19999694824219</ele>
        <time>2014-02-07T08:26:41.000Z</time>
      </trkpt>
      <trkpt lon="35.32231327146292" lat="31.222621332854033">
        <ele>87.19999694824219</ele>
        <time>2014-02-07T08:26:42.000Z</time>
      </trkpt>
      <trkpt lon="35.32235501334071" lat="31.22265494428575">
        <ele>86.5999984741211</ele>
        <time>2014-02-07T08:26:43.000Z</time>
      </trkpt>
      <trkpt lon="35.322386445477605" lat="31.22269014827907">
        <ele>86.19999694824219</ele>
        <time>2014-02-07T08:26:44.000Z</time>
      </trkpt>
      <trkpt lon="35.32241025008261" lat="31.222731387242675">
        <ele>85.5999984741211</ele>
        <time>2014-02-07T08:26:45.000Z</time>
      </trkpt>
      <trkpt lon="35.3224400896579" lat="31.222777906805277">
        <ele>85.19999694824219</ele>
        <time>2014-02-07T08:26:46.000Z</time>
      </trkpt>
      <trkpt lon="35.32249071635306" lat="31.222822833806276">
        <ele>84.19999694824219</ele>
        <time>2014-02-07T08:26:47.000Z</time>
      </trkpt>
      <trkpt lon="35.32255860976875" lat="31.22286206111312">
        <ele>83.80000305175781</ele>
        <time>2014-02-07T08:26:48.000Z</time>
      </trkpt>
      <trkpt lon="35.32263681292534" lat="31.222895421087742">
        <ele>82.80000305175781</ele>
        <time>2014-02-07T08:26:49.000Z</time>
      </trkpt>
      <trkpt lon="35.32272105105221" lat="31.222920063883066">
        <ele>81.80000305175781</ele>
        <time>2014-02-07T08:26:50.000Z</time>
      </trkpt>
      <trkpt lon="35.322810150682926" lat="31.222938420251012">
        <ele>81.4000015258789</ele>
        <time>2014-02-07T08:26:51.000Z</time>
      </trkpt>
      <trkpt lon="35.32289681956172" lat="31.222951831296086">
        <ele>81.4000015258789</ele>
        <time>2014-02-07T08:26:52.000Z</time>
      </trkpt>
      <trkpt lon="35.32297837547958" lat="31.222958117723465">
        <ele>80.80000305175781</ele>
        <time>2014-02-07T08:26:53.000Z</time>
      </trkpt>
      <trkpt lon="35.3230548184365" lat="31.222954262048006">
        <ele>80.80000305175781</ele>
        <time>2014-02-07T08:26:54.000Z</time>
      </trkpt>
      <trkpt lon="35.323124723508954" lat="31.222934732213616">
        <ele>80.4000015258789</ele>
        <time>2014-02-07T08:26:55.000Z</time>
      </trkpt>
      <trkpt lon="35.32319521531463" lat="31.22290698811412">
        <ele>79.4000015258789</ele>
        <time>2014-02-07T08:26:56.000Z</time>
      </trkpt>
      <trkpt lon="35.323271406814456" lat="31.22287044301629">
        <ele>78.4000015258789</ele>
        <time>2014-02-07T08:26:57.000Z</time>
      </trkpt>
      <trkpt lon="35.32335069961846" lat="31.222825096920133">
        <ele>77.5999984741211</ele>
        <time>2014-02-07T08:26:58.000Z</time>
      </trkpt>
      <trkpt lon="35.32342471182346" lat="31.2227732129395">
        <ele>77.0</ele>
        <time>2014-02-07T08:26:59.000Z</time>
      </trkpt>
      <trkpt lon="35.32349838875234" lat="31.22273163869977">
        <ele>76.5999984741211</ele>
        <time>2014-02-07T08:27:00.000Z</time>
      </trkpt>
      <trkpt lon="35.323576759546995" lat="31.222702972590923">
        <ele>76.0</ele>
        <time>2014-02-07T08:27:01.000Z</time>
      </trkpt>
      <trkpt lon="35.32365873456001" lat="31.222684448584914">
        <ele>75.19999694824219</ele>
        <time>2014-02-07T08:27:02.000Z</time>
      </trkpt>
      <trkpt lon="35.32373961992562" lat="31.222673300653696">
        <ele>74.5999984741211</ele>
        <time>2014-02-07T08:27:03.000Z</time>
      </trkpt>
      <trkpt lon="35.32381497323513" lat="31.222664918750525">
        <ele>74.19999694824219</ele>
        <time>2014-02-07T08:27:04.000Z</time>
      </trkpt>
      <trkpt lon="35.323887560516596" lat="31.222647903487086">
        <ele>73.5999984741211</ele>
        <time>2014-02-07T08:27:05.000Z</time>
      </trkpt>
      <trkpt lon="35.323954951018095" lat="31.222619991749525">
        <ele>73.19999694824219</ele>
        <time>2014-02-07T08:27:06.000Z</time>
      </trkpt>
      <trkpt lon="35.32402225770056" lat="31.22258897870779">
        <ele>72.80000305175781</ele>
        <time>2014-02-07T08:27:07.000Z</time>
      </trkpt>
      <trkpt lon="35.324088893830776" lat="31.22256450355053">
        <ele>72.80000305175781</ele>
        <time>2014-02-07T08:27:08.000Z</time>
      </trkpt>
      <trkpt lon="35.324155278503895" lat="31.22254799120128">
        <ele>72.80000305175781</ele>
        <time>2014-02-07T08:27:09.000Z</time>
      </trkpt>
      <trkpt lon="35.32421755604446" lat="31.222531143575907">
        <ele>72.19999694824219</ele>
        <time>2014-02-07T08:27:10.000Z</time>
      </trkpt>
      <trkpt lon="35.32427564263344" lat="31.22250583022833">
        <ele>72.19999694824219</ele>
        <time>2014-02-07T08:27:11.000Z</time>
      </trkpt>
      <trkpt lon="35.324328197166324" lat="31.222471045330167">
        <ele>72.19999694824219</ele>
        <time>2014-02-07T08:27:12.000Z</time>
      </trkpt>
      <trkpt lon="35.32438527792692" lat="31.222439529374242">
        <ele>71.80000305175781</ele>
        <time>2014-02-07T08:27:13.000Z</time>
      </trkpt>
      <trkpt lon="35.32445157878101" lat="31.222415892407298">
        <ele>71.19999694824219</ele>
        <time>2014-02-07T08:27:14.000Z</time>
      </trkpt>
      <trkpt lon="35.32452533952892" lat="31.2223968654871">
        <ele>70.80000305175781</ele>
        <time>2014-02-07T08:27:15.000Z</time>
      </trkpt>
      <trkpt lon="35.32472466118634" lat="31.22235302813351">
        <ele>70.80000305175781</ele>
        <time>2014-02-07T08:27:18.000Z</time>
      </trkpt>
      <trkpt lon="35.32478081993759" lat="31.222350262105465">
        <ele>71.19999694824219</ele>
        <time>2014-02-07T08:27:19.000Z</time>
      </trkpt>
      <trkpt lon="35.32482876442373" lat="31.22235688380897">
        <ele>71.19999694824219</ele>
        <time>2014-02-07T08:27:20.000Z</time>
      </trkpt>
      <trkpt lon="35.324862878769636" lat="31.222373815253377">
        <ele>71.19999694824219</ele>
        <time>2014-02-07T08:27:21.000Z</time>
      </trkpt>
      <trkpt lon="35.324890706688166" lat="31.22239837422967">
        <ele>71.80000305175781</ele>
        <time>2014-02-07T08:27:22.000Z</time>
      </trkpt>
      <trkpt lon="35.32492063008249" lat="31.222428381443024">
        <ele>72.19999694824219</ele>
        <time>2014-02-07T08:27:23.000Z</time>
      </trkpt>
      <trkpt lon="35.32519714906812" lat="31.222657626494765">
        <ele>72.19999694824219</ele>
        <time>2014-02-07T08:27:29.000Z</time>
      </trkpt>
      <trkpt lon="35.325595289468765" lat="31.22288117185235">
        <ele>69.80000305175781</ele>
        <time>2014-02-07T08:27:34.000Z</time>
      </trkpt>
      <trkpt lon="35.32616718672216" lat="31.223091389983892">
        <ele>68.80000305175781</ele>
        <time>2014-02-07T08:27:40.000Z</time>
      </trkpt>
      <trkpt lon="35.32626399770379" lat="31.223120223730803">
        <ele>68.4000015258789</ele>
        <time>2014-02-07T08:27:41.000Z</time>
      </trkpt>
      <trkpt lon="35.32636080868542" lat="31.22313866391778">
        <ele>68.4000015258789</ele>
        <time>2014-02-07T08:27:42.000Z</time>
      </trkpt>
      <trkpt lon="35.326456194743514" lat="31.22314838692546">
        <ele>68.4000015258789</ele>
        <time>2014-02-07T08:27:43.000Z</time>
      </trkpt>
      <trkpt lon="35.326549066230655" lat="31.223152074962854">
        <ele>68.4000015258789</ele>
        <time>2014-02-07T08:27:44.000Z</time>
      </trkpt>
      <trkpt lon="35.32663858495653" lat="31.22315375134349">
        <ele>68.4000015258789</ele>
        <time>2014-02-07T08:27:45.000Z</time>
      </trkpt>
      <trkpt lon="35.326724499464035" lat="31.223160875961185">
        <ele>68.0</ele>
        <time>2014-02-07T08:27:46.000Z</time>
      </trkpt>
      <trkpt lon="35.326806139200926" lat="31.223174538463354">
        <ele>68.0</ele>
        <time>2014-02-07T08:27:47.000Z</time>
      </trkpt>
      <trkpt lon="35.32688367180526" lat="31.2231928948313">
        <ele>68.0</ele>
        <time>2014-02-07T08:27:48.000Z</time>
      </trkpt>
      <trkpt lon="35.326957097277045" lat="31.223214520141482">
        <ele>67.4000015258789</ele>
        <time>2014-02-07T08:27:49.000Z</time>
      </trkpt>
      <trkpt lon="35.32702867873013" lat="31.223238995298743">
        <ele>67.4000015258789</ele>
        <time>2014-02-07T08:27:50.000Z</time>
      </trkpt>
      <trkpt lon="35.32737644389272" lat="31.223366232588887">
        <ele>67.4000015258789</ele>
        <time>2014-02-07T08:27:55.000Z</time>
      </trkpt>
      <trkpt lon="35.32750074751675" lat="31.22342934831977">
        <ele>67.4000015258789</ele>
        <time>2014-02-07T08:27:57.000Z</time>
      </trkpt>
      <trkpt lon="35.327772572636604" lat="31.223609559237957">
        <ele>67.0</ele>
        <time>2014-02-07T08:28:02.000Z</time>
      </trkpt>
      <trkpt lon="35.32782856374979" lat="31.223638812080026">
        <ele>67.4000015258789</ele>
        <time>2014-02-07T08:28:03.000Z</time>
      </trkpt>
      <trkpt lon="35.327893272042274" lat="31.22366244904697">
        <ele>67.0</ele>
        <time>2014-02-07T08:28:04.000Z</time>
      </trkpt>
      <trkpt lon="35.32810055650771" lat="31.223729588091373">
        <ele>66.4000015258789</ele>
        <time>2014-02-07T08:28:07.000Z</time>
      </trkpt>
      <trkpt lon="35.32836617901921" lat="31.223821453750134">
        <ele>66.0</ele>
        <time>2014-02-07T08:28:12.000Z</time>
      </trkpt>
      <trkpt lon="35.32858218066394" lat="31.22399521060288">
        <ele>67.4000015258789</ele>
        <time>2014-02-07T08:28:19.000Z</time>
      </trkpt>
      <trkpt lon="35.32877488061786" lat="31.224294109269977">
        <ele>67.4000015258789</ele>
        <time>2014-02-07T08:28:27.000Z</time>
      </trkpt>
      <trkpt lon="35.328874960541725" lat="31.224479768425226">
        <ele>66.4000015258789</ele>
        <time>2014-02-07T08:28:31.000Z</time>
      </trkpt>
      <trkpt lon="35.328912092372775" lat="31.2245190795511">
        <ele>66.0</ele>
        <time>2014-02-07T08:28:32.000Z</time>
      </trkpt>
      <trkpt lon="35.32897529192269" lat="31.224589571356773">
        <ele>65.5999984741211</ele>
        <time>2014-02-07T08:28:34.000Z</time>
      </trkpt>
      <trkpt lon="35.32899230718613" lat="31.22462745755911">
        <ele>65.5999984741211</ele>
        <time>2014-02-07T08:28:35.000Z</time>
      </trkpt>
      <trkpt lon="35.32900722697377" lat="31.224656458944082">
        <ele>65.5999984741211</ele>
        <time>2014-02-07T08:28:36.000Z</time>
      </trkpt>
      <trkpt lon="35.329136811196804" lat="31.224840860813856">
        <ele>65.5999984741211</ele>
        <time>2014-02-07T08:28:42.000Z</time>
      </trkpt>
      <trkpt lon="35.329306880012155" lat="31.225071363151073">
        <ele>65.0</ele>
        <time>2014-02-07T08:28:48.000Z</time>
      </trkpt>
      <trkpt lon="35.329610304906964" lat="31.2253531627357">
        <ele>64.0</ele>
        <time>2014-02-07T08:28:56.000Z</time>
      </trkpt>
      <trkpt lon="35.32980057410896" lat="31.225531613454223">
        <ele>64.5999984741211</ele>
        <time>2014-02-07T08:29:02.000Z</time>
      </trkpt>
      <trkpt lon="35.32980686053634" lat="31.225652815774083">
        <ele>65.0</ele>
        <time>2014-02-07T08:29:08.000Z</time>
      </trkpt>
      <trkpt lon="35.32980652526021" lat="31.225827243179083">
        <ele>63.599998474121094</ele>
        <time>2014-02-07T08:29:13.000Z</time>
      </trkpt>
      <trkpt lon="35.329800909385085" lat="31.225868314504623">
        <ele>63.0</ele>
        <time>2014-02-07T08:29:14.000Z</time>
      </trkpt>
      <trkpt lon="35.329794036224484" lat="31.22590720653534">
        <ele>62.599998474121094</ele>
        <time>2014-02-07T08:29:15.000Z</time>
      </trkpt>
      <trkpt lon="35.32979127019644" lat="31.22594777494669">
        <ele>62.599998474121094</ele>
        <time>2014-02-07T08:29:16.000Z</time>
      </trkpt>
      <trkpt lon="35.32979294657707" lat="31.225989433005452">
        <ele>62.599998474121094</ele>
        <time>2014-02-07T08:29:17.000Z</time>
      </trkpt>
      <trkpt lon="35.329811722040176" lat="31.226127231493592">
        <ele>62.20000076293945</ele>
        <time>2014-02-07T08:29:20.000Z</time>
      </trkpt>
      <trkpt lon="35.32981524243951" lat="31.226174421608448">
        <ele>62.599998474121094</ele>
        <time>2014-02-07T08:29:21.000Z</time>
      </trkpt>
      <trkpt lon="35.32985229045153" lat="31.226351615041494">
        <ele>63.599998474121094</ele>
        <time>2014-02-07T08:29:25.000Z</time>
      </trkpt>
      <trkpt lon="35.32986762933433" lat="31.226388160139322">
        <ele>64.0</ele>
        <time>2014-02-07T08:29:26.000Z</time>
      </trkpt>
      <trkpt lon="35.329969972372055" lat="31.226591421291232">
        <ele>64.0</ele>
        <time>2014-02-07T08:29:32.000Z</time>
      </trkpt>
      <trkpt lon="35.329988580197096" lat="31.22663869522512">
        <ele>64.0</ele>
        <time>2014-02-07T08:29:33.000Z</time>
      </trkpt>
      <trkpt lon="35.33007139340043" lat="31.226852433755994">
        <ele>63.0</ele>
        <time>2014-02-07T08:29:37.000Z</time>
      </trkpt>
      <trkpt lon="35.330105256289244" lat="31.226900881156325">
        <ele>63.0</ele>
        <time>2014-02-07T08:29:38.000Z</time>
      </trkpt>
      <trkpt lon="35.33014750108123" lat="31.226939437910914">
        <ele>63.0</ele>
        <time>2014-02-07T08:29:39.000Z</time>
      </trkpt>
      <trkpt lon="35.33019511029124" lat="31.226963829249144">
        <ele>62.599998474121094</ele>
        <time>2014-02-07T08:29:40.000Z</time>
      </trkpt>
      <trkpt lon="35.33024523407221" lat="31.226976485922933">
        <ele>62.599998474121094</ele>
        <time>2014-02-07T08:29:41.000Z</time>
      </trkpt>
      <trkpt lon="35.330291921272874" lat="31.22697782702744">
        <ele>62.599998474121094</ele>
        <time>2014-02-07T08:29:42.000Z</time>
      </trkpt>
      <trkpt lon="35.33033760264516" lat="31.22696508653462">
        <ele>62.599998474121094</ele>
        <time>2014-02-07T08:29:43.000Z</time>
      </trkpt>
      <trkpt lon="35.33037859015167" lat="31.22694220393896">
        <ele>62.599998474121094</ele>
        <time>2014-02-07T08:29:44.000Z</time>
      </trkpt>
      <trkpt lon="35.33041882328689" lat="31.226919321343303">
        <ele>62.599998474121094</ele>
        <time>2014-02-07T08:29:45.000Z</time>
      </trkpt>
      <trkpt lon="35.33045830205083" lat="31.22690356336534">
        <ele>62.599998474121094</ele>
        <time>2014-02-07T08:29:46.000Z</time>
      </trkpt>
      <trkpt lon="35.33049593679607" lat="31.22689140960574">
        <ele>62.599998474121094</ele>
        <time>2014-02-07T08:29:47.000Z</time>
      </trkpt>
      <trkpt lon="35.330657958984375" lat="31.226894091814756">
        <ele>64.5999984741211</ele>
        <time>2014-02-07T08:29:52.000Z</time>
      </trkpt>
      <trkpt lon="35.33075887709856" lat="31.226942874491215">
        <ele>66.4000015258789</ele>
        <time>2014-02-07T08:29:57.000Z</time>
      </trkpt>
      <trkpt lon="35.33084085211158" lat="31.227076649665833">
        <ele>67.4000015258789</ele>
        <time>2014-02-07T08:30:05.000Z</time>
      </trkpt>
      <trkpt lon="35.330962808802724" lat="31.227237079292536">
        <ele>68.0</ele>
        <time>2014-02-07T08:30:13.000Z</time>
      </trkpt>
      <trkpt lon="35.33110379241407" lat="31.22740790247917">
        <ele>67.4000015258789</ele>
        <time>2014-02-07T08:30:21.000Z</time>
      </trkpt>
      <trkpt lon="35.331134302541614" lat="31.227459451183677">
        <ele>66.4000015258789</ele>
        <time>2014-02-07T08:30:23.000Z</time>
      </trkpt>
      <trkpt lon="35.331133883446455" lat="31.227483674883842">
        <ele>66.0</ele>
        <time>2014-02-07T08:30:24.000Z</time>
      </trkpt>
      <trkpt lon="35.33113061450422" lat="31.227507898584008">
        <ele>65.5999984741211</ele>
        <time>2014-02-07T08:30:25.000Z</time>
      </trkpt>
      <trkpt lon="35.33108820207417" lat="31.227689031511545">
        <ele>63.0</ele>
        <time>2014-02-07T08:30:32.000Z</time>
      </trkpt>
      <trkpt lon="35.33120554871857" lat="31.227791206911206">
        <ele>60.20000076293945</ele>
        <time>2014-02-07T08:30:36.000Z</time>
      </trkpt>
      <trkpt lon="35.33125969581306" lat="31.22782272286713">
        <ele>59.20000076293945</ele>
        <time>2014-02-07T08:30:37.000Z</time>
      </trkpt>
      <trkpt lon="35.331480810418725" lat="31.227941242977977">
        <ele>55.0</ele>
        <time>2014-02-07T08:30:40.000Z</time>
      </trkpt>
      <trkpt lon="35.33157544210553" lat="31.227980135008693">
        <ele>53.400001525878906</ele>
        <time>2014-02-07T08:30:41.000Z</time>
      </trkpt>
      <trkpt lon="35.33167661167681" lat="31.22801559045911">
        <ele>52.599998474121094</ele>
        <time>2014-02-07T08:30:42.000Z</time>
      </trkpt>
      <trkpt lon="35.33177828416228" lat="31.228043669834733">
        <ele>51.599998474121094</ele>
        <time>2014-02-07T08:30:43.000Z</time>
      </trkpt>
      <trkpt lon="35.33187970519066" lat="31.228060266003013">
        <ele>50.599998474121094</ele>
        <time>2014-02-07T08:30:44.000Z</time>
      </trkpt>
      <trkpt lon="35.33198045566678" lat="31.228069653734565">
        <ele>50.599998474121094</ele>
        <time>2014-02-07T08:30:45.000Z</time>
      </trkpt>
      <trkpt lon="35.332250352948904" lat="31.2281162571162">
        <ele>50.20000076293945</ele>
        <time>2014-02-07T08:30:48.000Z</time>
      </trkpt>
      <trkpt lon="35.33233433961868" lat="31.228146348148584">
        <ele>49.599998474121094</ele>
        <time>2014-02-07T08:30:49.000Z</time>
      </trkpt>
      <trkpt lon="35.33241430297494" lat="31.228185491636395">
        <ele>49.20000076293945</ele>
        <time>2014-02-07T08:30:50.000Z</time>
      </trkpt>
      <trkpt lon="35.332484878599644" lat="31.2282301671803">
        <ele>48.599998474121094</ele>
        <time>2014-02-07T08:30:51.000Z</time>
      </trkpt>
      <trkpt lon="35.332551347091794" lat="31.22827559709549">
        <ele>48.599998474121094</ele>
        <time>2014-02-07T08:30:52.000Z</time>
      </trkpt>
      <trkpt lon="35.33261328935623" lat="31.228323625400662">
        <ele>48.20000076293945</ele>
        <time>2014-02-07T08:30:53.000Z</time>
      </trkpt>
      <trkpt lon="35.332670621573925" lat="31.22837291099131">
        <ele>47.79999923706055</ele>
        <time>2014-02-07T08:30:54.000Z</time>
      </trkpt>
      <trkpt lon="35.333013692870736" lat="31.228738529607654">
        <ele>47.20000076293945</ele>
        <time>2014-02-07T08:31:01.000Z</time>
      </trkpt>
      <trkpt lon="35.33332424238324" lat="31.22911110520363">
        <ele>46.79999923706055</ele>
        <time>2014-02-07T08:31:08.000Z</time>
      </trkpt>
      <trkpt lon="35.333385514095426" lat="31.229143124073744">
        <ele>46.20000076293945</ele>
        <time>2014-02-07T08:31:09.000Z</time>
      </trkpt>
      <trkpt lon="35.33345466479659" lat="31.22916349209845">
        <ele>45.79999923706055</ele>
        <time>2014-02-07T08:31:10.000Z</time>
      </trkpt>
      <trkpt lon="35.333528677001595" lat="31.22917916625738">
        <ele>45.79999923706055</ele>
        <time>2014-02-07T08:31:11.000Z</time>
      </trkpt>
      <trkpt lon="35.33359983935952" lat="31.229189224541187">
        <ele>45.79999923706055</ele>
        <time>2014-02-07T08:31:12.000Z</time>
      </trkpt>
      <trkpt lon="35.33386403694749" lat="31.229230547323823">
        <ele>45.400001525878906</ele>
        <time>2014-02-07T08:31:16.000Z</time>
      </trkpt>
      <trkpt lon="35.33392916433513" lat="31.229249741882086">
        <ele>45.400001525878906</ele>
        <time>2014-02-07T08:31:17.000Z</time>
      </trkpt>
      <trkpt lon="35.333994375541806" lat="31.22927480377257">
        <ele>45.400001525878906</ele>
        <time>2014-02-07T08:31:18.000Z</time>
      </trkpt>
      <trkpt lon="35.33405547961593" lat="31.229305900633335">
        <ele>45.400001525878906</ele>
        <time>2014-02-07T08:31:19.000Z</time>
      </trkpt>
      <trkpt lon="35.33411524258554" lat="31.22934177517891">
        <ele>45.400001525878906</ele>
        <time>2014-02-07T08:31:20.000Z</time>
      </trkpt>
      <trkpt lon="35.33417643047869" lat="31.229383684694767">
        <ele>45.400001525878906</ele>
        <time>2014-02-07T08:31:21.000Z</time>
      </trkpt>
      <trkpt lon="35.33430106937885" lat="31.229461301118135">
        <ele>44.79999923706055</ele>
        <time>2014-02-07T08:31:23.000Z</time>
      </trkpt>
      <trkpt lon="35.33436829224229" lat="31.229492984712124">
        <ele>44.79999923706055</ele>
        <time>2014-02-07T08:31:24.000Z</time>
      </trkpt>
      <trkpt lon="35.33443777821958" lat="31.229518465697765">
        <ele>44.79999923706055</ele>
        <time>2014-02-07T08:31:25.000Z</time>
      </trkpt>
      <trkpt lon="35.33450894057751" lat="31.22953975573182">
        <ele>44.400001525878906</ele>
        <time>2014-02-07T08:31:26.000Z</time>
      </trkpt>
      <trkpt lon="35.334582114592195" lat="31.22955576516688">
        <ele>44.400001525878906</ele>
        <time>2014-02-07T08:31:27.000Z</time>
      </trkpt>
      <trkpt lon="35.33465855754912" lat="31.22957395389676">
        <ele>43.79999923706055</ele>
        <time>2014-02-07T08:31:28.000Z</time>
      </trkpt>
      <trkpt lon="35.33473575487733" lat="31.22959239408374">
        <ele>43.400001525878906</ele>
        <time>2014-02-07T08:31:29.000Z</time>
      </trkpt>
      <trkpt lon="35.33522039651871" lat="31.22960379347205">
        <ele>42.0</ele>
        <time>2014-02-07T08:31:35.000Z</time>
      </trkpt>
      <trkpt lon="35.335642006248236" lat="31.229564733803272">
        <ele>41.0</ele>
        <time>2014-02-07T08:31:41.000Z</time>
      </trkpt>
      <trkpt lon="35.33581760711968" lat="31.22954210266471">
        <ele>41.400001525878906</ele>
        <time>2014-02-07T08:31:44.000Z</time>
      </trkpt>
      <trkpt lon="35.336285484954715" lat="31.229441855102777">
        <ele>42.0</ele>
        <time>2014-02-07T08:31:52.000Z</time>
      </trkpt>
      <trkpt lon="35.33658094704151" lat="31.229459205642343">
        <ele>42.0</ele>
        <time>2014-02-07T08:31:59.000Z</time>
      </trkpt>
      <trkpt lon="35.33678378909826" lat="31.229550149291754">
        <ele>41.0</ele>
        <time>2014-02-07T08:32:05.000Z</time>
      </trkpt>
      <trkpt lon="35.336797032505274" lat="31.229570182040334">
        <ele>41.0</ele>
        <time>2014-02-07T08:32:06.000Z</time>
      </trkpt>
      <trkpt lon="35.33681429922581" lat="31.229593148455024">
        <ele>41.0</ele>
        <time>2014-02-07T08:32:07.000Z</time>
      </trkpt>
      <trkpt lon="35.336842965334654" lat="31.229610918089747">
        <ele>41.0</ele>
        <time>2014-02-07T08:32:08.000Z</time>
      </trkpt>
      <trkpt lon="35.336875235661864" lat="31.229623658582568">
        <ele>41.0</ele>
        <time>2014-02-07T08:32:09.000Z</time>
      </trkpt>
      <trkpt lon="35.33690381795168" lat="31.22963882982731">
        <ele>41.0</ele>
        <time>2014-02-07T08:32:10.000Z</time>
      </trkpt>
      <trkpt lon="35.33692829310894" lat="31.22966129332781">
        <ele>41.0</ele>
        <time>2014-02-07T08:32:11.000Z</time>
      </trkpt>
      <trkpt lon="35.33695335499942" lat="31.229685684666038">
        <ele>41.400001525878906</ele>
        <time>2014-02-07T08:32:12.000Z</time>
      </trkpt>
      <trkpt lon="35.33697975799441" lat="31.22971560806036">
        <ele>41.400001525878906</ele>
        <time>2014-02-07T08:32:13.000Z</time>
      </trkpt>
      <trkpt lon="35.337165584787726" lat="31.22998684644699">
        <ele>41.0</ele>
        <time>2014-02-07T08:32:20.000Z</time>
      </trkpt>
      <trkpt lon="35.337216295301914" lat="31.230067228898406">
        <ele>40.599998474121094</ele>
        <time>2014-02-07T08:32:22.000Z</time>
      </trkpt>
      <trkpt lon="35.33724697306752" lat="31.230106288567185">
        <ele>40.599998474121094</ele>
        <time>2014-02-07T08:32:23.000Z</time>
      </trkpt>
      <trkpt lon="35.33739893697202" lat="31.230356069281697">
        <ele>40.0</ele>
        <time>2014-02-07T08:32:29.000Z</time>
      </trkpt>
      <trkpt lon="35.33741410821676" lat="31.230403427034616">
        <ele>40.0</ele>
        <time>2014-02-07T08:32:30.000Z</time>
      </trkpt>
      <trkpt lon="35.337492479011416" lat="31.23085370287299">
        <ele>39.0</ele>
        <time>2014-02-07T08:32:38.000Z</time>
      </trkpt>
      <trkpt lon="35.33750941045582" lat="31.231076745316386">
        <ele>38.20000076293945</ele>
        <time>2014-02-07T08:32:42.000Z</time>
      </trkpt>
      <trkpt lon="35.337606724351645" lat="31.231240862980485">
        <ele>36.20000076293945</ele>
        <time>2014-02-07T08:32:47.000Z</time>
      </trkpt>
      <trkpt lon="35.337652657181025" lat="31.231287382543087">
        <ele>36.599998474121094</ele>
        <time>2014-02-07T08:32:51.000Z</time>
      </trkpt>
      <trkpt lon="35.33771451562643" lat="31.231354353949428">
        <ele>36.20000076293945</ele>
        <time>2014-02-07T08:32:57.000Z</time>
      </trkpt>
      <trkpt lon="35.337715772911906" lat="31.231365920975804">
        <ele>36.20000076293945</ele>
        <time>2014-02-07T08:32:58.000Z</time>
      </trkpt>
      <trkpt lon="35.33769439905882" lat="31.231358963996172">
        <ele>34.79999923706055</ele>
        <time>2014-02-07T08:33:04.000Z</time>
      </trkpt>
      <trkpt lon="35.33767302520573" lat="31.23137799091637">
        <ele>34.79999923706055</ele>
        <time>2014-02-07T08:33:07.000Z</time>
      </trkpt>
      <trkpt lon="35.337668331339955" lat="31.231390479952097">
        <ele>34.79999923706055</ele>
        <time>2014-02-07T08:33:08.000Z</time>
      </trkpt>
      <trkpt lon="35.3376642242074" lat="31.231401041150093">
        <ele>34.79999923706055</ele>
        <time>2014-02-07T08:33:09.000Z</time>
      </trkpt>
      <trkpt lon="35.33765835687518" lat="31.231410931795835">
        <ele>34.20000076293945</ele>
        <time>2014-02-07T08:33:10.000Z</time>
      </trkpt>
      <trkpt lon="35.337615106254816" lat="31.23148687183857">
        <ele>33.20000076293945</ele>
        <time>2014-02-07T08:33:17.000Z</time>
      </trkpt>
      <trkpt lon="35.337592558935285" lat="31.2315162923187">
        <ele>33.20000076293945</ele>
        <time>2014-02-07T08:33:23.000Z</time>
      </trkpt>
      <trkpt lon="35.33758442848921" lat="31.231531715020537">
        <ele>33.20000076293945</ele>
        <time>2014-02-07T08:33:24.000Z</time>
      </trkpt>
      <trkpt lon="35.33753757365048" lat="31.231658030301332">
        <ele>33.20000076293945</ele>
        <time>2014-02-07T08:33:31.000Z</time>
      </trkpt>
      <trkpt lon="35.33754260279238" lat="31.23188953846693">
        <ele>33.79999923706055</ele>
        <time>2014-02-07T08:33:38.000Z</time>
      </trkpt>
      <trkpt lon="35.33762851729989" lat="31.23208064585924">
        <ele>35.20000076293945</ele>
        <time>2014-02-07T08:33:44.000Z</time>
      </trkpt>
      <trkpt lon="35.33764720894396" lat="31.23220620676875">
        <ele>35.79999923706055</ele>
        <time>2014-02-07T08:33:50.000Z</time>
      </trkpt>
      <trkpt lon="35.33766548149288" lat="31.232195142656565">
        <ele>36.599998474121094</ele>
        <time>2014-02-07T08:33:59.000Z</time>
      </trkpt>
      <trkpt lon="35.33764838241041" lat="31.232264880090952">
        <ele>36.599998474121094</ele>
        <time>2014-02-07T08:34:06.000Z</time>
      </trkpt>
      <trkpt lon="35.33766673877835" lat="31.232461938634515">
        <ele>36.20000076293945</ele>
        <time>2014-02-07T08:34:13.000Z</time>
      </trkpt>
      <trkpt lon="35.33768945373595" lat="31.232688752934337">
        <ele>36.599998474121094</ele>
        <time>2014-02-07T08:34:21.000Z</time>
      </trkpt>
      <trkpt lon="35.33769833855331" lat="31.23282428830862">
        <ele>35.79999923706055</ele>
        <time>2014-02-07T08:34:28.000Z</time>
      </trkpt>
      <trkpt lon="35.3377197124064" lat="31.232828395441175">
        <ele>35.20000076293945</ele>
        <time>2014-02-07T08:34:44.000Z</time>
      </trkpt>
      <trkpt lon="35.33770278096199" lat="31.232847925275564">
        <ele>34.79999923706055</ele>
        <time>2014-02-07T08:35:01.000Z</time>
      </trkpt>
      <trkpt lon="35.33769045956433" lat="31.233005169779062">
        <ele>35.20000076293945</ele>
        <time>2014-02-07T08:35:08.000Z</time>
      </trkpt>
      <trkpt lon="35.3377247415483" lat="31.233226619660854">
        <ele>36.20000076293945</ele>
        <time>2014-02-07T08:35:15.000Z</time>
      </trkpt>
      <trkpt lon="35.337736727669835" lat="31.23339149169624">
        <ele>38.20000076293945</ele>
        <time>2014-02-07T08:35:21.000Z</time>
      </trkpt>
      <trkpt lon="35.33777084201574" lat="31.23363104648888">
        <ele>38.599998474121094</ele>
        <time>2014-02-07T08:35:28.000Z</time>
      </trkpt>
      <trkpt lon="35.33781954087317" lat="31.233906978741288">
        <ele>40.599998474121094</ele>
        <time>2014-02-07T08:35:36.000Z</time>
      </trkpt>
      <trkpt lon="35.33785365521908" lat="31.234274692833424">
        <ele>41.400001525878906</ele>
        <time>2014-02-07T08:35:46.000Z</time>
      </trkpt>
      <trkpt lon="35.33790302462876" lat="31.234602006152272">
        <ele>42.0</ele>
        <time>2014-02-07T08:35:54.000Z</time>
      </trkpt>
      <trkpt lon="35.337906796485186" lat="31.234644502401352">
        <ele>42.400001525878906</ele>
        <time>2014-02-07T08:35:55.000Z</time>
      </trkpt>
      <trkpt lon="35.33788793720305" lat="31.234946502372622">
        <ele>42.400001525878906</ele>
        <time>2014-02-07T08:36:03.000Z</time>
      </trkpt>
      <trkpt lon="35.33787234686315" lat="31.23520877212286">
        <ele>43.400001525878906</ele>
        <time>2014-02-07T08:36:11.000Z</time>
      </trkpt>
      <trkpt lon="35.337823228910565" lat="31.235622921958566">
        <ele>43.79999923706055</ele>
        <time>2014-02-07T08:36:21.000Z</time>
      </trkpt>
      <trkpt lon="35.337786013260484" lat="31.236086608842015">
        <ele>43.400001525878906</ele>
        <time>2014-02-07T08:36:32.000Z</time>
      </trkpt>
      <trkpt lon="35.33778618089855" lat="31.2362496368587">
        <ele>43.400001525878906</ele>
        <time>2014-02-07T08:36:36.000Z</time>
      </trkpt>
      <trkpt lon="35.33773597329855" lat="31.236603101715446">
        <ele>43.79999923706055</ele>
        <time>2014-02-07T08:36:45.000Z</time>
      </trkpt>
      <trkpt lon="35.337666906416416" lat="31.236762022599578">
        <ele>45.400001525878906</ele>
        <time>2014-02-07T08:36:51.000Z</time>
      </trkpt>
      <trkpt lon="35.337501699104905" lat="31.236876603215933">
        <ele>45.400001525878906</ele>
        <time>2014-02-07T08:36:58.000Z</time>
      </trkpt>
      <trkpt lon="35.33746238797903" lat="31.236896635964513">
        <ele>45.400001525878906</ele>
        <time>2014-02-07T08:36:59.000Z</time>
      </trkpt>
      <trkpt lon="35.337327690795064" lat="31.236962350085378">
        <ele>44.79999923706055</ele>
        <time>2014-02-07T08:37:02.000Z</time>
      </trkpt>
      <trkpt lon="35.33723716624081" lat="31.237028734758496">
        <ele>44.400001525878906</ele>
        <time>2014-02-07T08:37:04.000Z</time>
      </trkpt>
      <trkpt lon="35.33720741048455" lat="31.237066704779863">
        <ele>43.79999923706055</ele>
        <time>2014-02-07T08:37:05.000Z</time>
      </trkpt>
      <trkpt lon="35.337198022753" lat="31.237104842439294">
        <ele>43.79999923706055</ele>
        <time>2014-02-07T08:37:06.000Z</time>
      </trkpt>
      <trkpt lon="35.337192742154" lat="31.237138621509075">
        <ele>43.79999923706055</ele>
        <time>2014-02-07T08:37:07.000Z</time>
      </trkpt>
      <trkpt lon="35.33718679100275" lat="31.237161001190543">
        <ele>43.400001525878906</ele>
        <time>2014-02-07T08:37:08.000Z</time>
      </trkpt>
      <trkpt lon="35.33718377351761" lat="31.237174244597554">
        <ele>43.400001525878906</ele>
        <time>2014-02-07T08:37:09.000Z</time>
      </trkpt>
      <trkpt lon="35.337184108793736" lat="31.23718623071909">
        <ele>43.400001525878906</ele>
        <time>2014-02-07T08:37:10.000Z</time>
      </trkpt>
      <trkpt lon="35.337183102965355" lat="31.23720441944897">
        <ele>43.79999923706055</ele>
        <time>2014-02-07T08:37:11.000Z</time>
      </trkpt>
      <trkpt lon="35.3371858689934" lat="31.237225541844964">
        <ele>43.79999923706055</ele>
        <time>2014-02-07T08:37:12.000Z</time>
      </trkpt>
      <trkpt lon="35.33717446960509" lat="31.237393179908395">
        <ele>44.79999923706055</ele>
        <time>2014-02-07T08:37:19.000Z</time>
      </trkpt>
      <trkpt lon="35.33723750151694" lat="31.237527960911393">
        <ele>46.79999923706055</ele>
        <time>2014-02-07T08:37:27.000Z</time>
      </trkpt>
      <trkpt lon="35.337262731045485" lat="31.237734658643603">
        <ele>48.20000076293945</ele>
        <time>2014-02-07T08:37:35.000Z</time>
      </trkpt>
      <trkpt lon="35.33723037689924" lat="31.23799986205995">
        <ele>48.20000076293945</ele>
        <time>2014-02-07T08:37:43.000Z</time>
      </trkpt>
      <trkpt lon="35.33717606216669" lat="31.238335724920034">
        <ele>49.20000076293945</ele>
        <time>2014-02-07T08:37:53.000Z</time>
      </trkpt>
      <trkpt lon="35.33714588731527" lat="31.238646106794477">
        <ele>50.599998474121094</ele>
        <time>2014-02-07T08:38:01.000Z</time>
      </trkpt>
      <trkpt lon="35.337123507633805" lat="31.238970402628183">
        <ele>52.599998474121094</ele>
        <time>2014-02-07T08:38:10.000Z</time>
      </trkpt>
      <trkpt lon="35.337128872051835" lat="31.239213813096285">
        <ele>52.599998474121094</ele>
        <time>2014-02-07T08:38:17.000Z</time>
      </trkpt>
      <trkpt lon="35.33711722120643" lat="31.239603236317635">
        <ele>54.0</ele>
        <time>2014-02-07T08:38:29.000Z</time>
      </trkpt>
      <trkpt lon="35.33712233416736" lat="31.239827536046505">
        <ele>54.400001525878906</ele>
        <time>2014-02-07T08:38:36.000Z</time>
      </trkpt>
      <trkpt lon="35.337133230641484" lat="31.239902218803763">
        <ele>54.400001525878906</ele>
        <time>2014-02-07T08:38:38.000Z</time>
      </trkpt>
      <trkpt lon="35.33722501248121" lat="31.240260796621442">
        <ele>53.0</ele>
        <time>2014-02-07T08:38:46.000Z</time>
      </trkpt>
      <trkpt lon="35.33730614930391" lat="31.240669414401054">
        <ele>53.0</ele>
        <time>2014-02-07T08:38:55.000Z</time>
      </trkpt>
      <trkpt lon="35.33732056617737" lat="31.240708641707897">
        <ele>53.0</ele>
        <time>2014-02-07T08:38:56.000Z</time>
      </trkpt>
      <trkpt lon="35.337337581440806" lat="31.240747617557645">
        <ele>52.599998474121094</ele>
        <time>2014-02-07T08:38:57.000Z</time>
      </trkpt>
      <trkpt lon="35.33735820092261" lat="31.24078500084579">
        <ele>52.0</ele>
        <time>2014-02-07T08:38:58.000Z</time>
      </trkpt>
      <trkpt lon="35.337378568947315" lat="31.24082305468619">
        <ele>52.0</ele>
        <time>2014-02-07T08:38:59.000Z</time>
      </trkpt>
      <trkpt lon="35.33739357255399" lat="31.24086513184011">
        <ele>51.599998474121094</ele>
        <time>2014-02-07T08:39:00.000Z</time>
      </trkpt>
      <trkpt lon="35.33740472048521" lat="31.240909304469824">
        <ele>51.599998474121094</ele>
        <time>2014-02-07T08:39:01.000Z</time>
      </trkpt>
      <trkpt lon="35.33743397332728" lat="31.24104836024344">
        <ele>50.599998474121094</ele>
        <time>2014-02-07T08:39:04.000Z</time>
      </trkpt>
      <trkpt lon="35.33745006658137" lat="31.241201413795352">
        <ele>49.20000076293945</ele>
        <time>2014-02-07T08:39:09.000Z</time>
      </trkpt>
      <trkpt lon="35.337443612515926" lat="31.241221949458122">
        <ele>48.599998474121094</ele>
        <time>2014-02-07T08:39:10.000Z</time>
      </trkpt>
      <trkpt lon="35.33743531443179" lat="31.241247933357954">
        <ele>48.20000076293945</ele>
        <time>2014-02-07T08:39:11.000Z</time>
      </trkpt>
      <trkpt lon="35.33743020147085" lat="31.24127601273358">
        <ele>48.20000076293945</ele>
        <time>2014-02-07T08:39:12.000Z</time>
      </trkpt>
      <trkpt lon="35.337428860366344" lat="31.241305014118552">
        <ele>47.79999923706055</ele>
        <time>2014-02-07T08:39:13.000Z</time>
      </trkpt>
      <trkpt lon="35.33742802217603" lat="31.241337284445763">
        <ele>47.20000076293945</ele>
        <time>2014-02-07T08:39:14.000Z</time>
      </trkpt>
      <trkpt lon="35.3374586161226" lat="31.24162830412388">
        <ele>43.79999923706055</ele>
        <time>2014-02-07T08:39:20.000Z</time>
      </trkpt>
      <trkpt lon="35.33746339380741" lat="31.241749757900834">
        <ele>42.400001525878906</ele>
        <time>2014-02-07T08:39:22.000Z</time>
      </trkpt>
      <trkpt lon="35.33747638575733" lat="31.24181312508881">
        <ele>42.0</ele>
        <time>2014-02-07T08:39:23.000Z</time>
      </trkpt>
      <trkpt lon="35.337489461526275" lat="31.241881186142564">
        <ele>41.0</ele>
        <time>2014-02-07T08:39:24.000Z</time>
      </trkpt>
      <trkpt lon="35.33749474212527" lat="31.241951510310173">
        <ele>40.599998474121094</ele>
        <time>2014-02-07T08:39:25.000Z</time>
      </trkpt>
      <trkpt lon="35.33749742433429" lat="31.242022002115846">
        <ele>40.0</ele>
        <time>2014-02-07T08:39:26.000Z</time>
      </trkpt>
      <trkpt lon="35.337565653026104" lat="31.24235493130982">
        <ele>38.599998474121094</ele>
        <time>2014-02-07T08:39:31.000Z</time>
      </trkpt>
      <trkpt lon="35.337591636925936" lat="31.24240145087242">
        <ele>38.599998474121094</ele>
        <time>2014-02-07T08:39:32.000Z</time>
      </trkpt>
      <trkpt lon="35.33776321448386" lat="31.24272968620062">
        <ele>41.0</ele>
        <time>2014-02-07T08:39:40.000Z</time>
      </trkpt>
      <trkpt lon="35.33785826526582" lat="31.243035960942507">
        <ele>42.0</ele>
        <time>2014-02-07T08:39:48.000Z</time>
      </trkpt>
      <trkpt lon="35.33789279870689" lat="31.24342798255384">
        <ele>42.0</ele>
        <time>2014-02-07T08:39:57.000Z</time>
      </trkpt>
      <trkpt lon="35.337858432903886" lat="31.243767784908414">
        <ele>41.0</ele>
        <time>2014-02-07T08:40:04.000Z</time>
      </trkpt>
      <trkpt lon="35.33781132660806" lat="31.243969034403563">
        <ele>40.0</ele>
        <time>2014-02-07T08:40:08.000Z</time>
      </trkpt>
      <trkpt lon="35.33775860443711" lat="31.24411010183394">
        <ele>39.0</ele>
        <time>2014-02-07T08:40:11.000Z</time>
      </trkpt>
      <trkpt lon="35.33775022253394" lat="31.24415854923427">
        <ele>39.0</ele>
        <time>2014-02-07T08:40:12.000Z</time>
      </trkpt>
      <trkpt lon="35.3377472050488" lat="31.244207080453634">
        <ele>38.599998474121094</ele>
        <time>2014-02-07T08:40:13.000Z</time>
      </trkpt>
      <trkpt lon="35.33767872489989" lat="31.244583511725068">
        <ele>36.20000076293945</ele>
        <time>2014-02-07T08:40:20.000Z</time>
      </trkpt>
      <trkpt lon="35.33757856115699" lat="31.24503110535443">
        <ele>35.20000076293945</ele>
        <time>2014-02-07T08:40:28.000Z</time>
      </trkpt>
      <trkpt lon="35.3375331312418" lat="31.24536353163421">
        <ele>35.79999923706055</ele>
        <time>2014-02-07T08:40:35.000Z</time>
      </trkpt>
      <trkpt lon="35.33748744986951" lat="31.24559696763754">
        <ele>36.20000076293945</ele>
        <time>2014-02-07T08:40:41.000Z</time>
      </trkpt>
      <trkpt lon="35.33747638575733" lat="31.24563904479146">
        <ele>36.20000076293945</ele>
        <time>2014-02-07T08:40:42.000Z</time>
      </trkpt>
      <trkpt lon="35.337465992197394" lat="31.245680786669254">
        <ele>35.79999923706055</ele>
        <time>2014-02-07T08:40:43.000Z</time>
      </trkpt>
      <trkpt lon="35.33745501190424" lat="31.245723702013493">
        <ele>36.20000076293945</ele>
        <time>2014-02-07T08:40:44.000Z</time>
      </trkpt>
      <trkpt lon="35.33742290921509" lat="31.24584716744721">
        <ele>36.20000076293945</ele>
        <time>2014-02-07T08:40:47.000Z</time>
      </trkpt>
      <trkpt lon="35.33741444349289" lat="31.245888154953718">
        <ele>36.20000076293945</ele>
        <time>2014-02-07T08:40:48.000Z</time>
      </trkpt>
      <trkpt lon="35.33731000497937" lat="31.246230890974402">
        <ele>36.20000076293945</ele>
        <time>2014-02-07T08:40:56.000Z</time>
      </trkpt>
      <trkpt lon="35.337301790714264" lat="31.246269196271896">
        <ele>36.20000076293945</ele>
        <time>2014-02-07T08:40:57.000Z</time>
      </trkpt>
      <trkpt lon="35.337289636954665" lat="31.24631001614034">
        <ele>36.599998474121094</ele>
        <time>2014-02-07T08:40:58.000Z</time>
      </trkpt>
      <trkpt lon="35.337280835956335" lat="31.246352260932326">
        <ele>36.599998474121094</ele>
        <time>2014-02-07T08:40:59.000Z</time>
      </trkpt>
      <trkpt lon="35.3372672572732" lat="31.246394589543343">
        <ele>37.20000076293945</ele>
        <time>2014-02-07T08:41:00.000Z</time>
      </trkpt>
      <trkpt lon="35.33725267276168" lat="31.24643214046955">
        <ele>37.599998474121094</ele>
        <time>2014-02-07T08:41:01.000Z</time>
      </trkpt>
      <trkpt lon="35.33719559200108" lat="31.246597012504935">
        <ele>38.599998474121094</ele>
        <time>2014-02-07T08:41:07.000Z</time>
      </trkpt>
      <trkpt lon="35.33719735220075" lat="31.246778815984726">
        <ele>39.599998474121094</ele>
        <time>2014-02-07T08:41:13.000Z</time>
      </trkpt>
      <trkpt lon="35.33725711517036" lat="31.24701753258705">
        <ele>40.599998474121094</ele>
        <time>2014-02-07T08:41:20.000Z</time>
      </trkpt>
      <trkpt lon="35.33730790950358" lat="31.247287765145302">
        <ele>41.400001525878906</ele>
        <time>2014-02-07T08:41:26.000Z</time>
      </trkpt>
      <trkpt lon="35.33738602884114" lat="31.247626394033432">
        <ele>42.400001525878906</ele>
        <time>2014-02-07T08:41:34.000Z</time>
      </trkpt>
      <trkpt lon="35.33744218759239" lat="31.24794247560203">
        <ele>43.400001525878906</ele>
        <time>2014-02-07T08:41:42.000Z</time>
      </trkpt>
      <trkpt lon="35.33749943599105" lat="31.248121596872807">
        <ele>45.400001525878906</ele>
        <time>2014-02-07T08:41:48.000Z</time>
      </trkpt>
      <trkpt lon="35.33749700523913" lat="31.248310524970293">
        <ele>46.20000076293945</ele>
        <time>2014-02-07T08:41:55.000Z</time>
      </trkpt>
      <trkpt lon="35.33747018314898" lat="31.248437175527215">
        <ele>46.79999923706055</ele>
        <time>2014-02-07T08:42:02.000Z</time>
      </trkpt>
      <trkpt lon="35.33746465109289" lat="31.24844857491553">
        <ele>46.79999923706055</ele>
        <time>2014-02-07T08:42:03.000Z</time>
      </trkpt>
      <trkpt lon="35.3374554309994" lat="31.248458633199334">
        <ele>46.79999923706055</ele>
        <time>2014-02-07T08:42:04.000Z</time>
      </trkpt>
      <trkpt lon="35.33739969134331" lat="31.248567765578628">
        <ele>47.20000076293945</ele>
        <time>2014-02-07T08:42:11.000Z</time>
      </trkpt>
      <trkpt lon="35.33733867108822" lat="31.24873213469982">
        <ele>46.20000076293945</ele>
        <time>2014-02-07T08:42:17.000Z</time>
      </trkpt>
      <trkpt lon="35.33728980459273" lat="31.24892793595791">
        <ele>47.20000076293945</ele>
        <time>2014-02-07T08:42:23.000Z</time>
      </trkpt>
      <trkpt lon="35.33724781125784" lat="31.249140249565244">
        <ele>48.599998474121094</ele>
        <time>2014-02-07T08:42:32.000Z</time>
      </trkpt>
      <trkpt lon="35.33722341991961" lat="31.24933169223368">
        <ele>49.20000076293945</ele>
        <time>2014-02-07T08:42:40.000Z</time>
      </trkpt>
      <trkpt lon="35.33717907965183" lat="31.249612234532833">
        <ele>49.20000076293945</ele>
        <time>2014-02-07T08:42:48.000Z</time>
      </trkpt>
      <trkpt lon="35.337209003046155" lat="31.24987785704434">
        <ele>50.20000076293945</ele>
        <time>2014-02-07T08:42:56.000Z</time>
      </trkpt>
      <trkpt lon="35.33717664889991" lat="31.25009293667972">
        <ele>51.599998474121094</ele>
        <time>2014-02-07T08:43:04.000Z</time>
      </trkpt>
      <trkpt lon="35.337107330560684" lat="31.250260323286057">
        <ele>51.0</ele>
        <time>2014-02-07T08:43:11.000Z</time>
      </trkpt>
      <trkpt lon="35.33711294643581" lat="31.25028647482395">
        <ele>51.0</ele>
        <time>2014-02-07T08:43:12.000Z</time>
      </trkpt>
      <trkpt lon="35.33712049014866" lat="31.250311955809593">
        <ele>51.0</ele>
        <time>2014-02-07T08:43:13.000Z</time>
      </trkpt>
      <trkpt lon="35.33712526783347" lat="31.25052292831242">
        <ele>51.0</ele>
        <time>2014-02-07T08:43:21.000Z</time>
      </trkpt>
      <trkpt lon="35.33712409436703" lat="31.250729709863663">
        <ele>52.0</ele>
        <time>2014-02-07T08:43:29.000Z</time>
      </trkpt>
      <trkpt lon="35.33713532611728" lat="31.250980412587523">
        <ele>53.0</ele>
        <time>2014-02-07T08:43:37.000Z</time>
      </trkpt>
      <trkpt lon="35.337123423814774" lat="31.25112634152174">
        <ele>52.599998474121094</ele>
        <time>2014-02-07T08:43:43.000Z</time>
      </trkpt>
      <trkpt lon="35.33708285540342" lat="31.251359609887004">
        <ele>52.599998474121094</ele>
        <time>2014-02-07T08:43:51.000Z</time>
      </trkpt>
      <trkpt lon="35.33699534833431" lat="31.251638727262616">
        <ele>50.599998474121094</ele>
        <time>2014-02-07T08:43:58.000Z</time>
      </trkpt>
      <trkpt lon="35.336897280067205" lat="31.252125799655914">
        <ele>46.20000076293945</ele>
        <time>2014-02-07T08:44:07.000Z</time>
      </trkpt>
      <trkpt lon="35.3368562925607" lat="31.25223845243454">
        <ele>45.79999923706055</ele>
        <time>2014-02-07T08:44:09.000Z</time>
      </trkpt>
      <trkpt lon="35.33664674498141" lat="31.252560820430517">
        <ele>44.400001525878906</ele>
        <time>2014-02-07T08:44:16.000Z</time>
      </trkpt>
      <trkpt lon="35.336608523502946" lat="31.252689734101295">
        <ele>43.400001525878906</ele>
        <time>2014-02-07T08:44:20.000Z</time>
      </trkpt>
      <trkpt lon="35.336618246510625" lat="31.252810349687934">
        <ele>42.400001525878906</ele>
        <time>2014-02-07T08:44:26.000Z</time>
      </trkpt>
      <trkpt lon="35.33661891706288" lat="31.252841278910637">
        <ele>42.0</ele>
        <time>2014-02-07T08:44:28.000Z</time>
      </trkpt>
      <trkpt lon="35.33661179244518" lat="31.252857455983758">
        <ele>41.400001525878906</ele>
        <time>2014-02-07T08:44:29.000Z</time>
      </trkpt>
      <trkpt lon="35.33660148270428" lat="31.252872962504625">
        <ele>41.400001525878906</ele>
        <time>2014-02-07T08:44:30.000Z</time>
      </trkpt>
      <trkpt lon="35.33645689487457" lat="31.253006821498275">
        <ele>40.599998474121094</ele>
        <time>2014-02-07T08:44:37.000Z</time>
      </trkpt>
      <trkpt lon="35.33624307252467" lat="31.253160880878568">
        <ele>40.599998474121094</ele>
        <time>2014-02-07T08:44:45.000Z</time>
      </trkpt>
      <trkpt lon="35.336012905463576" lat="31.253262804821134">
        <ele>42.0</ele>
        <time>2014-02-07T08:44:54.000Z</time>
      </trkpt>
      <trkpt lon="35.33576044254005" lat="31.253318628296256">
        <ele>41.400001525878906</ele>
        <time>2014-02-07T08:45:00.000Z</time>
      </trkpt>
      <trkpt lon="35.33551175147295" lat="31.25331695191562">
        <ele>41.400001525878906</ele>
        <time>2014-02-07T08:45:04.000Z</time>
      </trkpt>
      <trkpt lon="35.33545106649399" lat="31.2533094920218">
        <ele>41.0</ele>
        <time>2014-02-07T08:45:05.000Z</time>
      </trkpt>
      <trkpt lon="35.33519449643791" lat="31.25327194109559">
        <ele>41.400001525878906</ele>
        <time>2014-02-07T08:45:09.000Z</time>
      </trkpt>
      <trkpt lon="35.335143534466624" lat="31.253283591941">
        <ele>41.400001525878906</ele>
        <time>2014-02-07T08:45:10.000Z</time>
      </trkpt>
      <trkpt lon="35.33510455861688" lat="31.253306223079562">
        <ele>41.400001525878906</ele>
        <time>2014-02-07T08:45:11.000Z</time>
      </trkpt>
      <trkpt lon="35.33507932908833" lat="31.253339080139995">
        <ele>41.400001525878906</ele>
        <time>2014-02-07T08:45:12.000Z</time>
      </trkpt>
      <trkpt lon="35.33506432548165" lat="31.25337746925652">
        <ele>41.0</ele>
        <time>2014-02-07T08:45:13.000Z</time>
      </trkpt>
      <trkpt lon="35.33505426719785" lat="31.253421809524298">
        <ele>40.599998474121094</ele>
        <time>2014-02-07T08:45:14.000Z</time>
      </trkpt>
      <trkpt lon="35.335045382380486" lat="31.25347226858139">
        <ele>39.599998474121094</ele>
        <time>2014-02-07T08:45:15.000Z</time>
      </trkpt>
      <trkpt lon="35.335037000477314" lat="31.253529516980052">
        <ele>38.599998474121094</ele>
        <time>2014-02-07T08:45:16.000Z</time>
      </trkpt>
      <trkpt lon="35.334910517558455" lat="31.253910809755325">
        <ele>35.79999923706055</ele>
        <time>2014-02-07T08:45:23.000Z</time>
      </trkpt>
      <trkpt lon="35.334767773747444" lat="31.254172828048468">
        <ele>35.20000076293945</ele>
        <time>2014-02-07T08:45:30.000Z</time>
      </trkpt>
      <trkpt lon="35.3346904926002" lat="31.25449494458735">
        <ele>35.20000076293945</ele>
        <time>2014-02-07T08:45:39.000Z</time>
      </trkpt>
      <trkpt lon="35.33453291282058" lat="31.254650009796023">
        <ele>32.79999923706055</ele>
        <time>2014-02-07T08:45:45.000Z</time>
      </trkpt>
      <trkpt lon="35.33450508490205" lat="31.254683202132583">
        <ele>32.400001525878906</ele>
        <time>2014-02-07T08:45:46.000Z</time>
      </trkpt>
      <trkpt lon="35.334316324442625" lat="31.254981933161616">
        <ele>29.399999618530273</ele>
        <time>2014-02-07T08:45:52.000Z</time>
      </trkpt>
      <trkpt lon="35.33401910215616" lat="31.25548434443772">
        <ele>27.0</ele>
        <time>2014-02-07T08:46:01.000Z</time>
      </trkpt>
      <trkpt lon="35.33398540690541" lat="31.255521308630705">
        <ele>26.600000381469727</ele>
        <time>2014-02-07T08:46:02.000Z</time>
      </trkpt>
      <trkpt lon="35.333943497389555" lat="31.255552656948566">
        <ele>26.600000381469727</ele>
        <time>2014-02-07T08:46:03.000Z</time>
      </trkpt>
      <trkpt lon="35.33390234224498" lat="31.255581825971603">
        <ele>26.600000381469727</ele>
        <time>2014-02-07T08:46:04.000Z</time>
      </trkpt>
      <trkpt lon="35.33387208357453" lat="31.25561493448913">
        <ele>26.600000381469727</ele>
        <time>2014-02-07T08:46:05.000Z</time>
      </trkpt>
      <trkpt lon="35.333850122988224" lat="31.255651228129864">
        <ele>26.600000381469727</ele>
        <time>2014-02-07T08:46:06.000Z</time>
      </trkpt>
      <trkpt lon="35.33382606692612" lat="31.255689449608326">
        <ele>26.600000381469727</ele>
        <time>2014-02-07T08:46:07.000Z</time>
      </trkpt>
      <trkpt lon="35.333655243739486" lat="31.25598189420998">
        <ele>24.600000381469727</ele>
        <time>2014-02-07T08:46:14.000Z</time>
      </trkpt>
      <trkpt lon="35.333641078323126" lat="31.256027491763234">
        <ele>24.600000381469727</ele>
        <time>2014-02-07T08:46:15.000Z</time>
      </trkpt>
      <trkpt lon="35.33363102003932" lat="31.25607560388744">
        <ele>24.600000381469727</ele>
        <time>2014-02-07T08:46:16.000Z</time>
      </trkpt>
      <trkpt lon="35.333631271496415" lat="31.256125140935183">
        <ele>24.600000381469727</ele>
        <time>2014-02-07T08:46:17.000Z</time>
      </trkpt>
      <trkpt lon="35.33363579772413" lat="31.256175013259053">
        <ele>24.600000381469727</ele>
        <time>2014-02-07T08:46:18.000Z</time>
      </trkpt>
      <trkpt lon="35.33364317379892" lat="31.2562227062881">
        <ele>24.600000381469727</ele>
        <time>2014-02-07T08:46:19.000Z</time>
      </trkpt>
      <trkpt lon="35.333673767745495" lat="31.256367629393935">
        <ele>24.200000762939453</ele>
        <time>2014-02-07T08:46:22.000Z</time>
      </trkpt>
      <trkpt lon="35.33367410302162" lat="31.256411718204618">
        <ele>24.200000762939453</ele>
        <time>2014-02-07T08:46:23.000Z</time>
      </trkpt>
      <trkpt lon="35.33366220071912" lat="31.25672210007906">
        <ele>23.600000381469727</ele>
        <time>2014-02-07T08:46:31.000Z</time>
      </trkpt>
      <trkpt lon="35.33362506888807" lat="31.257013957947493">
        <ele>23.600000381469727</ele>
        <time>2014-02-07T08:46:39.000Z</time>
      </trkpt>
      <trkpt lon="35.333615597337484" lat="31.257315119728446">
        <ele>25.200000762939453</ele>
        <time>2014-02-07T08:46:48.000Z</time>
      </trkpt>
      <trkpt lon="35.333695728331804" lat="31.25758459791541">
        <ele>26.0</ele>
        <time>2014-02-07T08:46:55.000Z</time>
      </trkpt>
      <trkpt lon="35.33381994813681" lat="31.2578943092376">
        <ele>26.0</ele>
        <time>2014-02-07T08:47:03.000Z</time>
      </trkpt>
      <trkpt lon="35.3338651265949" lat="31.258097402751446">
        <ele>25.200000762939453</ele>
        <time>2014-02-07T08:47:06.000Z</time>
      </trkpt>
      <trkpt lon="35.333978701382875" lat="31.25843963585794">
        <ele>26.0</ele>
        <time>2014-02-07T08:47:12.000Z</time>
      </trkpt>
      <trkpt lon="35.334006110206246" lat="31.25865018926561">
        <ele>27.0</ele>
        <time>2014-02-07T08:47:17.000Z</time>
      </trkpt>
      <trkpt lon="35.3339687269181" lat="31.2589028198272">
        <ele>27.0</ele>
        <time>2014-02-07T08:47:24.000Z</time>
      </trkpt>
      <trkpt lon="35.33395447768271" lat="31.25898647122085">
        <ele>27.0</ele>
        <time>2014-02-07T08:47:27.000Z</time>
      </trkpt>
      <trkpt lon="35.33394265919924" lat="31.259004157036543">
        <ele>27.0</ele>
        <time>2014-02-07T08:47:28.000Z</time>
      </trkpt>
      <trkpt lon="35.3339309245348" lat="31.259016143158078">
        <ele>27.0</ele>
        <time>2014-02-07T08:47:29.000Z</time>
      </trkpt>
      <trkpt lon="35.33391181379557" lat="31.259025698527694">
        <ele>26.600000381469727</ele>
        <time>2014-02-07T08:47:35.000Z</time>
      </trkpt>
      <trkpt lon="35.333903431892395" lat="31.259015556424856">
        <ele>25.600000381469727</ele>
        <time>2014-02-07T08:47:53.000Z</time>
      </trkpt>
      <trkpt lon="35.33390611410141" lat="31.259013544768095">
        <ele>24.600000381469727</ele>
        <time>2014-02-07T08:48:03.000Z</time>
      </trkpt>
      <trkpt lon="35.3339100535959" lat="31.259017903357744">
        <ele>22.200000762939453</ele>
        <time>2014-02-07T08:48:27.000Z</time>
      </trkpt>
      <trkpt lon="35.33390804193914" lat="31.259020417928696">
        <ele>20.399999618530273</ele>
        <time>2014-02-07T08:48:52.000Z</time>
      </trkpt>
      <trkpt lon="35.33390066586435" lat="31.25902008265257">
        <ele>19.799999237060547</ele>
        <time>2014-02-07T08:49:15.000Z</time>
      </trkpt>
      <trkpt lon="35.33390988595784" lat="31.259018322452903">
        <ele>19.399999618530273</ele>
        <time>2014-02-07T08:49:39.000Z</time>
      </trkpt>
      <trkpt lon="35.33390326425433" lat="31.259024357423186">
        <ele>19.399999618530273</ele>
        <time>2014-02-07T08:50:03.000Z</time>
      </trkpt>
      <trkpt lon="35.33390762284398" lat="31.259018573909998">
        <ele>18.799999237060547</ele>
        <time>2014-02-07T08:50:23.000Z</time>
      </trkpt>
      <trkpt lon="35.33391139470041" lat="31.259017484262586">
        <ele>18.399999618530273</ele>
        <time>2014-02-07T08:50:47.000Z</time>
      </trkpt>
      <trkpt lon="35.33391139470041" lat="31.259016478434205">
        <ele>18.799999237060547</ele>
        <time>2014-02-07T08:51:05.000Z</time>
      </trkpt>
      <trkpt lon="35.33391114324331" lat="31.25901874154806">
        <ele>19.399999618530273</ele>
        <time>2014-02-07T08:51:27.000Z</time>
      </trkpt>
      <trkpt lon="35.333901504054666" lat="31.259048329666257">
        <ele>19.399999618530273</ele>
        <time>2014-02-07T08:51:44.000Z</time>
      </trkpt>
      <trkpt lon="35.333878453820944" lat="31.259218314662576">
        <ele>19.799999237060547</ele>
        <time>2014-02-07T08:51:51.000Z</time>
      </trkpt>
      <trkpt lon="35.33376898616552" lat="31.2594105117023">
        <ele>20.799999237060547</ele>
        <time>2014-02-07T08:51:58.000Z</time>
      </trkpt>
      <trkpt lon="35.333571676164865" lat="31.259519811719656">
        <ele>20.799999237060547</ele>
        <time>2014-02-07T08:52:04.000Z</time>
      </trkpt>
      <trkpt lon="35.333532532677054" lat="31.25955669209361">
        <ele>20.399999618530273</ele>
        <time>2014-02-07T08:52:05.000Z</time>
      </trkpt>
      <trkpt lon="35.333500849083066" lat="31.25960262492299">
        <ele>19.799999237060547</ele>
        <time>2014-02-07T08:52:06.000Z</time>
      </trkpt>
      <trkpt lon="35.3334834985435" lat="31.259651659056544">
        <ele>19.799999237060547</ele>
        <time>2014-02-07T08:52:07.000Z</time>
      </trkpt>
      <trkpt lon="35.33347352407873" lat="31.259701866656542">
        <ele>19.799999237060547</ele>
        <time>2014-02-07T08:52:08.000Z</time>
      </trkpt>
      <trkpt lon="35.33346799202263" lat="31.25975165516138">
        <ele>19.799999237060547</ele>
        <time>2014-02-07T08:52:09.000Z</time>
      </trkpt>
      <trkpt lon="35.33346782438457" lat="31.259800689294934">
        <ele>19.799999237060547</ele>
        <time>2014-02-07T08:52:10.000Z</time>
      </trkpt>
      <trkpt lon="35.3334713447839" lat="31.259851651266217">
        <ele>19.399999618530273</ele>
        <time>2014-02-07T08:52:11.000Z</time>
      </trkpt>
      <trkpt lon="35.33347209915519" lat="31.259997580200434">
        <ele>19.399999618530273</ele>
        <time>2014-02-07T08:52:14.000Z</time>
      </trkpt>
      <trkpt lon="35.3334523178637" lat="31.26004183664918">
        <ele>19.399999618530273</ele>
        <time>2014-02-07T08:52:15.000Z</time>
      </trkpt>
      <trkpt lon="35.33342055045068" lat="31.260080728679895">
        <ele>19.399999618530273</ele>
        <time>2014-02-07T08:52:16.000Z</time>
      </trkpt>
      <trkpt lon="35.333384005352855" lat="31.260115513578057">
        <ele>19.399999618530273</ele>
        <time>2014-02-07T08:52:17.000Z</time>
      </trkpt>
      <trkpt lon="35.33335005864501" lat="31.2601513043046">
        <ele>19.399999618530273</ele>
        <time>2014-02-07T08:52:18.000Z</time>
      </trkpt>
      <trkpt lon="35.333319548517466" lat="31.26018994487822">
        <ele>18.799999237060547</ele>
        <time>2014-02-07T08:52:19.000Z</time>
      </trkpt>
      <trkpt lon="35.333291133865714" lat="31.260233614593744">
        <ele>18.799999237060547</ele>
        <time>2014-02-07T08:52:20.000Z</time>
      </trkpt>
      <trkpt lon="35.33326892182231" lat="31.260282648727298">
        <ele>18.799999237060547</ele>
        <time>2014-02-07T08:52:21.000Z</time>
      </trkpt>
      <trkpt lon="35.33317848108709" lat="31.260506445541978">
        <ele>17.0</ele>
        <time>2014-02-07T08:52:26.000Z</time>
      </trkpt>
      <trkpt lon="35.333174876868725" lat="31.260544080287218">
        <ele>17.399999618530273</ele>
        <time>2014-02-07T08:52:27.000Z</time>
      </trkpt>
      <trkpt lon="35.333144618198276" lat="31.260827304795384">
        <ele>18.0</ele>
        <time>2014-02-07T08:52:35.000Z</time>
      </trkpt>
      <trkpt lon="35.33310513943434" lat="31.26107381656766">
        <ele>17.0</ele>
        <time>2014-02-07T08:52:41.000Z</time>
      </trkpt>
      <trkpt lon="35.33308946527541" lat="31.261112289503217">
        <ele>17.0</ele>
        <time>2014-02-07T08:52:42.000Z</time>
      </trkpt>
      <trkpt lon="35.332989720627666" lat="31.261377492919564">
        <ele>17.0</ele>
        <time>2014-02-07T08:52:49.000Z</time>
      </trkpt>
      <trkpt lon="35.332954516634345" lat="31.26150431111455">
        <ele>16.399999618530273</ele>
        <time>2014-02-07T08:52:52.000Z</time>
      </trkpt>
      <trkpt lon="35.33295099623501" lat="31.261559715494514">
        <ele>16.0</ele>
        <time>2014-02-07T08:52:53.000Z</time>
      </trkpt>
      <trkpt lon="35.33288989216089" lat="31.261933464556932">
        <ele>14.0</ele>
        <time>2014-02-07T08:52:59.000Z</time>
      </trkpt>
      <trkpt lon="35.33277296461165" lat="31.262169079855084">
        <ele>13.600000381469727</ele>
        <time>2014-02-07T08:53:03.000Z</time>
      </trkpt>
      <trkpt lon="35.33267766237259" lat="31.262621702626348">
        <ele>12.600000381469727</ele>
        <time>2014-02-07T08:53:10.000Z</time>
      </trkpt>
      <trkpt lon="35.332680847495794" lat="31.262755813077092">
        <ele>12.199999809265137</ele>
        <time>2014-02-07T08:53:12.000Z</time>
      </trkpt>
      <trkpt lon="35.332631478086114" lat="31.263085389509797">
        <ele>11.600000381469727</ele>
        <time>2014-02-07T08:53:18.000Z</time>
      </trkpt>
      <trkpt lon="35.33260499127209" lat="31.263138614594936">
        <ele>11.600000381469727</ele>
        <time>2014-02-07T08:53:19.000Z</time>
      </trkpt>
      <trkpt lon="35.332570876926184" lat="31.26319066621363">
        <ele>11.199999809265137</ele>
        <time>2014-02-07T08:53:20.000Z</time>
      </trkpt>
      <trkpt lon="35.33242670819163" lat="31.263377079740167">
        <ele>10.800000190734863</ele>
        <time>2014-02-07T08:53:24.000Z</time>
      </trkpt>
      <trkpt lon="35.33241522498429" lat="31.263419995084405">
        <ele>11.199999809265137</ele>
        <time>2014-02-07T08:53:25.000Z</time>
      </trkpt>
      <trkpt lon="35.33241916447878" lat="31.26346073113382">
        <ele>11.199999809265137</ele>
        <time>2014-02-07T08:53:26.000Z</time>
      </trkpt>
      <trkpt lon="35.332434084266424" lat="31.26350230537355">
        <ele>11.199999809265137</ele>
        <time>2014-02-07T08:53:27.000Z</time>
      </trkpt>
      <trkpt lon="35.332461493089795" lat="31.263545975089073">
        <ele>10.800000190734863</ele>
        <time>2014-02-07T08:53:28.000Z</time>
      </trkpt>
      <trkpt lon="35.33249258995056" lat="31.263593835756183">
        <ele>10.800000190734863</ele>
        <time>2014-02-07T08:53:29.000Z</time>
      </trkpt>
      <trkpt lon="35.33252511173487" lat="31.263646641746163">
        <ele>10.199999809265137</ele>
        <time>2014-02-07T08:53:30.000Z</time>
      </trkpt>
      <trkpt lon="35.33274597488344" lat="31.264017708599567">
        <ele>8.399999618530273</ele>
        <time>2014-02-07T08:53:36.000Z</time>
      </trkpt>
      <trkpt lon="35.332927694544196" lat="31.2643285933882">
        <ele>7.800000190734863</ele>
        <time>2014-02-07T08:53:41.000Z</time>
      </trkpt>
      <trkpt lon="35.33295409753919" lat="31.264391457661986">
        <ele>7.800000190734863</ele>
        <time>2014-02-07T08:53:42.000Z</time>
      </trkpt>
      <trkpt lon="35.33306800760329" lat="31.264678789302707">
        <ele>8.800000190734863</ele>
        <time>2014-02-07T08:53:48.000Z</time>
      </trkpt>
      <trkpt lon="35.3332210611552" lat="31.264915326610208">
        <ele>9.199999809265137</ele>
        <time>2014-02-07T08:53:55.000Z</time>
      </trkpt>
      <trkpt lon="35.333434380590916" lat="31.265186732634902">
        <ele>10.199999809265137</ele>
        <time>2014-02-07T08:54:04.000Z</time>
      </trkpt>
      <trkpt lon="35.33356052823365" lat="31.265416396781802">
        <ele>10.800000190734863</ele>
        <time>2014-02-07T08:54:12.000Z</time>
      </trkpt>
      <trkpt lon="35.333578465506434" lat="31.265443051233888">
        <ele>10.800000190734863</ele>
        <time>2014-02-07T08:54:13.000Z</time>
      </trkpt>
      <trkpt lon="35.33379320986569" lat="31.265610605478287">
        <ele>10.800000190734863</ele>
        <time>2014-02-07T08:54:21.000Z</time>
      </trkpt>
      <trkpt lon="35.3341413103044" lat="31.26572468318045">
        <ele>11.600000381469727</ele>
        <time>2014-02-07T08:54:30.000Z</time>
      </trkpt>
      <trkpt lon="35.33454230055213" lat="31.26580724492669">
        <ele>12.199999809265137</ele>
        <time>2014-02-07T08:54:39.000Z</time>
      </trkpt>
      <trkpt lon="35.334906661883" lat="31.265848483890295">
        <ele>13.600000381469727</ele>
        <time>2014-02-07T08:54:48.000Z</time>
      </trkpt>
      <trkpt lon="35.33519416116178" lat="31.26590925268829">
        <ele>13.199999809265137</ele>
        <time>2014-02-07T08:54:56.000Z</time>
      </trkpt>
      <trkpt lon="35.33560990355909" lat="31.266063395887613">
        <ele>12.199999809265137</ele>
        <time>2014-02-07T08:55:04.000Z</time>
      </trkpt>
      <trkpt lon="35.33606453798711" lat="31.266207648441195">
        <ele>12.199999809265137</ele>
        <time>2014-02-07T08:55:12.000Z</time>
      </trkpt>
      <trkpt lon="35.33649520017207" lat="31.266302783042192">
        <ele>12.600000381469727</ele>
        <time>2014-02-07T08:55:21.000Z</time>
      </trkpt>
      <trkpt lon="35.33654130063951" lat="31.26630806364119">
        <ele>12.600000381469727</ele>
        <time>2014-02-07T08:55:22.000Z</time>
      </trkpt>
      <trkpt lon="35.336977830156684" lat="31.266407556831837">
        <ele>12.600000381469727</ele>
        <time>2014-02-07T08:55:31.000Z</time>
      </trkpt>
      <trkpt lon="35.337152257561684" lat="31.266443179920316">
        <ele>14.0</ele>
        <time>2014-02-07T08:55:36.000Z</time>
      </trkpt>
      <trkpt lon="35.33729726448655" lat="31.266537979245186">
        <ele>13.600000381469727</ele>
        <time>2014-02-07T08:55:43.000Z</time>
      </trkpt>
      <trkpt lon="35.337350154295564" lat="31.266702599823475">
        <ele>13.600000381469727</ele>
        <time>2014-02-07T08:55:50.000Z</time>
      </trkpt>
      <trkpt lon="35.33730019815266" lat="31.266829753294587">
        <ele>13.600000381469727</ele>
        <time>2014-02-07T08:55:57.000Z</time>
      </trkpt>
      <trkpt lon="35.3372516669333" lat="31.267007533460855">
        <ele>13.600000381469727</ele>
        <time>2014-02-07T08:56:05.000Z</time>
      </trkpt>
      <trkpt lon="35.337271615862846" lat="31.26716461032629">
        <ele>15.0</ele>
        <time>2014-02-07T08:56:12.000Z</time>
      </trkpt>
      <trkpt lon="35.33732760697603" lat="31.26729159615934">
        <ele>16.399999618530273</ele>
        <time>2014-02-07T08:56:20.000Z</time>
      </trkpt>
      <trkpt lon="35.33742089755833" lat="31.26740651205182">
        <ele>16.399999618530273</ele>
        <time>2014-02-07T08:56:28.000Z</time>
      </trkpt>
      <trkpt lon="35.33751326613128" lat="31.267564678564668">
        <ele>16.0</ele>
        <time>2014-02-07T08:56:35.000Z</time>
      </trkpt>
      <trkpt lon="35.33757914789021" lat="31.26768596470356">
        <ele>14.600000381469727</ele>
        <time>2014-02-07T08:56:39.000Z</time>
      </trkpt>
      <trkpt lon="35.337760196998715" lat="31.267848908901215">
        <ele>12.199999809265137</ele>
        <time>2014-02-07T08:56:45.000Z</time>
      </trkpt>
      <trkpt lon="35.33780478872359" lat="31.267868019640446">
        <ele>11.600000381469727</ele>
        <time>2014-02-07T08:56:46.000Z</time>
      </trkpt>
      <trkpt lon="35.33785373903811" lat="31.26788436435163">
        <ele>10.800000190734863</ele>
        <time>2014-02-07T08:56:47.000Z</time>
      </trkpt>
      <trkpt lon="35.337906209751964" lat="31.267896937206388">
        <ele>9.800000190734863</ele>
        <time>2014-02-07T08:56:48.000Z</time>
      </trkpt>
      <trkpt lon="35.33796178176999" lat="31.26790531910956">
        <ele>8.800000190734863</ele>
        <time>2014-02-07T08:56:49.000Z</time>
      </trkpt>
      <trkpt lon="35.338061694055796" lat="31.26791898161173">
        <ele>7.400000095367432</ele>
        <time>2014-02-07T08:56:51.000Z</time>
      </trkpt>
      <trkpt lon="35.33810880035162" lat="31.267931889742613">
        <ele>6.400000095367432</ele>
        <time>2014-02-07T08:56:52.000Z</time>
      </trkpt>
      <trkpt lon="35.33815280534327" lat="31.2679498270154">
        <ele>6.0</ele>
        <time>2014-02-07T08:56:53.000Z</time>
      </trkpt>
      <trkpt lon="35.33818809315562" lat="31.267976481467485">
        <ele>5.400000095367432</ele>
        <time>2014-02-07T08:56:54.000Z</time>
      </trkpt>
      <trkpt lon="35.33821256831288" lat="31.268011266365647">
        <ele>5.0</ele>
        <time>2014-02-07T08:56:55.000Z</time>
      </trkpt>
      <trkpt lon="35.33823679201305" lat="31.268046554178">
        <ele>4.400000095367432</ele>
        <time>2014-02-07T08:56:56.000Z</time>
      </trkpt>
      <trkpt lon="35.33826461993158" lat="31.268078237771988">
        <ele>4.0</ele>
        <time>2014-02-07T08:56:57.000Z</time>
      </trkpt>
      <trkpt lon="35.33829923719168" lat="31.268105478957295">
        <ele>3.5999999046325684</ele>
        <time>2014-02-07T08:56:58.000Z</time>
      </trkpt>
      <trkpt lon="35.33833611756563" lat="31.268128529191017">
        <ele>3.0</ele>
        <time>2014-02-07T08:56:59.000Z</time>
      </trkpt>
      <trkpt lon="35.33837056718767" lat="31.268149567767978">
        <ele>3.0</ele>
        <time>2014-02-07T08:57:00.000Z</time>
      </trkpt>
      <trkpt lon="35.338407112285495" lat="31.268172366544604">
        <ele>2.5999999046325684</ele>
        <time>2014-02-07T08:57:01.000Z</time>
      </trkpt>
      <trkpt lon="35.33854859881103" lat="31.26826297491789">
        <ele>2.0</ele>
        <time>2014-02-07T08:57:04.000Z</time>
      </trkpt>
      <trkpt lon="35.33860785886645" lat="31.268291138112545">
        <ele>2.0</ele>
        <time>2014-02-07T08:57:05.000Z</time>
      </trkpt>
      <trkpt lon="35.33866737037897" lat="31.268318630754948">
        <ele>1.600000023841858</ele>
        <time>2014-02-07T08:57:06.000Z</time>
      </trkpt>
      <trkpt lon="35.33877826295793" lat="31.268376633524895">
        <ele>1.2000000476837158</ele>
        <time>2014-02-07T08:57:08.000Z</time>
      </trkpt>
      <trkpt lon="35.339007675647736" lat="31.26851174980402">
        <ele>2.0</ele>
        <time>2014-02-07T08:57:14.000Z</time>
      </trkpt>
      <trkpt lon="35.33929131925106" lat="31.268696319311857">
        <ele>1.2000000476837158</ele>
        <time>2014-02-07T08:57:21.000Z</time>
      </trkpt>
      <trkpt lon="35.33939198590815" lat="31.26881961710751">
        <ele>0.20000000298023224</ele>
        <time>2014-02-07T08:57:24.000Z</time>
      </trkpt>
      <trkpt lon="35.33954981714487" lat="31.26911809667945">
        <ele>1.2000000476837158</ele>
        <time>2014-02-07T08:57:31.000Z</time>
      </trkpt>
      <trkpt lon="35.33961662091315" lat="31.269192192703485">
        <ele>2.0</ele>
        <time>2014-02-07T08:57:37.000Z</time>
      </trkpt>
      <trkpt lon="35.33975944854319" lat="31.269276347011328">
        <ele>0.20000000298023224</ele>
        <time>2014-02-07T08:57:42.000Z</time>
      </trkpt>
      <trkpt lon="35.33982180990279" lat="31.269333260133862">
        <ele>-0.800000011920929</ele>
        <time>2014-02-07T08:57:44.000Z</time>
      </trkpt>
      <trkpt lon="35.33985206857324" lat="31.26936444081366">
        <ele>-0.800000011920929</ele>
        <time>2014-02-07T08:57:45.000Z</time>
      </trkpt>
      <trkpt lon="35.33991660922766" lat="31.26942059956491">
        <ele>-0.800000011920929</ele>
        <time>2014-02-07T08:57:49.000Z</time>
      </trkpt>
      <trkpt lon="35.33991266973317" lat="31.269409116357565">
        <ele>-0.800000011920929</ele>
        <time>2014-02-07T08:58:04.000Z</time>
      </trkpt>
      <trkpt lon="35.33989431336522" lat="31.269418336451054">
        <ele>-2.200000047683716</ele>
        <time>2014-02-07T08:58:22.000Z</time>
      </trkpt>
      <trkpt lon="35.33987847156823" lat="31.269435351714492">
        <ele>-2.200000047683716</ele>
        <time>2014-02-07T08:58:29.000Z</time>
      </trkpt>
      <trkpt lon="35.33988744020462" lat="31.269445912912488">
        <ele>-3.200000047683716</ele>
        <time>2014-02-07T08:58:38.000Z</time>
      </trkpt>
      <trkpt lon="35.33990210853517" lat="31.269438369199634">
        <ele>-4.199999809265137</ele>
        <time>2014-02-07T08:58:55.000Z</time>
      </trkpt>
      <trkpt lon="35.33990160562098" lat="31.26943283714354">
        <ele>-4.199999809265137</ele>
        <time>2014-02-07T08:59:12.000Z</time>
      </trkpt>
      <trkpt lon="35.33989473246038" lat="31.26943082548678">
        <ele>-5.199999809265137</ele>
        <time>2014-02-07T08:59:31.000Z</time>
      </trkpt>
      <trkpt lon="35.33989322371781" lat="31.26943719573319">
        <ele>-5.199999809265137</ele>
        <time>2014-02-07T08:59:44.000Z</time>
      </trkpt>
      <trkpt lon="35.3398971632123" lat="31.269435603171587">
        <ele>-5.199999809265137</ele>
        <time>2014-02-07T08:59:59.000Z</time>
      </trkpt>
      <trkpt lon="35.33991023898125" lat="31.269420767202973">
        <ele>-5.599999904632568</ele>
        <time>2014-02-07T09:00:19.000Z</time>
      </trkpt>
      <trkpt lon="35.33993714489043" lat="31.269461922347546">
        <ele>-6.199999809265137</ele>
        <time>2014-02-07T09:00:28.000Z</time>
      </trkpt>
      <trkpt lon="35.340058179572225" lat="31.26961120404303">
        <ele>-8.600000381469727</ele>
        <time>2014-02-07T09:00:35.000Z</time>
      </trkpt>
      <trkpt lon="35.340081145986915" lat="31.269703740254045">
        <ele>-9.399999618530273</ele>
        <time>2014-02-07T09:00:37.000Z</time>
      </trkpt>
      <trkpt lon="35.34008634276688" lat="31.269757468253374">
        <ele>-10.399999618530273</ele>
        <time>2014-02-07T09:00:38.000Z</time>
      </trkpt>
      <trkpt lon="35.34008676186204" lat="31.269814213737845">
        <ele>-11.0</ele>
        <time>2014-02-07T09:00:39.000Z</time>
      </trkpt>
      <trkpt lon="35.34013940021396" lat="31.270203972235322">
        <ele>-13.399999618530273</ele>
        <time>2014-02-07T09:00:46.000Z</time>
      </trkpt>
      <trkpt lon="35.34016999416053" lat="31.270371191203594">
        <ele>-12.800000190734863</ele>
        <time>2014-02-07T09:00:51.000Z</time>
      </trkpt>
      <trkpt lon="35.34026412293315" lat="31.270543606951833">
        <ele>-15.199999809265137</ele>
        <time>2014-02-07T09:00:57.000Z</time>
      </trkpt>
      <trkpt lon="35.3402338642627" lat="31.270658019930124">
        <ele>-16.600000381469727</ele>
        <time>2014-02-07T09:01:00.000Z</time>
      </trkpt>
      <trkpt lon="35.34021240659058" lat="31.270700599998236">
        <ele>-17.200000762939453</ele>
        <time>2014-02-07T09:01:01.000Z</time>
      </trkpt>
      <trkpt lon="35.34019027836621" lat="31.27074628137052">
        <ele>-17.600000381469727</ele>
        <time>2014-02-07T09:01:02.000Z</time>
      </trkpt>
      <trkpt lon="35.34017234109342" lat="31.27079372294247">
        <ele>-18.200000762939453</ele>
        <time>2014-02-07T09:01:03.000Z</time>
      </trkpt>
      <trkpt lon="35.340159768238664" lat="31.270842254161835">
        <ele>-18.200000762939453</ele>
        <time>2014-02-07T09:01:04.000Z</time>
      </trkpt>
      <trkpt lon="35.34014895558357" lat="31.270888103172183">
        <ele>-18.200000762939453</ele>
        <time>2014-02-07T09:01:05.000Z</time>
      </trkpt>
      <trkpt lon="35.34007494337857" lat="31.27110879868269">
        <ele>-18.600000381469727</ele>
        <time>2014-02-07T09:01:10.000Z</time>
      </trkpt>
      <trkpt lon="35.34002708271146" lat="31.271233102306724">
        <ele>-17.200000762939453</ele>
        <time>2014-02-07T09:01:14.000Z</time>
      </trkpt>
      <trkpt lon="35.340087935328484" lat="31.271355897188187">
        <ele>-17.600000381469727</ele>
        <time>2014-02-07T09:01:19.000Z</time>
      </trkpt>
      <trkpt lon="35.340129593387246" lat="31.271387496963143">
        <ele>-17.600000381469727</ele>
        <time>2014-02-07T09:01:20.000Z</time>
      </trkpt>
      <trkpt lon="35.34029949456453" lat="31.27146553248167">
        <ele>-16.600000381469727</ele>
        <time>2014-02-07T09:01:25.000Z</time>
      </trkpt>
      <trkpt lon="35.34044332802296" lat="31.271535269916058">
        <ele>-18.200000762939453</ele>
        <time>2014-02-07T09:01:30.000Z</time>
      </trkpt>
      <trkpt lon="35.340454978868365" lat="31.271563349291682">
        <ele>-18.600000381469727</ele>
        <time>2014-02-07T09:01:31.000Z</time>
      </trkpt>
      <trkpt lon="35.34045606851578" lat="31.27158229239285">
        <ele>-19.0</ele>
        <time>2014-02-07T09:01:32.000Z</time>
      </trkpt>
      <trkpt lon="35.34045279957354" lat="31.271598134189844">
        <ele>-19.0</ele>
        <time>2014-02-07T09:01:33.000Z</time>
      </trkpt>
      <trkpt lon="35.34044684842229" lat="31.271615400910378">
        <ele>-19.600000381469727</ele>
        <time>2014-02-07T09:01:34.000Z</time>
      </trkpt>
      <trkpt lon="35.340440813452005" lat="31.271637277677655">
        <ele>-19.600000381469727</ele>
        <time>2014-02-07T09:01:35.000Z</time>
      </trkpt>
      <trkpt lon="35.34043561667204" lat="31.271682623773813">
        <ele>-20.0</ele>
        <time>2014-02-07T09:01:37.000Z</time>
      </trkpt>
      <trkpt lon="35.34044592641294" lat="31.27170290797949">
        <ele>-20.0</ele>
        <time>2014-02-07T09:01:38.000Z</time>
      </trkpt>
      <trkpt lon="35.34046243876219" lat="31.27171967178583">
        <ele>-20.600000381469727</ele>
        <time>2014-02-07T09:01:39.000Z</time>
      </trkpt>
      <trkpt lon="35.34051499329507" lat="31.27181874588132">
        <ele>-23.0</ele>
        <time>2014-02-07T09:01:44.000Z</time>
      </trkpt>
      <trkpt lon="35.34049051813781" lat="31.271988563239574">
        <ele>-25.799999237060547</ele>
        <time>2014-02-07T09:01:51.000Z</time>
      </trkpt>
      <trkpt lon="35.340541396290064" lat="31.272138012573123">
        <ele>-27.200000762939453</ele>
        <time>2014-02-07T09:01:57.000Z</time>
      </trkpt>
      <trkpt lon="35.34057333134115" lat="31.272312607616186">
        <ele>-28.799999237060547</ele>
        <time>2014-02-07T09:02:03.000Z</time>
      </trkpt>
      <trkpt lon="35.34061540849507" lat="31.27257077023387">
        <ele>-31.600000381469727</ele>
        <time>2014-02-07T09:02:12.000Z</time>
      </trkpt>
      <trkpt lon="35.34063393250108" lat="31.272708401083946">
        <ele>-35.0</ele>
        <time>2014-02-07T09:02:18.000Z</time>
      </trkpt>
      <trkpt lon="35.34064725972712" lat="31.2727262545377">
        <ele>-35.400001525878906</ele>
        <time>2014-02-07T09:02:19.000Z</time>
      </trkpt>
      <trkpt lon="35.34065371379256" lat="31.272744359448552">
        <ele>-36.0</ele>
        <time>2014-02-07T09:02:20.000Z</time>
      </trkpt>
      <trkpt lon="35.34066100604832" lat="31.272761709988117">
        <ele>-36.0</ele>
        <time>2014-02-07T09:02:21.000Z</time>
      </trkpt>
      <trkpt lon="35.34066402353346" lat="31.272779144346714">
        <ele>-36.400001525878906</ele>
        <time>2014-02-07T09:02:22.000Z</time>
      </trkpt>
      <trkpt lon="35.34066519699991" lat="31.272794902324677">
        <ele>-36.79999923706055</ele>
        <time>2014-02-07T09:02:23.000Z</time>
      </trkpt>
      <trkpt lon="35.34067751839757" lat="31.27280185930431">
        <ele>-37.79999923706055</ele>
        <time>2014-02-07T09:02:28.000Z</time>
      </trkpt>
      <trkpt lon="35.34067492000759" lat="31.27283999696374">
        <ele>-37.400001525878906</ele>
        <time>2014-02-07T09:02:35.000Z</time>
      </trkpt>
      <trkpt lon="35.3406604193151" lat="31.272900430485606">
        <ele>-39.20000076293945</ele>
        <time>2014-02-07T09:02:43.000Z</time>
      </trkpt>
      <trkpt lon="35.34063359722495" lat="31.272947620600462">
        <ele>-39.20000076293945</ele>
        <time>2014-02-07T09:02:50.000Z</time>
      </trkpt>
      <trkpt lon="35.34065899439156" lat="31.27298374660313">
        <ele>-39.79999923706055</ele>
        <time>2014-02-07T09:02:58.000Z</time>
      </trkpt>
      <trkpt lon="35.3406931925565" lat="31.273044180124998">
        <ele>-40.20000076293945</ele>
        <time>2014-02-07T09:03:06.000Z</time>
      </trkpt>
      <trkpt lon="35.34073602408171" lat="31.273068068549037">
        <ele>-41.20000076293945</ele>
        <time>2014-02-07T09:03:13.000Z</time>
      </trkpt>
      <trkpt lon="35.34077717922628" lat="31.273090951144695">
        <ele>-40.79999923706055</ele>
        <time>2014-02-07T09:03:22.000Z</time>
      </trkpt>
      <trkpt lon="35.340786231681705" lat="31.27309706993401">
        <ele>-41.20000076293945</ele>
        <time>2014-02-07T09:03:23.000Z</time>
      </trkpt>
      <trkpt lon="35.34080408513546" lat="31.273105200380087">
        <ele>-41.599998474121094</ele>
        <time>2014-02-07T09:03:24.000Z</time>
      </trkpt>
      <trkpt lon="35.34083132632077" lat="31.273111905902624">
        <ele>-42.20000076293945</ele>
        <time>2014-02-07T09:03:25.000Z</time>
      </trkpt>
      <trkpt lon="35.34086275845766" lat="31.273116013035178">
        <ele>-42.599998474121094</ele>
        <time>2014-02-07T09:03:26.000Z</time>
      </trkpt>
      <trkpt lon="35.34089754335582" lat="31.27311802469194">
        <ele>-42.599998474121094</ele>
        <time>2014-02-07T09:03:27.000Z</time>
      </trkpt>
      <trkpt lon="35.340936686843634" lat="31.27311802469194">
        <ele>-43.599998474121094</ele>
        <time>2014-02-07T09:03:28.000Z</time>
      </trkpt>
      <trkpt lon="35.34119007177651" lat="31.27303303219378">
        <ele>-45.0</ele>
        <time>2014-02-07T09:03:34.000Z</time>
      </trkpt>
      <trkpt lon="35.34131580032408" lat="31.272905375808477">
        <ele>-46.400001525878906</ele>
        <time>2014-02-07T09:03:40.000Z</time>
      </trkpt>
      <trkpt lon="35.341320745646954" lat="31.272898502647877">
        <ele>-46.400001525878906</ele>
        <time>2014-02-07T09:03:46.000Z</time>
      </trkpt>
      <trkpt lon="35.34132409840822" lat="31.272807139903307">
        <ele>-46.400001525878906</ele>
        <time>2014-02-07T09:03:56.000Z</time>
      </trkpt>
      <trkpt lon="35.34132971428335" lat="31.272788364440203">
        <ele>-47.0</ele>
        <time>2014-02-07T09:03:58.000Z</time>
      </trkpt>
      <trkpt lon="35.34133424051106" lat="31.27275802195072">
        <ele>-47.400001525878906</ele>
        <time>2014-02-07T09:04:06.000Z</time>
      </trkpt>
      <trkpt lon="35.34135343506932" lat="31.272718627005816">
        <ele>-47.0</ele>
        <time>2014-02-07T09:04:15.000Z</time>
      </trkpt>
      <trkpt lon="35.34140062518418" lat="31.272672191262245">
        <ele>-49.79999923706055</ele>
        <time>2014-02-07T09:04:24.000Z</time>
      </trkpt>
      <trkpt lon="35.341458627954125" lat="31.272632544860244">
        <ele>-52.20000076293945</ele>
        <time>2014-02-07T09:04:32.000Z</time>
      </trkpt>
      <trkpt lon="35.34150967374444" lat="31.272637993097305">
        <ele>-53.79999923706055</ele>
        <time>2014-02-07T09:04:37.000Z</time>
      </trkpt>
      <trkpt lon="35.341619309037924" lat="31.27267981879413">
        <ele>-55.20000076293945</ele>
        <time>2014-02-07T09:04:47.000Z</time>
      </trkpt>
      <trkpt lon="35.34167085774243" lat="31.27271695062518">
        <ele>-57.599998474121094</ele>
        <time>2014-02-07T09:04:56.000Z</time>
      </trkpt>
      <trkpt lon="35.34167932346463" lat="31.272740000858903">
        <ele>-58.400001525878906</ele>
        <time>2014-02-07T09:04:59.000Z</time>
      </trkpt>
      <trkpt lon="35.34173841588199" lat="31.272783083841205">
        <ele>-59.0</ele>
        <time>2014-02-07T09:05:06.000Z</time>
      </trkpt>
      <trkpt lon="35.34177982248366" lat="31.27283019013703">
        <ele>-60.400001525878906</ele>
        <time>2014-02-07T09:05:13.000Z</time>
      </trkpt>
      <trkpt lon="35.34183941781521" lat="31.272887689992785">
        <ele>-62.400001525878906</ele>
        <time>2014-02-07T09:05:22.000Z</time>
      </trkpt>
      <trkpt lon="35.34193187020719" lat="31.272947620600462">
        <ele>-64.80000305175781</ele>
        <time>2014-02-07T09:05:32.000Z</time>
      </trkpt>
      <trkpt lon="35.3419622965157" lat="31.27298466861248">
        <ele>-65.19999694824219</ele>
        <time>2014-02-07T09:05:39.000Z</time>
      </trkpt>
      <trkpt lon="35.3419881965965" lat="31.27301308326423">
        <ele>-65.80000305175781</ele>
        <time>2014-02-07T09:05:43.000Z</time>
      </trkpt>
      <trkpt lon="35.34202365204692" lat="31.273064129054546">
        <ele>-66.5999984741211</ele>
        <time>2014-02-07T09:05:52.000Z</time>
      </trkpt>
      <trkpt lon="35.34206975251436" lat="31.273154318332672">
        <ele>-67.5999984741211</ele>
        <time>2014-02-07T09:05:56.000Z</time>
      </trkpt>
      <trkpt lon="35.34227326512337" lat="31.27339169383049">
        <ele>-70.5999984741211</ele>
        <time>2014-02-07T09:06:04.000Z</time>
      </trkpt>
      <trkpt lon="35.34234610386193" lat="31.273457072675228">
        <ele>-71.4000015258789</ele>
        <time>2014-02-07T09:06:10.000Z</time>
      </trkpt>
      <trkpt lon="35.342390360310674" lat="31.273504933342338">
        <ele>-72.0</ele>
        <time>2014-02-07T09:06:16.000Z</time>
      </trkpt>
      <trkpt lon="35.34250745549798" lat="31.27364482730627">
        <ele>-73.4000015258789</ele>
        <time>2014-02-07T09:06:25.000Z</time>
      </trkpt>
      <trkpt lon="35.34259194508195" lat="31.273809112608433">
        <ele>-74.80000305175781</ele>
        <time>2014-02-07T09:06:32.000Z</time>
      </trkpt>
      <trkpt lon="35.34271457232535" lat="31.27391598187387">
        <ele>-75.4000015258789</ele>
        <time>2014-02-07T09:06:38.000Z</time>
      </trkpt>
      <trkpt lon="35.34276654012501" lat="31.274028718471527">
        <ele>-75.80000305175781</ele>
        <time>2014-02-07T09:06:42.000Z</time>
      </trkpt>
      <trkpt lon="35.34265631809831" lat="31.274213287979364">
        <ele>-75.4000015258789</ele>
        <time>2014-02-07T09:06:48.000Z</time>
      </trkpt>
      <trkpt lon="35.342589346691966" lat="31.27437430433929">
        <ele>-75.4000015258789</ele>
        <time>2014-02-07T09:06:53.000Z</time>
      </trkpt>
      <trkpt lon="35.3425373788923" lat="31.274646632373333">
        <ele>-76.80000305175781</ele>
        <time>2014-02-07T09:06:59.000Z</time>
      </trkpt>
      <trkpt lon="35.34254374913871" lat="31.27469248138368">
        <ele>-76.80000305175781</ele>
        <time>2014-02-07T09:07:00.000Z</time>
      </trkpt>
      <trkpt lon="35.342555567622185" lat="31.27473690547049">
        <ele>-76.80000305175781</ele>
        <time>2014-02-07T09:07:01.000Z</time>
      </trkpt>
      <trkpt lon="35.3427102137357" lat="31.275105709210038">
        <ele>-77.80000305175781</ele>
        <time>2014-02-07T09:07:09.000Z</time>
      </trkpt>
      <trkpt lon="35.34281096421182" lat="31.27549370750785">
        <ele>-80.19999694824219</ele>
        <time>2014-02-07T09:07:16.000Z</time>
      </trkpt>
      <trkpt lon="35.34283887594938" lat="31.27570291981101">
        <ele>-81.5999984741211</ele>
        <time>2014-02-07T09:07:20.000Z</time>
      </trkpt>
      <trkpt lon="35.34285597503185" lat="31.275744158774614">
        <ele>-82.0</ele>
        <time>2014-02-07T09:07:21.000Z</time>
      </trkpt>
      <trkpt lon="35.34288221038878" lat="31.275777518749237">
        <ele>-82.5999984741211</ele>
        <time>2014-02-07T09:07:22.000Z</time>
      </trkpt>
      <trkpt lon="35.342919593676925" lat="31.275801826268435">
        <ele>-82.5999984741211</ele>
        <time>2014-02-07T09:07:23.000Z</time>
      </trkpt>
      <trkpt lon="35.34295697696507" lat="31.275824289768934">
        <ele>-82.5999984741211</ele>
        <time>2014-02-07T09:07:24.000Z</time>
      </trkpt>
      <trkpt lon="35.34298832528293" lat="31.275849854573607">
        <ele>-83.0</ele>
        <time>2014-02-07T09:07:25.000Z</time>
      </trkpt>
      <trkpt lon="35.34301137551665" lat="31.27587340772152">
        <ele>-83.0</ele>
        <time>2014-02-07T09:07:26.000Z</time>
      </trkpt>
      <trkpt lon="35.34302646294236" lat="31.275895703583956">
        <ele>-83.0</ele>
        <time>2014-02-07T09:07:27.000Z</time>
      </trkpt>
      <trkpt lon="35.343039873987436" lat="31.27591833472252">
        <ele>-82.5999984741211</ele>
        <time>2014-02-07T09:07:28.000Z</time>
      </trkpt>
      <trkpt lon="35.34304590895772" lat="31.275940965861082">
        <ele>-82.5999984741211</ele>
        <time>2014-02-07T09:07:29.000Z</time>
      </trkpt>
      <trkpt lon="35.343039790168405" lat="31.275959070771933">
        <ele>-82.0</ele>
        <time>2014-02-07T09:07:30.000Z</time>
      </trkpt>
      <trkpt lon="35.343033419921994" lat="31.275973739102483">
        <ele>-82.0</ele>
        <time>2014-02-07T09:07:31.000Z</time>
      </trkpt>
      <trkpt lon="35.34303233027458" lat="31.275989832356572">
        <ele>-82.0</ele>
        <time>2014-02-07T09:07:32.000Z</time>
      </trkpt>
      <trkpt lon="35.343034006655216" lat="31.276008524000645">
        <ele>-81.5999984741211</ele>
        <time>2014-02-07T09:07:33.000Z</time>
      </trkpt>
      <trkpt lon="35.343096954748034" lat="31.27621203660965">
        <ele>-81.5999984741211</ele>
        <time>2014-02-07T09:07:41.000Z</time>
      </trkpt>
      <trkpt lon="35.343249924480915" lat="31.276298286393285">
        <ele>-82.0</ele>
        <time>2014-02-07T09:07:46.000Z</time>
      </trkpt>
      <trkpt lon="35.343406833708286" lat="31.276386883109808">
        <ele>-83.4000015258789</ele>
        <time>2014-02-07T09:07:53.000Z</time>
      </trkpt>
      <trkpt lon="35.34340700134635" lat="31.276462068781257">
        <ele>-85.0</ele>
        <time>2014-02-07T09:07:55.000Z</time>
      </trkpt>
      <trkpt lon="35.343394596129656" lat="31.276507917791605">
        <ele>-86.0</ele>
        <time>2014-02-07T09:07:56.000Z</time>
      </trkpt>
      <trkpt lon="35.34338143654168" lat="31.276549324393272">
        <ele>-86.4000015258789</ele>
        <time>2014-02-07T09:07:57.000Z</time>
      </trkpt>
      <trkpt lon="35.343378921970725" lat="31.276588970795274">
        <ele>-87.4000015258789</ele>
        <time>2014-02-07T09:07:58.000Z</time>
      </trkpt>
      <trkpt lon="35.343388644978404" lat="31.276624258607626">
        <ele>-87.80000305175781</ele>
        <time>2014-02-07T09:07:59.000Z</time>
      </trkpt>
      <trkpt lon="35.34341253340244" lat="31.276650577783585">
        <ele>-88.4000015258789</ele>
        <time>2014-02-07T09:08:00.000Z</time>
      </trkpt>
      <trkpt lon="35.34344480372965" lat="31.27666549757123">
        <ele>-88.80000305175781</ele>
        <time>2014-02-07T09:08:01.000Z</time>
      </trkpt>
      <trkpt lon="35.34348528832197" lat="31.276672622188926">
        <ele>-89.19999694824219</ele>
        <time>2014-02-07T09:08:02.000Z</time>
      </trkpt>
      <trkpt lon="35.34353750757873" lat="31.27667421475053">
        <ele>-89.80000305175781</ele>
        <time>2014-02-07T09:08:03.000Z</time>
      </trkpt>
      <trkpt lon="35.34359944984317" lat="31.276678489521146">
        <ele>-90.19999694824219</ele>
        <time>2014-02-07T09:08:04.000Z</time>
      </trkpt>
      <trkpt lon="35.34366885200143" lat="31.276691313833">
        <ele>-91.19999694824219</ele>
        <time>2014-02-07T09:08:05.000Z</time>
      </trkpt>
      <trkpt lon="35.343739008530974" lat="31.276707658544183">
        <ele>-91.5999984741211</ele>
        <time>2014-02-07T09:08:06.000Z</time>
      </trkpt>
      <trkpt lon="35.34385493025184" lat="31.276725428178906">
        <ele>-92.19999694824219</ele>
        <time>2014-02-07T09:08:08.000Z</time>
      </trkpt>
      <trkpt lon="35.343904718756676" lat="31.276710173115134">
        <ele>-92.5999984741211</ele>
        <time>2014-02-07T09:08:09.000Z</time>
      </trkpt>
      <trkpt lon="35.34394847229123" lat="31.276675388216972">
        <ele>-93.19999694824219</ele>
        <time>2014-02-07T09:08:10.000Z</time>
      </trkpt>
      <trkpt lon="35.34399423748255" lat="31.276635490357876">
        <ele>-93.5999984741211</ele>
        <time>2014-02-07T09:08:11.000Z</time>
      </trkpt>
      <trkpt lon="35.34404478035867" lat="31.2766083329916">
        <ele>-94.0</ele>
        <time>2014-02-07T09:08:12.000Z</time>
      </trkpt>
      <trkpt lon="35.34409699961543" lat="31.27659173682332">
        <ele>-94.0</ele>
        <time>2014-02-07T09:08:13.000Z</time>
      </trkpt>
      <trkpt lon="35.34414888359606" lat="31.276579834520817">
        <ele>-94.0</ele>
        <time>2014-02-07T09:08:14.000Z</time>
      </trkpt>
      <trkpt lon="35.34420009702444" lat="31.27657262608409">
        <ele>-94.0</ele>
        <time>2014-02-07T09:08:15.000Z</time>
      </trkpt>
      <trkpt lon="35.34435139037669" lat="31.276569440960884">
        <ele>-93.5999984741211</ele>
        <time>2014-02-07T09:08:18.000Z</time>
      </trkpt>
      <trkpt lon="35.344667471945286" lat="31.276596346870065">
        <ele>-90.19999694824219</ele>
        <time>2014-02-07T09:08:26.000Z</time>
      </trkpt>
      <trkpt lon="35.34483091905713" lat="31.276675974950194">
        <ele>-88.4000015258789</ele>
        <time>2014-02-07T09:08:33.000Z</time>
      </trkpt>
      <trkpt lon="35.34500098787248" lat="31.276846462860703">
        <ele>-86.80000305175781</ele>
        <time>2014-02-07T09:08:43.000Z</time>
      </trkpt>
      <trkpt lon="35.345046585425735" lat="31.276973197236657">
        <ele>-88.4000015258789</ele>
        <time>2014-02-07T09:08:47.000Z</time>
      </trkpt>
      <trkpt lon="35.34507282078266" lat="31.277011837810278">
        <ele>-88.4000015258789</ele>
        <time>2014-02-07T09:08:48.000Z</time>
      </trkpt>
      <trkpt lon="35.34510467201471" lat="31.27705056220293">
        <ele>-88.80000305175781</ele>
        <time>2014-02-07T09:08:49.000Z</time>
      </trkpt>
      <trkpt lon="35.345164434984326" lat="31.277230186387897">
        <ele>-91.19999694824219</ele>
        <time>2014-02-07T09:08:54.000Z</time>
      </trkpt>
      <trkpt lon="35.345179019495845" lat="31.277265222743154">
        <ele>-91.5999984741211</ele>
        <time>2014-02-07T09:08:55.000Z</time>
      </trkpt>
      <trkpt lon="35.345287565141916" lat="31.277443254366517">
        <ele>-95.5999984741211</ele>
        <time>2014-02-07T09:09:01.000Z</time>
      </trkpt>
      <trkpt lon="35.345404827967286" lat="31.277630254626274">
        <ele>-97.4000015258789</ele>
        <time>2014-02-07T09:09:07.000Z</time>
      </trkpt>
      <trkpt lon="35.34541882574558" lat="31.277668476104736">
        <ele>-98.0</ele>
        <time>2014-02-07T09:09:08.000Z</time>
      </trkpt>
      <trkpt lon="35.345424273982644" lat="31.277703261002898">
        <ele>-98.0</ele>
        <time>2014-02-07T09:09:09.000Z</time>
      </trkpt>
      <trkpt lon="35.34546953625977" lat="31.277888920158148">
        <ele>-98.80000305175781</ele>
        <time>2014-02-07T09:09:15.000Z</time>
      </trkpt>
      <trkpt lon="35.34558126702905" lat="31.278181448578835">
        <ele>-100.80000305175781</ele>
        <time>2014-02-07T09:09:21.000Z</time>
      </trkpt>
      <trkpt lon="35.34564019180834" lat="31.27828194759786">
        <ele>-101.19999694824219</ele>
        <time>2014-02-07T09:09:23.000Z</time>
      </trkpt>
      <trkpt lon="35.345671540126204" lat="31.278318660333753">
        <ele>-101.80000305175781</ele>
        <time>2014-02-07T09:09:24.000Z</time>
      </trkpt>
      <trkpt lon="35.34569802694023" lat="31.278346488252282">
        <ele>-102.19999694824219</ele>
        <time>2014-02-07T09:09:25.000Z</time>
      </trkpt>
      <trkpt lon="35.34584672190249" lat="31.2784802634269">
        <ele>-105.19999694824219</ele>
        <time>2014-02-07T09:09:31.000Z</time>
      </trkpt>
      <trkpt lon="35.3459860291332" lat="31.278593838214874">
        <ele>-107.0</ele>
        <time>2014-02-07T09:09:34.000Z</time>
      </trkpt>
      <trkpt lon="35.34609348513186" lat="31.278704227879643">
        <ele>-107.5999984741211</ele>
        <time>2014-02-07T09:09:37.000Z</time>
      </trkpt>
      <trkpt lon="35.346132377162576" lat="31.278735660016537">
        <ele>-108.0</ele>
        <time>2014-02-07T09:09:38.000Z</time>
      </trkpt>
      <trkpt lon="35.34617319703102" lat="31.278766505420208">
        <ele>-108.0</ele>
        <time>2014-02-07T09:09:39.000Z</time>
      </trkpt>
      <trkpt lon="35.34625978209078" lat="31.278827525675297">
        <ele>-108.0</ele>
        <time>2014-02-07T09:09:41.000Z</time>
      </trkpt>
      <trkpt lon="35.34630521200597" lat="31.27885694615543">
        <ele>-108.0</ele>
        <time>2014-02-07T09:09:42.000Z</time>
      </trkpt>
      <trkpt lon="35.34634988754988" lat="31.278887623921037">
        <ele>-108.4000015258789</ele>
        <time>2014-02-07T09:09:43.000Z</time>
      </trkpt>
      <trkpt lon="35.346737802028656" lat="31.27914779819548">
        <ele>-109.0</ele>
        <time>2014-02-07T09:09:51.000Z</time>
      </trkpt>
      <trkpt lon="35.34714021719992" lat="31.27944535575807">
        <ele>-110.4000015258789</ele>
        <time>2014-02-07T09:09:59.000Z</time>
      </trkpt>
      <trkpt lon="35.34761689603329" lat="31.27967149950564">
        <ele>-110.80000305175781</ele>
        <time>2014-02-07T09:10:07.000Z</time>
      </trkpt>
      <trkpt lon="35.34817982465029" lat="31.27993687056005">
        <ele>-111.4000015258789</ele>
        <time>2014-02-07T09:10:17.000Z</time>
      </trkpt>
      <trkpt lon="35.348563296720386" lat="31.280146837234497">
        <ele>-112.80000305175781</ele>
        <time>2014-02-07T09:10:25.000Z</time>
      </trkpt>
      <trkpt lon="35.34862155094743" lat="31.28018363378942">
        <ele>-113.4000015258789</ele>
        <time>2014-02-07T09:10:26.000Z</time>
      </trkpt>
      <trkpt lon="35.34868257120252" lat="31.280222609639168">
        <ele>-113.4000015258789</ele>
        <time>2014-02-07T09:10:27.000Z</time>
      </trkpt>
      <trkpt lon="35.34874250181019" lat="31.28026619553566">
        <ele>-113.80000305175781</ele>
        <time>2014-02-07T09:10:28.000Z</time>
      </trkpt>
      <trkpt lon="35.34879941493273" lat="31.28030827268958">
        <ele>-113.80000305175781</ele>
        <time>2014-02-07T09:10:29.000Z</time>
      </trkpt>
      <trkpt lon="35.34902296029031" lat="31.280484879389405">
        <ele>-113.4000015258789</ele>
        <time>2014-02-07T09:10:34.000Z</time>
      </trkpt>
      <trkpt lon="35.349054895341396" lat="31.28053097985685">
        <ele>-113.80000305175781</ele>
        <time>2014-02-07T09:10:35.000Z</time>
      </trkpt>
      <trkpt lon="35.34908129833639" lat="31.280580181628466">
        <ele>-113.80000305175781</ele>
        <time>2014-02-07T09:10:36.000Z</time>
      </trkpt>
      <trkpt lon="35.34912253729999" lat="31.280681351199746">
        <ele>-114.80000305175781</ele>
        <time>2014-02-07T09:10:38.000Z</time>
      </trkpt>
      <trkpt lon="35.34914541989565" lat="31.280790902674198">
        <ele>-115.19999694824219</ele>
        <time>2014-02-07T09:10:40.000Z</time>
      </trkpt>
      <trkpt lon="35.34922127611935" lat="31.28114528954029">
        <ele>-117.5999984741211</ele>
        <time>2014-02-07T09:10:47.000Z</time>
      </trkpt>
      <trkpt lon="35.34922856837511" lat="31.281187869608402">
        <ele>-118.0</ele>
        <time>2014-02-07T09:10:48.000Z</time>
      </trkpt>
      <trkpt lon="35.349293779581785" lat="31.28143304027617">
        <ele>-121.0</ele>
        <time>2014-02-07T09:10:53.000Z</time>
      </trkpt>
      <trkpt lon="35.34931934438646" lat="31.28148584626615">
        <ele>-121.4000015258789</ele>
        <time>2014-02-07T09:10:54.000Z</time>
      </trkpt>
      <trkpt lon="35.34942009486258" lat="31.281703021377325">
        <ele>-123.80000305175781</ele>
        <time>2014-02-07T09:10:59.000Z</time>
      </trkpt>
      <trkpt lon="35.34944306127727" lat="31.281913993880153">
        <ele>-124.4000015258789</ele>
        <time>2014-02-07T09:11:05.000Z</time>
      </trkpt>
      <trkpt lon="35.34944649785757" lat="31.28205648623407">
        <ele>-123.4000015258789</ele>
        <time>2014-02-07T09:11:10.000Z</time>
      </trkpt>
      <trkpt lon="35.34953350201249" lat="31.282215574756265">
        <ele>-123.0</ele>
        <time>2014-02-07T09:11:16.000Z</time>
      </trkpt>
      <trkpt lon="35.3495588991791" lat="31.28241908736527">
        <ele>-124.4000015258789</ele>
        <time>2014-02-07T09:11:22.000Z</time>
      </trkpt>
      <trkpt lon="35.34960608929396" lat="31.28262050449848">
        <ele>-123.80000305175781</ele>
        <time>2014-02-07T09:11:29.000Z</time>
      </trkpt>
      <trkpt lon="35.34967331215739" lat="31.282950416207314">
        <ele>-124.80000305175781</ele>
        <time>2014-02-07T09:11:36.000Z</time>
      </trkpt>
      <trkpt lon="35.34975662827492" lat="31.283415276557207">
        <ele>-126.19999694824219</ele>
        <time>2014-02-07T09:11:45.000Z</time>
      </trkpt>
      <trkpt lon="35.34977808594704" lat="31.283461125567555">
        <ele>-126.19999694824219</ele>
        <time>2014-02-07T09:11:46.000Z</time>
      </trkpt>
      <trkpt lon="35.34980859607458" lat="31.283505717292428">
        <ele>-125.80000305175781</ele>
        <time>2014-02-07T09:11:47.000Z</time>
      </trkpt>
      <trkpt lon="35.34984799101949" lat="31.28354586660862">
        <ele>-125.80000305175781</ele>
        <time>2014-02-07T09:11:48.000Z</time>
      </trkpt>
      <trkpt lon="35.34989157691598" lat="31.283579813316464">
        <ele>-125.80000305175781</ele>
        <time>2014-02-07T09:11:49.000Z</time>
      </trkpt>
      <trkpt lon="35.349937258288264" lat="31.283611245453358">
        <ele>-125.80000305175781</ele>
        <time>2014-02-07T09:11:50.000Z</time>
      </trkpt>
      <trkpt lon="35.349985621869564" lat="31.283640917390585">
        <ele>-125.80000305175781</ele>
        <time>2014-02-07T09:11:51.000Z</time>
      </trkpt>
      <trkpt lon="35.35007958300412" lat="31.283694645389915">
        <ele>-125.80000305175781</ele>
        <time>2014-02-07T09:11:53.000Z</time>
      </trkpt>
      <trkpt lon="35.35018293187022" lat="31.283728843554854">
        <ele>-126.19999694824219</ele>
        <time>2014-02-07T09:11:55.000Z</time>
      </trkpt>
      <trkpt lon="35.35039197653532" lat="31.283806711435318">
        <ele>-126.80000305175781</ele>
        <time>2014-02-07T09:12:00.000Z</time>
      </trkpt>
      <trkpt lon="35.35071794874966" lat="31.284077111631632">
        <ele>-127.19999694824219</ele>
        <time>2014-02-07T09:12:10.000Z</time>
      </trkpt>
      <trkpt lon="35.35079690627754" lat="31.284135784953833">
        <ele>-127.19999694824219</ele>
        <time>2014-02-07T09:12:12.000Z</time>
      </trkpt>
      <trkpt lon="35.3508763667196" lat="31.28419714048505">
        <ele>-127.80000305175781</ele>
        <time>2014-02-07T09:12:14.000Z</time>
      </trkpt>
      <trkpt lon="35.35091827623546" lat="31.284221280366182">
        <ele>-127.80000305175781</ele>
        <time>2014-02-07T09:12:15.000Z</time>
      </trkpt>
      <trkpt lon="35.3509595990181" lat="31.284239050000906">
        <ele>-128.1999969482422</ele>
        <time>2014-02-07T09:12:16.000Z</time>
      </trkpt>
      <trkpt lon="35.35100217908621" lat="31.28425103612244">
        <ele>-128.1999969482422</ele>
        <time>2014-02-07T09:12:17.000Z</time>
      </trkpt>
      <trkpt lon="35.35104534588754" lat="31.284262938424945">
        <ele>-128.1999969482422</ele>
        <time>2014-02-07T09:12:18.000Z</time>
      </trkpt>
      <trkpt lon="35.351092368364334" lat="31.28427534364164">
        <ele>-128.60000610351562</ele>
        <time>2014-02-07T09:12:19.000Z</time>
      </trkpt>
      <trkpt lon="35.3511440847069" lat="31.284286826848984">
        <ele>-128.60000610351562</ele>
        <time>2014-02-07T09:12:20.000Z</time>
      </trkpt>
      <trkpt lon="35.35119764506817" lat="31.28429537639022">
        <ele>-128.1999969482422</ele>
        <time>2014-02-07T09:12:21.000Z</time>
      </trkpt>
      <trkpt lon="35.35125690512359" lat="31.28429839387536">
        <ele>-128.1999969482422</ele>
        <time>2014-02-07T09:12:22.000Z</time>
      </trkpt>
      <trkpt lon="35.351316751912236" lat="31.284297220408916">
        <ele>-128.1999969482422</ele>
        <time>2014-02-07T09:12:23.000Z</time>
      </trkpt>
      <trkpt lon="35.35182368941605" lat="31.284233015030622">
        <ele>-129.1999969482422</ele>
        <time>2014-02-07T09:12:31.000Z</time>
      </trkpt>
      <trkpt lon="35.35202594473958" lat="31.284209294244647">
        <ele>-129.60000610351562</ele>
        <time>2014-02-07T09:12:34.000Z</time>
      </trkpt>
      <trkpt lon="35.352088725194335" lat="31.284198397770524">
        <ele>-130.1999969482422</ele>
        <time>2014-02-07T09:12:35.000Z</time>
      </trkpt>
      <trkpt lon="35.35246121697128" lat="31.284135365858674">
        <ele>-131.0</ele>
        <time>2014-02-07T09:12:42.000Z</time>
      </trkpt>
      <trkpt lon="35.35251125693321" lat="31.284130671992898">
        <ele>-131.0</ele>
        <time>2014-02-07T09:12:43.000Z</time>
      </trkpt>
      <trkpt lon="35.35266699269414" lat="31.28413419239223">
        <ele>-131.60000610351562</ele>
        <time>2014-02-07T09:12:46.000Z</time>
      </trkpt>
      <trkpt lon="35.352717116475105" lat="31.28415036946535">
        <ele>-132.0</ele>
        <time>2014-02-07T09:12:47.000Z</time>
      </trkpt>
      <trkpt lon="35.35276313312352" lat="31.2841806281358">
        <ele>-132.60000610351562</ele>
        <time>2014-02-07T09:12:48.000Z</time>
      </trkpt>
      <trkpt lon="35.35279858857393" lat="31.284219939261675">
        <ele>-132.60000610351562</ele>
        <time>2014-02-07T09:12:49.000Z</time>
      </trkpt>
      <trkpt lon="35.35284477286041" lat="31.284301914274693">
        <ele>-132.60000610351562</ele>
        <time>2014-02-07T09:12:51.000Z</time>
      </trkpt>
      <trkpt lon="35.35285969264805" lat="31.284337705001235">
        <ele>-133.0</ele>
        <time>2014-02-07T09:12:52.000Z</time>
      </trkpt>
      <trkpt lon="35.35286849364638" lat="31.28437559120357">
        <ele>-133.0</ele>
        <time>2014-02-07T09:12:53.000Z</time>
      </trkpt>
      <trkpt lon="35.35291702486575" lat="31.284551778808236">
        <ele>-133.0</ele>
        <time>2014-02-07T09:12:59.000Z</time>
      </trkpt>
      <trkpt lon="35.35293026827276" lat="31.284590838477015">
        <ele>-131.60000610351562</ele>
        <time>2014-02-07T09:13:04.000Z</time>
      </trkpt>
      <trkpt lon="35.35292264074087" lat="31.284593436867">
        <ele>-128.60000610351562</ele>
        <time>2014-02-07T09:13:25.000Z</time>
      </trkpt>
      <trkpt lon="35.35294275730848" lat="31.284688403829932">
        <ele>-128.1999969482422</ele>
        <time>2014-02-07T09:13:31.000Z</time>
      </trkpt>
      <trkpt lon="35.35300469957292" lat="31.284772558137774">
        <ele>-127.19999694824219</ele>
        <time>2014-02-07T09:13:35.000Z</time>
      </trkpt>
      <trkpt lon="35.35303286276758" lat="31.28478647209704">
        <ele>-126.80000305175781</ele>
        <time>2014-02-07T09:13:36.000Z</time>
      </trkpt>
      <trkpt lon="35.35306328907609" lat="31.284801391884685">
        <ele>-126.80000305175781</ele>
        <time>2014-02-07T09:13:37.000Z</time>
      </trkpt>
      <trkpt lon="35.35309421829879" lat="31.284814635291696">
        <ele>-126.19999694824219</ele>
        <time>2014-02-07T09:13:38.000Z</time>
      </trkpt>
      <trkpt lon="35.35312682390213" lat="31.284823939204216">
        <ele>-125.80000305175781</ele>
        <time>2014-02-07T09:13:39.000Z</time>
      </trkpt>
      <trkpt lon="35.35337660461664" lat="31.284874733537436">
        <ele>-122.0</ele>
        <time>2014-02-07T09:13:46.000Z</time>
      </trkpt>
      <trkpt lon="35.353555642068386" lat="31.28494287841022">
        <ele>-120.0</ele>
        <time>2014-02-07T09:13:54.000Z</time>
      </trkpt>
      <trkpt lon="35.35366837866604" lat="31.285044299438596">
        <ele>-121.0</ele>
        <time>2014-02-07T09:14:02.000Z</time>
      </trkpt>
      <trkpt lon="35.35379343666136" lat="31.28524672240019">
        <ele>-122.4000015258789</ele>
        <time>2014-02-07T09:14:09.000Z</time>
      </trkpt>
      <trkpt lon="35.353811625391245" lat="31.285296846181154">
        <ele>-123.0</ele>
        <time>2014-02-07T09:14:10.000Z</time>
      </trkpt>
      <trkpt lon="35.353824784979224" lat="31.285359878093004">
        <ele>-123.4000015258789</ele>
        <time>2014-02-07T09:14:11.000Z</time>
      </trkpt>
      <trkpt lon="35.35382931120694" lat="31.285428190603852">
        <ele>-123.80000305175781</ele>
        <time>2014-02-07T09:14:12.000Z</time>
      </trkpt>
      <trkpt lon="35.35382369533181" lat="31.28549264743924">
        <ele>-123.80000305175781</ele>
        <time>2014-02-07T09:14:13.000Z</time>
      </trkpt>
      <trkpt lon="35.35380600951612" lat="31.285548638552427">
        <ele>-123.80000305175781</ele>
        <time>2014-02-07T09:14:14.000Z</time>
      </trkpt>
      <trkpt lon="35.353789580985904" lat="31.28559951670468">
        <ele>-123.80000305175781</ele>
        <time>2014-02-07T09:14:15.000Z</time>
      </trkpt>
      <trkpt lon="35.353778349235654" lat="31.285647209733725">
        <ele>-123.80000305175781</ele>
        <time>2014-02-07T09:14:16.000Z</time>
      </trkpt>
      <trkpt lon="35.353777008131146" lat="31.285692052915692">
        <ele>-123.80000305175781</ele>
        <time>2014-02-07T09:14:17.000Z</time>
      </trkpt>
      <trkpt lon="35.35378606058657" lat="31.2857330404222">
        <ele>-123.80000305175781</ele>
        <time>2014-02-07T09:14:18.000Z</time>
      </trkpt>
      <trkpt lon="35.35380207002163" lat="31.285767406225204">
        <ele>-123.80000305175781</ele>
        <time>2014-02-07T09:14:19.000Z</time>
      </trkpt>
      <trkpt lon="35.35382201895118" lat="31.28579406067729">
        <ele>-123.80000305175781</ele>
        <time>2014-02-07T09:14:20.000Z</time>
      </trkpt>
      <trkpt lon="35.35384364426136" lat="31.285816440358758">
        <ele>-123.80000305175781</ele>
        <time>2014-02-07T09:14:21.000Z</time>
      </trkpt>
      <trkpt lon="35.353926457464695" lat="31.2859127484262">
        <ele>-123.0</ele>
        <time>2014-02-07T09:14:25.000Z</time>
      </trkpt>
      <trkpt lon="35.353955291211605" lat="31.285920040681958">
        <ele>-123.0</ele>
        <time>2014-02-07T09:14:26.000Z</time>
      </trkpt>
      <trkpt lon="35.35398588515818" lat="31.28592113032937">
        <ele>-122.4000015258789</ele>
        <time>2014-02-07T09:14:27.000Z</time>
      </trkpt>
      <trkpt lon="35.354016814380884" lat="31.28591920249164">
        <ele>-122.4000015258789</ele>
        <time>2014-02-07T09:14:28.000Z</time>
      </trkpt>
      <trkpt lon="35.35405025817454" lat="31.285906545817852">
        <ele>-122.0</ele>
        <time>2014-02-07T09:14:29.000Z</time>
      </trkpt>
      <trkpt lon="35.35407833755016" lat="31.28588290885091">
        <ele>-122.0</ele>
        <time>2014-02-07T09:14:30.000Z</time>
      </trkpt>
      <trkpt lon="35.35410054959357" lat="31.285853991284966">
        <ele>-121.4000015258789</ele>
        <time>2014-02-07T09:14:31.000Z</time>
      </trkpt>
      <trkpt lon="35.354116978123784" lat="31.28582775592804">
        <ele>-121.0</ele>
        <time>2014-02-07T09:14:32.000Z</time>
      </trkpt>
      <trkpt lon="35.354128712788224" lat="31.28580143675208">
        <ele>-121.0</ele>
        <time>2014-02-07T09:14:33.000Z</time>
      </trkpt>
      <trkpt lon="35.354139022529125" lat="31.285777548328042">
        <ele>-121.0</ele>
        <time>2014-02-07T09:14:34.000Z</time>
      </trkpt>
      <trkpt lon="35.354150254279375" lat="31.28575349226594">
        <ele>-120.5999984741211</ele>
        <time>2014-02-07T09:14:35.000Z</time>
      </trkpt>
      <trkpt lon="35.35415779799223" lat="31.285730693489313">
        <ele>-120.5999984741211</ele>
        <time>2014-02-07T09:14:36.000Z</time>
      </trkpt>
      <trkpt lon="35.35416383296251" lat="31.28570999018848">
        <ele>-120.0</ele>
        <time>2014-02-07T09:14:37.000Z</time>
      </trkpt>
      <trkpt lon="35.354173220694065" lat="31.285692052915692">
        <ele>-120.0</ele>
        <time>2014-02-07T09:14:38.000Z</time>
      </trkpt>
      <trkpt lon="35.35419006831944" lat="31.285677971318364">
        <ele>-119.5999984741211</ele>
        <time>2014-02-07T09:14:39.000Z</time>
      </trkpt>
      <trkpt lon="35.35420666448772" lat="31.2856640573591">
        <ele>-119.5999984741211</ele>
        <time>2014-02-07T09:14:40.000Z</time>
      </trkpt>
      <trkpt lon="35.354389725252986" lat="31.285520559176803">
        <ele>-117.5999984741211</ele>
        <time>2014-02-07T09:14:49.000Z</time>
      </trkpt>
      <trkpt lon="35.35443490371108" lat="31.285456605255604">
        <ele>-116.19999694824219</ele>
        <time>2014-02-07T09:14:54.000Z</time>
      </trkpt>
      <trkpt lon="35.35444747656584" lat="31.285449815914035">
        <ele>-115.5999984741211</ele>
        <time>2014-02-07T09:14:55.000Z</time>
      </trkpt>
      <trkpt lon="35.35446030087769" lat="31.285441853106022">
        <ele>-115.5999984741211</ele>
        <time>2014-02-07T09:14:56.000Z</time>
      </trkpt>
      <trkpt lon="35.354472789913416" lat="31.28542961552739">
        <ele>-115.5999984741211</ele>
        <time>2014-02-07T09:14:57.000Z</time>
      </trkpt>
      <trkpt lon="35.354484021663666" lat="31.285413270816207">
        <ele>-115.5999984741211</ele>
        <time>2014-02-07T09:14:58.000Z</time>
      </trkpt>
      <trkpt lon="35.35449634306133" lat="31.285395249724388">
        <ele>-115.19999694824219</ele>
        <time>2014-02-07T09:14:59.000Z</time>
      </trkpt>
      <trkpt lon="35.35451981239021" lat="31.28536155447364">
        <ele>-114.80000305175781</ele>
        <time>2014-02-07T09:15:01.000Z</time>
      </trkpt>
      <trkpt lon="35.35453414544463" lat="31.285348562523723">
        <ele>-114.80000305175781</ele>
        <time>2014-02-07T09:15:02.000Z</time>
      </trkpt>
      <trkpt lon="35.354546466842294" lat="31.285334145650268">
        <ele>-114.19999694824219</ele>
        <time>2014-02-07T09:15:03.000Z</time>
      </trkpt>
      <trkpt lon="35.35460731945932" lat="31.285215709358454">
        <ele>-112.4000015258789</ele>
        <time>2014-02-07T09:15:12.000Z</time>
      </trkpt>
      <trkpt lon="35.35462508909404" lat="31.285158628597856">
        <ele>-111.4000015258789</ele>
        <time>2014-02-07T09:15:16.000Z</time>
      </trkpt>
      <trkpt lon="35.354635985568166" lat="31.285143122076988">
        <ele>-111.4000015258789</ele>
        <time>2014-02-07T09:15:17.000Z</time>
      </trkpt>
      <trkpt lon="35.354741932824254" lat="31.285048574209213">
        <ele>-110.4000015258789</ele>
        <time>2014-02-07T09:15:25.000Z</time>
      </trkpt>
      <trkpt lon="35.35490060225129" lat="31.2850250210613">
        <ele>-108.4000015258789</ele>
        <time>2014-02-07T09:15:34.000Z</time>
      </trkpt>
      <trkpt lon="35.35508265718818" lat="31.285086795687675">
        <ele>-109.0</ele>
        <time>2014-02-07T09:15:43.000Z</time>
      </trkpt>
      <trkpt lon="35.35518064163625" lat="31.285238759592175">
        <ele>-110.4000015258789</ele>
        <time>2014-02-07T09:15:50.000Z</time>
      </trkpt>
      <trkpt lon="35.35520981065929" lat="31.285427352413535">
        <ele>-110.0</ele>
        <time>2014-02-07T09:15:58.000Z</time>
      </trkpt>
      <trkpt lon="35.3553129080683" lat="31.28558250144124">
        <ele>-108.4000015258789</ele>
        <time>2014-02-07T09:16:08.000Z</time>
      </trkpt>
      <trkpt lon="35.35535297356546" lat="31.285727759823203">
        <ele>-108.0</ele>
        <time>2014-02-07T09:16:16.000Z</time>
      </trkpt>
      <trkpt lon="35.35537208430469" lat="31.285906210541725">
        <ele>-107.5999984741211</ele>
        <time>2014-02-07T09:16:24.000Z</time>
      </trkpt>
      <trkpt lon="35.35537359304726" lat="31.286036549136043">
        <ele>-107.0</ele>
        <time>2014-02-07T09:16:32.000Z</time>
      </trkpt>
      <trkpt lon="35.35534459166229" lat="31.28621030598879">
        <ele>-109.0</ele>
        <time>2014-02-07T09:16:37.000Z</time>
      </trkpt>
      <trkpt lon="35.355340065434575" lat="31.286313319578767">
        <ele>-110.0</ele>
        <time>2014-02-07T09:16:39.000Z</time>
      </trkpt>
      <trkpt lon="35.355348363518715" lat="31.2863599229604">
        <ele>-110.0</ele>
        <time>2014-02-07T09:16:40.000Z</time>
      </trkpt>
      <trkpt lon="35.35536261275411" lat="31.286400072276592">
        <ele>-110.0</ele>
        <time>2014-02-07T09:16:41.000Z</time>
      </trkpt>
      <trkpt lon="35.35538147203624" lat="31.286435443907976">
        <ele>-110.0</ele>
        <time>2014-02-07T09:16:42.000Z</time>
      </trkpt>
      <trkpt lon="35.355406953021884" lat="31.286468720063567">
        <ele>-110.0</ele>
        <time>2014-02-07T09:16:43.000Z</time>
      </trkpt>
      <trkpt lon="35.35543402656913" lat="31.286502247676253">
        <ele>-110.4000015258789</ele>
        <time>2014-02-07T09:16:44.000Z</time>
      </trkpt>
      <trkpt lon="35.35565706901252" lat="31.286789663136005">
        <ele>-111.4000015258789</ele>
        <time>2014-02-07T09:16:52.000Z</time>
      </trkpt>
      <trkpt lon="35.35571180284023" lat="31.286860154941678">
        <ele>-111.4000015258789</ele>
        <time>2014-02-07T09:16:54.000Z</time>
      </trkpt>
      <trkpt lon="35.355978263542056" lat="31.287151174619794">
        <ele>-109.0</ele>
        <time>2014-02-07T09:17:03.000Z</time>
      </trkpt>
      <trkpt lon="35.356001649051905" lat="31.287212278693914">
        <ele>-107.0</ele>
        <time>2014-02-07T09:17:06.000Z</time>
      </trkpt>
      <trkpt lon="35.35600089468062" lat="31.28722728230059">
        <ele>-107.0</ele>
        <time>2014-02-07T09:17:07.000Z</time>
      </trkpt>
      <trkpt lon="35.35599762573838" lat="31.287240777164698">
        <ele>-107.5999984741211</ele>
        <time>2014-02-07T09:17:08.000Z</time>
      </trkpt>
      <trkpt lon="35.35599167458713" lat="31.287253350019455">
        <ele>-107.5999984741211</ele>
        <time>2014-02-07T09:17:09.000Z</time>
      </trkpt>
      <trkpt lon="35.35598245449364" lat="31.28726676106453">
        <ele>-107.5999984741211</ele>
        <time>2014-02-07T09:17:10.000Z</time>
      </trkpt>
      <trkpt lon="35.35597155801952" lat="31.287283692508936">
        <ele>-107.5999984741211</ele>
        <time>2014-02-07T09:17:11.000Z</time>
      </trkpt>
      <trkpt lon="35.35596367903054" lat="31.28730238415301">
        <ele>-107.5999984741211</ele>
        <time>2014-02-07T09:17:12.000Z</time>
      </trkpt>
      <trkpt lon="35.35587893798947" lat="31.287444289773703">
        <ele>-105.5999984741211</ele>
        <time>2014-02-07T09:17:20.000Z</time>
      </trkpt>
      <trkpt lon="35.35580400377512" lat="31.287529533728957">
        <ele>-103.5999984741211</ele>
        <time>2014-02-07T09:17:27.000Z</time>
      </trkpt>
      <trkpt lon="35.35568120889366" lat="31.287599774077535">
        <ele>-101.80000305175781</ele>
        <time>2014-02-07T09:17:35.000Z</time>
      </trkpt>
      <trkpt lon="35.35557392053306" lat="31.28765383735299">
        <ele>-99.80000305175781</ele>
        <time>2014-02-07T09:17:42.000Z</time>
      </trkpt>
      <trkpt lon="35.35548331215978" lat="31.287778476253152">
        <ele>-98.0</ele>
        <time>2014-02-07T09:17:50.000Z</time>
      </trkpt>
      <trkpt lon="35.35543218255043" lat="31.287843268364668">
        <ele>-96.0</ele>
        <time>2014-02-07T09:17:56.000Z</time>
      </trkpt>
      <trkpt lon="35.35542623139918" lat="31.28785416483879">
        <ele>-96.0</ele>
        <time>2014-02-07T09:17:57.000Z</time>
      </trkpt>
      <trkpt lon="35.3553958889097" lat="31.287903785705566">
        <ele>-93.5999984741211</ele>
        <time>2014-02-07T09:18:02.000Z</time>
      </trkpt>
      <trkpt lon="35.355352805927396" lat="31.287928679957986">
        <ele>-92.5999984741211</ele>
        <time>2014-02-07T09:18:10.000Z</time>
      </trkpt>
      <trkpt lon="35.35534375347197" lat="31.28795860335231">
        <ele>-91.19999694824219</ele>
        <time>2014-02-07T09:18:19.000Z</time>
      </trkpt>
      <trkpt lon="35.35532556474209" lat="31.288001853972673">
        <ele>-90.19999694824219</ele>
        <time>2014-02-07T09:18:27.000Z</time>
      </trkpt>
      <trkpt lon="35.355286840349436" lat="31.288033789023757">
        <ele>-90.80000305175781</ele>
        <time>2014-02-07T09:18:34.000Z</time>
      </trkpt>
      <trkpt lon="35.355255492031574" lat="31.288078548386693">
        <ele>-89.80000305175781</ele>
        <time>2014-02-07T09:18:43.000Z</time>
      </trkpt>
      <trkpt lon="35.35527099855244" lat="31.28810377791524">
        <ele>-88.80000305175781</ele>
        <time>2014-02-07T09:18:53.000Z</time>
      </trkpt>
      <trkpt lon="35.355231519788504" lat="31.288133868947625">
        <ele>-88.80000305175781</ele>
        <time>2014-02-07T09:19:11.000Z</time>
      </trkpt>
      <trkpt lon="35.35516488365829" lat="31.288187513127923">
        <ele>-87.80000305175781</ele>
        <time>2014-02-07T09:19:20.000Z</time>
      </trkpt>
      <trkpt lon="35.35511392168701" lat="31.2882630340755">
        <ele>-87.4000015258789</ele>
        <time>2014-02-07T09:19:31.000Z</time>
      </trkpt>
      <trkpt lon="35.35509791225195" lat="31.288290107622743">
        <ele>-87.4000015258789</ele>
        <time>2014-02-07T09:19:39.000Z</time>
      </trkpt>
      <trkpt lon="35.355082573369145" lat="31.28835439682007">
        <ele>-86.0</ele>
        <time>2014-02-07T09:19:45.000Z</time>
      </trkpt>
      <trkpt lon="35.35508173517883" lat="31.28840032964945">
        <ele>-86.0</ele>
        <time>2014-02-07T09:19:48.000Z</time>
      </trkpt>
      <trkpt lon="35.3550745267421" lat="31.288413992151618">
        <ele>-85.4000015258789</ele>
        <time>2014-02-07T09:19:49.000Z</time>
      </trkpt>
      <trkpt lon="35.355065893381834" lat="31.288428995758295">
        <ele>-85.4000015258789</ele>
        <time>2014-02-07T09:19:50.000Z</time>
      </trkpt>
      <trkpt lon="35.35505751147866" lat="31.28844483755529">
        <ele>-85.0</ele>
        <time>2014-02-07T09:19:51.000Z</time>
      </trkpt>
      <trkpt lon="35.35504871048033" lat="31.288462607190013">
        <ele>-85.0</ele>
        <time>2014-02-07T09:19:52.000Z</time>
      </trkpt>
      <trkpt lon="35.35503789782524" lat="31.288481215015054">
        <ele>-85.0</ele>
        <time>2014-02-07T09:19:53.000Z</time>
      </trkpt>
      <trkpt lon="35.35497469827533" lat="31.28870769403875">
        <ele>-85.0</ele>
        <time>2014-02-07T09:20:01.000Z</time>
      </trkpt>
      <trkpt lon="35.354913007467985" lat="31.288952194154263">
        <ele>-86.4000015258789</ele>
        <time>2014-02-07T09:20:09.000Z</time>
      </trkpt>
      <trkpt lon="35.354878725484014" lat="31.28910264931619">
        <ele>-87.80000305175781</ele>
        <time>2014-02-07T09:20:15.000Z</time>
      </trkpt>
      <trkpt lon="35.354910492897034" lat="31.289229718968272">
        <ele>-86.4000015258789</ele>
        <time>2014-02-07T09:20:22.000Z</time>
      </trkpt>
      <trkpt lon="35.35495516844094" lat="31.289320662617683">
        <ele>-84.0</ele>
        <time>2014-02-07T09:20:29.000Z</time>
      </trkpt>
      <trkpt lon="35.354958437383175" lat="31.28933315165341">
        <ele>-84.0</ele>
        <time>2014-02-07T09:20:30.000Z</time>
      </trkpt>
      <trkpt lon="35.354958940297365" lat="31.289345221593976">
        <ele>-84.0</ele>
        <time>2014-02-07T09:20:31.000Z</time>
      </trkpt>
      <trkpt lon="35.35496346652508" lat="31.289359973743558">
        <ele>-83.4000015258789</ele>
        <time>2014-02-07T09:20:32.000Z</time>
      </trkpt>
      <trkpt lon="35.35497201606631" lat="31.289373971521854">
        <ele>-83.4000015258789</ele>
        <time>2014-02-07T09:20:33.000Z</time>
      </trkpt>
      <trkpt lon="35.35497419536114" lat="31.289388220757246">
        <ele>-83.4000015258789</ele>
        <time>2014-02-07T09:20:34.000Z</time>
      </trkpt>
      <trkpt lon="35.35497394390404" lat="31.289402889087796">
        <ele>-83.4000015258789</ele>
        <time>2014-02-07T09:20:35.000Z</time>
      </trkpt>
      <trkpt lon="35.35497268661857" lat="31.289418563246727">
        <ele>-83.4000015258789</ele>
        <time>2014-02-07T09:20:36.000Z</time>
      </trkpt>
      <trkpt lon="35.35499791614711" lat="31.289551751688123">
        <ele>-82.0</ele>
        <time>2014-02-07T09:20:44.000Z</time>
      </trkpt>
      <trkpt lon="35.3549241553992" lat="31.289724754169583">
        <ele>-82.5999984741211</ele>
        <time>2014-02-07T09:20:53.000Z</time>
      </trkpt>
      <trkpt lon="35.354794235900044" lat="31.289789965376258">
        <ele>-81.5999984741211</ele>
        <time>2014-02-07T09:21:00.000Z</time>
      </trkpt>
      <trkpt lon="35.35467512905598" lat="31.289795581251383">
        <ele>-80.19999694824219</ele>
        <time>2014-02-07T09:21:08.000Z</time>
      </trkpt>
      <trkpt lon="35.35460187122226" lat="31.289827600121498">
        <ele>-79.5999984741211</ele>
        <time>2014-02-07T09:21:14.000Z</time>
      </trkpt>
      <trkpt lon="35.35459365695715" lat="31.289838161319494">
        <ele>-79.5999984741211</ele>
        <time>2014-02-07T09:21:15.000Z</time>
      </trkpt>
      <trkpt lon="35.35458535887301" lat="31.289849979802966">
        <ele>-79.5999984741211</ele>
        <time>2014-02-07T09:21:16.000Z</time>
      </trkpt>
      <trkpt lon="35.354490894824266" lat="31.289966739714146">
        <ele>-79.5999984741211</ele>
        <time>2014-02-07T09:21:25.000Z</time>
      </trkpt>
      <trkpt lon="35.35442459397018" lat="31.290101688355207">
        <ele>-78.5999984741211</ele>
        <time>2014-02-07T09:21:34.000Z</time>
      </trkpt>
      <trkpt lon="35.354387294501066" lat="31.290274690836668">
        <ele>-80.19999694824219</ele>
        <time>2014-02-07T09:21:42.000Z</time>
      </trkpt>
      <trkpt lon="35.35433993674815" lat="31.29058498889208">
        <ele>-80.19999694824219</ele>
        <time>2014-02-07T09:21:51.000Z</time>
      </trkpt>
      <trkpt lon="35.35420096479356" lat="31.290828231722116">
        <ele>-79.19999694824219</ele>
        <time>2014-02-07T09:22:00.000Z</time>
      </trkpt>
      <trkpt lon="35.35402486100793" lat="31.291037779301405">
        <ele>-78.19999694824219</ele>
        <time>2014-02-07T09:22:09.000Z</time>
      </trkpt>
      <trkpt lon="35.35389209166169" lat="31.29122519865632">
        <ele>-76.19999694824219</ele>
        <time>2014-02-07T09:22:18.000Z</time>
      </trkpt>
      <trkpt lon="35.35384448245168" lat="31.291430136188865">
        <ele>-75.80000305175781</ele>
        <time>2014-02-07T09:22:27.000Z</time>
      </trkpt>
      <trkpt lon="35.35376041196287" lat="31.291656782850623">
        <ele>-76.80000305175781</ele>
        <time>2014-02-07T09:22:35.000Z</time>
      </trkpt>
      <trkpt lon="35.35365220159292" lat="31.29190580919385">
        <ele>-77.19999694824219</ele>
        <time>2014-02-07T09:22:44.000Z</time>
      </trkpt>
      <trkpt lon="35.35356008447707" lat="31.292053498327732">
        <ele>-77.80000305175781</ele>
        <time>2014-02-07T09:22:48.000Z</time>
      </trkpt>
      <trkpt lon="35.353518510237336" lat="31.292086858302355">
        <ele>-78.19999694824219</ele>
        <time>2014-02-07T09:22:49.000Z</time>
      </trkpt>
      <trkpt lon="35.35347408615053" lat="31.292116697877645">
        <ele>-78.19999694824219</ele>
        <time>2014-02-07T09:22:50.000Z</time>
      </trkpt>
      <trkpt lon="35.35342798568308" lat="31.292144441977143">
        <ele>-78.5999984741211</ele>
        <time>2014-02-07T09:22:51.000Z</time>
      </trkpt>
      <trkpt lon="35.35338297486305" lat="31.292168833315372">
        <ele>-78.5999984741211</ele>
        <time>2014-02-07T09:22:52.000Z</time>
      </trkpt>
      <trkpt lon="35.353342574089766" lat="31.29219071008265">
        <ele>-78.5999984741211</ele>
        <time>2014-02-07T09:22:53.000Z</time>
      </trkpt>
      <trkpt lon="35.353062534704804" lat="31.29227519966662">
        <ele>-78.5999984741211</ele>
        <time>2014-02-07T09:23:00.000Z</time>
      </trkpt>
      <trkpt lon="35.35296957939863" lat="31.292301518842578">
        <ele>-78.19999694824219</ele>
        <time>2014-02-07T09:23:02.000Z</time>
      </trkpt>
      <trkpt lon="35.35259583033621" lat="31.292424565181136">
        <ele>-77.80000305175781</ele>
        <time>2014-02-07T09:23:10.000Z</time>
      </trkpt>
      <trkpt lon="35.35223884508014" lat="31.29252204671502">
        <ele>-76.19999694824219</ele>
        <time>2014-02-07T09:23:17.000Z</time>
      </trkpt>
      <trkpt lon="35.352187883108854" lat="31.29253512248397">
        <ele>-76.19999694824219</ele>
        <time>2014-02-07T09:23:18.000Z</time>
      </trkpt>
      <trkpt lon="35.3519041556865" lat="31.292598489671946">
        <ele>-75.4000015258789</ele>
        <time>2014-02-07T09:23:24.000Z</time>
      </trkpt>
      <trkpt lon="35.351613219827414" lat="31.29265481606126">
        <ele>-73.4000015258789</ele>
        <time>2014-02-07T09:23:32.000Z</time>
      </trkpt>
      <trkpt lon="35.351272244006395" lat="31.292738635092974">
        <ele>-73.0</ele>
        <time>2014-02-07T09:23:42.000Z</time>
      </trkpt>
      <trkpt lon="35.35094501450658" lat="31.292834021151066">
        <ele>-71.4000015258789</ele>
        <time>2014-02-07T09:23:51.000Z</time>
      </trkpt>
      <trkpt lon="35.350696574896574" lat="31.29289973527193">
        <ele>-71.0</ele>
        <time>2014-02-07T09:23:58.000Z</time>
      </trkpt>
      <trkpt lon="35.35065290518105" lat="31.29291733726859">
        <ele>-71.0</ele>
        <time>2014-02-07T09:23:59.000Z</time>
      </trkpt>
      <trkpt lon="35.350544610992074" lat="31.292968383058906">
        <ele>-71.0</ele>
        <time>2014-02-07T09:24:03.000Z</time>
      </trkpt>
      <trkpt lon="35.35052374005318" lat="31.29297156818211">
        <ele>-70.5999984741211</ele>
        <time>2014-02-07T09:24:04.000Z</time>
      </trkpt>
      <trkpt lon="35.35050387494266" lat="31.292979028075933">
        <ele>-70.5999984741211</ele>
        <time>2014-02-07T09:24:05.000Z</time>
      </trkpt>
      <trkpt lon="35.35048769786954" lat="31.292989840731025">
        <ele>-70.5999984741211</ele>
        <time>2014-02-07T09:24:06.000Z</time>
      </trkpt>
      <trkpt lon="35.35046732984483" lat="31.2930032517761">
        <ele>-70.5999984741211</ele>
        <time>2014-02-07T09:24:07.000Z</time>
      </trkpt>
      <trkpt lon="35.350443525239825" lat="31.29301641136408">
        <ele>-70.5999984741211</ele>
        <time>2014-02-07T09:24:08.000Z</time>
      </trkpt>
      <trkpt lon="35.350414188578725" lat="31.29302873276174">
        <ele>-70.0</ele>
        <time>2014-02-07T09:24:09.000Z</time>
      </trkpt>
      <trkpt lon="35.35014144144952" lat="31.29314842633903">
        <ele>-71.0</ele>
        <time>2014-02-07T09:24:17.000Z</time>
      </trkpt>
      <trkpt lon="35.3498543612659" lat="31.293281111866236">
        <ele>-68.19999694824219</ele>
        <time>2014-02-07T09:24:26.000Z</time>
      </trkpt>
      <trkpt lon="35.34967867657542" lat="31.29336970858276">
        <ele>-66.5999984741211</ele>
        <time>2014-02-07T09:24:33.000Z</time>
      </trkpt>
      <trkpt lon="35.34945052117109" lat="31.293479092419147">
        <ele>-67.5999984741211</ele>
        <time>2014-02-07T09:24:42.000Z</time>
      </trkpt>
      <trkpt lon="35.34919613040984" lat="31.29358227364719">
        <ele>-67.5999984741211</ele>
        <time>2014-02-07T09:24:51.000Z</time>
      </trkpt>
      <trkpt lon="35.348935117945075" lat="31.293688556179404">
        <ele>-67.5999984741211</ele>
        <time>2014-02-07T09:24:58.000Z</time>
      </trkpt>
      <trkpt lon="35.348677625879645" lat="31.293784277513623">
        <ele>-66.19999694824219</ele>
        <time>2014-02-07T09:25:07.000Z</time>
      </trkpt>
      <trkpt lon="35.34842658787966" lat="31.2938769813627">
        <ele>-65.80000305175781</ele>
        <time>2014-02-07T09:25:14.000Z</time>
      </trkpt>
      <trkpt lon="35.34816473722458" lat="31.293990053236485">
        <ele>-65.19999694824219</ele>
        <time>2014-02-07T09:25:24.000Z</time>
      </trkpt>
      <trkpt lon="35.347863575443625" lat="31.29410857334733">
        <ele>-63.400001525878906</ele>
        <time>2014-02-07T09:25:35.000Z</time>
      </trkpt>
      <trkpt lon="35.34766878001392" lat="31.29417110234499">
        <ele>-62.400001525878906</ele>
        <time>2014-02-07T09:25:43.000Z</time>
      </trkpt>
      <trkpt lon="35.34746753051877" lat="31.29425215534866">
        <ele>-62.400001525878906</ele>
        <time>2014-02-07T09:25:51.000Z</time>
      </trkpt>
      <trkpt lon="35.347214229404926" lat="31.294347709044814">
        <ele>-61.400001525878906</ele>
        <time>2014-02-07T09:26:00.000Z</time>
      </trkpt>
      <trkpt lon="35.346883814781904" lat="31.29444812424481">
        <ele>-61.0</ele>
        <time>2014-02-07T09:26:10.000Z</time>
      </trkpt>
      <trkpt lon="35.34662866964936" lat="31.294543594121933">
        <ele>-61.400001525878906</ele>
        <time>2014-02-07T09:26:18.000Z</time>
      </trkpt>
      <trkpt lon="35.34649774432182" lat="31.294587766751647">
        <ele>-60.400001525878906</ele>
        <time>2014-02-07T09:26:23.000Z</time>
      </trkpt>
      <trkpt lon="35.346310744062066" lat="31.294658090919256">
        <ele>-60.0</ele>
        <time>2014-02-07T09:26:30.000Z</time>
      </trkpt>
      <trkpt lon="35.34613145515323" lat="31.294740485027432">
        <ele>-61.0</ele>
        <time>2014-02-07T09:26:35.000Z</time>
      </trkpt>
      <trkpt lon="35.346096670255065" lat="31.294769989326596">
        <ele>-61.0</ele>
        <time>2014-02-07T09:26:36.000Z</time>
      </trkpt>
      <trkpt lon="35.34607839770615" lat="31.294795386493206">
        <ele>-60.400001525878906</ele>
        <time>2014-02-07T09:26:37.000Z</time>
      </trkpt>
      <trkpt lon="35.346067417412996" lat="31.294818436726928">
        <ele>-60.0</ele>
        <time>2014-02-07T09:26:38.000Z</time>
      </trkpt>
      <trkpt lon="35.346059538424015" lat="31.294841151684523">
        <ele>-60.0</ele>
        <time>2014-02-07T09:26:39.000Z</time>
      </trkpt>
      <trkpt lon="35.34605719149113" lat="31.294867303222418">
        <ele>-60.0</ele>
        <time>2014-02-07T09:26:40.000Z</time>
      </trkpt>
      <trkpt lon="35.34605098888278" lat="31.294895885512233">
        <ele>-60.0</ele>
        <time>2014-02-07T09:26:41.000Z</time>
      </trkpt>
      <trkpt lon="35.346034644171596" lat="31.29492404870689">
        <ele>-60.0</ele>
        <time>2014-02-07T09:26:42.000Z</time>
      </trkpt>
      <trkpt lon="35.34602525644004" lat="31.294955732300878">
        <ele>-60.0</ele>
        <time>2014-02-07T09:26:43.000Z</time>
      </trkpt>
      <trkpt lon="35.34602005966008" lat="31.294988002628088">
        <ele>-60.0</ele>
        <time>2014-02-07T09:26:44.000Z</time>
      </trkpt>
      <trkpt lon="35.34601595252752" lat="31.295020943507552">
        <ele>-59.400001525878906</ele>
        <time>2014-02-07T09:26:45.000Z</time>
      </trkpt>
      <trkpt lon="35.34589768387377" lat="31.29524909891188">
        <ele>-61.400001525878906</ele>
        <time>2014-02-07T09:26:52.000Z</time>
      </trkpt>
      <trkpt lon="35.34573582932353" lat="31.295425621792674">
        <ele>-62.400001525878906</ele>
        <time>2014-02-07T09:26:56.000Z</time>
      </trkpt>
      <trkpt lon="35.34571277908981" lat="31.29547532647848">
        <ele>-62.400001525878906</ele>
        <time>2014-02-07T09:26:57.000Z</time>
      </trkpt>
      <trkpt lon="35.34564840607345" lat="31.295678755268455">
        <ele>-61.400001525878906</ele>
        <time>2014-02-07T09:27:03.000Z</time>
      </trkpt>
      <trkpt lon="35.345564084127545" lat="31.295873802155256">
        <ele>-61.0</ele>
        <time>2014-02-07T09:27:11.000Z</time>
      </trkpt>
      <trkpt lon="35.345463417470455" lat="31.29606306552887">
        <ele>-60.400001525878906</ele>
        <time>2014-02-07T09:27:18.000Z</time>
      </trkpt>
      <trkpt lon="35.345353949815035" lat="31.29628401249647">
        <ele>-60.0</ele>
        <time>2014-02-07T09:27:27.000Z</time>
      </trkpt>
      <trkpt lon="35.345269376412034" lat="31.296485094353557">
        <ele>-58.0</ele>
        <time>2014-02-07T09:27:36.000Z</time>
      </trkpt>
      <trkpt lon="35.34516217187047" lat="31.296658515930176">
        <ele>-58.0</ele>
        <time>2014-02-07T09:27:43.000Z</time>
      </trkpt>
      <trkpt lon="35.344979194924235" lat="31.296718027442694">
        <ele>-57.599998474121094</ele>
        <time>2014-02-07T09:27:49.000Z</time>
      </trkpt>
      <trkpt lon="35.34478364512324" lat="31.2968507129699">
        <ele>-57.0</ele>
        <time>2014-02-07T09:27:57.000Z</time>
      </trkpt>
      <trkpt lon="35.34470678307116" lat="31.296959007158875">
        <ele>-57.0</ele>
        <time>2014-02-07T09:28:04.000Z</time>
      </trkpt>
      <trkpt lon="35.344597985967994" lat="31.297130417078733">
        <ele>-57.0</ele>
        <time>2014-02-07T09:28:12.000Z</time>
      </trkpt>
      <trkpt lon="35.3444751072675" lat="31.29724550060928">
        <ele>-55.599998474121094</ele>
        <time>2014-02-07T09:28:21.000Z</time>
      </trkpt>
      <trkpt lon="35.344366477802396" lat="31.297338036820292">
        <ele>-53.20000076293945</ele>
        <time>2014-02-07T09:28:30.000Z</time>
      </trkpt>
      <trkpt lon="35.3443022724241" lat="31.297406936064363">
        <ele>-52.79999923706055</ele>
        <time>2014-02-07T09:28:37.000Z</time>
      </trkpt>
      <trkpt lon="35.344222309067845" lat="31.297491006553173">
        <ele>-50.400001525878906</ele>
        <time>2014-02-07T09:28:45.000Z</time>
      </trkpt>
      <trkpt lon="35.344104962423444" lat="31.297603910788894">
        <ele>-48.79999923706055</ele>
        <time>2014-02-07T09:28:54.000Z</time>
      </trkpt>
      <trkpt lon="35.34400756470859" lat="31.29767306149006">
        <ele>-48.79999923706055</ele>
        <time>2014-02-07T09:29:01.000Z</time>
      </trkpt>
      <trkpt lon="35.34384193830192" lat="31.297785798087716">
        <ele>-48.400001525878906</ele>
        <time>2014-02-07T09:29:09.000Z</time>
      </trkpt>
      <trkpt lon="35.343744456768036" lat="31.297828294336796">
        <ele>-47.400001525878906</ele>
        <time>2014-02-07T09:29:13.000Z</time>
      </trkpt>
      <trkpt lon="35.343718472868204" lat="31.297831311821938">
        <ele>-47.400001525878906</ele>
        <time>2014-02-07T09:29:14.000Z</time>
      </trkpt>
      <trkpt lon="35.34369768574834" lat="31.2978383526206">
        <ele>-47.400001525878906</ele>
        <time>2014-02-07T09:29:15.000Z</time>
      </trkpt>
      <trkpt lon="35.34368058666587" lat="31.297844806686044">
        <ele>-47.0</ele>
        <time>2014-02-07T09:29:16.000Z</time>
      </trkpt>
      <trkpt lon="35.343663236126304" lat="31.297850841656327">
        <ele>-47.0</ele>
        <time>2014-02-07T09:29:17.000Z</time>
      </trkpt>
      <trkpt lon="35.34353809431195" lat="31.297869868576527">
        <ele>-46.0</ele>
        <time>2014-02-07T09:29:24.000Z</time>
      </trkpt>
      <trkpt lon="35.34335285425186" lat="31.297948993742466">
        <ele>-44.599998474121094</ele>
        <time>2014-02-07T09:29:33.000Z</time>
      </trkpt>
      <trkpt lon="35.343199549242854" lat="31.2980820145458">
        <ele>-43.599998474121094</ele>
        <time>2014-02-07T09:29:41.000Z</time>
      </trkpt>
      <trkpt lon="35.34307340160012" lat="31.298199612647295">
        <ele>-42.599998474121094</ele>
        <time>2014-02-07T09:29:50.000Z</time>
      </trkpt>
      <trkpt lon="35.34306208603084" lat="31.2982115149498">
        <ele>-42.599998474121094</ele>
        <time>2014-02-07T09:29:51.000Z</time>
      </trkpt>
      <trkpt lon="35.342975752428174" lat="31.298291897401214">
        <ele>-41.599998474121094</ele>
        <time>2014-02-07T09:30:00.000Z</time>
      </trkpt>
      <trkpt lon="35.34289972856641" lat="31.29839918576181">
        <ele>-40.79999923706055</ele>
        <time>2014-02-07T09:30:09.000Z</time>
      </trkpt>
      <trkpt lon="35.34288170747459" lat="31.298415530472994">
        <ele>-40.20000076293945</ele>
        <time>2014-02-07T09:30:15.000Z</time>
      </trkpt>
      <trkpt lon="35.34290953539312" lat="31.298441514372826">
        <ele>-39.20000076293945</ele>
        <time>2014-02-07T09:30:27.000Z</time>
      </trkpt>
      <trkpt lon="35.34290660172701" lat="31.298437155783176">
        <ele>-39.79999923706055</ele>
        <time>2014-02-07T09:30:45.000Z</time>
      </trkpt>
      <trkpt lon="35.342844910919666" lat="31.298424331471324">
        <ele>-39.79999923706055</ele>
        <time>2014-02-07T09:31:03.000Z</time>
      </trkpt>
      <trkpt lon="35.342823285609484" lat="31.298418967053294">
        <ele>-37.400001525878906</ele>
        <time>2014-02-07T09:31:25.000Z</time>
      </trkpt>
      <trkpt lon="35.342843905091286" lat="31.298411590978503">
        <ele>-38.400001525878906</ele>
        <time>2014-02-07T09:31:43.000Z</time>
      </trkpt>
      <trkpt lon="35.34284516237676" lat="31.29841678775847">
        <ele>-37.79999923706055</ele>
        <time>2014-02-07T09:31:59.000Z</time>
      </trkpt>
      <trkpt lon="35.342838037759066" lat="31.29844025708735">
        <ele>-37.79999923706055</ele>
        <time>2014-02-07T09:32:07.000Z</time>
      </trkpt>
      <trkpt lon="35.342769641429186" lat="31.29855760373175">
        <ele>-38.400001525878906</ele>
        <time>2014-02-07T09:32:16.000Z</time>
      </trkpt>
      <trkpt lon="35.342653300613165" lat="31.298718200996518">
        <ele>-38.400001525878906</ele>
        <time>2014-02-07T09:32:26.000Z</time>
      </trkpt>
      <trkpt lon="35.3425754327327" lat="31.298813335597515">
        <ele>-38.400001525878906</ele>
        <time>2014-02-07T09:32:33.000Z</time>
      </trkpt>
      <trkpt lon="35.342408549040556" lat="31.29894744604826">
        <ele>-38.400001525878906</ele>
        <time>2014-02-07T09:32:41.000Z</time>
      </trkpt>
      <trkpt lon="35.34225390292704" lat="31.299202172085643">
        <ele>-37.79999923706055</ele>
        <time>2014-02-07T09:32:51.000Z</time>
      </trkpt>
      <trkpt lon="35.34223965369165" lat="31.29939168691635">
        <ele>-36.79999923706055</ele>
        <time>2014-02-07T09:32:58.000Z</time>
      </trkpt>
      <trkpt lon="35.34235155209899" lat="31.299688406288624">
        <ele>-37.79999923706055</ele>
        <time>2014-02-07T09:33:07.000Z</time>
      </trkpt>
      <trkpt lon="35.34242640249431" lat="31.299883788451552">
        <ele>-36.79999923706055</ele>
        <time>2014-02-07T09:33:13.000Z</time>
      </trkpt>
      <trkpt lon="35.34246739000082" lat="31.300128204748034">
        <ele>-36.400001525878906</ele>
        <time>2014-02-07T09:33:21.000Z</time>
      </trkpt>
      <trkpt lon="35.34237552434206" lat="31.300448225811124">
        <ele>-36.79999923706055</ele>
        <time>2014-02-07T09:33:32.000Z</time>
      </trkpt>
      <trkpt lon="35.34231106750667" lat="31.30072901956737">
        <ele>-36.400001525878906</ele>
        <time>2014-02-07T09:33:40.000Z</time>
      </trkpt>
      <trkpt lon="35.34224694594741" lat="31.300970083102584">
        <ele>-35.0</ele>
        <time>2014-02-07T09:33:47.000Z</time>
      </trkpt>
      <trkpt lon="35.3421938046813" lat="31.301223384216428">
        <ele>-35.0</ele>
        <time>2014-02-07T09:33:56.000Z</time>
      </trkpt>
      <trkpt lon="35.34213211387396" lat="31.301463609561324">
        <ele>-34.400001525878906</ele>
        <time>2014-02-07T09:34:04.000Z</time>
      </trkpt>
      <trkpt lon="35.34211065620184" lat="31.301482720300555">
        <ele>-34.400001525878906</ele>
        <time>2014-02-07T09:34:05.000Z</time>
      </trkpt>
      <trkpt lon="35.34192591905594" lat="31.301713222637773">
        <ele>-33.599998474121094</ele>
        <time>2014-02-07T09:34:14.000Z</time>
      </trkpt>
      <trkpt lon="35.341826006770134" lat="31.30189871415496">
        <ele>-32.599998474121094</ele>
        <time>2014-02-07T09:34:20.000Z</time>
      </trkpt>
      <trkpt lon="35.341679910197854" lat="31.30197842605412">
        <ele>-31.600000381469727</ele>
        <time>2014-02-07T09:34:26.000Z</time>
      </trkpt>
      <trkpt lon="35.34148243255913" lat="31.30212443880737">
        <ele>-30.200000762939453</ele>
        <time>2014-02-07T09:34:36.000Z</time>
      </trkpt>
      <trkpt lon="35.34128453582525" lat="31.302195684984326">
        <ele>-29.200000762939453</ele>
        <time>2014-02-07T09:34:44.000Z</time>
      </trkpt>
      <trkpt lon="35.34109820611775" lat="31.302274307236075">
        <ele>-28.799999237060547</ele>
        <time>2014-02-07T09:34:52.000Z</time>
      </trkpt>
      <trkpt lon="35.34101069904864" lat="31.302422499284148">
        <ele>-29.200000762939453</ele>
        <time>2014-02-07T09:34:58.000Z</time>
      </trkpt>
      <trkpt lon="35.34098798409104" lat="31.302476981654763">
        <ele>-29.200000762939453</ele>
        <time>2014-02-07T09:35:00.000Z</time>
      </trkpt>
      <trkpt lon="35.340991504490376" lat="31.302666161209345">
        <ele>-28.799999237060547</ele>
        <time>2014-02-07T09:35:07.000Z</time>
      </trkpt>
      <trkpt lon="35.34098639152944" lat="31.30272357724607">
        <ele>-28.200000762939453</ele>
        <time>2014-02-07T09:35:10.000Z</time>
      </trkpt>
      <trkpt lon="35.34093417227268" lat="31.302818628028035">
        <ele>-27.200000762939453</ele>
        <time>2014-02-07T09:35:17.000Z</time>
      </trkpt>
      <trkpt lon="35.34084758721292" lat="31.302965646609664">
        <ele>-26.200000762939453</ele>
        <time>2014-02-07T09:35:25.000Z</time>
      </trkpt>
      <trkpt lon="35.34076318144798" lat="31.303092129528522">
        <ele>-24.799999237060547</ele>
        <time>2014-02-07T09:35:32.000Z</time>
      </trkpt>
      <trkpt lon="35.34067165106535" lat="31.303132697939873">
        <ele>-23.799999237060547</ele>
        <time>2014-02-07T09:35:38.000Z</time>
      </trkpt>
      <trkpt lon="35.34065932966769" lat="31.303135631605983">
        <ele>-23.799999237060547</ele>
        <time>2014-02-07T09:35:39.000Z</time>
      </trkpt>
      <trkpt lon="35.34050879068673" lat="31.30315901711583">
        <ele>-24.399999618530273</ele>
        <time>2014-02-07T09:35:45.000Z</time>
      </trkpt>
      <trkpt lon="35.3402510471642" lat="31.303127584978938">
        <ele>-23.399999618530273</ele>
        <time>2014-02-07T09:35:52.000Z</time>
      </trkpt>
      <trkpt lon="35.34002339467406" lat="31.303095733746886">
        <ele>-21.0</ele>
        <time>2014-02-07T09:36:00.000Z</time>
      </trkpt>
      <trkpt lon="35.33977319486439" lat="31.303070420399308">
        <ele>-20.0</ele>
        <time>2014-02-07T09:36:08.000Z</time>
      </trkpt>
      <trkpt lon="35.33934060484171" lat="31.303091375157237">
        <ele>-17.200000762939453</ele>
        <time>2014-02-07T09:36:18.000Z</time>
      </trkpt>
      <trkpt lon="35.339088309556246" lat="31.303070252761245">
        <ele>-15.800000190734863</ele>
        <time>2014-02-07T09:36:26.000Z</time>
      </trkpt>
      <trkpt lon="35.338827297091484" lat="31.303039323538542">
        <ele>-14.199999809265137</ele>
        <time>2014-02-07T09:36:34.000Z</time>
      </trkpt>
      <trkpt lon="35.33854843117297" lat="31.30302465520799">
        <ele>-13.399999618530273</ele>
        <time>2014-02-07T09:36:42.000Z</time>
      </trkpt>
      <trkpt lon="35.33831390552223" lat="31.303005209192634">
        <ele>-11.800000190734863</ele>
        <time>2014-02-07T09:36:51.000Z</time>
      </trkpt>
      <trkpt lon="35.3380598500371" lat="31.30301920697093">
        <ele>-11.399999618530273</ele>
        <time>2014-02-07T09:36:58.000Z</time>
      </trkpt>
      <trkpt lon="35.33774829469621" lat="31.30303479731083">
        <ele>-9.399999618530273</ele>
        <time>2014-02-07T09:37:07.000Z</time>
      </trkpt>
      <trkpt lon="35.33755123615265" lat="31.303064972162247">
        <ele>-8.600000381469727</ele>
        <time>2014-02-07T09:37:14.000Z</time>
      </trkpt>
      <trkpt lon="35.33739089034498" lat="31.303162956610322">
        <ele>-8.0</ele>
        <time>2014-02-07T09:37:21.000Z</time>
      </trkpt>
      <trkpt lon="35.337205566465855" lat="31.30325121805072">
        <ele>-7.599999904632568</ele>
        <time>2014-02-07T09:37:28.000Z</time>
      </trkpt>
      <trkpt lon="35.33705519512296" lat="31.30342380143702">
        <ele>-5.599999904632568</ele>
        <time>2014-02-07T09:37:37.000Z</time>
      </trkpt>
      <trkpt lon="35.33706835471094" lat="31.303590517491102">
        <ele>-3.799999952316284</ele>
        <time>2014-02-07T09:37:46.000Z</time>
      </trkpt>
      <trkpt lon="35.3370616491884" lat="31.303720772266388">
        <ele>-2.799999952316284</ele>
        <time>2014-02-07T09:37:54.000Z</time>
      </trkpt>
      <trkpt lon="35.336972968652844" lat="31.303895618766546">
        <ele>-4.199999809265137</ele>
        <time>2014-02-07T09:38:01.000Z</time>
      </trkpt>
      <trkpt lon="35.33691178075969" lat="31.303959069773555">
        <ele>-4.599999904632568</ele>
        <time>2014-02-07T09:38:03.000Z</time>
      </trkpt>
      <trkpt lon="35.33672687597573" lat="31.304113632068038">
        <ele>-6.199999809265137</ele>
        <time>2014-02-07T09:38:09.000Z</time>
      </trkpt>
      <trkpt lon="35.336632411926985" lat="31.30420030094683">
        <ele>-6.599999904632568</ele>
        <time>2014-02-07T09:38:16.000Z</time>
      </trkpt>
      <trkpt lon="35.336585976183414" lat="31.3042744807899">
        <ele>-6.199999809265137</ele>
        <time>2014-02-07T09:38:22.000Z</time>
      </trkpt>
      <trkpt lon="35.336580108851194" lat="31.304285880178213">
        <ele>-6.199999809265137</ele>
        <time>2014-02-07T09:38:23.000Z</time>
      </trkpt>
      <trkpt lon="35.33656376414001" lat="31.304311277344823">
        <ele>-6.199999809265137</ele>
        <time>2014-02-07T09:38:26.000Z</time>
      </trkpt>
      <trkpt lon="35.336562590673566" lat="31.304323263466358">
        <ele>-6.199999809265137</ele>
        <time>2014-02-07T09:38:27.000Z</time>
      </trkpt>
      <trkpt lon="35.336562087759376" lat="31.304335920140147">
        <ele>-6.199999809265137</ele>
        <time>2014-02-07T09:38:28.000Z</time>
      </trkpt>
      <trkpt lon="35.33656275831163" lat="31.304347990080714">
        <ele>-6.199999809265137</ele>
        <time>2014-02-07T09:38:29.000Z</time>
      </trkpt>
      <trkpt lon="35.33656317740679" lat="31.304361652582884">
        <ele>-6.599999904632568</ele>
        <time>2014-02-07T09:38:30.000Z</time>
      </trkpt>
      <trkpt lon="35.3365642670542" lat="31.30437715910375">
        <ele>-6.599999904632568</ele>
        <time>2014-02-07T09:38:31.000Z</time>
      </trkpt>
      <trkpt lon="35.33656569197774" lat="31.304394593462348">
        <ele>-6.599999904632568</ele>
        <time>2014-02-07T09:38:32.000Z</time>
      </trkpt>
      <trkpt lon="35.33657055348158" lat="31.304415045306087">
        <ele>-7.0</ele>
        <time>2014-02-07T09:38:33.000Z</time>
      </trkpt>
      <trkpt lon="35.33658220432699" lat="31.30444790236652">
        <ele>-7.599999904632568</ele>
        <time>2014-02-07T09:38:35.000Z</time>
      </trkpt>
      <trkpt lon="35.336592346429825" lat="31.30446164868772">
        <ele>-7.599999904632568</ele>
        <time>2014-02-07T09:38:36.000Z</time>
      </trkpt>
      <trkpt lon="35.33663073554635" lat="31.304499451071024">
        <ele>-7.599999904632568</ele>
        <time>2014-02-07T09:38:40.000Z</time>
      </trkpt>
      <trkpt lon="35.33664624206722" lat="31.30450607277453">
        <ele>-7.599999904632568</ele>
        <time>2014-02-07T09:38:41.000Z</time>
      </trkpt>
      <trkpt lon="35.33666359260678" lat="31.304512107744813">
        <ele>-7.0</ele>
        <time>2014-02-07T09:38:42.000Z</time>
      </trkpt>
      <trkpt lon="35.33668245188892" lat="31.304519064724445">
        <ele>-7.0</ele>
        <time>2014-02-07T09:38:43.000Z</time>
      </trkpt>
      <trkpt lon="35.33670147880912" lat="31.30452216602862">
        <ele>-7.0</ele>
        <time>2014-02-07T09:38:44.000Z</time>
      </trkpt>
      <trkpt lon="35.33671874552965" lat="31.304525770246983">
        <ele>-7.0</ele>
        <time>2014-02-07T09:38:45.000Z</time>
      </trkpt>
      <trkpt lon="35.33673224039376" lat="31.304531386122108">
        <ele>-7.0</ele>
        <time>2014-02-07T09:38:46.000Z</time>
      </trkpt>
      <trkpt lon="35.336743304505944" lat="31.304538678377867">
        <ele>-7.0</ele>
        <time>2014-02-07T09:38:47.000Z</time>
      </trkpt>
      <trkpt lon="35.33675713464618" lat="31.304547395557165">
        <ele>-6.599999904632568</ele>
        <time>2014-02-07T09:38:48.000Z</time>
      </trkpt>
      <trkpt lon="35.336771216243505" lat="31.30455845966935">
        <ele>-6.599999904632568</ele>
        <time>2014-02-07T09:38:49.000Z</time>
      </trkpt>
      <trkpt lon="35.33690826036036" lat="31.304661808535457">
        <ele>-4.599999904632568</ele>
        <time>2014-02-07T09:38:59.000Z</time>
      </trkpt>
      <trkpt lon="35.33702996559441" lat="31.30477094091475">
        <ele>-3.799999952316284</ele>
        <time>2014-02-07T09:39:07.000Z</time>
      </trkpt>
      <trkpt lon="35.33710573799908" lat="31.304913768544793">
        <ele>-2.799999952316284</ele>
        <time>2014-02-07T09:39:15.000Z</time>
      </trkpt>
      <trkpt lon="35.33710875548422" lat="31.305014099925756">
        <ele>-3.200000047683716</ele>
        <time>2014-02-07T09:39:21.000Z</time>
      </trkpt>
      <trkpt lon="35.33710515126586" lat="31.305185928940773">
        <ele>-3.799999952316284</ele>
        <time>2014-02-07T09:39:28.000Z</time>
      </trkpt>
      <trkpt lon="35.33709014765918" lat="31.305377706885338">
        <ele>-3.799999952316284</ele>
        <time>2014-02-07T09:39:36.000Z</time>
      </trkpt>
      <trkpt lon="35.337084950879216" lat="31.305576525628567">
        <ele>-3.200000047683716</ele>
        <time>2014-02-07T09:39:45.000Z</time>
      </trkpt>
      <trkpt lon="35.337092243134975" lat="31.305711390450597">
        <ele>-2.200000047683716</ele>
        <time>2014-02-07T09:39:52.000Z</time>
      </trkpt>
      <trkpt lon="35.33707573078573" lat="31.30589470267296">
        <ele>-1.7999999523162842</ele>
        <time>2014-02-07T09:40:00.000Z</time>
      </trkpt>
      <trkpt lon="35.336999371647835" lat="31.30609016865492">
        <ele>-1.2000000476837158</ele>
        <time>2014-02-07T09:40:07.000Z</time>
      </trkpt>
      <trkpt lon="35.33688135445118" lat="31.306249843910336">
        <ele>-0.800000011920929</ele>
        <time>2014-02-07T09:40:14.000Z</time>
      </trkpt>
      <trkpt lon="35.336752608418465" lat="31.306329555809498">
        <ele>0.6000000238418579</ele>
        <time>2014-02-07T09:40:22.000Z</time>
      </trkpt>
      <trkpt lon="35.33667432144284" lat="31.306399879977107">
        <ele>2.0</ele>
        <time>2014-02-07T09:40:29.000Z</time>
      </trkpt>
      <trkpt lon="35.33660240471363" lat="31.30650850944221">
        <ele>2.5999999046325684</ele>
        <time>2014-02-07T09:40:38.000Z</time>
      </trkpt>
      <trkpt lon="35.336557729169726" lat="31.306621748954058">
        <ele>2.0</ele>
        <time>2014-02-07T09:40:46.000Z</time>
      </trkpt>
      <trkpt lon="35.33654876053333" lat="31.30665318109095">
        <ele>0.6000000238418579</ele>
        <time>2014-02-07T09:40:52.000Z</time>
      </trkpt>
      <trkpt lon="35.33654381521046" lat="31.306664664298296">
        <ele>-1.7999999523162842</ele>
        <time>2014-02-07T09:41:04.000Z</time>
      </trkpt>
      <trkpt lon="35.33653040416539" lat="31.30672979168594">
        <ele>-0.800000011920929</ele>
        <time>2014-02-07T09:41:11.000Z</time>
      </trkpt>
      <trkpt lon="35.336513724178076" lat="31.306813526898623">
        <ele>0.6000000238418579</ele>
        <time>2014-02-07T09:41:20.000Z</time>
      </trkpt>
      <trkpt lon="35.33650517463684" lat="31.306892652064562">
        <ele>2.5999999046325684</ele>
        <time>2014-02-07T09:41:30.000Z</time>
      </trkpt>
      <trkpt lon="35.33650618046522" lat="31.30693850107491">
        <ele>3.0</ele>
        <time>2014-02-07T09:41:38.000Z</time>
      </trkpt>
      <trkpt lon="35.336517579853535" lat="31.307008238509297">
        <ele>5.0</ele>
        <time>2014-02-07T09:41:49.000Z</time>
      </trkpt>
      <trkpt lon="35.33653459511697" lat="31.307051489129663">
        <ele>5.400000095367432</ele>
        <time>2014-02-07T09:41:56.000Z</time>
      </trkpt>
      <trkpt lon="35.336546916514635" lat="31.30708124488592">
        <ele>5.400000095367432</ele>
        <time>2014-02-07T09:42:01.000Z</time>
      </trkpt>
      <trkpt lon="35.33655093982816" lat="31.307132290676236">
        <ele>6.400000095367432</ele>
        <time>2014-02-07T09:42:08.000Z</time>
      </trkpt>
      <trkpt lon="35.33656024374068" lat="31.307145785540342">
        <ele>6.800000190734863</ele>
        <time>2014-02-07T09:42:10.000Z</time>
      </trkpt>
      <trkpt lon="35.336593268439174" lat="31.30720471031964">
        <ele>6.800000190734863</ele>
        <time>2014-02-07T09:42:19.000Z</time>
      </trkpt>
      <trkpt lon="35.33659812994301" lat="31.30723698064685">
        <ele>6.400000095367432</ele>
        <time>2014-02-07T09:42:24.000Z</time>
      </trkpt>
      <trkpt lon="35.33663861453533" lat="31.307331696152687">
        <ele>7.800000190734863</ele>
        <time>2014-02-07T09:42:30.000Z</time>
      </trkpt>
      <trkpt lon="35.336731150746346" lat="31.307487934827805">
        <ele>8.800000190734863</ele>
        <time>2014-02-07T09:42:38.000Z</time>
      </trkpt>
      <trkpt lon="35.336882108822465" lat="31.30761718377471">
        <ele>10.800000190734863</ele>
        <time>2014-02-07T09:42:48.000Z</time>
      </trkpt>
      <trkpt lon="35.3369321487844" lat="31.3077006675303">
        <ele>11.199999809265137</ele>
        <time>2014-02-07T09:42:55.000Z</time>
      </trkpt>
      <trkpt lon="35.337020829319954" lat="31.307834358885884">
        <ele>12.199999809265137</ele>
        <time>2014-02-07T09:43:03.000Z</time>
      </trkpt>
      <trkpt lon="35.33712526783347" lat="31.307963859289885">
        <ele>11.600000381469727</ele>
        <time>2014-02-07T09:43:10.000Z</time>
      </trkpt>
      <trkpt lon="35.33725745044649" lat="31.308163264766335">
        <ele>11.199999809265137</ele>
        <time>2014-02-07T09:43:17.000Z</time>
      </trkpt>
      <trkpt lon="35.33738108351827" lat="31.30836384370923">
        <ele>11.600000381469727</ele>
        <time>2014-02-07T09:43:25.000Z</time>
      </trkpt>
      <trkpt lon="35.33749264664948" lat="31.3085173163563">
        <ele>11.600000381469727</ele>
        <time>2014-02-07T09:43:30.000Z</time>
      </trkpt>
      <trkpt lon="35.33765424974263" lat="31.308645056560636">
        <ele>13.600000381469727</ele>
        <time>2014-02-07T09:43:37.000Z</time>
      </trkpt>
      <trkpt lon="35.33775600604713" lat="31.308719152584672">
        <ele>15.600000381469727</ele>
        <time>2014-02-07T09:43:44.000Z</time>
      </trkpt>
      <trkpt lon="35.33777251839638" lat="31.308725103735924">
        <ele>15.600000381469727</ele>
        <time>2014-02-07T09:43:45.000Z</time>
      </trkpt>
      <trkpt lon="35.3377850074321" lat="31.30873424001038">
        <ele>16.0</ele>
        <time>2014-02-07T09:43:46.000Z</time>
      </trkpt>
      <trkpt lon="35.33779992721975" lat="31.30874488502741">
        <ele>16.0</ele>
        <time>2014-02-07T09:43:47.000Z</time>
      </trkpt>
      <trkpt lon="35.33781744539738" lat="31.308757541701198">
        <ele>16.0</ele>
        <time>2014-02-07T09:43:48.000Z</time>
      </trkpt>
      <trkpt lon="35.337835969403386" lat="31.308772880584">
        <ele>16.0</ele>
        <time>2014-02-07T09:43:49.000Z</time>
      </trkpt>
      <trkpt lon="35.337995728477836" lat="31.30889450199902">
        <ele>18.0</ele>
        <time>2014-02-07T09:43:58.000Z</time>
      </trkpt>
      <trkpt lon="35.338167725130916" lat="31.309018218889832">
        <ele>17.0</ele>
        <time>2014-02-07T09:44:07.000Z</time>
      </trkpt>
      <trkpt lon="35.33831591717899" lat="31.30912165157497">
        <ele>15.0</ele>
        <time>2014-02-07T09:44:12.000Z</time>
      </trkpt>
      <trkpt lon="35.338337710127234" lat="31.30913338623941">
        <ele>15.0</ele>
        <time>2014-02-07T09:44:13.000Z</time>
      </trkpt>
      <trkpt lon="35.33835640177131" lat="31.309144031256437">
        <ele>15.0</ele>
        <time>2014-02-07T09:44:14.000Z</time>
      </trkpt>
      <trkpt lon="35.33853828907013" lat="31.309262802824378">
        <ele>16.399999618530273</ele>
        <time>2014-02-07T09:44:24.000Z</time>
      </trkpt>
      <trkpt lon="35.33865152858198" lat="31.309354081749916">
        <ele>18.799999237060547</ele>
        <time>2014-02-07T09:44:33.000Z</time>
      </trkpt>
      <trkpt lon="35.33867466263473" lat="31.309374198317528">
        <ele>19.399999618530273</ele>
        <time>2014-02-07T09:44:35.000Z</time>
      </trkpt>
      <trkpt lon="35.33874289132655" lat="31.30951057188213">
        <ele>20.799999237060547</ele>
        <time>2014-02-07T09:44:44.000Z</time>
      </trkpt>
      <trkpt lon="35.33877776004374" lat="31.309608472511172">
        <ele>21.200000762939453</ele>
        <time>2014-02-07T09:44:51.000Z</time>
      </trkpt>
      <trkpt lon="35.33879108726978" lat="31.309697404503822">
        <ele>21.799999237060547</ele>
        <time>2014-02-07T09:44:59.000Z</time>
      </trkpt>
      <trkpt lon="35.33876879140735" lat="31.30978231318295">
        <ele>22.799999237060547</ele>
        <time>2014-02-07T09:45:07.000Z</time>
      </trkpt>
      <trkpt lon="35.33872738480568" lat="31.30989412777126">
        <ele>24.600000381469727</ele>
        <time>2014-02-07T09:45:16.000Z</time>
      </trkpt>
      <trkpt lon="35.33868866041303" lat="31.30991516634822">
        <ele>24.600000381469727</ele>
        <time>2014-02-07T09:45:19.000Z</time>
      </trkpt>
      <trkpt lon="35.33856242895126" lat="31.309977443888783">
        <ele>25.600000381469727</ele>
        <time>2014-02-07T09:45:28.000Z</time>
      </trkpt>
      <trkpt lon="35.33846000209451" lat="31.31002865731716">
        <ele>28.0</ele>
        <time>2014-02-07T09:45:36.000Z</time>
      </trkpt>
      <trkpt lon="35.33839135430753" lat="31.310075093060732">
        <ele>30.0</ele>
        <time>2014-02-07T09:45:43.000Z</time>
      </trkpt>
      <trkpt lon="35.338374087587" lat="31.31009948439896">
        <ele>30.399999618530273</ele>
        <time>2014-02-07T09:45:45.000Z</time>
      </trkpt>
      <trkpt lon="35.33837215974927" lat="31.310111805796623">
        <ele>30.399999618530273</ele>
        <time>2014-02-07T09:45:46.000Z</time>
      </trkpt>
      <trkpt lon="35.33836813643575" lat="31.310127060860395">
        <ele>30.799999237060547</ele>
        <time>2014-02-07T09:45:47.000Z</time>
      </trkpt>
      <trkpt lon="35.338292783126235" lat="31.310268715023994">
        <ele>30.399999618530273</ele>
        <time>2014-02-07T09:45:57.000Z</time>
      </trkpt>
      <trkpt lon="35.33821835182607" lat="31.31039989180863">
        <ele>29.399999618530273</ele>
        <time>2014-02-07T09:46:05.000Z</time>
      </trkpt>
      <trkpt lon="35.33815263770521" lat="31.310558561235666">
        <ele>29.0</ele>
        <time>2014-02-07T09:46:13.000Z</time>
      </trkpt>
      <trkpt lon="35.338103687390685" lat="31.310679595917463">
        <ele>29.399999618530273</ele>
        <time>2014-02-07T09:46:19.000Z</time>
      </trkpt>
      <trkpt lon="35.338088599964976" lat="31.31068722344935">
        <ele>30.0</ele>
        <time>2014-02-07T09:46:20.000Z</time>
      </trkpt>
      <trkpt lon="35.33794761635363" lat="31.310723265632987">
        <ele>30.799999237060547</ele>
        <time>2014-02-07T09:46:29.000Z</time>
      </trkpt>
      <trkpt lon="35.337835382670164" lat="31.310752937570214">
        <ele>30.799999237060547</ele>
        <time>2014-02-07T09:46:37.000Z</time>
      </trkpt>
      <trkpt lon="35.337783582508564" lat="31.310764085501432">
        <ele>31.399999618530273</ele>
        <time>2014-02-07T09:46:42.000Z</time>
      </trkpt>
      <trkpt lon="35.33777276985347" lat="31.310765091329813">
        <ele>31.399999618530273</ele>
        <time>2014-02-07T09:46:43.000Z</time>
      </trkpt>
      <trkpt lon="35.33765198662877" lat="31.31080457009375">
        <ele>32.400001525878906</ele>
        <time>2014-02-07T09:46:53.000Z</time>
      </trkpt>
      <trkpt lon="35.33764352090657" lat="31.310811191797256">
        <ele>32.400001525878906</ele>
        <time>2014-02-07T09:46:54.000Z</time>
      </trkpt>
      <trkpt lon="35.33750823698938" lat="31.310893669724464">
        <ele>30.799999237060547</ele>
        <time>2014-02-07T09:47:00.000Z</time>
      </trkpt>
      <trkpt lon="35.337472362443805" lat="31.310924598947167">
        <ele>30.399999618530273</ele>
        <time>2014-02-07T09:47:01.000Z</time>
      </trkpt>
      <trkpt lon="35.337322326377034" lat="31.311106737703085">
        <ele>29.399999618530273</ele>
        <time>2014-02-07T09:47:06.000Z</time>
      </trkpt>
      <trkpt lon="35.3373066522181" lat="31.31114361807704">
        <ele>29.399999618530273</ele>
        <time>2014-02-07T09:47:07.000Z</time>
      </trkpt>
      <trkpt lon="35.33729776740074" lat="31.311177061870694">
        <ele>29.399999618530273</ele>
        <time>2014-02-07T09:47:08.000Z</time>
      </trkpt>
      <trkpt lon="35.33728536218405" lat="31.311349645256996">
        <ele>29.0</ele>
        <time>2014-02-07T09:47:15.000Z</time>
      </trkpt>
      <trkpt lon="35.33728385344148" lat="31.311362301930785">
        <ele>29.399999618530273</ele>
        <time>2014-02-07T09:47:16.000Z</time>
      </trkpt>
      <trkpt lon="35.3372791595757" lat="31.31137579679489">
        <ele>29.399999618530273</ele>
        <time>2014-02-07T09:47:17.000Z</time>
      </trkpt>
      <trkpt lon="35.33726583234966" lat="31.31151443347335">
        <ele>30.0</ele>
        <time>2014-02-07T09:47:26.000Z</time>
      </trkpt>
      <trkpt lon="35.33720104023814" lat="31.311618704348803">
        <ele>30.799999237060547</ele>
        <time>2014-02-07T09:47:34.000Z</time>
      </trkpt>
      <trkpt lon="35.33717019483447" lat="31.311700930818915">
        <ele>31.799999237060547</ele>
        <time>2014-02-07T09:47:42.000Z</time>
      </trkpt>
      <trkpt lon="35.33716089092195" lat="31.311797741800547">
        <ele>32.79999923706055</ele>
        <time>2014-02-07T09:47:51.000Z</time>
      </trkpt>
      <trkpt lon="35.33713239245117" lat="31.311776535585523">
        <ele>36.20000076293945</ele>
        <time>2014-02-07T09:48:08.000Z</time>
      </trkpt>
      <trkpt lon="35.337149910628796" lat="31.31178575567901">
        <ele>34.79999923706055</ele>
        <time>2014-02-07T09:48:27.000Z</time>
      </trkpt>
      <trkpt lon="35.337181594222784" lat="31.31180813536048">
        <ele>35.79999923706055</ele>
        <time>2014-02-07T09:48:46.000Z</time>
      </trkpt>
      <trkpt lon="35.337163992226124" lat="31.311799166724086">
        <ele>38.599998474121094</ele>
        <time>2014-02-07T09:49:05.000Z</time>
      </trkpt>
      <trkpt lon="35.33718570135534" lat="31.311807045713067">
        <ele>35.79999923706055</ele>
        <time>2014-02-07T09:49:13.000Z</time>
      </trkpt>
      <trkpt lon="35.337184024974704" lat="31.3118536490947">
        <ele>34.79999923706055</ele>
        <time>2014-02-07T09:49:19.000Z</time>
      </trkpt>
      <trkpt lon="35.337182683870196" lat="31.311931684613228">
        <ele>34.20000076293945</ele>
        <time>2014-02-07T09:49:25.000Z</time>
      </trkpt>
      <trkpt lon="35.33716005273163" lat="31.312029836699367">
        <ele>34.79999923706055</ele>
        <time>2014-02-07T09:49:34.000Z</time>
      </trkpt>
      <trkpt lon="35.33716902136803" lat="31.312089012935758">
        <ele>35.79999923706055</ele>
        <time>2014-02-07T09:49:39.000Z</time>
      </trkpt>
      <trkpt lon="35.33716491423547" lat="31.31211298517883">
        <ele>35.79999923706055</ele>
        <time>2014-02-07T09:49:41.000Z</time>
      </trkpt>
      <trkpt lon="35.337165500968695" lat="31.31212228909135">
        <ele>35.20000076293945</ele>
        <time>2014-02-07T09:49:42.000Z</time>
      </trkpt>
      <trkpt lon="35.337161142379045" lat="31.31213310174644">
        <ele>35.79999923706055</ele>
        <time>2014-02-07T09:49:43.000Z</time>
      </trkpt>
      <trkpt lon="35.33716885372996" lat="31.312216920778155">
        <ele>35.79999923706055</ele>
        <time>2014-02-07T09:49:51.000Z</time>
      </trkpt>
      <trkpt lon="35.337223168462515" lat="31.312317671254277">
        <ele>37.20000076293945</ele>
        <time>2014-02-07T09:50:01.000Z</time>
      </trkpt>
      <trkpt lon="35.33721495419741" lat="31.312370812520385">
        <ele>38.599998474121094</ele>
        <time>2014-02-07T09:50:07.000Z</time>
      </trkpt>
      <trkpt lon="35.3372083324939" lat="31.31237835623324">
        <ele>38.599998474121094</ele>
        <time>2014-02-07T09:50:08.000Z</time>
      </trkpt>
      <trkpt lon="35.337201207876205" lat="31.31238766014576">
        <ele>38.599998474121094</ele>
        <time>2014-02-07T09:50:09.000Z</time>
      </trkpt>
      <trkpt lon="35.33719944767654" lat="31.31239503622055">
        <ele>38.599998474121094</ele>
        <time>2014-02-07T09:50:10.000Z</time>
      </trkpt>
      <trkpt lon="35.33719223923981" lat="31.312401155009866">
        <ele>38.599998474121094</ele>
        <time>2014-02-07T09:50:11.000Z</time>
      </trkpt>
      <trkpt lon="35.337187042459846" lat="31.3124062679708">
        <ele>38.599998474121094</ele>
        <time>2014-02-07T09:50:12.000Z</time>
      </trkpt>
      <trkpt lon="35.33710506744683" lat="31.312453290447593">
        <ele>39.0</ele>
        <time>2014-02-07T09:50:21.000Z</time>
      </trkpt>
      <trkpt lon="35.33702468499541" lat="31.312474831938744">
        <ele>39.0</ele>
        <time>2014-02-07T09:50:28.000Z</time>
      </trkpt>
      <trkpt lon="35.33693181350827" lat="31.31255571730435">
        <ele>40.0</ele>
        <time>2014-02-07T09:50:37.000Z</time>
      </trkpt>
      <trkpt lon="35.336875319480896" lat="31.312649678438902">
        <ele>42.0</ele>
        <time>2014-02-07T09:50:45.000Z</time>
      </trkpt>
      <trkpt lon="35.33686777576804" lat="31.312757804989815">
        <ele>43.400001525878906</ele>
        <time>2014-02-07T09:50:54.000Z</time>
      </trkpt>
      <trkpt lon="35.33692938275635" lat="31.312847156077623">
        <ele>44.400001525878906</ele>
        <time>2014-02-07T09:51:03.000Z</time>
      </trkpt>
      <trkpt lon="35.33699618652463" lat="31.312895016744733">
        <ele>45.79999923706055</ele>
        <time>2014-02-07T09:51:11.000Z</time>
      </trkpt>
      <trkpt lon="35.337084447965026" lat="31.31291345693171">
        <ele>46.79999923706055</ele>
        <time>2014-02-07T09:51:18.000Z</time>
      </trkpt>
      <trkpt lon="35.337084364145994" lat="31.31293248385191">
        <ele>47.20000076293945</ele>
        <time>2014-02-07T09:51:26.000Z</time>
      </trkpt>
      <trkpt lon="35.33707598224282" lat="31.312929717823863">
        <ele>47.20000076293945</ele>
        <time>2014-02-07T09:51:41.000Z</time>
      </trkpt>
      <trkpt lon="35.33709115348756" lat="31.312939692288637">
        <ele>49.20000076293945</ele>
        <time>2014-02-07T09:51:51.000Z</time>
      </trkpt>
      <trkpt lon="35.33707095310092" lat="31.31297112442553">
        <ele>46.20000076293945</ele>
        <time>2014-02-07T09:52:07.000Z</time>
      </trkpt>
      <trkpt lon="35.337061900645494" lat="31.312984954565763">
        <ele>48.20000076293945</ele>
        <time>2014-02-07T09:52:26.000Z</time>
      </trkpt>
      <trkpt lon="35.337070198729634" lat="31.312997359782457">
        <ele>48.20000076293945</ele>
        <time>2014-02-07T09:52:40.000Z</time>
      </trkpt>
      <trkpt lon="35.33708352595568" lat="31.312983697280288">
        <ele>48.599998474121094</ele>
        <time>2014-02-07T09:52:47.000Z</time>
      </trkpt>
      <trkpt lon="35.33714077435434" lat="31.31298487074673">
        <ele>48.599998474121094</ele>
        <time>2014-02-07T09:52:55.000Z</time>
      </trkpt>
      <trkpt lon="35.33721914514899" lat="31.312993755564094">
        <ele>49.599998474121094</ele>
        <time>2014-02-07T09:53:05.000Z</time>
      </trkpt>
      <trkpt lon="35.337266670539975" lat="31.312994174659252">
        <ele>49.599998474121094</ele>
        <time>2014-02-07T09:53:12.000Z</time>
      </trkpt>
      <trkpt lon="35.33725912682712" lat="31.31301898509264">
        <ele>51.599998474121094</ele>
        <time>2014-02-07T09:53:22.000Z</time>
      </trkpt>
      <trkpt lon="35.33728930167854" lat="31.31300917826593">
        <ele>50.599998474121094</ele>
        <time>2014-02-07T09:53:31.000Z</time>
      </trkpt>
      <trkpt lon="35.337295001372695" lat="31.313046142458916">
        <ele>51.599998474121094</ele>
        <time>2014-02-07T09:53:43.000Z</time>
      </trkpt>
      <trkpt lon="35.337363481521606" lat="31.313089141622186">
        <ele>52.0</ele>
        <time>2014-02-07T09:53:54.000Z</time>
      </trkpt>
      <trkpt lon="35.33736909739673" lat="31.313094086945057">
        <ele>52.0</ele>
        <time>2014-02-07T09:54:04.000Z</time>
      </trkpt>
      <trkpt lon="35.33740237355232" lat="31.313053853809834">
        <ele>54.0</ele>
        <time>2014-02-07T09:54:17.000Z</time>
      </trkpt>
      <trkpt lon="35.337420646101236" lat="31.31308293901384">
        <ele>52.599998474121094</ele>
        <time>2014-02-07T09:54:25.000Z</time>
      </trkpt>
      <trkpt lon="35.337497340515256" lat="31.313142031431198">
        <ele>52.599998474121094</ele>
        <time>2014-02-07T09:54:35.000Z</time>
      </trkpt>
      <trkpt lon="35.33755123615265" lat="31.313183018937707">
        <ele>52.0</ele>
        <time>2014-02-07T09:54:42.000Z</time>
      </trkpt>
      <trkpt lon="35.33760362304747" lat="31.313253259286284">
        <ele>53.0</ele>
        <time>2014-02-07T09:54:51.000Z</time>
      </trkpt>
      <trkpt lon="35.33767646178603" lat="31.313343280926347">
        <ele>54.400001525878906</ele>
        <time>2014-02-07T09:55:01.000Z</time>
      </trkpt>
      <trkpt lon="35.33773974515498" lat="31.313390638679266">
        <ele>55.79999923706055</ele>
        <time>2014-02-07T09:55:11.000Z</time>
      </trkpt>
      <trkpt lon="35.33774142153561" lat="31.313402457162738">
        <ele>54.400001525878906</ele>
        <time>2014-02-07T09:55:20.000Z</time>
      </trkpt>
      <trkpt lon="35.3377456124872" lat="31.31340254098177">
        <ele>52.0</ele>
        <time>2014-02-07T09:55:31.000Z</time>
      </trkpt>
      <trkpt lon="35.33778190612793" lat="31.31344109773636">
        <ele>53.0</ele>
        <time>2014-02-07T09:55:40.000Z</time>
      </trkpt>
      <trkpt lon="35.33780436962843" lat="31.313518714159727">
        <ele>53.0</ele>
        <time>2014-02-07T09:55:48.000Z</time>
      </trkpt>
      <trkpt lon="35.33782264217734" lat="31.313589457422495">
        <ele>54.0</ele>
        <time>2014-02-07T09:55:56.000Z</time>
      </trkpt>
      <trkpt lon="35.337872011587024" lat="31.313655003905296">
        <ele>56.400001525878906</ele>
        <time>2014-02-07T09:56:05.000Z</time>
      </trkpt>
      <trkpt lon="35.33792842179537" lat="31.313705211505294">
        <ele>57.400001525878906</ele>
        <time>2014-02-07T09:56:13.000Z</time>
      </trkpt>
      <trkpt lon="35.337940994650126" lat="31.313706887885928">
        <ele>57.79999923706055</ele>
        <time>2014-02-07T09:56:14.000Z</time>
      </trkpt>
      <trkpt lon="35.33801710233092" lat="31.313722813501954">
        <ele>59.20000076293945</ele>
        <time>2014-02-07T09:56:22.000Z</time>
      </trkpt>
      <trkpt lon="35.3380942158401" lat="31.313728345558047">
        <ele>61.20000076293945</ele>
        <time>2014-02-07T09:56:31.000Z</time>
      </trkpt>
      <trkpt lon="35.33815724775195" lat="31.313742762431502">
        <ele>63.0</ele>
        <time>2014-02-07T09:56:41.000Z</time>
      </trkpt>
      <trkpt lon="35.338206281885505" lat="31.3137480430305">
        <ele>64.5999984741211</ele>
        <time>2014-02-07T09:56:49.000Z</time>
      </trkpt>
      <trkpt lon="35.33822891302407" lat="31.313808476552367">
        <ele>65.5999984741211</ele>
        <time>2014-02-07T09:56:58.000Z</time>
      </trkpt>
      <trkpt lon="35.33821826800704" lat="31.31386337801814">
        <ele>64.0</ele>
        <time>2014-02-07T09:57:07.000Z</time>
      </trkpt>
      <trkpt lon="35.33822941593826" lat="31.31393076851964">
        <ele>65.0</ele>
        <time>2014-02-07T09:57:16.000Z</time>
      </trkpt>
      <trkpt lon="35.33825112506747" lat="31.313989609479904">
        <ele>65.5999984741211</ele>
        <time>2014-02-07T09:57:24.000Z</time>
      </trkpt>
      <trkpt lon="35.33825355581939" lat="31.314038056880236">
        <ele>66.0</ele>
        <time>2014-02-07T09:57:32.000Z</time>
      </trkpt>
      <trkpt lon="35.33827643841505" lat="31.314128916710615">
        <ele>65.5999984741211</ele>
        <time>2014-02-07T09:57:42.000Z</time>
      </trkpt>
      <trkpt lon="35.33829689025879" lat="31.31418867968023">
        <ele>64.5999984741211</ele>
        <time>2014-02-07T09:57:52.000Z</time>
      </trkpt>
      <trkpt lon="35.3382892627269" lat="31.314191529527307">
        <ele>64.0</ele>
        <time>2014-02-07T09:58:13.000Z</time>
      </trkpt>
      <trkpt lon="35.338278114795685" lat="31.314185997471213">
        <ele>64.0</ele>
        <time>2014-02-07T09:58:25.000Z</time>
      </trkpt>
      <trkpt lon="35.33827459439635" lat="31.31418381817639">
        <ele>64.5999984741211</ele>
        <time>2014-02-07T09:58:41.000Z</time>
      </trkpt>
      <trkpt lon="35.33828482031822" lat="31.314183985814452">
        <ele>63.599998474121094</ele>
        <time>2014-02-07T09:58:57.000Z</time>
      </trkpt>
      <trkpt lon="35.338284987956285" lat="31.31419077515602">
        <ele>63.599998474121094</ele>
        <time>2014-02-07T09:59:08.000Z</time>
      </trkpt>
      <trkpt lon="35.33828557468951" lat="31.31419898942113">
        <ele>64.0</ele>
        <time>2014-02-07T09:59:22.000Z</time>
      </trkpt>
      <trkpt lon="35.33829940482974" lat="31.314211478456855">
        <ele>63.599998474121094</ele>
        <time>2014-02-07T09:59:36.000Z</time>
      </trkpt>
      <trkpt lon="35.33829412423074" lat="31.31422044709325">
        <ele>64.0</ele>
        <time>2014-02-07T09:59:54.000Z</time>
      </trkpt>
      <trkpt lon="35.33828968182206" lat="31.314221117645502">
        <ele>65.0</ele>
        <time>2014-02-07T10:00:09.000Z</time>
      </trkpt>
      <trkpt lon="35.33829303458333" lat="31.314226230606437">
        <ele>66.4000015258789</ele>
        <time>2014-02-07T10:00:25.000Z</time>
      </trkpt>
      <trkpt lon="35.33829789608717" lat="31.31421902216971">
        <ele>67.4000015258789</ele>
        <time>2014-02-07T10:00:44.000Z</time>
      </trkpt>
      <trkpt lon="35.33828188665211" lat="31.314203599467874">
        <ele>67.0</ele>
        <time>2014-02-07T10:00:57.000Z</time>
      </trkpt>
      <trkpt lon="35.338278617709875" lat="31.314216842874885">
        <ele>65.5999984741211</ele>
        <time>2014-02-07T10:01:10.000Z</time>
      </trkpt>
      <trkpt lon="35.33827803097665" lat="31.314217932522297">
        <ele>65.5999984741211</ele>
        <time>2014-02-07T10:01:23.000Z</time>
      </trkpt>
      <trkpt lon="35.33828331157565" lat="31.314215837046504">
        <ele>64.5999984741211</ele>
        <time>2014-02-07T10:01:37.000Z</time>
      </trkpt>
      <trkpt lon="35.33827995881438" lat="31.31420678459108">
        <ele>63.599998474121094</ele>
        <time>2014-02-07T10:01:43.000Z</time>
      </trkpt>
      <trkpt lon="35.338278952986" lat="31.314219357445836">
        <ele>63.599998474121094</ele>
        <time>2014-02-07T10:01:44.000Z</time>
      </trkpt>
      <trkpt lon="35.33825925551355" lat="31.31440627388656">
        <ele>62.599998474121094</ele>
        <time>2014-02-07T10:01:53.000Z</time>
      </trkpt>
      <trkpt lon="35.33826998434961" lat="31.31463828496635">
        <ele>59.20000076293945</ele>
        <time>2014-02-07T10:01:58.000Z</time>
      </trkpt>
      <trkpt lon="35.33825590275228" lat="31.3148704636842">
        <ele>56.79999923706055</ele>
        <time>2014-02-07T10:02:03.000Z</time>
      </trkpt>
      <trkpt lon="35.33834324218333" lat="31.31513809785247">
        <ele>54.0</ele>
        <time>2014-02-07T10:02:10.000Z</time>
      </trkpt>
      <trkpt lon="35.33845270983875" lat="31.315226024016738">
        <ele>53.400001525878906</ele>
        <time>2014-02-07T10:02:15.000Z</time>
      </trkpt>
      <trkpt lon="35.33857676200569" lat="31.315407073125243">
        <ele>52.599998474121094</ele>
        <time>2014-02-07T10:02:22.000Z</time>
      </trkpt>
      <trkpt lon="35.33876166678965" lat="31.315477062016726">
        <ele>52.0</ele>
        <time>2014-02-07T10:02:29.000Z</time>
      </trkpt>
      <trkpt lon="35.339005244895816" lat="31.315527437254786">
        <ele>52.0</ele>
        <time>2014-02-07T10:02:39.000Z</time>
      </trkpt>
      <trkpt lon="35.339257875457406" lat="31.315554259344935">
        <ele>52.0</ele>
        <time>2014-02-07T10:02:46.000Z</time>
      </trkpt>
      <trkpt lon="35.33956649713218" lat="31.31561905145645">
        <ele>52.0</ele>
        <time>2014-02-07T10:02:55.000Z</time>
      </trkpt>
      <trkpt lon="35.33979892730713" lat="31.315594911575317">
        <ele>49.599998474121094</ele>
        <time>2014-02-07T10:03:01.000Z</time>
      </trkpt>
      <trkpt lon="35.33985257148743" lat="31.31557898595929">
        <ele>49.20000076293945</ele>
        <time>2014-02-07T10:03:02.000Z</time>
      </trkpt>
      <trkpt lon="35.33991199918091" lat="31.315555181354284">
        <ele>49.20000076293945</ele>
        <time>2014-02-07T10:03:03.000Z</time>
      </trkpt>
      <trkpt lon="35.34028474241495" lat="31.31534236483276">
        <ele>47.79999923706055</ele>
        <time>2014-02-07T10:03:09.000Z</time>
      </trkpt>
      <trkpt lon="35.34033939242363" lat="31.315320320427418">
        <ele>47.79999923706055</ele>
        <time>2014-02-07T10:03:10.000Z</time>
      </trkpt>
      <trkpt lon="35.34039898775518" lat="31.31530280224979">
        <ele>47.20000076293945</ele>
        <time>2014-02-07T10:03:11.000Z</time>
      </trkpt>
      <trkpt lon="35.340468641370535" lat="31.315287966281176">
        <ele>47.20000076293945</ele>
        <time>2014-02-07T10:03:12.000Z</time>
      </trkpt>
      <trkpt lon="35.34054039046168" lat="31.315283020958304">
        <ele>46.79999923706055</ele>
        <time>2014-02-07T10:03:13.000Z</time>
      </trkpt>
      <trkpt lon="35.34060384146869" lat="31.315286122262478">
        <ele>46.79999923706055</ele>
        <time>2014-02-07T10:03:14.000Z</time>
      </trkpt>
      <trkpt lon="35.34066427499056" lat="31.315295677632093">
        <ele>46.20000076293945</ele>
        <time>2014-02-07T10:03:15.000Z</time>
      </trkpt>
      <trkpt lon="35.340720936656" lat="31.315313866361976">
        <ele>45.79999923706055</ele>
        <time>2014-02-07T10:03:16.000Z</time>
      </trkpt>
      <trkpt lon="35.34076997078955" lat="31.31534093990922">
        <ele>44.79999923706055</ele>
        <time>2014-02-07T10:03:17.000Z</time>
      </trkpt>
      <trkpt lon="35.34080643206835" lat="31.315368097275496">
        <ele>44.79999923706055</ele>
        <time>2014-02-07T10:03:18.000Z</time>
      </trkpt>
      <trkpt lon="35.3408366907388" lat="31.31540011614561">
        <ele>44.400001525878906</ele>
        <time>2014-02-07T10:03:19.000Z</time>
      </trkpt>
      <trkpt lon="35.34083836711943" lat="31.315444875508547">
        <ele>43.79999923706055</ele>
        <time>2014-02-07T10:03:20.000Z</time>
      </trkpt>
      <trkpt lon="35.34084205515683" lat="31.31548167206347">
        <ele>43.400001525878906</ele>
        <time>2014-02-07T10:03:21.000Z</time>
      </trkpt>
      <trkpt lon="35.34085211344063" lat="31.315578566864133">
        <ele>42.0</ele>
        <time>2014-02-07T10:03:25.000Z</time>
      </trkpt>
      <trkpt lon="35.34075764939189" lat="31.31575383245945">
        <ele>38.20000076293945</ele>
        <time>2014-02-07T10:03:32.000Z</time>
      </trkpt>
      <trkpt lon="35.3406622633338" lat="31.315932869911194">
        <ele>34.20000076293945</ele>
        <time>2014-02-07T10:03:39.000Z</time>
      </trkpt>
      <trkpt lon="35.34061884507537" lat="31.316054239869118">
        <ele>32.79999923706055</ele>
        <time>2014-02-07T10:03:44.000Z</time>
      </trkpt>
      <trkpt lon="35.3406379558146" lat="31.31609296426177">
        <ele>33.20000076293945</ele>
        <time>2014-02-07T10:03:49.000Z</time>
      </trkpt>
      <trkpt lon="35.3406828828156" lat="31.316118026152253">
        <ele>34.79999923706055</ele>
        <time>2014-02-07T10:03:55.000Z</time>
      </trkpt>
      <trkpt lon="35.340784303843975" lat="31.31610905751586">
        <ele>36.20000076293945</ele>
        <time>2014-02-07T10:04:03.000Z</time>
      </trkpt>
      <trkpt lon="35.34088958054781" lat="31.31608852185309">
        <ele>37.599998474121094</ele>
        <time>2014-02-07T10:04:13.000Z</time>
      </trkpt>
      <trkpt lon="35.340960742905736" lat="31.316081816330552">
        <ele>38.599998474121094</ele>
        <time>2014-02-07T10:04:21.000Z</time>
      </trkpt>
      <trkpt lon="35.34101329743862" lat="31.316035632044077">
        <ele>39.599998474121094</ele>
        <time>2014-02-07T10:04:31.000Z</time>
      </trkpt>
      <trkpt lon="35.34108890220523" lat="31.316008139401674">
        <ele>41.0</ele>
        <time>2014-02-07T10:04:41.000Z</time>
      </trkpt>
      <trkpt lon="35.34112745895982" lat="31.31597511470318">
        <ele>42.400001525878906</ele>
        <time>2014-02-07T10:04:48.000Z</time>
      </trkpt>
      <trkpt lon="35.34121504984796" lat="31.315963715314865">
        <ele>43.400001525878906</ele>
        <time>2014-02-07T10:04:57.000Z</time>
      </trkpt>
      <trkpt lon="35.34132594242692" lat="31.315951393917203">
        <ele>44.400001525878906</ele>
        <time>2014-02-07T10:05:08.000Z</time>
      </trkpt>
      <trkpt lon="35.3414152096957" lat="31.315968576818705">
        <ele>45.79999923706055</ele>
        <time>2014-02-07T10:05:19.000Z</time>
      </trkpt>
      <trkpt lon="35.341470781713724" lat="31.316007720306516">
        <ele>45.400001525878906</ele>
        <time>2014-02-07T10:05:28.000Z</time>
      </trkpt>
      <trkpt lon="35.341496262699366" lat="31.316079050302505">
        <ele>45.400001525878906</ele>
        <time>2014-02-07T10:05:37.000Z</time>
      </trkpt>
      <trkpt lon="35.34150732681155" lat="31.31619555875659">
        <ele>46.20000076293945</ele>
        <time>2014-02-07T10:05:48.000Z</time>
      </trkpt>
      <trkpt lon="35.34151210449636" lat="31.316301422193646">
        <ele>48.20000076293945</ele>
        <time>2014-02-07T10:05:59.000Z</time>
      </trkpt>
      <trkpt lon="35.34150464460254" lat="31.316374177113175">
        <ele>49.20000076293945</ele>
        <time>2014-02-07T10:06:09.000Z</time>
      </trkpt>
      <trkpt lon="35.34149349667132" lat="31.316417176276445">
        <ele>50.20000076293945</ele>
        <time>2014-02-07T10:06:17.000Z</time>
      </trkpt>
      <trkpt lon="35.341485030949116" lat="31.316457828506827">
        <ele>51.599998474121094</ele>
        <time>2014-02-07T10:06:24.000Z</time>
      </trkpt>
      <trkpt lon="35.341483103111386" lat="31.316488003358245">
        <ele>52.599998474121094</ele>
        <time>2014-02-07T10:06:31.000Z</time>
      </trkpt>
      <trkpt lon="35.3414701949805" lat="31.31650786846876">
        <ele>52.599998474121094</ele>
        <time>2014-02-07T10:06:40.000Z</time>
      </trkpt>
      <trkpt lon="35.34146759659052" lat="31.316558411344886">
        <ele>53.400001525878906</ele>
        <time>2014-02-07T10:06:49.000Z</time>
      </trkpt>
      <trkpt lon="35.34145066514611" lat="31.316606691107154">
        <ele>54.400001525878906</ele>
        <time>2014-02-07T10:06:58.000Z</time>
      </trkpt>
      <trkpt lon="35.34143792465329" lat="31.316656060516834">
        <ele>55.400001525878906</ele>
        <time>2014-02-07T10:07:06.000Z</time>
      </trkpt>
      <trkpt lon="35.34141621552408" lat="31.316704927012324">
        <ele>55.400001525878906</ele>
        <time>2014-02-07T10:07:16.000Z</time>
      </trkpt>
      <trkpt lon="35.341389728710055" lat="31.31674826145172">
        <ele>56.400001525878906</ele>
        <time>2014-02-07T10:07:25.000Z</time>
      </trkpt>
      <trkpt lon="35.34134882502258" lat="31.3167891651392">
        <ele>57.400001525878906</ele>
        <time>2014-02-07T10:07:34.000Z</time>
      </trkpt>
      <trkpt lon="35.34130146726966" lat="31.31684155203402">
        <ele>56.400001525878906</ele>
        <time>2014-02-07T10:07:43.000Z</time>
      </trkpt>
      <trkpt lon="35.34125218167901" lat="31.316890669986606">
        <ele>55.79999923706055</ele>
        <time>2014-02-07T10:07:52.000Z</time>
      </trkpt>
      <trkpt lon="35.34119828604162" lat="31.3169427216053">
        <ele>56.400001525878906</ele>
        <time>2014-02-07T10:08:02.000Z</time>
      </trkpt>
      <trkpt lon="35.341183952987194" lat="31.31695093587041">
        <ele>56.400001525878906</ele>
        <time>2014-02-07T10:08:07.000Z</time>
      </trkpt>
      <trkpt lon="35.34110181033611" lat="31.317040789872408">
        <ele>55.400001525878906</ele>
        <time>2014-02-07T10:08:15.000Z</time>
      </trkpt>
      <trkpt lon="35.34105244092643" lat="31.31711270660162">
        <ele>54.400001525878906</ele>
        <time>2014-02-07T10:08:17.000Z</time>
      </trkpt>
      <trkpt lon="35.34103131853044" lat="31.31716408766806">
        <ele>54.0</ele>
        <time>2014-02-07T10:08:18.000Z</time>
      </trkpt>
      <trkpt lon="35.34096979536116" lat="31.31745426915586">
        <ele>50.599998474121094</ele>
        <time>2014-02-07T10:08:22.000Z</time>
      </trkpt>
      <trkpt lon="35.340968035161495" lat="31.317537669092417">
        <ele>50.20000076293945</ele>
        <time>2014-02-07T10:08:23.000Z</time>
      </trkpt>
      <trkpt lon="35.340970968827605" lat="31.31761603988707">
        <ele>49.599998474121094</ele>
        <time>2014-02-07T10:08:24.000Z</time>
      </trkpt>
      <trkpt lon="35.34098111093044" lat="31.317684520035982">
        <ele>49.20000076293945</ele>
        <time>2014-02-07T10:08:25.000Z</time>
      </trkpt>
      <trkpt lon="35.34099234268069" lat="31.317742355167866">
        <ele>48.599998474121094</ele>
        <time>2014-02-07T10:08:26.000Z</time>
      </trkpt>
      <trkpt lon="35.34099510870874" lat="31.317890295758843">
        <ele>49.599998474121094</ele>
        <time>2014-02-07T10:08:30.000Z</time>
      </trkpt>
      <trkpt lon="35.340960659086704" lat="31.31806111894548">
        <ele>52.599998474121094</ele>
        <time>2014-02-07T10:08:39.000Z</time>
      </trkpt>
      <trkpt lon="35.340942135080695" lat="31.318192798644304">
        <ele>55.79999923706055</ele>
        <time>2014-02-07T10:08:48.000Z</time>
      </trkpt>
      <trkpt lon="35.340954288840294" lat="31.31831282749772">
        <ele>57.400001525878906</ele>
        <time>2014-02-07T10:08:56.000Z</time>
      </trkpt>
      <trkpt lon="35.34095454029739" lat="31.31832690909505">
        <ele>57.400001525878906</ele>
        <time>2014-02-07T10:08:57.000Z</time>
      </trkpt>
      <trkpt lon="35.340950014069676" lat="31.318338392302394">
        <ele>57.400001525878906</ele>
        <time>2014-02-07T10:08:58.000Z</time>
      </trkpt>
      <trkpt lon="35.34094523638487" lat="31.318351048976183">
        <ele>57.79999923706055</ele>
        <time>2014-02-07T10:08:59.000Z</time>
      </trkpt>
      <trkpt lon="35.340943643823266" lat="31.318365465849638">
        <ele>57.79999923706055</ele>
        <time>2014-02-07T10:09:00.000Z</time>
      </trkpt>
      <trkpt lon="35.34094464965165" lat="31.318380134180188">
        <ele>57.79999923706055</ele>
        <time>2014-02-07T10:09:01.000Z</time>
      </trkpt>
      <trkpt lon="35.34095764160156" lat="31.318497816100717">
        <ele>58.79999923706055</ele>
        <time>2014-02-07T10:09:09.000Z</time>
      </trkpt>
      <trkpt lon="35.34097608178854" lat="31.318651288747787">
        <ele>59.20000076293945</ele>
        <time>2014-02-07T10:09:17.000Z</time>
      </trkpt>
      <trkpt lon="35.34102838486433" lat="31.318878773599863">
        <ele>59.79999923706055</ele>
        <time>2014-02-07T10:09:25.000Z</time>
      </trkpt>
      <trkpt lon="35.34109812229872" lat="31.319172056391835">
        <ele>59.20000076293945</ele>
        <time>2014-02-07T10:09:35.000Z</time>
      </trkpt>
      <trkpt lon="35.34115545451641" lat="31.319348411634564">
        <ele>60.79999923706055</ele>
        <time>2014-02-07T10:09:43.000Z</time>
      </trkpt>
      <trkpt lon="35.34117431379855" lat="31.319496519863605">
        <ele>62.20000076293945</ele>
        <time>2014-02-07T10:09:52.000Z</time>
      </trkpt>
      <trkpt lon="35.34123424440622" lat="31.319597186520696">
        <ele>64.5999984741211</ele>
        <time>2014-02-07T10:10:01.000Z</time>
      </trkpt>
      <trkpt lon="35.3412526845932" lat="31.31969408132136">
        <ele>64.0</ele>
        <time>2014-02-07T10:10:09.000Z</time>
      </trkpt>
      <trkpt lon="35.34126047976315" lat="31.31970338523388">
        <ele>64.5999984741211</ele>
        <time>2014-02-07T10:10:19.000Z</time>
      </trkpt>
      <trkpt lon="35.34127162769437" lat="31.319700786843896">
        <ele>66.0</ele>
        <time>2014-02-07T10:10:34.000Z</time>
      </trkpt>
      <trkpt lon="35.34125603735447" lat="31.319684190675616">
        <ele>65.0</ele>
        <time>2014-02-07T10:10:41.000Z</time>
      </trkpt>
      <trkpt lon="35.34124715253711" lat="31.319664241746068">
        <ele>61.599998474121094</ele>
        <time>2014-02-07T10:10:57.000Z</time>
      </trkpt>
      <trkpt lon="35.34125964157283" lat="31.31965946406126">
        <ele>61.599998474121094</ele>
        <time>2014-02-07T10:11:16.000Z</time>
      </trkpt>
      <trkpt lon="35.34126936458051" lat="31.31967564113438">
        <ele>63.599998474121094</ele>
        <time>2014-02-07T10:11:26.000Z</time>
      </trkpt>
      <trkpt lon="35.341258216649294" lat="31.319686034694314">
        <ele>63.599998474121094</ele>
        <time>2014-02-07T10:11:44.000Z</time>
      </trkpt>
      <trkpt lon="35.34127179533243" lat="31.319695925340056">
        <ele>64.5999984741211</ele>
        <time>2014-02-07T10:11:58.000Z</time>
      </trkpt>
      <trkpt lon="35.3412767406553" lat="31.319712856784463">
        <ele>66.4000015258789</ele>
        <time>2014-02-07T10:12:20.000Z</time>
      </trkpt>
      <trkpt lon="35.34127037040889" lat="31.31972786039114">
        <ele>68.0</ele>
        <time>2014-02-07T10:12:44.000Z</time>
      </trkpt>
      <trkpt lon="35.34127757884562" lat="31.319739762693644">
        <ele>68.0</ele>
        <time>2014-02-07T10:13:01.000Z</time>
      </trkpt>
      <trkpt lon="35.34130590967834" lat="31.31968787871301">
        <ele>66.4000015258789</ele>
        <time>2014-02-07T10:13:19.000Z</time>
      </trkpt>
      <trkpt lon="35.34133440814912" lat="31.319642951712012">
        <ele>64.0</ele>
        <time>2014-02-07T10:13:36.000Z</time>
      </trkpt>
      <trkpt lon="35.3413166385144" lat="31.31964622065425">
        <ele>59.79999923706055</ele>
        <time>2014-02-07T10:13:54.000Z</time>
      </trkpt>
      <trkpt lon="35.34131973981857" lat="31.319641610607505">
        <ele>58.79999923706055</ele>
        <time>2014-02-07T10:14:11.000Z</time>
      </trkpt>
      <trkpt lon="35.34130238927901" lat="31.31964487954974">
        <ele>59.79999923706055</ele>
        <time>2014-02-07T10:14:31.000Z</time>
      </trkpt>
      <trkpt lon="35.341320326551795" lat="31.319644125178456">
        <ele>61.20000076293945</ele>
        <time>2014-02-07T10:14:47.000Z</time>
      </trkpt>
      <trkpt lon="35.34131948836148" lat="31.319648567587137">
        <ele>61.599998474121094</ele>
        <time>2014-02-07T10:15:09.000Z</time>
      </trkpt>
      <trkpt lon="35.34132099710405" lat="31.31964974105358">
        <ele>62.20000076293945</ele>
        <time>2014-02-07T10:15:25.000Z</time>
      </trkpt>
      <trkpt lon="35.34131923690438" lat="31.319646472111344">
        <ele>61.20000076293945</ele>
        <time>2014-02-07T10:15:47.000Z</time>
      </trkpt>
      <trkpt lon="35.34133658744395" lat="31.319640520960093">
        <ele>64.0</ele>
        <time>2014-02-07T10:16:07.000Z</time>
      </trkpt>
      <trkpt lon="35.341338431462646" lat="31.31963691674173">
        <ele>64.0</ele>
        <time>2014-02-07T10:16:26.000Z</time>
      </trkpt>
      <trkpt lon="35.341348154470325" lat="31.319636581465602">
        <ele>66.4000015258789</ele>
        <time>2014-02-07T10:16:47.000Z</time>
      </trkpt>
      <trkpt lon="35.34131127409637" lat="31.31964923813939">
        <ele>59.20000076293945</ele>
        <time>2014-02-07T10:17:13.000Z</time>
      </trkpt>
      <trkpt lon="35.34129358828068" lat="31.319653848186135">
        <ele>57.79999923706055</ele>
        <time>2014-02-07T10:17:32.000Z</time>
      </trkpt>
      <trkpt lon="35.34126098267734" lat="31.31963448598981">
        <ele>59.79999923706055</ele>
        <time>2014-02-07T10:17:43.000Z</time>
      </trkpt>
      <trkpt lon="35.341236339882016" lat="31.31964043714106">
        <ele>60.79999923706055</ele>
        <time>2014-02-07T10:17:50.000Z</time>
      </trkpt>
      <trkpt lon="35.34120817668736" lat="31.31965116597712">
        <ele>61.20000076293945</ele>
        <time>2014-02-07T10:17:52.000Z</time>
      </trkpt>
      <trkpt lon="35.341157130897045" lat="31.31969860754907">
        <ele>61.20000076293945</ele>
        <time>2014-02-07T10:17:58.000Z</time>
      </trkpt>
      <trkpt lon="35.341147324070334" lat="31.319710006937385">
        <ele>61.20000076293945</ele>
        <time>2014-02-07T10:17:59.000Z</time>
      </trkpt>
      <trkpt lon="35.34113206900656" lat="31.319721657782793">
        <ele>61.599998474121094</ele>
        <time>2014-02-07T10:18:00.000Z</time>
      </trkpt>
      <trkpt lon="35.34111673012376" lat="31.319732889533043">
        <ele>61.599998474121094</ele>
        <time>2014-02-07T10:18:01.000Z</time>
      </trkpt>
      <trkpt lon="35.341098457574844" lat="31.31974244490266">
        <ele>62.20000076293945</ele>
        <time>2014-02-07T10:18:02.000Z</time>
      </trkpt>
      <trkpt lon="35.34108127467334" lat="31.319753089919686">
        <ele>62.20000076293945</ele>
        <time>2014-02-07T10:18:03.000Z</time>
      </trkpt>
      <trkpt lon="35.34106560051441" lat="31.319762729108334">
        <ele>62.20000076293945</ele>
        <time>2014-02-07T10:18:04.000Z</time>
      </trkpt>
      <trkpt lon="35.34104942344129" lat="31.31977278739214">
        <ele>62.20000076293945</ele>
        <time>2014-02-07T10:18:05.000Z</time>
      </trkpt>
      <trkpt lon="35.34103408455849" lat="31.319783180952072">
        <ele>62.20000076293945</ele>
        <time>2014-02-07T10:18:06.000Z</time>
      </trkpt>
      <trkpt lon="35.340932831168175" lat="31.319850655272603">
        <ele>64.0</ele>
        <time>2014-02-07T10:18:13.000Z</time>
      </trkpt>
      <trkpt lon="35.34078069962561" lat="31.319953836500645">
        <ele>65.5999984741211</ele>
        <time>2014-02-07T10:18:23.000Z</time>
      </trkpt>
      <trkpt lon="35.34061507321894" lat="31.3200596999377">
        <ele>67.0</ele>
        <time>2014-02-07T10:18:33.000Z</time>
      </trkpt>
      <trkpt lon="35.34043092280626" lat="31.320187356323004">
        <ele>68.80000305175781</ele>
        <time>2014-02-07T10:18:44.000Z</time>
      </trkpt>
      <trkpt lon="35.3402441740036" lat="31.320310402661562">
        <ele>70.4000015258789</ele>
        <time>2014-02-07T10:18:55.000Z</time>
      </trkpt>
      <trkpt lon="35.34004284068942" lat="31.320451805368066">
        <ele>72.19999694824219</ele>
        <time>2014-02-07T10:19:06.000Z</time>
      </trkpt>
      <trkpt lon="35.33985659480095" lat="31.320581389591098">
        <ele>73.5999984741211</ele>
        <time>2014-02-07T10:19:17.000Z</time>
      </trkpt>
      <trkpt lon="35.33966280519962" lat="31.320717092603445">
        <ele>75.5999984741211</ele>
        <time>2014-02-07T10:19:28.000Z</time>
      </trkpt>
      <trkpt lon="35.339514780789614" lat="31.320826979354024">
        <ele>77.0</ele>
        <time>2014-02-07T10:19:37.000Z</time>
      </trkpt>
      <trkpt lon="35.33934060484171" lat="31.320944745093584">
        <ele>79.4000015258789</ele>
        <time>2014-02-07T10:19:47.000Z</time>
      </trkpt>
      <trkpt lon="35.33911638893187" lat="31.321093859151006">
        <ele>80.80000305175781</ele>
        <time>2014-02-07T10:20:00.000Z</time>
      </trkpt>
      <trkpt lon="35.33891488797963" lat="31.321232747286558">
        <ele>81.80000305175781</ele>
        <time>2014-02-07T10:20:12.000Z</time>
      </trkpt>
      <trkpt lon="35.3387314081192" lat="31.32133978419006">
        <ele>83.80000305175781</ele>
        <time>2014-02-07T10:20:23.000Z</time>
      </trkpt>
      <trkpt lon="35.33859101124108" lat="31.321448078379035">
        <ele>84.80000305175781</ele>
        <time>2014-02-07T10:20:32.000Z</time>
      </trkpt>
      <trkpt lon="35.33839328214526" lat="31.321575148031116">
        <ele>86.19999694824219</ele>
        <time>2014-02-07T10:20:44.000Z</time>
      </trkpt>
      <trkpt lon="35.33823553472757" lat="31.321690985932946">
        <ele>87.5999984741211</ele>
        <time>2014-02-07T10:20:54.000Z</time>
      </trkpt>
      <trkpt lon="35.33811718225479" lat="31.321773044764996">
        <ele>88.0</ele>
        <time>2014-02-07T10:21:02.000Z</time>
      </trkpt>
      <trkpt lon="35.33795289695263" lat="31.321876645088196">
        <ele>89.5999984741211</ele>
        <time>2014-02-07T10:21:12.000Z</time>
      </trkpt>
      <trkpt lon="35.337734799832106" lat="31.32197454571724">
        <ele>92.4000015258789</ele>
        <time>2014-02-07T10:21:24.000Z</time>
      </trkpt>
      <trkpt lon="35.337542183697224" lat="31.3220405112952">
        <ele>94.80000305175781</ele>
        <time>2014-02-07T10:21:34.000Z</time>
      </trkpt>
      <trkpt lon="35.33740815706551" lat="31.32207370363176">
        <ele>96.19999694824219</ele>
        <time>2014-02-07T10:21:41.000Z</time>
      </trkpt>
      <trkpt lon="35.33720036968589" lat="31.32211829535663">
        <ele>97.19999694824219</ele>
        <time>2014-02-07T10:21:51.000Z</time>
      </trkpt>
      <trkpt lon="35.33698352985084" lat="31.322131287306547">
        <ele>98.5999984741211</ele>
        <time>2014-02-07T10:22:01.000Z</time>
      </trkpt>
      <trkpt lon="35.33678906969726" lat="31.32213187403977">
        <ele>101.0</ele>
        <time>2014-02-07T10:22:10.000Z</time>
      </trkpt>
      <trkpt lon="35.33652696758509" lat="31.322108237072825">
        <ele>103.4000015258789</ele>
        <time>2014-02-07T10:22:22.000Z</time>
      </trkpt>
      <trkpt lon="35.336297722533345" lat="31.32209474220872">
        <ele>105.0</ele>
        <time>2014-02-07T10:22:33.000Z</time>
      </trkpt>
      <trkpt lon="35.336037212982774" lat="31.322075631469488">
        <ele>105.80000305175781</ele>
        <time>2014-02-07T10:22:45.000Z</time>
      </trkpt>
      <trkpt lon="35.33578827045858" lat="31.322049982845783">
        <ele>108.19999694824219</ele>
        <time>2014-02-07T10:22:57.000Z</time>
      </trkpt>
      <trkpt lon="35.33560554496944" lat="31.322032129392028">
        <ele>110.19999694824219</ele>
        <time>2014-02-07T10:23:06.000Z</time>
      </trkpt>
      <trkpt lon="35.33539733849466" lat="31.32201754488051">
        <ele>112.5999984741211</ele>
        <time>2014-02-07T10:23:16.000Z</time>
      </trkpt>
      <trkpt lon="35.335211008787155" lat="31.321993321180344">
        <ele>114.5999984741211</ele>
        <time>2014-02-07T10:23:26.000Z</time>
      </trkpt>
      <trkpt lon="35.33501520752907" lat="31.32198041304946">
        <ele>117.4000015258789</ele>
        <time>2014-02-07T10:23:36.000Z</time>
      </trkpt>
      <trkpt lon="35.33477146178484" lat="31.321972785517573">
        <ele>119.4000015258789</ele>
        <time>2014-02-07T10:23:48.000Z</time>
      </trkpt>
      <trkpt lon="35.334592172876" lat="31.321986112743616">
        <ele>121.80000305175781</ele>
        <time>2014-02-07T10:23:56.000Z</time>
      </trkpt>
      <trkpt lon="35.334382792934775" lat="31.32205073721707">
        <ele>125.5999984741211</ele>
        <time>2014-02-07T10:24:07.000Z</time>
      </trkpt>
      <trkpt lon="35.33422764390707" lat="31.322131119668484">
        <ele>128.0</ele>
        <time>2014-02-07T10:24:17.000Z</time>
      </trkpt>
      <trkpt lon="35.334142902866006" lat="31.32230043411255">
        <ele>124.19999694824219</ele>
        <time>2014-02-07T10:24:28.000Z</time>
      </trkpt>
      <trkpt lon="35.334036871790886" lat="31.32246312685311">
        <ele>124.5999984741211</ele>
        <time>2014-02-07T10:24:39.000Z</time>
      </trkpt>
      <trkpt lon="35.3339721634984" lat="31.322616850957274">
        <ele>125.5999984741211</ele>
        <time>2014-02-07T10:24:49.000Z</time>
      </trkpt>
      <trkpt lon="35.33390695229173" lat="31.32273972965777">
        <ele>125.5999984741211</ele>
        <time>2014-02-07T10:24:58.000Z</time>
      </trkpt>
      <trkpt lon="35.33384660258889" lat="31.32289119064808">
        <ele>126.0</ele>
        <time>2014-02-07T10:25:08.000Z</time>
      </trkpt>
      <trkpt lon="35.33380536362529" lat="31.323029324412346">
        <ele>126.5999984741211</ele>
        <time>2014-02-07T10:25:17.000Z</time>
      </trkpt>
      <trkpt lon="35.333763621747494" lat="31.323161842301488">
        <ele>127.0</ele>
        <time>2014-02-07T10:25:26.000Z</time>
      </trkpt>
      <trkpt lon="35.3337271604687" lat="31.32331975735724">
        <ele>128.0</ele>
        <time>2014-02-07T10:25:36.000Z</time>
      </trkpt>
      <trkpt lon="35.33368273638189" lat="31.32349527440965">
        <ele>129.39999389648438</ele>
        <time>2014-02-07T10:25:48.000Z</time>
      </trkpt>
      <trkpt lon="35.33365013077855" lat="31.323625445365906">
        <ele>130.8000030517578</ele>
        <time>2014-02-07T10:25:57.000Z</time>
      </trkpt>
      <trkpt lon="35.33360478468239" lat="31.323765506967902">
        <ele>132.39999389648438</ele>
        <time>2014-02-07T10:26:07.000Z</time>
      </trkpt>
      <trkpt lon="35.33356689848006" lat="31.32390858605504">
        <ele>132.39999389648438</ele>
        <time>2014-02-07T10:26:17.000Z</time>
      </trkpt>
      <trkpt lon="35.33351945690811" lat="31.324083264917135">
        <ele>133.8000030517578</ele>
        <time>2014-02-07T10:26:29.000Z</time>
      </trkpt>
      <trkpt lon="35.333463214337826" lat="31.32428141310811">
        <ele>136.60000610351562</ele>
        <time>2014-02-07T10:26:43.000Z</time>
      </trkpt>
      <trkpt lon="35.33340177498758" lat="31.324413260445">
        <ele>137.1999969482422</ele>
        <time>2014-02-07T10:26:52.000Z</time>
      </trkpt>
      <trkpt lon="35.333283841609955" lat="31.324482578784227">
        <ele>138.0</ele>
        <time>2014-02-07T10:27:01.000Z</time>
      </trkpt>
      <trkpt lon="35.333116790279746" lat="31.32450956851244">
        <ele>140.39999389648438</ele>
        <time>2014-02-07T10:27:10.000Z</time>
      </trkpt>
      <trkpt lon="35.33289668150246" lat="31.32445684634149">
        <ele>143.8000030517578</ele>
        <time>2014-02-07T10:27:21.000Z</time>
      </trkpt>
      <trkpt lon="35.33276617527008" lat="31.32431753911078">
        <ele>147.1999969482422</ele>
        <time>2014-02-07T10:27:30.000Z</time>
      </trkpt>
      <trkpt lon="35.33269467763603" lat="31.324145374819636">
        <ele>149.60000610351562</ele>
        <time>2014-02-07T10:27:41.000Z</time>
      </trkpt>
      <trkpt lon="35.33274471759796" lat="31.323925517499447">
        <ele>153.0</ele>
        <time>2014-02-07T10:27:54.000Z</time>
      </trkpt>
      <trkpt lon="35.33278503455222" lat="31.323808003216982">
        <ele>154.39999389648438</ele>
        <time>2014-02-07T10:28:02.000Z</time>
      </trkpt>
      <trkpt lon="35.33284203149378" lat="31.323645478114486">
        <ele>156.8000030517578</ele>
        <time>2014-02-07T10:28:13.000Z</time>
      </trkpt>
      <trkpt lon="35.33288444392383" lat="31.3235030695796">
        <ele>158.1999969482422</ele>
        <time>2014-02-07T10:28:23.000Z</time>
      </trkpt>
      <trkpt lon="35.33292048610747" lat="31.323323445394635">
        <ele>159.1999969482422</ele>
        <time>2014-02-07T10:28:35.000Z</time>
      </trkpt>
      <trkpt lon="35.33293331041932" lat="31.32315706461668">
        <ele>161.1999969482422</ele>
        <time>2014-02-07T10:28:46.000Z</time>
      </trkpt>
      <trkpt lon="35.33293037675321" lat="31.322974171489477">
        <ele>164.0</ele>
        <time>2014-02-07T10:28:58.000Z</time>
      </trkpt>
      <trkpt lon="35.332921240478754" lat="31.32282430306077">
        <ele>167.0</ele>
        <time>2014-02-07T10:29:08.000Z</time>
      </trkpt>
      <trkpt lon="35.33288008533418" lat="31.322623724117875">
        <ele>170.1999969482422</ele>
        <time>2014-02-07T10:29:21.000Z</time>
      </trkpt>
      <trkpt lon="35.3328444622457" lat="31.322490200400352">
        <ele>172.60000610351562</ele>
        <time>2014-02-07T10:29:30.000Z</time>
      </trkpt>
      <trkpt lon="35.332795260474086" lat="31.322347708046436">
        <ele>174.60000610351562</ele>
        <time>2014-02-07T10:29:40.000Z</time>
      </trkpt>
      <trkpt lon="35.33273063600063" lat="31.32217353209853">
        <ele>176.60000610351562</ele>
        <time>2014-02-07T10:29:52.000Z</time>
      </trkpt>
      <trkpt lon="35.33268813975155" lat="31.322049479931593">
        <ele>177.60000610351562</ele>
        <time>2014-02-07T10:30:01.000Z</time>
      </trkpt>
      <trkpt lon="35.332634495571256" lat="31.321898605674505">
        <ele>179.8000030517578</ele>
        <time>2014-02-07T10:30:11.000Z</time>
      </trkpt>
      <trkpt lon="35.332624185830355" lat="31.32179089821875">
        <ele>181.39999389648438</ele>
        <time>2014-02-07T10:30:19.000Z</time>
      </trkpt>
      <trkpt lon="35.332587976008654" lat="31.321684448048472">
        <ele>182.39999389648438</ele>
        <time>2014-02-07T10:30:27.000Z</time>
      </trkpt>
      <trkpt lon="35.332545479759574" lat="31.321530221030116">
        <ele>183.1999969482422</ele>
        <time>2014-02-07T10:30:38.000Z</time>
      </trkpt>
      <trkpt lon="35.3324837051332" lat="31.321394182741642">
        <ele>183.8000030517578</ele>
        <time>2014-02-07T10:30:48.000Z</time>
      </trkpt>
      <trkpt lon="35.33245101571083" lat="31.321250600740314">
        <ele>183.8000030517578</ele>
        <time>2014-02-07T10:30:58.000Z</time>
      </trkpt>
      <trkpt lon="35.332422349601984" lat="31.32114188745618">
        <ele>183.8000030517578</ele>
        <time>2014-02-07T10:31:06.000Z</time>
      </trkpt>
      <trkpt lon="35.33240960910916" lat="31.32100023329258">
        <ele>185.1999969482422</ele>
        <time>2014-02-07T10:31:16.000Z</time>
      </trkpt>
      <trkpt lon="35.33241664990783" lat="31.320861848071218">
        <ele>186.1999969482422</ele>
        <time>2014-02-07T10:31:25.000Z</time>
      </trkpt>
      <trkpt lon="35.3324353415519" lat="31.32069680839777">
        <ele>188.0</ele>
        <time>2014-02-07T10:31:36.000Z</time>
      </trkpt>
      <trkpt lon="35.3324472438544" lat="31.320561105385423">
        <ele>189.60000610351562</ele>
        <time>2014-02-07T10:31:45.000Z</time>
      </trkpt>
      <trkpt lon="35.3324559610337" lat="31.320382235571742">
        <ele>191.39999389648438</ele>
        <time>2014-02-07T10:31:57.000Z</time>
      </trkpt>
      <trkpt lon="35.33246015198529" lat="31.320258267223835">
        <ele>192.39999389648438</ele>
        <time>2014-02-07T10:32:05.000Z</time>
      </trkpt>
      <trkpt lon="35.332474736496806" lat="31.320112757384777">
        <ele>193.8000030517578</ele>
        <time>2014-02-07T10:32:14.000Z</time>
      </trkpt>
      <trkpt lon="35.33248286694288" lat="31.319955680519342">
        <ele>195.1999969482422</ele>
        <time>2014-02-07T10:32:24.000Z</time>
      </trkpt>
      <trkpt lon="35.33247699961066" lat="31.319753425195813">
        <ele>197.60000610351562</ele>
        <time>2014-02-07T10:32:37.000Z</time>
      </trkpt>
      <trkpt lon="35.33245000988245" lat="31.319592827931046">
        <ele>199.60000610351562</ele>
        <time>2014-02-07T10:32:47.000Z</time>
      </trkpt>
      <trkpt lon="35.33237608149648" lat="31.319457544013858">
        <ele>201.0</ele>
        <time>2014-02-07T10:32:57.000Z</time>
      </trkpt>
      <trkpt lon="35.332318833097816" lat="31.319359559565783">
        <ele>202.39999389648438</ele>
        <time>2014-02-07T10:33:04.000Z</time>
      </trkpt>
      <trkpt lon="35.332314893603325" lat="31.31934631615877">
        <ele>202.39999389648438</ele>
        <time>2014-02-07T10:33:05.000Z</time>
      </trkpt>
      <trkpt lon="35.332238115370274" lat="31.319211283698678">
        <ele>204.39999389648438</ele>
        <time>2014-02-07T10:33:15.000Z</time>
      </trkpt>
      <trkpt lon="35.33216125331819" lat="31.31909410469234">
        <ele>206.8000030517578</ele>
        <time>2014-02-07T10:33:24.000Z</time>
      </trkpt>
      <trkpt lon="35.3320970479399" lat="31.318992767482996">
        <ele>207.8000030517578</ele>
        <time>2014-02-07T10:33:32.000Z</time>
      </trkpt>
      <trkpt lon="35.33204541541636" lat="31.31889478303492">
        <ele>208.8000030517578</ele>
        <time>2014-02-07T10:33:40.000Z</time>
      </trkpt>
      <trkpt lon="35.332025969401" lat="31.31884155794978">
        <ele>208.1999969482422</ele>
        <time>2014-02-07T10:33:44.000Z</time>
      </trkpt>
      <trkpt lon="35.33202798105776" lat="31.31882973946631">
        <ele>208.1999969482422</ele>
        <time>2014-02-07T10:33:45.000Z</time>
      </trkpt>
      <trkpt lon="35.33203166909516" lat="31.31881507113576">
        <ele>207.8000030517578</ele>
        <time>2014-02-07T10:33:46.000Z</time>
      </trkpt>
      <trkpt lon="35.33203460276127" lat="31.318801073357463">
        <ele>207.8000030517578</ele>
        <time>2014-02-07T10:33:47.000Z</time>
      </trkpt>
      <trkpt lon="35.33203518949449" lat="31.318789087235928">
        <ele>207.8000030517578</ele>
        <time>2014-02-07T10:33:48.000Z</time>
      </trkpt>
      <trkpt lon="35.332029489800334" lat="31.318774838000536">
        <ele>207.8000030517578</ele>
        <time>2014-02-07T10:33:49.000Z</time>
      </trkpt>
      <trkpt lon="35.33202496357262" lat="31.318761510774493">
        <ele>207.39999389648438</ele>
        <time>2014-02-07T10:33:50.000Z</time>
      </trkpt>
      <trkpt lon="35.3320209402591" lat="31.318746926262975">
        <ele>207.39999389648438</ele>
        <time>2014-02-07T10:33:51.000Z</time>
      </trkpt>
      <trkpt lon="35.33201205544174" lat="31.31871197372675">
        <ele>205.8000030517578</ele>
        <time>2014-02-07T10:33:58.000Z</time>
      </trkpt>
      <trkpt lon="35.33199378289282" lat="31.318719936534762">
        <ele>204.39999389648438</ele>
        <time>2014-02-07T10:34:15.000Z</time>
      </trkpt>
      <trkpt lon="35.33200811594725" lat="31.318728318437934">
        <ele>206.39999389648438</ele>
        <time>2014-02-07T10:34:42.000Z</time>
      </trkpt>
      <trkpt lon="35.331998225301504" lat="31.31871297955513">
        <ele>207.39999389648438</ele>
        <time>2014-02-07T10:34:49.000Z</time>
      </trkpt>
      <trkpt lon="35.331986071541905" lat="31.318662520498037">
        <ele>207.8000030517578</ele>
        <time>2014-02-07T10:34:56.000Z</time>
      </trkpt>
      <trkpt lon="35.331975845620036" lat="31.318649360910058">
        <ele>207.8000030517578</ele>
        <time>2014-02-07T10:34:57.000Z</time>
      </trkpt>
      <trkpt lon="35.33196251839399" lat="31.318640392273664">
        <ele>207.8000030517578</ele>
        <time>2014-02-07T10:34:58.000Z</time>
      </trkpt>
      <trkpt lon="35.33186595886946" lat="31.318543162196875">
        <ele>207.8000030517578</ele>
        <time>2014-02-07T10:35:06.000Z</time>
      </trkpt>
      <trkpt lon="35.33179052174091" lat="31.31833235733211">
        <ele>209.60000610351562</ele>
        <time>2014-02-07T10:35:17.000Z</time>
      </trkpt>
      <trkpt lon="35.33172774128616" lat="31.318202689290047">
        <ele>210.60000610351562</ele>
        <time>2014-02-07T10:35:25.000Z</time>
      </trkpt>
      <trkpt lon="35.33172355033457" lat="31.318187518045306">
        <ele>210.60000610351562</ele>
        <time>2014-02-07T10:35:26.000Z</time>
      </trkpt>
      <trkpt lon="35.331715838983655" lat="31.31817259825766">
        <ele>210.60000610351562</ele>
        <time>2014-02-07T10:35:27.000Z</time>
      </trkpt>
      <trkpt lon="35.331704607233405" lat="31.318159271031618">
        <ele>210.60000610351562</ele>
        <time>2014-02-07T10:35:28.000Z</time>
      </trkpt>
      <trkpt lon="35.33169521950185" lat="31.31814368069172">
        <ele>211.1999969482422</ele>
        <time>2014-02-07T10:35:29.000Z</time>
      </trkpt>
      <trkpt lon="35.33168616704643" lat="31.318126246333122">
        <ele>211.1999969482422</ele>
        <time>2014-02-07T10:35:30.000Z</time>
      </trkpt>
      <trkpt lon="35.33167602494359" lat="31.31811048835516">
        <ele>211.1999969482422</ele>
        <time>2014-02-07T10:35:31.000Z</time>
      </trkpt>
      <trkpt lon="35.33166613429785" lat="31.31809732876718">
        <ele>211.1999969482422</ele>
        <time>2014-02-07T10:35:32.000Z</time>
      </trkpt>
      <trkpt lon="35.33165641129017" lat="31.318084336817265">
        <ele>211.60000610351562</ele>
        <time>2014-02-07T10:35:33.000Z</time>
      </trkpt>
      <trkpt lon="35.33153906464577" lat="31.318031447008252">
        <ele>212.60000610351562</ele>
        <time>2014-02-07T10:35:40.000Z</time>
      </trkpt>
      <trkpt lon="35.33134426921606" lat="31.318032955750823">
        <ele>214.0</ele>
        <time>2014-02-07T10:35:50.000Z</time>
      </trkpt>
      <trkpt lon="35.331175960600376" lat="31.31811677478254">
        <ele>215.0</ele>
        <time>2014-02-07T10:36:00.000Z</time>
      </trkpt>
      <trkpt lon="35.33108769915998" lat="31.318263793364167">
        <ele>216.39999389648438</ele>
        <time>2014-02-07T10:36:10.000Z</time>
      </trkpt>
      <trkpt lon="35.33113840967417" lat="31.31845942698419">
        <ele>211.1999969482422</ele>
        <time>2014-02-07T10:36:19.000Z</time>
      </trkpt>
      <trkpt lon="35.33122549764812" lat="31.31857417523861">
        <ele>209.60000610351562</ele>
        <time>2014-02-07T10:36:28.000Z</time>
      </trkpt>
      <trkpt lon="35.331361619755626" lat="31.318698227405548">
        <ele>211.1999969482422</ele>
        <time>2014-02-07T10:36:38.000Z</time>
      </trkpt>
      <trkpt lon="35.33148994669318" lat="31.31879361346364">
        <ele>213.60000610351562</ele>
        <time>2014-02-07T10:36:47.000Z</time>
      </trkpt>
      <trkpt lon="35.331613160669804" lat="31.31889771670103">
        <ele>216.0</ele>
        <time>2014-02-07T10:36:56.000Z</time>
      </trkpt>
      <trkpt lon="35.331707959994674" lat="31.31898757070303">
        <ele>216.39999389648438</ele>
        <time>2014-02-07T10:37:04.000Z</time>
      </trkpt>
      <trkpt lon="35.331790605559945" lat="31.31910240277648">
        <ele>217.0</ele>
        <time>2014-02-07T10:37:13.000Z</time>
      </trkpt>
      <trkpt lon="35.331850703805685" lat="31.31924891844392">
        <ele>217.8000030517578</ele>
        <time>2014-02-07T10:37:23.000Z</time>
      </trkpt>
      <trkpt lon="35.331894708797336" lat="31.3193241879344">
        <ele>219.39999389648438</ele>
        <time>2014-02-07T10:37:31.000Z</time>
      </trkpt>
      <trkpt lon="35.331914154812694" lat="31.31932125426829">
        <ele>220.1999969482422</ele>
        <time>2014-02-07T10:37:41.000Z</time>
      </trkpt>
      <trkpt lon="35.33190652728081" lat="31.319332905113697">
        <ele>220.1999969482422</ele>
        <time>2014-02-07T10:38:02.000Z</time>
      </trkpt>
      <trkpt lon="35.331890350207686" lat="31.319332653656602">
        <ele>220.1999969482422</ele>
        <time>2014-02-07T10:38:26.000Z</time>
      </trkpt>
      <trkpt lon="35.33186914399266" lat="31.319371964782476">
        <ele>219.8000030517578</ele>
        <time>2014-02-07T10:38:32.000Z</time>
      </trkpt>
      <trkpt lon="35.33186906017363" lat="31.319385711103678">
        <ele>219.8000030517578</ele>
        <time>2014-02-07T10:38:33.000Z</time>
      </trkpt>
      <trkpt lon="35.33187358640134" lat="31.3193984515965">
        <ele>219.8000030517578</ele>
        <time>2014-02-07T10:38:34.000Z</time>
      </trkpt>
      <trkpt lon="35.331886829808354" lat="31.319408006966114">
        <ele>219.8000030517578</ele>
        <time>2014-02-07T10:38:35.000Z</time>
      </trkpt>
      <trkpt lon="35.33189722336829" lat="31.31941705942154">
        <ele>219.8000030517578</ele>
        <time>2014-02-07T10:38:36.000Z</time>
      </trkpt>
      <trkpt lon="35.33190476708114" lat="31.31942636333406">
        <ele>219.8000030517578</ele>
        <time>2014-02-07T10:38:37.000Z</time>
      </trkpt>
      <trkpt lon="35.331908874213696" lat="31.319438768550754">
        <ele>219.8000030517578</ele>
        <time>2014-02-07T10:38:38.000Z</time>
      </trkpt>
      <trkpt lon="35.33191147260368" lat="31.319453353062272">
        <ele>219.8000030517578</ele>
        <time>2014-02-07T10:38:39.000Z</time>
      </trkpt>
      <trkpt lon="35.33192555420101" lat="31.319567849859595">
        <ele>220.1999969482422</ele>
        <time>2014-02-07T10:38:47.000Z</time>
      </trkpt>
      <trkpt lon="35.331917088478804" lat="31.3197333086282">
        <ele>221.8000030517578</ele>
        <time>2014-02-07T10:38:57.000Z</time>
      </trkpt>
      <trkpt lon="35.33188917674124" lat="31.319870688021183">
        <ele>222.60000610351562</ele>
        <time>2014-02-07T10:39:06.000Z</time>
      </trkpt>
      <trkpt lon="35.331833101809025" lat="31.320018460974097">
        <ele>225.60000610351562</ele>
        <time>2014-02-07T10:39:17.000Z</time>
      </trkpt>
      <trkpt lon="35.33173318952322" lat="31.320136729627848">
        <ele>228.39999389648438</ele>
        <time>2014-02-07T10:39:27.000Z</time>
      </trkpt>
      <trkpt lon="35.33163730055094" lat="31.320228846743703">
        <ele>229.39999389648438</ele>
        <time>2014-02-07T10:39:35.000Z</time>
      </trkpt>
      <trkpt lon="35.33148902468383" lat="31.320344181731343">
        <ele>230.8000030517578</ele>
        <time>2014-02-07T10:39:45.000Z</time>
      </trkpt>
      <trkpt lon="35.33136178739369" lat="31.320424815639853">
        <ele>230.39999389648438</ele>
        <time>2014-02-07T10:39:53.000Z</time>
      </trkpt>
      <trkpt lon="35.331213092431426" lat="31.320474352687597">
        <ele>231.8000030517578</ele>
        <time>2014-02-07T10:40:01.000Z</time>
      </trkpt>
      <trkpt lon="35.331024415791035" lat="31.32053612731397">
        <ele>231.8000030517578</ele>
        <time>2014-02-07T10:40:12.000Z</time>
      </trkpt>
      <trkpt lon="35.33087136223912" lat="31.320551466196775">
        <ele>232.39999389648438</ele>
        <time>2014-02-07T10:40:20.000Z</time>
      </trkpt>
      <trkpt lon="35.33067497424781" lat="31.320566721260548">
        <ele>233.1999969482422</ele>
        <time>2014-02-07T10:40:31.000Z</time>
      </trkpt>
      <trkpt lon="35.3305081743747" lat="31.320633608847857">
        <ele>236.60000610351562</ele>
        <time>2014-02-07T10:40:41.000Z</time>
      </trkpt>
      <trkpt lon="35.33031991682947" lat="31.320657832548022">
        <ele>237.60000610351562</ele>
        <time>2014-02-07T10:40:50.000Z</time>
      </trkpt>
      <trkpt lon="35.33015152439475" lat="31.320680966600776">
        <ele>238.0</ele>
        <time>2014-02-07T10:40:57.000Z</time>
      </trkpt>
      <trkpt lon="35.32978900708258" lat="31.320729246363044">
        <ele>238.60000610351562</ele>
        <time>2014-02-07T10:41:06.000Z</time>
      </trkpt>
      <trkpt lon="35.32945171929896" lat="31.320785405114293">
        <ele>239.60000610351562</ele>
        <time>2014-02-07T10:41:15.000Z</time>
      </trkpt>
      <trkpt lon="35.32909892499447" lat="31.32083703763783">
        <ele>242.0</ele>
        <time>2014-02-07T10:41:25.000Z</time>
      </trkpt>
      <trkpt lon="35.32878854312003" lat="31.32090493105352">
        <ele>244.39999389648438</ele>
        <time>2014-02-07T10:41:35.000Z</time>
      </trkpt>
      <trkpt lon="35.3284031432122" lat="31.321025546640158">
        <ele>244.8000030517578</ele>
        <time>2014-02-07T10:41:46.000Z</time>
      </trkpt>
      <trkpt lon="35.327991005033255" lat="31.321191424503922">
        <ele>245.8000030517578</ele>
        <time>2014-02-07T10:41:57.000Z</time>
      </trkpt>
      <trkpt lon="35.327599653974175" lat="31.32138672284782">
        <ele>246.8000030517578</ele>
        <time>2014-02-07T10:42:07.000Z</time>
      </trkpt>
      <trkpt lon="35.3273325227201" lat="31.32148546166718">
        <ele>248.60000610351562</ele>
        <time>2014-02-07T10:42:17.000Z</time>
      </trkpt>
      <trkpt lon="35.327014261856675" lat="31.32160808891058">
        <ele>250.60000610351562</ele>
        <time>2014-02-07T10:42:27.000Z</time>
      </trkpt>
      <trkpt lon="35.32675500959158" lat="31.321680760011077">
        <ele>252.0</ele>
        <time>2014-02-07T10:42:36.000Z</time>
      </trkpt>
      <trkpt lon="35.326427863910794" lat="31.32180699147284">
        <ele>251.60000610351562</ele>
        <time>2014-02-07T10:42:46.000Z</time>
      </trkpt>
      <trkpt lon="35.3261236846447" lat="31.321961721405387">
        <ele>250.0</ele>
        <time>2014-02-07T10:42:53.000Z</time>
      </trkpt>
      <trkpt lon="35.325872395187616" lat="31.322119887918234">
        <ele>251.0</ele>
        <time>2014-02-07T10:43:00.000Z</time>
      </trkpt>
      <trkpt lon="35.325615741312504" lat="31.322248466312885">
        <ele>251.60000610351562</ele>
        <time>2014-02-07T10:43:10.000Z</time>
      </trkpt>
      <trkpt lon="35.32533654011786" lat="31.322387689724565">
        <ele>251.60000610351562</ele>
        <time>2014-02-07T10:43:20.000Z</time>
      </trkpt>
      <trkpt lon="35.3250684030354" lat="31.322514843195677">
        <ele>251.60000610351562</ele>
        <time>2014-02-07T10:43:27.000Z</time>
      </trkpt>
      <trkpt lon="35.32466229982674" lat="31.32269195280969">
        <ele>253.39999389648438</ele>
        <time>2014-02-07T10:43:37.000Z</time>
      </trkpt>
      <trkpt lon="35.32437823712826" lat="31.322749285027385">
        <ele>254.0</ele>
        <time>2014-02-07T10:43:45.000Z</time>
      </trkpt>
      <trkpt lon="35.3241204097867" lat="31.322708381339908">
        <ele>255.8000030517578</ele>
        <time>2014-02-07T10:43:53.000Z</time>
      </trkpt>
      <trkpt lon="35.32389803789556" lat="31.322673680260777">
        <ele>257.20001220703125</ele>
        <time>2014-02-07T10:44:02.000Z</time>
      </trkpt>
      <trkpt lon="35.32358924858272" lat="31.32261760532856">
        <ele>257.79998779296875</ele>
        <time>2014-02-07T10:44:11.000Z</time>
      </trkpt>
      <trkpt lon="35.32342789694667" lat="31.32254770025611">
        <ele>261.6000061035156</ele>
        <time>2014-02-07T10:44:20.000Z</time>
      </trkpt>
      <trkpt lon="35.323304599151015" lat="31.322543928399682">
        <ele>265.3999938964844</ele>
        <time>2014-02-07T10:44:28.000Z</time>
      </trkpt>
      <trkpt lon="35.32319965772331" lat="31.32262925617397">
        <ele>266.79998779296875</ele>
        <time>2014-02-07T10:44:37.000Z</time>
      </trkpt>
      <trkpt lon="35.32312665134668" lat="31.322728917002678">
        <ele>266.3999938964844</ele>
        <time>2014-02-07T10:44:46.000Z</time>
      </trkpt>
      <trkpt lon="35.323044173419476" lat="31.32281206548214">
        <ele>265.3999938964844</ele>
        <time>2014-02-07T10:44:54.000Z</time>
      </trkpt>
      <trkpt lon="35.322926910594106" lat="31.322899404913187">
        <ele>264.6000061035156</ele>
        <time>2014-02-07T10:45:03.000Z</time>
      </trkpt>
      <trkpt lon="35.322817862033844" lat="31.322978530079126">
        <ele>264.6000061035156</ele>
        <time>2014-02-07T10:45:12.000Z</time>
      </trkpt>
      <trkpt lon="35.322703532874584" lat="31.32305497303605">
        <ele>265.0</ele>
        <time>2014-02-07T10:45:21.000Z</time>
      </trkpt>
      <trkpt lon="35.322589203715324" lat="31.323117166757584">
        <ele>266.0</ele>
        <time>2014-02-07T10:45:30.000Z</time>
      </trkpt>
      <trkpt lon="35.322472443804145" lat="31.323175420984626">
        <ele>267.3999938964844</ele>
        <time>2014-02-07T10:45:39.000Z</time>
      </trkpt>
      <trkpt lon="35.322308242321014" lat="31.323239039629698">
        <ele>268.79998779296875</ele>
        <time>2014-02-07T10:45:51.000Z</time>
      </trkpt>
      <trkpt lon="35.3221623133868" lat="31.32324348203838">
        <ele>270.79998779296875</ele>
        <time>2014-02-07T10:46:00.000Z</time>
      </trkpt>
      <trkpt lon="35.32199769280851" lat="31.32324499078095">
        <ele>272.6000061035156</ele>
        <time>2014-02-07T10:46:10.000Z</time>
      </trkpt>
      <trkpt lon="35.321811363101006" lat="31.32325764745474">
        <ele>274.6000061035156</ele>
        <time>2014-02-07T10:46:22.000Z</time>
      </trkpt>
      <trkpt lon="35.32164833508432" lat="31.32328698411584">
        <ele>275.6000061035156</ele>
        <time>2014-02-07T10:46:31.000Z</time>
      </trkpt>
      <trkpt lon="35.321507854387164" lat="31.32331782951951">
        <ele>275.0</ele>
        <time>2014-02-07T10:46:38.000Z</time>
      </trkpt>
      <trkpt lon="35.321311047300696" lat="31.323320847004652">
        <ele>276.6000061035156</ele>
        <time>2014-02-07T10:46:48.000Z</time>
      </trkpt>
      <trkpt lon="35.32117039896548" lat="31.32325127720833">
        <ele>278.0</ele>
        <time>2014-02-07T10:46:55.000Z</time>
      </trkpt>
      <trkpt lon="35.3209896851331" lat="31.323118591681123">
        <ele>277.0</ele>
        <time>2014-02-07T10:47:01.000Z</time>
      </trkpt>
      <trkpt lon="35.32070235349238" lat="31.32291273213923">
        <ele>276.6000061035156</ele>
        <time>2014-02-07T10:47:07.000Z</time>
      </trkpt>
      <trkpt lon="35.32035634852946" lat="31.32259514182806">
        <ele>275.0</ele>
        <time>2014-02-07T10:47:13.000Z</time>
      </trkpt>
      <trkpt lon="35.3200710285455" lat="31.322377966716886">
        <ele>273.20001220703125</ele>
        <time>2014-02-07T10:47:17.000Z</time>
      </trkpt>
      <trkpt lon="35.319992657750845" lat="31.32235030643642">
        <ele>273.20001220703125</ele>
        <time>2014-02-07T10:47:18.000Z</time>
      </trkpt>
      <trkpt lon="35.31990406103432" lat="31.32233865559101">
        <ele>272.6000061035156</ele>
        <time>2014-02-07T10:47:19.000Z</time>
      </trkpt>
      <trkpt lon="35.31981320120394" lat="31.322345277294517">
        <ele>272.20001220703125</ele>
        <time>2014-02-07T10:47:20.000Z</time>
      </trkpt>
      <trkpt lon="35.319723850116134" lat="31.322364304214716">
        <ele>272.20001220703125</ele>
        <time>2014-02-07T10:47:21.000Z</time>
      </trkpt>
      <trkpt lon="35.319633493199944" lat="31.322398083284497">
        <ele>271.79998779296875</ele>
        <time>2014-02-07T10:47:22.000Z</time>
      </trkpt>
      <trkpt lon="35.31954875215888" lat="31.322439573705196">
        <ele>271.20001220703125</ele>
        <time>2014-02-07T10:47:23.000Z</time>
      </trkpt>
      <trkpt lon="35.31947054900229" lat="31.322484416887164">
        <ele>270.79998779296875</ele>
        <time>2014-02-07T10:47:24.000Z</time>
      </trkpt>
      <trkpt lon="35.31940500251949" lat="31.322533953934908">
        <ele>271.20001220703125</ele>
        <time>2014-02-07T10:47:25.000Z</time>
      </trkpt>
      <trkpt lon="35.319359907880425" lat="31.322587514296174">
        <ele>271.20001220703125</ele>
        <time>2014-02-07T10:47:26.000Z</time>
      </trkpt>
      <trkpt lon="35.31932604499161" lat="31.322636799886823">
        <ele>271.79998779296875</ele>
        <time>2014-02-07T10:47:27.000Z</time>
      </trkpt>
      <trkpt lon="35.31930232420564" lat="31.322680553421378">
        <ele>272.20001220703125</ele>
        <time>2014-02-07T10:47:28.000Z</time>
      </trkpt>
      <trkpt lon="35.31928229145706" lat="31.322717433795333">
        <ele>273.20001220703125</ele>
        <time>2014-02-07T10:47:29.000Z</time>
      </trkpt>
      <trkpt lon="35.319182546809316" lat="31.322850454598665">
        <ele>274.20001220703125</ele>
        <time>2014-02-07T10:47:35.000Z</time>
      </trkpt>
      <trkpt lon="35.31908833421767" lat="31.32299965247512">
        <ele>275.6000061035156</ele>
        <time>2014-02-07T10:47:45.000Z</time>
      </trkpt>
      <trkpt lon="35.31900686211884" lat="31.32310777902603">
        <ele>277.0</ele>
        <time>2014-02-07T10:47:54.000Z</time>
      </trkpt>
      <trkpt lon="35.31892924569547" lat="31.323203835636377">
        <ele>277.3999938964844</ele>
        <time>2014-02-07T10:48:03.000Z</time>
      </trkpt>
      <trkpt lon="35.318812569603324" lat="31.32337549701333">
        <ele>279.79998779296875</ele>
        <time>2014-02-07T10:48:16.000Z</time>
      </trkpt>
      <trkpt lon="35.318716848269105" lat="31.323504745960236">
        <ele>281.79998779296875</ele>
        <time>2014-02-07T10:48:26.000Z</time>
      </trkpt>
      <trkpt lon="35.31862246803939" lat="31.323629468679428">
        <ele>283.79998779296875</ele>
        <time>2014-02-07T10:48:37.000Z</time>
      </trkpt>
      <trkpt lon="35.318619115278125" lat="31.323639443144202">
        <ele>284.20001220703125</ele>
        <time>2014-02-07T10:48:38.000Z</time>
      </trkpt>
      <trkpt lon="35.31861559487879" lat="31.32364958524704">
        <ele>284.20001220703125</ele>
        <time>2014-02-07T10:48:39.000Z</time>
      </trkpt>
      <trkpt lon="35.31856161542237" lat="31.32371756248176">
        <ele>285.6000061035156</ele>
        <time>2014-02-07T10:48:46.000Z</time>
      </trkpt>
      <trkpt lon="35.31846488825977" lat="31.323810517787933">
        <ele>288.0</ele>
        <time>2014-02-07T10:48:56.000Z</time>
      </trkpt>
      <trkpt lon="35.31833949498832" lat="31.323896516114473">
        <ele>288.6000061035156</ele>
        <time>2014-02-07T10:49:06.000Z</time>
      </trkpt>
      <trkpt lon="35.318186692893505" lat="31.323992237448692">
        <ele>290.0</ele>
        <time>2014-02-07T10:49:16.000Z</time>
      </trkpt>
      <trkpt lon="35.318007906898856" lat="31.32408108562231">
        <ele>290.0</ele>
        <time>2014-02-07T10:49:27.000Z</time>
      </trkpt>
      <trkpt lon="35.31784596852958" lat="31.32414696738124">
        <ele>291.0</ele>
        <time>2014-02-07T10:49:36.000Z</time>
      </trkpt>
      <trkpt lon="35.31762979924679" lat="31.324264565482736">
        <ele>291.79998779296875</ele>
        <time>2014-02-07T10:49:48.000Z</time>
      </trkpt>
      <trkpt lon="35.31745512038469" lat="31.324377553537488">
        <ele>292.3999938964844</ele>
        <time>2014-02-07T10:49:55.000Z</time>
      </trkpt>
      <trkpt lon="35.31718857586384" lat="31.324513256549835">
        <ele>293.79998779296875</ele>
        <time>2014-02-07T10:50:05.000Z</time>
      </trkpt>
      <trkpt lon="35.3170386236161" lat="31.324596237391233">
        <ele>295.20001220703125</ele>
        <time>2014-02-07T10:50:14.000Z</time>
      </trkpt>
      <trkpt lon="35.316863022744656" lat="31.32468005642295">
        <ele>298.20001220703125</ele>
        <time>2014-02-07T10:50:25.000Z</time>
      </trkpt>
      <trkpt lon="35.31672396697104" lat="31.324758175760508">
        <ele>299.20001220703125</ele>
        <time>2014-02-07T10:50:36.000Z</time>
      </trkpt>
      <trkpt lon="35.31658264808357" lat="31.324784494936466">
        <ele>299.20001220703125</ele>
        <time>2014-02-07T10:50:44.000Z</time>
      </trkpt>
      <trkpt lon="35.31639363616705" lat="31.324801091104746">
        <ele>299.20001220703125</ele>
        <time>2014-02-07T10:50:52.000Z</time>
      </trkpt>
      <trkpt lon="35.316017121076584" lat="31.324825901538134">
        <ele>297.6000061035156</ele>
        <time>2014-02-07T10:50:59.000Z</time>
      </trkpt>
      <trkpt lon="35.31568528153002" lat="31.324843000620604">
        <ele>299.20001220703125</ele>
        <time>2014-02-07T10:51:06.000Z</time>
      </trkpt>
      <trkpt lon="35.315405074507" lat="31.32486093789339">
        <ele>300.0</ele>
        <time>2014-02-07T10:51:14.000Z</time>
      </trkpt>
      <trkpt lon="35.31501045450568" lat="31.324924137443304">
        <ele>300.0</ele>
        <time>2014-02-07T10:51:22.000Z</time>
      </trkpt>
      <trkpt lon="35.31461415812373" lat="31.32505875080824">
        <ele>301.0</ele>
        <time>2014-02-07T10:51:29.000Z</time>
      </trkpt>
      <trkpt lon="35.31444174237549" lat="31.32511205971241">
        <ele>303.3999938964844</ele>
        <time>2014-02-07T10:51:36.000Z</time>
      </trkpt>
      <trkpt lon="35.31427636742592" lat="31.32518439553678">
        <ele>306.3999938964844</ele>
        <time>2014-02-07T10:51:46.000Z</time>
      </trkpt>
      <trkpt lon="35.31422624364495" lat="31.325203087180853">
        <ele>307.79998779296875</ele>
        <time>2014-02-07T10:51:54.000Z</time>
      </trkpt>
      <trkpt lon="35.314256586134434" lat="31.325200237333775">
        <ele>307.20001220703125</ele>
        <time>2014-02-07T10:52:20.000Z</time>
      </trkpt>
      <trkpt lon="35.31426069326699" lat="31.325195794925094">
        <ele>305.79998779296875</ele>
        <time>2014-02-07T10:52:45.000Z</time>
      </trkpt>
      <trkpt lon="35.314255664125085" lat="31.325190011411905">
        <ele>304.3999938964844</ele>
        <time>2014-02-07T10:53:07.000Z</time>
      </trkpt>
      <trkpt lon="35.314270835369825" lat="31.325193950906396">
        <ele>302.3999938964844</ele>
        <time>2014-02-07T10:53:31.000Z</time>
      </trkpt>
      <trkpt lon="35.314267901703715" lat="31.325194872915745">
        <ele>302.3999938964844</ele>
        <time>2014-02-07T10:53:50.000Z</time>
      </trkpt>
      <trkpt lon="35.31426270492375" lat="31.32518439553678">
        <ele>304.79998779296875</ele>
        <time>2014-02-07T10:54:16.000Z</time>
      </trkpt>
      <trkpt lon="35.31425340101123" lat="31.325190849602222">
        <ele>305.3999938964844</ele>
        <time>2014-02-07T10:54:38.000Z</time>
      </trkpt>
      <trkpt lon="35.31425868161023" lat="31.325199147686362">
        <ele>305.3999938964844</ele>
        <time>2014-02-07T10:55:02.000Z</time>
      </trkpt>
      <trkpt lon="35.314256669953465" lat="31.325212474912405">
        <ele>304.79998779296875</ele>
        <time>2014-02-07T10:55:23.000Z</time>
      </trkpt>
      <trkpt lon="35.31425725668669" lat="31.325214067474008">
        <ele>304.79998779296875</ele>
        <time>2014-02-07T10:55:51.000Z</time>
      </trkpt>
      <trkpt lon="35.3142533171922" lat="31.32519755512476">
        <ele>304.79998779296875</ele>
        <time>2014-02-07T10:56:08.000Z</time>
      </trkpt>
      <trkpt lon="35.31425876542926" lat="31.325195040553808">
        <ele>305.3999938964844</ele>
        <time>2014-02-07T10:56:26.000Z</time>
      </trkpt>
      <trkpt lon="35.314232194796205" lat="31.325185149908066">
        <ele>305.79998779296875</ele>
        <time>2014-02-07T10:56:31.000Z</time>
      </trkpt>
      <trkpt lon="35.31420964747667" lat="31.325175426900387">
        <ele>306.3999938964844</ele>
        <time>2014-02-07T10:56:33.000Z</time>
      </trkpt>
      <trkpt lon="35.31419481150806" lat="31.325177438557148">
        <ele>306.79998779296875</ele>
        <time>2014-02-07T10:56:34.000Z</time>
      </trkpt>
      <trkpt lon="35.314180478453636" lat="31.325183724984527">
        <ele>306.79998779296875</ele>
        <time>2014-02-07T10:56:35.000Z</time>
      </trkpt>
      <trkpt lon="35.31403756700456" lat="31.325244577601552">
        <ele>308.20001220703125</ele>
        <time>2014-02-07T10:56:44.000Z</time>
      </trkpt>
      <trkpt lon="35.31385224312544" lat="31.32531037554145">
        <ele>309.20001220703125</ele>
        <time>2014-02-07T10:56:54.000Z</time>
      </trkpt>
      <trkpt lon="35.31371125951409" lat="31.325386064127088">
        <ele>310.6000061035156</ele>
        <time>2014-02-07T10:57:03.000Z</time>
      </trkpt>
      <trkpt lon="35.313534485176206" lat="31.325470134615898">
        <ele>312.0</ele>
        <time>2014-02-07T10:57:15.000Z</time>
      </trkpt>
      <trkpt lon="35.31353213824332" lat="31.325462590903044">
        <ele>313.0</ele>
        <time>2014-02-07T10:57:27.000Z</time>
      </trkpt>
      <trkpt lon="35.31352593563497" lat="31.325464602559805">
        <ele>313.0</ele>
        <time>2014-02-07T10:57:47.000Z</time>
      </trkpt>
      <trkpt lon="35.313523672521114" lat="31.32545060478151">
        <ele>313.6000061035156</ele>
        <time>2014-02-07T10:57:52.000Z</time>
      </trkpt>
      <trkpt lon="35.31345460563898" lat="31.325446162372828">
        <ele>314.3999938964844</ele>
        <time>2014-02-07T10:57:57.000Z</time>
      </trkpt>
      <trkpt lon="35.31327657401562" lat="31.325502656400204">
        <ele>315.0</ele>
        <time>2014-02-07T10:58:06.000Z</time>
      </trkpt>
      <trkpt lon="35.31304565258324" lat="31.32553031668067">
        <ele>316.3999938964844</ele>
        <time>2014-02-07T10:58:15.000Z</time>
      </trkpt>
      <trkpt lon="35.31282177194953" lat="31.325519420206547">
        <ele>317.3999938964844</ele>
        <time>2014-02-07T10:58:24.000Z</time>
      </trkpt>
      <trkpt lon="35.312549863010645" lat="31.325509613379836">
        <ele>318.79998779296875</ele>
        <time>2014-02-07T10:58:33.000Z</time>
      </trkpt>
      <trkpt lon="35.31224618665874" lat="31.32550936192274">
        <ele>320.20001220703125</ele>
        <time>2014-02-07T10:58:42.000Z</time>
      </trkpt>
      <trkpt lon="35.31187084503472" lat="31.3254873175174">
        <ele>322.6000061035156</ele>
        <time>2014-02-07T10:58:53.000Z</time>
      </trkpt>
      <trkpt lon="35.311542777344584" lat="31.32543015293777">
        <ele>324.20001220703125</ele>
        <time>2014-02-07T10:59:03.000Z</time>
      </trkpt>
      <trkpt lon="35.31126550398767" lat="31.325314566493034">
        <ele>325.6000061035156</ele>
        <time>2014-02-07T10:59:12.000Z</time>
      </trkpt>
      <trkpt lon="35.3111049067229" lat="31.325215073302388">
        <ele>328.0</ele>
        <time>2014-02-07T10:59:19.000Z</time>
      </trkpt>
      <trkpt lon="35.31092586927116" lat="31.325096217915416">
        <ele>329.0</ele>
        <time>2014-02-07T10:59:28.000Z</time>
      </trkpt>
      <trkpt lon="35.31070886179805" lat="31.324953893199563">
        <ele>329.79998779296875</ele>
        <time>2014-02-07T10:59:38.000Z</time>
      </trkpt>
      <trkpt lon="35.31044164672494" lat="31.324792625382543">
        <ele>330.79998779296875</ele>
        <time>2014-02-07T10:59:50.000Z</time>
      </trkpt>
      <trkpt lon="35.31020125374198" lat="31.32463906891644">
        <ele>332.20001220703125</ele>
        <time>2014-02-07T11:00:00.000Z</time>
      </trkpt>
      <trkpt lon="35.30994233675301" lat="31.324481992051005">
        <ele>334.6000061035156</ele>
        <time>2014-02-07T11:00:11.000Z</time>
      </trkpt>
      <trkpt lon="35.30974209308624" lat="31.324359364807606">
        <ele>337.6000061035156</ele>
        <time>2014-02-07T11:00:21.000Z</time>
      </trkpt>
      <trkpt lon="35.30958300456405" lat="31.324229361489415">
        <ele>339.3999938964844</ele>
        <time>2014-02-07T11:00:32.000Z</time>
      </trkpt>
      <trkpt lon="35.30948996543884" lat="31.324046971276402">
        <ele>339.3999938964844</ele>
        <time>2014-02-07T11:00:40.000Z</time>
      </trkpt>
      <trkpt lon="35.30946113169193" lat="31.323860976845026">
        <ele>338.6000061035156</ele>
        <time>2014-02-07T11:00:44.000Z</time>
      </trkpt>
      <trkpt lon="35.30947077088058" lat="31.323491418734193">
        <ele>334.6000061035156</ele>
        <time>2014-02-07T11:00:49.000Z</time>
      </trkpt>
      <trkpt lon="35.30949289910495" lat="31.322800582274795">
        <ele>332.79998779296875</ele>
        <time>2014-02-07T11:00:57.000Z</time>
      </trkpt>
      <trkpt lon="35.309481751173735" lat="31.322502102702856">
        <ele>335.6000061035156</ele>
        <time>2014-02-07T11:01:02.000Z</time>
      </trkpt>
      <trkpt lon="35.30946507118642" lat="31.322306469082832">
        <ele>336.20001220703125</ele>
        <time>2014-02-07T11:01:08.000Z</time>
      </trkpt>
      <trkpt lon="35.30943347141147" lat="31.321996673941612">
        <ele>336.20001220703125</ele>
        <time>2014-02-07T11:01:15.000Z</time>
      </trkpt>
      <trkpt lon="35.30939323827624" lat="31.321578919887543">
        <ele>336.6000061035156</ele>
        <time>2014-02-07T11:01:23.000Z</time>
      </trkpt>
      <trkpt lon="35.309387454763055" lat="31.32134917192161">
        <ele>338.0</ele>
        <time>2014-02-07T11:01:27.000Z</time>
      </trkpt>
      <trkpt lon="35.30937077477574" lat="31.321156220510602">
        <ele>341.3999938964844</ele>
        <time>2014-02-07T11:01:33.000Z</time>
      </trkpt>
      <trkpt lon="35.30934085138142" lat="31.320885317400098">
        <ele>344.20001220703125</ele>
        <time>2014-02-07T11:01:43.000Z</time>
      </trkpt>
      <trkpt lon="35.30932710506022" lat="31.32062749005854">
        <ele>344.79998779296875</ele>
        <time>2014-02-07T11:01:52.000Z</time>
      </trkpt>
      <trkpt lon="35.309273628517985" lat="31.320471838116646">
        <ele>344.20001220703125</ele>
        <time>2014-02-07T11:01:56.000Z</time>
      </trkpt>
      <trkpt lon="35.309242783114314" lat="31.320431102067232">
        <ele>343.79998779296875</ele>
        <time>2014-02-07T11:01:57.000Z</time>
      </trkpt>
      <trkpt lon="35.309204645454884" lat="31.32038751617074">
        <ele>343.79998779296875</ele>
        <time>2014-02-07T11:01:58.000Z</time>
      </trkpt>
      <trkpt lon="35.30885327607393" lat="31.32009783759713">
        <ele>342.79998779296875</ele>
        <time>2014-02-07T11:02:06.000Z</time>
      </trkpt>
      <trkpt lon="35.30853107571602" lat="31.319872867316008">
        <ele>343.3999938964844</ele>
        <time>2014-02-07T11:02:15.000Z</time>
      </trkpt>
      <trkpt lon="35.30815816484392" lat="31.319729201495647">
        <ele>343.79998779296875</ele>
        <time>2014-02-07T11:02:25.000Z</time>
      </trkpt>
      <trkpt lon="35.30783638358116" lat="31.319546224549413">
        <ele>345.20001220703125</ele>
        <time>2014-02-07T11:02:34.000Z</time>
      </trkpt>
      <trkpt lon="35.307494066655636" lat="31.31938084959984">
        <ele>344.79998779296875</ele>
        <time>2014-02-07T11:02:43.000Z</time>
      </trkpt>
      <trkpt lon="35.30712082050741" lat="31.319217570126057">
        <ele>344.20001220703125</ele>
        <time>2014-02-07T11:02:51.000Z</time>
      </trkpt>
      <trkpt lon="35.30696885660291" lat="31.319161327555776">
        <ele>343.79998779296875</ele>
        <time>2014-02-07T11:02:54.000Z</time>
      </trkpt>
      <trkpt lon="35.306576834991574" lat="31.319105084985495">
        <ele>343.79998779296875</ele>
        <time>2014-02-07T11:03:02.000Z</time>
      </trkpt>
      <trkpt lon="35.30613133683801" lat="31.319093434140086">
        <ele>341.3999938964844</ele>
        <time>2014-02-07T11:03:08.000Z</time>
      </trkpt>
      <trkpt lon="35.30553236603737" lat="31.319020679220557">
        <ele>340.0</ele>
        <time>2014-02-07T11:03:15.000Z</time>
      </trkpt>
      <trkpt lon="35.305360620841384" lat="31.318982793018222">
        <ele>341.0</ele>
        <time>2014-02-07T11:03:18.000Z</time>
      </trkpt>
      <trkpt lon="35.30517077073455" lat="31.318945745006204">
        <ele>343.79998779296875</ele>
        <time>2014-02-07T11:03:24.000Z</time>
      </trkpt>
      <trkpt lon="35.3050022944808" lat="31.31889671087265">
        <ele>345.79998779296875</ele>
        <time>2014-02-07T11:03:30.000Z</time>
      </trkpt>
      <trkpt lon="35.30471940524876" lat="31.318803085014224">
        <ele>348.20001220703125</ele>
        <time>2014-02-07T11:03:40.000Z</time>
      </trkpt>
      <trkpt lon="35.304478760808706" lat="31.318741897121072">
        <ele>349.20001220703125</ele>
        <time>2014-02-07T11:03:49.000Z</time>
      </trkpt>
      <trkpt lon="35.304251946508884" lat="31.318789338693023">
        <ele>349.20001220703125</ele>
        <time>2014-02-07T11:03:56.000Z</time>
      </trkpt>
      <trkpt lon="35.30403326265514" lat="31.318906350061297">
        <ele>349.6000061035156</ele>
        <time>2014-02-07T11:04:05.000Z</time>
      </trkpt>
      <trkpt lon="35.3039491083473" lat="31.319033838808537">
        <ele>348.20001220703125</ele>
        <time>2014-02-07T11:04:11.000Z</time>
      </trkpt>
      <trkpt lon="35.30380594544113" lat="31.31925143301487">
        <ele>347.6000061035156</ele>
        <time>2014-02-07T11:04:17.000Z</time>
      </trkpt>
      <trkpt lon="35.30376847833395" lat="31.319294096902013">
        <ele>347.20001220703125</ele>
        <time>2014-02-07T11:04:18.000Z</time>
      </trkpt>
      <trkpt lon="35.30372598208487" lat="31.319337598979473">
        <ele>346.6000061035156</ele>
        <time>2014-02-07T11:04:19.000Z</time>
      </trkpt>
      <trkpt lon="35.303672924637794" lat="31.31937892176211">
        <ele>346.20001220703125</ele>
        <time>2014-02-07T11:04:20.000Z</time>
      </trkpt>
      <trkpt lon="35.30360964126885" lat="31.319416975602508">
        <ele>345.20001220703125</ele>
        <time>2014-02-07T11:04:21.000Z</time>
      </trkpt>
      <trkpt lon="35.30353646725416" lat="31.319451006129384">
        <ele>345.20001220703125</ele>
        <time>2014-02-07T11:04:22.000Z</time>
      </trkpt>
      <trkpt lon="35.3034585993737" lat="31.319477325305343">
        <ele>344.79998779296875</ele>
        <time>2014-02-07T11:04:23.000Z</time>
      </trkpt>
      <trkpt lon="35.303377378731966" lat="31.319493502378464">
        <ele>344.20001220703125</ele>
        <time>2014-02-07T11:04:24.000Z</time>
      </trkpt>
      <trkpt lon="35.303294314071536" lat="31.319505237042904">
        <ele>344.20001220703125</ele>
        <time>2014-02-07T11:04:25.000Z</time>
      </trkpt>
      <trkpt lon="35.30320613645017" lat="31.319511188194156">
        <ele>343.79998779296875</ele>
        <time>2014-02-07T11:04:26.000Z</time>
      </trkpt>
      <trkpt lon="35.303112510591745" lat="31.31951387040317">
        <ele>343.79998779296875</ele>
        <time>2014-02-07T11:04:27.000Z</time>
      </trkpt>
      <trkpt lon="35.303016286343336" lat="31.319508254528046">
        <ele>343.3999938964844</ele>
        <time>2014-02-07T11:04:28.000Z</time>
      </trkpt>
      <trkpt lon="35.30292081646621" lat="31.31949325092137">
        <ele>343.3999938964844</ele>
        <time>2014-02-07T11:04:29.000Z</time>
      </trkpt>
      <trkpt lon="35.30283574014902" lat="31.319474559277296">
        <ele>343.3999938964844</ele>
        <time>2014-02-07T11:04:30.000Z</time>
      </trkpt>
      <trkpt lon="35.30254212208092" lat="31.319417729973793">
        <ele>343.79998779296875</ele>
        <time>2014-02-07T11:04:34.000Z</time>
      </trkpt>
      <trkpt lon="35.3024759888649" lat="31.319414963945746">
        <ele>344.20001220703125</ele>
        <time>2014-02-07T11:04:35.000Z</time>
      </trkpt>
      <trkpt lon="35.302156722173095" lat="31.319389399141073">
        <ele>346.6000061035156</ele>
        <time>2014-02-07T11:04:41.000Z</time>
      </trkpt>
      <trkpt lon="35.30182471498847" lat="31.319280015304685">
        <ele>350.6000061035156</ele>
        <time>2014-02-07T11:04:50.000Z</time>
      </trkpt>
      <trkpt lon="35.3015277441591" lat="31.319205416366458">
        <ele>352.0</ele>
        <time>2014-02-07T11:04:57.000Z</time>
      </trkpt>
      <trkpt lon="35.3014830686152" lat="31.319183707237244">
        <ele>352.3999938964844</ele>
        <time>2014-02-07T11:04:58.000Z</time>
      </trkpt>
      <trkpt lon="35.30139514245093" lat="31.319139199331403">
        <ele>353.0</ele>
        <time>2014-02-07T11:05:00.000Z</time>
      </trkpt>
      <trkpt lon="35.3013567533344" lat="31.319112377241254">
        <ele>353.3999938964844</ele>
        <time>2014-02-07T11:05:01.000Z</time>
      </trkpt>
      <trkpt lon="35.30132104642689" lat="31.319083962589502">
        <ele>353.79998779296875</ele>
        <time>2014-02-07T11:05:02.000Z</time>
      </trkpt>
      <trkpt lon="35.30128659680486" lat="31.31905697286129">
        <ele>354.3999938964844</ele>
        <time>2014-02-07T11:05:03.000Z</time>
      </trkpt>
      <trkpt lon="35.30125407502055" lat="31.31903157569468">
        <ele>354.79998779296875</ele>
        <time>2014-02-07T11:05:04.000Z</time>
      </trkpt>
      <trkpt lon="35.30105911195278" lat="31.318849939852953">
        <ele>358.20001220703125</ele>
        <time>2014-02-07T11:05:12.000Z</time>
      </trkpt>
      <trkpt lon="35.3008715249598" lat="31.318689677864313">
        <ele>359.6000061035156</ele>
        <time>2014-02-07T11:05:19.000Z</time>
      </trkpt>
      <trkpt lon="35.300842355936766" lat="31.31865330040455">
        <ele>359.6000061035156</ele>
        <time>2014-02-07T11:05:20.000Z</time>
      </trkpt>
      <trkpt lon="35.30081477947533" lat="31.31861382164061">
        <ele>359.6000061035156</ele>
        <time>2014-02-07T11:05:21.000Z</time>
      </trkpt>
      <trkpt lon="35.30066876672208" lat="31.318262284621596">
        <ele>358.79998779296875</ele>
        <time>2014-02-07T11:05:29.000Z</time>
      </trkpt>
      <trkpt lon="35.300611685961485" lat="31.318030692636967">
        <ele>361.6000061035156</ele>
        <time>2014-02-07T11:05:37.000Z</time>
      </trkpt>
      <trkpt lon="35.3005712851882" lat="31.317739924415946">
        <ele>364.0</ele>
        <time>2014-02-07T11:05:47.000Z</time>
      </trkpt>
      <trkpt lon="35.30050749890506" lat="31.317443288862705">
        <ele>366.0</ele>
        <time>2014-02-07T11:05:57.000Z</time>
      </trkpt>
      <trkpt lon="35.300367856398225" lat="31.317206164821982">
        <ele>365.0</ele>
        <time>2014-02-07T11:06:04.000Z</time>
      </trkpt>
      <trkpt lon="35.30012478120625" lat="31.316961413249373">
        <ele>362.6000061035156</ele>
        <time>2014-02-07T11:06:09.000Z</time>
      </trkpt>
      <trkpt lon="35.30007532797754" lat="31.316889747977257">
        <ele>362.0</ele>
        <time>2014-02-07T11:06:10.000Z</time>
      </trkpt>
      <trkpt lon="35.30003735795617" lat="31.316810538992286">
        <ele>361.6000061035156</ele>
        <time>2014-02-07T11:06:11.000Z</time>
      </trkpt>
      <trkpt lon="35.30001439154148" lat="31.31672529503703">
        <ele>361.20001220703125</ele>
        <time>2014-02-07T11:06:12.000Z</time>
      </trkpt>
      <trkpt lon="35.30000005848706" lat="31.31663728505373">
        <ele>360.6000061035156</ele>
        <time>2014-02-07T11:06:13.000Z</time>
      </trkpt>
      <trkpt lon="35.29998974874616" lat="31.316548604518175">
        <ele>360.20001220703125</ele>
        <time>2014-02-07T11:06:14.000Z</time>
      </trkpt>
      <trkpt lon="35.29996292665601" lat="31.315995566546917">
        <ele>357.79998779296875</ele>
        <time>2014-02-07T11:06:20.000Z</time>
      </trkpt>
      <trkpt lon="35.299911545589566" lat="31.315571693703532">
        <ele>356.79998779296875</ele>
        <time>2014-02-07T11:06:25.000Z</time>
      </trkpt>
      <trkpt lon="35.29988296329975" lat="31.315495586022735">
        <ele>356.79998779296875</ele>
        <time>2014-02-07T11:06:26.000Z</time>
      </trkpt>
      <trkpt lon="35.29983744956553" lat="31.315424926579">
        <ele>356.79998779296875</ele>
        <time>2014-02-07T11:06:27.000Z</time>
      </trkpt>
      <trkpt lon="35.29977693222463" lat="31.315363654866815">
        <ele>356.3999938964844</ele>
        <time>2014-02-07T11:06:28.000Z</time>
      </trkpt>
      <trkpt lon="35.299707194790244" lat="31.315315291285515">
        <ele>355.79998779296875</ele>
        <time>2014-02-07T11:06:29.000Z</time>
      </trkpt>
      <trkpt lon="35.299632428213954" lat="31.31527346558869">
        <ele>355.79998779296875</ele>
        <time>2014-02-07T11:06:30.000Z</time>
      </trkpt>
      <trkpt lon="35.299074025824666" lat="31.315013794228435">
        <ele>353.3999938964844</ele>
        <time>2014-02-07T11:06:37.000Z</time>
      </trkpt>
      <trkpt lon="35.29879457317293" lat="31.31481816060841">
        <ele>353.3999938964844</ele>
        <time>2014-02-07T11:06:42.000Z</time>
      </trkpt>
      <trkpt lon="35.29854504391551" lat="31.31461246870458">
        <ele>356.3999938964844</ele>
        <time>2014-02-07T11:06:50.000Z</time>
      </trkpt>
      <trkpt lon="35.298253605142236" lat="31.314361346885562">
        <ele>357.20001220703125</ele>
        <time>2014-02-07T11:06:58.000Z</time>
      </trkpt>
      <trkpt lon="35.29795395210385" lat="31.314052306115627">
        <ele>358.20001220703125</ele>
        <time>2014-02-07T11:07:05.000Z</time>
      </trkpt>
      <trkpt lon="35.29770065099001" lat="31.31384091451764">
        <ele>358.79998779296875</ele>
        <time>2014-02-07T11:07:12.000Z</time>
      </trkpt>
      <trkpt lon="35.297383479774" lat="31.313530448824167">
        <ele>360.6000061035156</ele>
        <time>2014-02-07T11:07:23.000Z</time>
      </trkpt>
      <trkpt lon="35.297241071239114" lat="31.313337078318">
        <ele>362.6000061035156</ele>
        <time>2014-02-07T11:07:31.000Z</time>
      </trkpt>
      <trkpt lon="35.29712028801441" lat="31.313160303980112">
        <ele>364.0</ele>
        <time>2014-02-07T11:07:40.000Z</time>
      </trkpt>
      <trkpt lon="35.296983579173684" lat="31.31300138309598">
        <ele>364.3999938964844</ele>
        <time>2014-02-07T11:07:48.000Z</time>
      </trkpt>
      <trkpt lon="35.29677235521376" lat="31.312826368957758">
        <ele>363.0</ele>
        <time>2014-02-07T11:07:55.000Z</time>
      </trkpt>
      <trkpt lon="35.2966926433146" lat="31.312748165801167">
        <ele>362.6000061035156</ele>
        <time>2014-02-07T11:07:57.000Z</time>
      </trkpt>
      <trkpt lon="35.29650388285518" lat="31.3124961219728">
        <ele>361.6000061035156</ele>
        <time>2014-02-07T11:08:02.000Z</time>
      </trkpt>
      <trkpt lon="35.29646675102413" lat="31.312389755621552">
        <ele>361.20001220703125</ele>
        <time>2014-02-07T11:08:04.000Z</time>
      </trkpt>
      <trkpt lon="35.29640598222613" lat="31.312087839469314">
        <ele>363.0</ele>
        <time>2014-02-07T11:08:11.000Z</time>
      </trkpt>
      <trkpt lon="35.296321492642164" lat="31.31186630576849">
        <ele>362.6000061035156</ele>
        <time>2014-02-07T11:08:17.000Z</time>
      </trkpt>
      <trkpt lon="35.29626323841512" lat="31.311796568334103">
        <ele>363.0</ele>
        <time>2014-02-07T11:08:19.000Z</time>
      </trkpt>
      <trkpt lon="35.29588487930596" lat="31.311427429318428">
        <ele>361.20001220703125</ele>
        <time>2014-02-07T11:08:30.000Z</time>
      </trkpt>
      <trkpt lon="35.295578353106976" lat="31.311153173446655">
        <ele>359.20001220703125</ele>
        <time>2014-02-07T11:08:36.000Z</time>
      </trkpt>
      <trkpt lon="35.29542915523052" lat="31.310930382460356">
        <ele>357.79998779296875</ele>
        <time>2014-02-07T11:08:39.000Z</time>
      </trkpt>
      <trkpt lon="35.295395627617836" lat="31.310850670561194">
        <ele>357.79998779296875</ele>
        <time>2014-02-07T11:08:40.000Z</time>
      </trkpt>
      <trkpt lon="35.29524425044656" lat="31.31042101420462">
        <ele>358.79998779296875</ele>
        <time>2014-02-07T11:08:46.000Z</time>
      </trkpt>
      <trkpt lon="35.29501433484256" lat="31.31000895984471">
        <ele>361.6000061035156</ele>
        <time>2014-02-07T11:08:54.000Z</time>
      </trkpt>
      <trkpt lon="35.29483647085726" lat="31.309711318463087">
        <ele>364.3999938964844</ele>
        <time>2014-02-07T11:09:02.000Z</time>
      </trkpt>
      <trkpt lon="35.294710071757436" lat="31.309486012905836">
        <ele>366.79998779296875</ele>
        <time>2014-02-07T11:09:10.000Z</time>
      </trkpt>
      <trkpt lon="35.29461946338415" lat="31.309300689026713">
        <ele>368.79998779296875</ele>
        <time>2014-02-07T11:09:18.000Z</time>
      </trkpt>
      <trkpt lon="35.294532626867294" lat="31.309073539450765">
        <ele>369.79998779296875</ele>
        <time>2014-02-07T11:09:26.000Z</time>
      </trkpt>
      <trkpt lon="35.29450312256813" lat="31.30884907208383">
        <ele>370.79998779296875</ele>
        <time>2014-02-07T11:09:35.000Z</time>
      </trkpt>
      <trkpt lon="35.29445718973875" lat="31.308618234470487">
        <ele>371.20001220703125</ele>
        <time>2014-02-07T11:09:45.000Z</time>
      </trkpt>
      <trkpt lon="35.2943820040673" lat="31.308394270017743">
        <ele>371.20001220703125</ele>
        <time>2014-02-07T11:09:56.000Z</time>
      </trkpt>
      <trkpt lon="35.29431796632707" lat="31.308228727430105">
        <ele>372.6000061035156</ele>
        <time>2014-02-07T11:10:06.000Z</time>
      </trkpt>
      <trkpt lon="35.294214617460966" lat="31.30807751789689">
        <ele>371.6000061035156</ele>
        <time>2014-02-07T11:10:16.000Z</time>
      </trkpt>
      <trkpt lon="35.29403708875179" lat="31.30789370276034">
        <ele>371.6000061035156</ele>
        <time>2014-02-07T11:10:25.000Z</time>
      </trkpt>
      <trkpt lon="35.293813459575176" lat="31.30766403861344">
        <ele>370.20001220703125</ele>
        <time>2014-02-07T11:10:32.000Z</time>
      </trkpt>
      <trkpt lon="35.29358203522861" lat="31.30742909386754">
        <ele>370.20001220703125</ele>
        <time>2014-02-07T11:10:38.000Z</time>
      </trkpt>
      <trkpt lon="35.2934807818383" lat="31.307363798841834">
        <ele>370.20001220703125</ele>
        <time>2014-02-07T11:10:40.000Z</time>
      </trkpt>
      <trkpt lon="35.29342043213546" lat="31.307335048913956">
        <ele>369.79998779296875</ele>
        <time>2014-02-07T11:10:41.000Z</time>
      </trkpt>
      <trkpt lon="35.292954901233315" lat="31.307121058925986">
        <ele>367.79998779296875</ele>
        <time>2014-02-07T11:10:48.000Z</time>
      </trkpt>
      <trkpt lon="35.29272641055286" lat="31.306931879371405">
        <ele>367.3999938964844</ele>
        <time>2014-02-07T11:10:52.000Z</time>
      </trkpt>
      <trkpt lon="35.292684668675065" lat="31.30687597207725">
        <ele>367.3999938964844</ele>
        <time>2014-02-07T11:10:53.000Z</time>
      </trkpt>
      <trkpt lon="35.292609902098775" lat="31.30676650442183">
        <ele>367.3999938964844</ele>
        <time>2014-02-07T11:10:55.000Z</time>
      </trkpt>
      <trkpt lon="35.29236959293485" lat="31.306357719004154">
        <ele>368.79998779296875</ele>
        <time>2014-02-07T11:11:03.000Z</time>
      </trkpt>
      <trkpt lon="35.29233547858894" lat="31.30632377229631">
        <ele>369.20001220703125</ele>
        <time>2014-02-07T11:11:04.000Z</time>
      </trkpt>
      <trkpt lon="35.29230035841465" lat="31.3062983751297">
        <ele>369.20001220703125</ele>
        <time>2014-02-07T11:11:05.000Z</time>
      </trkpt>
      <trkpt lon="35.292264483869076" lat="31.30627985112369">
        <ele>369.20001220703125</ele>
        <time>2014-02-07T11:11:06.000Z</time>
      </trkpt>
      <trkpt lon="35.29222743585706" lat="31.306267278268933">
        <ele>369.20001220703125</ele>
        <time>2014-02-07T11:11:07.000Z</time>
      </trkpt>
      <trkpt lon="35.29218745417893" lat="31.30626082420349">
        <ele>369.20001220703125</ele>
        <time>2014-02-07T11:11:08.000Z</time>
      </trkpt>
      <trkpt lon="35.29214311391115" lat="31.30626023747027">
        <ele>369.20001220703125</ele>
        <time>2014-02-07T11:11:09.000Z</time>
      </trkpt>
      <trkpt lon="35.292096426710486" lat="31.306267362087965">
        <ele>368.79998779296875</ele>
        <time>2014-02-07T11:11:10.000Z</time>
      </trkpt>
      <trkpt lon="35.29205057770014" lat="31.306281527504325">
        <ele>368.3999938964844</ele>
        <time>2014-02-07T11:11:11.000Z</time>
      </trkpt>
      <trkpt lon="35.29200674034655" lat="31.30630516447127">
        <ele>367.79998779296875</ele>
        <time>2014-02-07T11:11:12.000Z</time>
      </trkpt>
      <trkpt lon="35.29197086580098" lat="31.306332992389798">
        <ele>367.3999938964844</ele>
        <time>2014-02-07T11:11:13.000Z</time>
      </trkpt>
      <trkpt lon="35.29193909838796" lat="31.30636769346893">
        <ele>366.79998779296875</ele>
        <time>2014-02-07T11:11:14.000Z</time>
      </trkpt>
      <trkpt lon="35.291911102831364" lat="31.30641119554639">
        <ele>366.0</ele>
        <time>2014-02-07T11:11:15.000Z</time>
      </trkpt>
      <trkpt lon="35.29184589162469" lat="31.30650943145156">
        <ele>364.3999938964844</ele>
        <time>2014-02-07T11:11:17.000Z</time>
      </trkpt>
      <trkpt lon="35.29179551638663" lat="31.30655989050865">
        <ele>363.0</ele>
        <time>2014-02-07T11:11:18.000Z</time>
      </trkpt>
      <trkpt lon="35.29172175563872" lat="31.306608002632856">
        <ele>362.0</ele>
        <time>2014-02-07T11:11:19.000Z</time>
      </trkpt>
      <trkpt lon="35.29162695631385" lat="31.306649073958397">
        <ele>361.20001220703125</ele>
        <time>2014-02-07T11:11:20.000Z</time>
      </trkpt>
      <trkpt lon="35.29151841066778" lat="31.306681176647544">
        <ele>360.20001220703125</ele>
        <time>2014-02-07T11:11:21.000Z</time>
      </trkpt>
      <trkpt lon="35.29140475206077" lat="31.306700371205807">
        <ele>359.20001220703125</ele>
        <time>2014-02-07T11:11:22.000Z</time>
      </trkpt>
      <trkpt lon="35.291292099282146" lat="31.30671512335539">
        <ele>358.20001220703125</ele>
        <time>2014-02-07T11:11:23.000Z</time>
      </trkpt>
      <trkpt lon="35.291177267208695" lat="31.306725097820163">
        <ele>357.20001220703125</ele>
        <time>2014-02-07T11:11:24.000Z</time>
      </trkpt>
      <trkpt lon="35.291058495640755" lat="31.306725600734353">
        <ele>356.79998779296875</ele>
        <time>2014-02-07T11:11:25.000Z</time>
      </trkpt>
      <trkpt lon="35.29029498808086" lat="31.306632813066244">
        <ele>353.0</ele>
        <time>2014-02-07T11:11:31.000Z</time>
      </trkpt>
      <trkpt lon="35.29002324678004" lat="31.306601632386446">
        <ele>352.0</ele>
        <time>2014-02-07T11:11:33.000Z</time>
      </trkpt>
      <trkpt lon="35.28989039361477" lat="31.30660029128194">
        <ele>352.0</ele>
        <time>2014-02-07T11:11:34.000Z</time>
      </trkpt>
      <trkpt lon="35.28976717963815" lat="31.306607415899634">
        <ele>352.0</ele>
        <time>2014-02-07T11:11:35.000Z</time>
      </trkpt>
      <trkpt lon="35.28965435922146" lat="31.30662275478244">
        <ele>352.3999938964844</ele>
        <time>2014-02-07T11:11:36.000Z</time>
      </trkpt>
      <trkpt lon="35.289559895172715" lat="31.306647984310985">
        <ele>353.3999938964844</ele>
        <time>2014-02-07T11:11:37.000Z</time>
      </trkpt>
      <trkpt lon="35.28948043473065" lat="31.306690312922">
        <ele>353.3999938964844</ele>
        <time>2014-02-07T11:11:38.000Z</time>
      </trkpt>
      <trkpt lon="35.28941321186721" lat="31.306745214387774">
        <ele>353.79998779296875</ele>
        <time>2014-02-07T11:11:39.000Z</time>
      </trkpt>
      <trkpt lon="35.28935780748725" lat="31.30680212751031">
        <ele>353.79998779296875</ele>
        <time>2014-02-07T11:11:40.000Z</time>
      </trkpt>
      <trkpt lon="35.28930366039276" lat="31.306860046461225">
        <ele>353.3999938964844</ele>
        <time>2014-02-07T11:11:41.000Z</time>
      </trkpt>
      <trkpt lon="35.28895086608827" lat="31.307193227112293">
        <ele>347.6000061035156</ele>
        <time>2014-02-07T11:11:46.000Z</time>
      </trkpt>
      <trkpt lon="35.28833513148129" lat="31.307804100215435">
        <ele>343.3999938964844</ele>
        <time>2014-02-07T11:11:54.000Z</time>
      </trkpt>
      <trkpt lon="35.288142850622535" lat="31.30814004689455">
        <ele>341.3999938964844</ele>
        <time>2014-02-07T11:11:58.000Z</time>
      </trkpt>
      <trkpt lon="35.28812315315008" lat="31.30823576822877">
        <ele>340.3999938964844</ele>
        <time>2014-02-07T11:11:59.000Z</time>
      </trkpt>
      <trkpt lon="35.28812734410167" lat="31.308332663029432">
        <ele>340.0</ele>
        <time>2014-02-07T11:12:00.000Z</time>
      </trkpt>
      <trkpt lon="35.28816112317145" lat="31.30842251703143">
        <ele>339.3999938964844</ele>
        <time>2014-02-07T11:12:01.000Z</time>
      </trkpt>
      <trkpt lon="35.288203954696655" lat="31.30850558169186">
        <ele>339.3999938964844</ele>
        <time>2014-02-07T11:12:02.000Z</time>
      </trkpt>
      <trkpt lon="35.28834644705057" lat="31.308831134811044">
        <ele>341.0</ele>
        <time>2014-02-07T11:12:07.000Z</time>
      </trkpt>
      <trkpt lon="35.28834158554673" lat="31.308984272181988">
        <ele>342.3999938964844</ele>
        <time>2014-02-07T11:12:12.000Z</time>
      </trkpt>
      <trkpt lon="35.28828190639615" lat="31.309126848354936">
        <ele>344.79998779296875</ele>
        <time>2014-02-07T11:12:19.000Z</time>
      </trkpt>
      <trkpt lon="35.28821091167629" lat="31.309327594935894">
        <ele>345.79998779296875</ele>
        <time>2014-02-07T11:12:28.000Z</time>
      </trkpt>
      <trkpt lon="35.288282074034214" lat="31.309499759227037">
        <ele>345.20001220703125</ele>
        <time>2014-02-07T11:12:35.000Z</time>
      </trkpt>
      <trkpt lon="35.28853411786258" lat="31.309749791398644">
        <ele>344.20001220703125</ele>
        <time>2014-02-07T11:12:43.000Z</time>
      </trkpt>
      <trkpt lon="35.28860595077276" lat="31.309892619028687">
        <ele>345.20001220703125</ele>
        <time>2014-02-07T11:12:49.000Z</time>
      </trkpt>
      <trkpt lon="35.28858968988061" lat="31.31007794290781">
        <ele>346.6000061035156</ele>
        <time>2014-02-07T11:12:58.000Z</time>
      </trkpt>
      <trkpt lon="35.28850184753537" lat="31.31030324846506">
        <ele>348.20001220703125</ele>
        <time>2014-02-07T11:13:08.000Z</time>
      </trkpt>
      <trkpt lon="35.28841467574239" lat="31.310608265921474">
        <ele>346.6000061035156</ele>
        <time>2014-02-07T11:13:16.000Z</time>
      </trkpt>
      <trkpt lon="35.288273356854916" lat="31.31097799167037">
        <ele>344.20001220703125</ele>
        <time>2014-02-07T11:13:23.000Z</time>
      </trkpt>
      <trkpt lon="35.288231363520026" lat="31.31103364750743">
        <ele>343.3999938964844</ele>
        <time>2014-02-07T11:13:24.000Z</time>
      </trkpt>
      <trkpt lon="35.28817939572036" lat="31.311080921441317">
        <ele>343.3999938964844</ele>
        <time>2014-02-07T11:13:25.000Z</time>
      </trkpt>
      <trkpt lon="35.28811661526561" lat="31.311122328042984">
        <ele>342.79998779296875</ele>
        <time>2014-02-07T11:13:26.000Z</time>
      </trkpt>
      <trkpt lon="35.28804394416511" lat="31.311150239780545">
        <ele>342.79998779296875</ele>
        <time>2014-02-07T11:13:27.000Z</time>
      </trkpt>
      <trkpt lon="35.287962052971125" lat="31.31116214208305">
        <ele>342.3999938964844</ele>
        <time>2014-02-07T11:13:28.000Z</time>
      </trkpt>
      <trkpt lon="35.28787404298782" lat="31.31116566248238">
        <ele>342.3999938964844</ele>
        <time>2014-02-07T11:13:29.000Z</time>
      </trkpt>
      <trkpt lon="35.287784272804856" lat="31.311160633340478">
        <ele>341.79998779296875</ele>
        <time>2014-02-07T11:13:30.000Z</time>
      </trkpt>
      <trkpt lon="35.28769299387932" lat="31.311151245608926">
        <ele>342.3999938964844</ele>
        <time>2014-02-07T11:13:31.000Z</time>
      </trkpt>
      <trkpt lon="35.28712444938719" lat="31.311036413535476">
        <ele>340.0</ele>
        <time>2014-02-07T11:13:38.000Z</time>
      </trkpt>
      <trkpt lon="35.286639304831624" lat="31.310812532901764">
        <ele>335.20001220703125</ele>
        <time>2014-02-07T11:13:44.000Z</time>
      </trkpt>
      <trkpt lon="35.286323726177216" lat="31.310696778818965">
        <ele>331.3999938964844</ele>
        <time>2014-02-07T11:13:47.000Z</time>
      </trkpt>
      <trkpt lon="35.28621266596019" lat="31.31068035028875">
        <ele>330.3999938964844</ele>
        <time>2014-02-07T11:13:48.000Z</time>
      </trkpt>
      <trkpt lon="35.28610160574317" lat="31.310680769383907">
        <ele>329.0</ele>
        <time>2014-02-07T11:13:49.000Z</time>
      </trkpt>
      <trkpt lon="35.2859964966774" lat="31.310693426057696">
        <ele>328.0</ele>
        <time>2014-02-07T11:13:50.000Z</time>
      </trkpt>
      <trkpt lon="35.28589524328709" lat="31.310713961720467">
        <ele>327.0</ele>
        <time>2014-02-07T11:13:51.000Z</time>
      </trkpt>
      <trkpt lon="35.28550196439028" lat="31.31074883043766">
        <ele>323.6000061035156</ele>
        <time>2014-02-07T11:13:55.000Z</time>
      </trkpt>
      <trkpt lon="35.285411439836025" lat="31.31073567084968">
        <ele>322.6000061035156</ele>
        <time>2014-02-07T11:13:56.000Z</time>
      </trkpt>
      <trkpt lon="35.28532334603369" lat="31.310709100216627">
        <ele>321.20001220703125</ele>
        <time>2014-02-07T11:13:57.000Z</time>
      </trkpt>
      <trkpt lon="35.28524212539196" lat="31.310660988092422">
        <ele>320.79998779296875</ele>
        <time>2014-02-07T11:13:58.000Z</time>
      </trkpt>
      <trkpt lon="35.2851745672524" lat="31.310594603419304">
        <ele>319.79998779296875</ele>
        <time>2014-02-07T11:13:59.000Z</time>
      </trkpt>
      <trkpt lon="35.28512519784272" lat="31.31051581352949">
        <ele>319.20001220703125</ele>
        <time>2014-02-07T11:14:00.000Z</time>
      </trkpt>
      <trkpt lon="35.28508169576526" lat="31.31043165922165">
        <ele>318.79998779296875</ele>
        <time>2014-02-07T11:14:01.000Z</time>
      </trkpt>
      <trkpt lon="35.285048335790634" lat="31.31034373305738">
        <ele>318.3999938964844</ele>
        <time>2014-02-07T11:14:02.000Z</time>
      </trkpt>
      <trkpt lon="35.28471490368247" lat="31.309730764478445">
        <ele>317.3999938964844</ele>
        <time>2014-02-07T11:14:09.000Z</time>
      </trkpt>
      <trkpt lon="35.28429128229618" lat="31.309332959353924">
        <ele>315.3999938964844</ele>
        <time>2014-02-07T11:14:14.000Z</time>
      </trkpt>
      <trkpt lon="35.28417628258467" lat="31.30926875397563">
        <ele>315.0</ele>
        <time>2014-02-07T11:14:15.000Z</time>
      </trkpt>
      <trkpt lon="35.28339031152427" lat="31.308861980214715">
        <ele>307.20001220703125</ele>
        <time>2014-02-07T11:14:21.000Z</time>
      </trkpt>
      <trkpt lon="35.28255874291062" lat="31.30828170105815">
        <ele>300.0</ele>
        <time>2014-02-07T11:14:28.000Z</time>
      </trkpt>
      <trkpt lon="35.282436199486256" lat="31.308213137090206">
        <ele>299.6000061035156</ele>
        <time>2014-02-07T11:14:29.000Z</time>
      </trkpt>
      <trkpt lon="35.282302759587765" lat="31.30815949290991">
        <ele>298.6000061035156</ele>
        <time>2014-02-07T11:14:30.000Z</time>
      </trkpt>
      <trkpt lon="35.28216823004186" lat="31.308123115450144">
        <ele>298.20001220703125</ele>
        <time>2014-02-07T11:14:31.000Z</time>
      </trkpt>
      <trkpt lon="35.281568421050906" lat="31.30799680016935">
        <ele>297.6000061035156</ele>
        <time>2014-02-07T11:14:36.000Z</time>
      </trkpt>
      <trkpt lon="35.28081136755645" lat="31.307797646149993">
        <ele>296.79998779296875</ele>
        <time>2014-02-07T11:14:43.000Z</time>
      </trkpt>
      <trkpt lon="35.28036176227033" lat="31.307680048048496">
        <ele>296.79998779296875</ele>
        <time>2014-02-07T11:14:48.000Z</time>
      </trkpt>
      <trkpt lon="35.27963899075985" lat="31.30746622569859">
        <ele>296.79998779296875</ele>
        <time>2014-02-07T11:14:57.000Z</time>
      </trkpt>
      <trkpt lon="35.278970366343856" lat="31.307261707261205">
        <ele>295.20001220703125</ele>
        <time>2014-02-07T11:15:04.000Z</time>
      </trkpt>
      <trkpt lon="35.27823032811284" lat="31.30701905116439">
        <ele>296.20001220703125</ele>
        <time>2014-02-07T11:15:13.000Z</time>
      </trkpt>
      <trkpt lon="35.27798859402537" lat="31.306950319558382">
        <ele>299.20001220703125</ele>
        <time>2014-02-07T11:15:18.000Z</time>
      </trkpt>
      <trkpt lon="35.277759935706854" lat="31.30687890574336">
        <ele>300.6000061035156</ele>
        <time>2014-02-07T11:15:26.000Z</time>
      </trkpt>
      <trkpt lon="35.277520129457116" lat="31.306852167472243">
        <ele>302.3999938964844</ele>
        <time>2014-02-07T11:15:35.000Z</time>
      </trkpt>
      <trkpt lon="35.277307564392686" lat="31.30688083358109">
        <ele>304.0</ele>
        <time>2014-02-07T11:15:44.000Z</time>
      </trkpt>
      <trkpt lon="35.27714177034795" lat="31.306934477761388">
        <ele>304.79998779296875</ele>
        <time>2014-02-07T11:15:52.000Z</time>
      </trkpt>
      <trkpt lon="35.276922499760985" lat="31.307010920718312">
        <ele>304.79998779296875</ele>
        <time>2014-02-07T11:16:00.000Z</time>
      </trkpt>
      <trkpt lon="35.276577081531286" lat="31.307053500786424">
        <ele>303.3999938964844</ele>
        <time>2014-02-07T11:16:08.000Z</time>
      </trkpt>
      <trkpt lon="35.27619872242212" lat="31.307066660374403">
        <ele>304.3999938964844</ele>
        <time>2014-02-07T11:16:16.000Z</time>
      </trkpt>
      <trkpt lon="35.27591273188591" lat="31.307087363675237">
        <ele>304.0</ele>
        <time>2014-02-07T11:16:23.000Z</time>
      </trkpt>
      <trkpt lon="35.275433119386435" lat="31.307112677022815">
        <ele>304.79998779296875</ele>
        <time>2014-02-07T11:16:33.000Z</time>
      </trkpt>
      <trkpt lon="35.275036403909326" lat="31.307127764448524">
        <ele>306.3999938964844</ele>
        <time>2014-02-07T11:16:42.000Z</time>
      </trkpt>
      <trkpt lon="35.274991896003485" lat="31.30713740363717">
        <ele>306.3999938964844</ele>
        <time>2014-02-07T11:16:46.000Z</time>
      </trkpt>
      <trkpt lon="35.27496658265591" lat="31.307116113603115">
        <ele>305.3999938964844</ele>
        <time>2014-02-07T11:17:03.000Z</time>
      </trkpt>
      <trkpt lon="35.274947388097644" lat="31.307098427787423">
        <ele>306.3999938964844</ele>
        <time>2014-02-07T11:17:15.000Z</time>
      </trkpt>
      <trkpt lon="35.27493171393871" lat="31.307106474414468">
        <ele>306.3999938964844</ele>
        <time>2014-02-07T11:17:36.000Z</time>
      </trkpt>
      <trkpt lon="35.27493556961417" lat="31.307101026177406">
        <ele>305.3999938964844</ele>
        <time>2014-02-07T11:17:49.000Z</time>
      </trkpt>
      <trkpt lon="35.274962140247226" lat="31.307099433615804">
        <ele>305.79998779296875</ele>
        <time>2014-02-07T11:18:06.000Z</time>
      </trkpt>
      <trkpt lon="35.27492324821651" lat="31.3070962484926">
        <ele>307.79998779296875</ele>
        <time>2014-02-07T11:18:28.000Z</time>
      </trkpt>
      <trkpt lon="35.274908328428864" lat="31.30709683522582">
        <ele>308.20001220703125</ele>
        <time>2014-02-07T11:18:50.000Z</time>
      </trkpt>
      <trkpt lon="35.27489935979247" lat="31.30708308890462">
        <ele>309.6000061035156</ele>
        <time>2014-02-07T11:19:08.000Z</time>
      </trkpt>
      <trkpt lon="35.27489650994539" lat="31.307090213522315">
        <ele>310.6000061035156</ele>
        <time>2014-02-07T11:19:23.000Z</time>
      </trkpt>
      <trkpt lon="35.27491729706526" lat="31.307090800255537">
        <ele>307.79998779296875</ele>
        <time>2014-02-07T11:19:45.000Z</time>
      </trkpt>
      <trkpt lon="35.274913189932704" lat="31.307084010913968">
        <ele>307.79998779296875</ele>
        <time>2014-02-07T11:20:06.000Z</time>
      </trkpt>
      <trkpt lon="35.27491972781718" lat="31.30709289573133">
        <ele>308.20001220703125</ele>
        <time>2014-02-07T11:20:29.000Z</time>
      </trkpt>
      <trkpt lon="35.274887876585126" lat="31.307092141360044">
        <ele>308.20001220703125</ele>
        <time>2014-02-07T11:20:40.000Z</time>
      </trkpt>
      <trkpt lon="35.27468050830066" lat="31.307099098339677">
        <ele>309.20001220703125</ele>
        <time>2014-02-07T11:20:48.000Z</time>
      </trkpt>
      <trkpt lon="35.27432075701654" lat="31.30711628124118">
        <ele>310.20001220703125</ele>
        <time>2014-02-07T11:20:58.000Z</time>
      </trkpt>
      <trkpt lon="35.27386570349336" lat="31.307133715599775">
        <ele>310.6000061035156</ele>
        <time>2014-02-07T11:21:10.000Z</time>
      </trkpt>
      <trkpt lon="35.27340763248503" lat="31.307148886844516">
        <ele>312.0</ele>
        <time>2014-02-07T11:21:22.000Z</time>
      </trkpt>
      <trkpt lon="35.27298568747938" lat="31.307154083624482">
        <ele>312.6000061035156</ele>
        <time>2014-02-07T11:21:34.000Z</time>
      </trkpt>
      <trkpt lon="35.27261738665402" lat="31.307154083624482">
        <ele>313.0</ele>
        <time>2014-02-07T11:21:43.000Z</time>
      </trkpt>
      <trkpt lon="35.27218412607908" lat="31.307157771661878">
        <ele>313.0</ele>
        <time>2014-02-07T11:21:52.000Z</time>
      </trkpt>
      <trkpt lon="35.27171893045306" lat="31.307173613458872">
        <ele>315.3999938964844</ele>
        <time>2014-02-07T11:22:04.000Z</time>
      </trkpt>
      <trkpt lon="35.27135230600834" lat="31.307195238769054">
        <ele>317.3999938964844</ele>
        <time>2014-02-07T11:22:14.000Z</time>
      </trkpt>
      <trkpt lon="35.27096598409116" lat="31.30721610970795">
        <ele>319.79998779296875</ele>
        <time>2014-02-07T11:22:26.000Z</time>
      </trkpt>
      <trkpt lon="35.270710503682494" lat="31.307239579036832">
        <ele>320.79998779296875</ele>
        <time>2014-02-07T11:22:35.000Z</time>
      </trkpt>
      <trkpt lon="35.27034790255129" lat="31.3073224760592">
        <ele>319.79998779296875</ele>
        <time>2014-02-07T11:22:46.000Z</time>
      </trkpt>
      <trkpt lon="35.27000214904547" lat="31.30739430896938">
        <ele>320.20001220703125</ele>
        <time>2014-02-07T11:22:56.000Z</time>
      </trkpt>
      <trkpt lon="35.2696396317333" lat="31.307387771084905">
        <ele>321.79998779296875</ele>
        <time>2014-02-07T11:23:06.000Z</time>
      </trkpt>
      <trkpt lon="35.26942136697471" lat="31.30726975388825">
        <ele>322.6000061035156</ele>
        <time>2014-02-07T11:23:14.000Z</time>
      </trkpt>
      <trkpt lon="35.269249035045505" lat="31.30707428790629">
        <ele>327.0</ele>
        <time>2014-02-07T11:23:23.000Z</time>
      </trkpt>
      <trkpt lon="35.26915457099676" lat="31.30688091740012">
        <ele>332.79998779296875</ele>
        <time>2014-02-07T11:23:32.000Z</time>
      </trkpt>
      <trkpt lon="35.269087767228484" lat="31.306753931567073">
        <ele>335.6000061035156</ele>
        <time>2014-02-07T11:23:39.000Z</time>
      </trkpt>
      <trkpt lon="35.26890537701547" lat="31.306509263813496">
        <ele>339.0</ele>
        <time>2014-02-07T11:23:52.000Z</time>
      </trkpt>
      <trkpt lon="35.26868510060012" lat="31.30632813088596">
        <ele>341.3999938964844</ele>
        <time>2014-02-07T11:24:03.000Z</time>
      </trkpt>
      <trkpt lon="35.26847865432501" lat="31.306226458400488">
        <ele>340.0</ele>
        <time>2014-02-07T11:24:12.000Z</time>
      </trkpt>
      <trkpt lon="35.26819375343621" lat="31.30611372180283">
        <ele>340.3999938964844</ele>
        <time>2014-02-07T11:24:23.000Z</time>
      </trkpt>
      <trkpt lon="35.26787188835442" lat="31.30601791664958">
        <ele>339.0</ele>
        <time>2014-02-07T11:24:31.000Z</time>
      </trkpt>
      <trkpt lon="35.267581874504685" lat="31.305960416793823">
        <ele>339.3999938964844</ele>
        <time>2014-02-07T11:24:38.000Z</time>
      </trkpt>
      <trkpt lon="35.26720351539552" lat="31.305902246385813">
        <ele>339.3999938964844</ele>
        <time>2014-02-07T11:24:48.000Z</time>
      </trkpt>
      <trkpt lon="35.26684921234846" lat="31.30584307014942">
        <ele>340.3999938964844</ele>
        <time>2014-02-07T11:24:58.000Z</time>
      </trkpt>
      <trkpt lon="35.266699846833944" lat="31.30580493248999">
        <ele>341.3999938964844</ele>
        <time>2014-02-07T11:25:04.000Z</time>
      </trkpt>
      <trkpt lon="35.266444366425276" lat="31.3057423196733">
        <ele>341.3999938964844</ele>
        <time>2014-02-07T11:25:13.000Z</time>
      </trkpt>
      <trkpt lon="35.266157956793904" lat="31.305645676329732">
        <ele>341.79998779296875</ele>
        <time>2014-02-07T11:25:22.000Z</time>
      </trkpt>
      <trkpt lon="35.265804659575224" lat="31.305572418496013">
        <ele>343.3999938964844</ele>
        <time>2014-02-07T11:25:32.000Z</time>
      </trkpt>
      <trkpt lon="35.26545739732683" lat="31.305579459294677">
        <ele>344.20001220703125</ele>
        <time>2014-02-07T11:25:41.000Z</time>
      </trkpt>
      <trkpt lon="35.26509060524404" lat="31.305695800110698">
        <ele>344.79998779296875</ele>
        <time>2014-02-07T11:25:51.000Z</time>
      </trkpt>
      <trkpt lon="35.26476136408746" lat="31.305838376283646">
        <ele>344.79998779296875</ele>
        <time>2014-02-07T11:26:00.000Z</time>
      </trkpt>
      <trkpt lon="35.2643761318177" lat="31.30592697300017">
        <ele>342.79998779296875</ele>
        <time>2014-02-07T11:26:10.000Z</time>
      </trkpt>
      <trkpt lon="35.26412668637931" lat="31.30589176900685">
        <ele>343.79998779296875</ele>
        <time>2014-02-07T11:26:17.000Z</time>
      </trkpt>
      <trkpt lon="35.26380540803075" lat="31.30586100742221">
        <ele>344.20001220703125</ele>
        <time>2014-02-07T11:26:27.000Z</time>
      </trkpt>
      <trkpt lon="35.26356367394328" lat="31.30580677650869">
        <ele>343.3999938964844</ele>
        <time>2014-02-07T11:26:36.000Z</time>
      </trkpt>
      <trkpt lon="35.263261338695884" lat="31.30573058500886">
        <ele>342.3999938964844</ele>
        <time>2014-02-07T11:26:46.000Z</time>
      </trkpt>
      <trkpt lon="35.26293377391994" lat="31.305616423487663">
        <ele>341.79998779296875</ele>
        <time>2014-02-07T11:26:56.000Z</time>
      </trkpt>
      <trkpt lon="35.262605203315616" lat="31.305611142888665">
        <ele>341.79998779296875</ele>
        <time>2014-02-07T11:27:05.000Z</time>
      </trkpt>
      <trkpt lon="35.262340754270554" lat="31.30569839850068">
        <ele>342.79998779296875</ele>
        <time>2014-02-07T11:27:14.000Z</time>
      </trkpt>
      <trkpt lon="35.262060798704624" lat="31.305799651890993">
        <ele>343.3999938964844</ele>
        <time>2014-02-07T11:27:24.000Z</time>
      </trkpt>
      <trkpt lon="35.261832224205136" lat="31.305904928594828">
        <ele>344.20001220703125</ele>
        <time>2014-02-07T11:27:33.000Z</time>
      </trkpt>
      <trkpt lon="35.26157825253904" lat="31.306035853922367">
        <ele>344.20001220703125</ele>
        <time>2014-02-07T11:27:43.000Z</time>
      </trkpt>
      <trkpt lon="35.261316653341055" lat="31.306162923574448">
        <ele>345.20001220703125</ele>
        <time>2014-02-07T11:27:53.000Z</time>
      </trkpt>
      <trkpt lon="35.261026388034225" lat="31.306297034025192">
        <ele>345.79998779296875</ele>
        <time>2014-02-07T11:28:04.000Z</time>
      </trkpt>
      <trkpt lon="35.260749869048595" lat="31.306409686803818">
        <ele>346.6000061035156</ele>
        <time>2014-02-07T11:28:14.000Z</time>
      </trkpt>
      <trkpt lon="35.26045901700854" lat="31.30651379004121">
        <ele>349.6000061035156</ele>
        <time>2014-02-07T11:28:25.000Z</time>
      </trkpt>
      <trkpt lon="35.260187862440944" lat="31.30657254718244">
        <ele>352.0</ele>
        <time>2014-02-07T11:28:36.000Z</time>
      </trkpt>
      <trkpt lon="35.25996188633144" lat="31.306594172492623">
        <ele>353.3999938964844</ele>
        <time>2014-02-07T11:28:45.000Z</time>
      </trkpt>
      <trkpt lon="35.25971311144531" lat="31.30663557909429">
        <ele>354.3999938964844</ele>
        <time>2014-02-07T11:28:56.000Z</time>
      </trkpt>
      <trkpt lon="35.25952225551009" lat="31.30668838508427">
        <ele>355.3999938964844</ele>
        <time>2014-02-07T11:29:05.000Z</time>
      </trkpt>
      <trkpt lon="35.25931103155017" lat="31.306776395067573">
        <ele>357.20001220703125</ele>
        <time>2014-02-07T11:29:15.000Z</time>
      </trkpt>
      <trkpt lon="35.25911313481629" lat="31.306883096694946">
        <ele>358.79998779296875</ele>
        <time>2014-02-07T11:29:25.000Z</time>
      </trkpt>
      <trkpt lon="35.258885733783245" lat="31.306997844949365">
        <ele>358.79998779296875</ele>
        <time>2014-02-07T11:29:36.000Z</time>
      </trkpt>
      <trkpt lon="35.2586480230093" lat="31.30712566897273">
        <ele>358.79998779296875</ele>
        <time>2014-02-07T11:29:47.000Z</time>
      </trkpt>
      <trkpt lon="35.25843637995422" lat="31.307221306487918">
        <ele>361.20001220703125</ele>
        <time>2014-02-07T11:29:57.000Z</time>
      </trkpt>
      <trkpt lon="35.25820445269346" lat="31.307304706424475">
        <ele>362.6000061035156</ele>
        <time>2014-02-07T11:30:08.000Z</time>
      </trkpt>
      <trkpt lon="35.257931454107165" lat="31.30739984102547">
        <ele>363.6000061035156</ele>
        <time>2014-02-07T11:30:20.000Z</time>
      </trkpt>
      <trkpt lon="35.25769022293389" lat="31.30749707110226">
        <ele>365.3999938964844</ele>
        <time>2014-02-07T11:30:31.000Z</time>
      </trkpt>
      <trkpt lon="35.25754915550351" lat="31.307549122720957">
        <ele>366.3999938964844</ele>
        <time>2014-02-07T11:30:39.000Z</time>
      </trkpt>
      <trkpt lon="35.257397359237075" lat="31.30761223845184">
        <ele>368.79998779296875</ele>
        <time>2014-02-07T11:30:48.000Z</time>
      </trkpt>
      <trkpt lon="35.257268864661455" lat="31.307670576497912">
        <ele>370.20001220703125</ele>
        <time>2014-02-07T11:30:56.000Z</time>
      </trkpt>
      <trkpt lon="35.25710918940604" lat="31.307721538469195">
        <ele>372.20001220703125</ele>
        <time>2014-02-07T11:31:06.000Z</time>
      </trkpt>
      <trkpt lon="35.256902826949954" lat="31.307740984484553">
        <ele>373.6000061035156</ele>
        <time>2014-02-07T11:31:17.000Z</time>
      </trkpt>
      <trkpt lon="35.25671012699604" lat="31.307759508490562">
        <ele>375.0</ele>
        <time>2014-02-07T11:31:28.000Z</time>
      </trkpt>
      <trkpt lon="35.256544165313244" lat="31.30778674967587">
        <ele>376.0</ele>
        <time>2014-02-07T11:31:38.000Z</time>
      </trkpt>
      <trkpt lon="35.25637107901275" lat="31.307800579816103">
        <ele>378.0</ele>
        <time>2014-02-07T11:31:49.000Z</time>
      </trkpt>
      <trkpt lon="35.25620989501476" lat="31.307821450755">
        <ele>378.79998779296875</ele>
        <time>2014-02-07T11:31:59.000Z</time>
      </trkpt>
      <trkpt lon="35.25610520504415" lat="31.30782480351627">
        <ele>379.79998779296875</ele>
        <time>2014-02-07T11:32:06.000Z</time>
      </trkpt>
      <trkpt lon="35.25609254837036" lat="31.30782186985016">
        <ele>380.3999938964844</ele>
        <time>2014-02-07T11:32:07.000Z</time>
      </trkpt>
      <trkpt lon="35.25607972405851" lat="31.307818768545985">
        <ele>380.3999938964844</ele>
        <time>2014-02-07T11:32:08.000Z</time>
      </trkpt>
      <trkpt lon="35.25606840848923" lat="31.307816756889224">
        <ele>380.3999938964844</ele>
        <time>2014-02-07T11:32:09.000Z</time>
      </trkpt>
      <trkpt lon="35.256055165082216" lat="31.30782094784081">
        <ele>380.3999938964844</ele>
        <time>2014-02-07T11:32:10.000Z</time>
      </trkpt>
      <trkpt lon="35.25603974238038" lat="31.307824049144983">
        <ele>380.79998779296875</ele>
        <time>2014-02-07T11:32:11.000Z</time>
      </trkpt>
      <trkpt lon="35.256025744602084" lat="31.307825474068522">
        <ele>380.79998779296875</ele>
        <time>2014-02-07T11:32:12.000Z</time>
      </trkpt>
      <trkpt lon="35.256010573357344" lat="31.307826479896903">
        <ele>380.79998779296875</ele>
        <time>2014-02-07T11:32:13.000Z</time>
      </trkpt>
      <trkpt lon="35.255995485931635" lat="31.307825725525618">
        <ele>380.79998779296875</ele>
        <time>2014-02-07T11:32:14.000Z</time>
      </trkpt>
      <trkpt lon="35.255896328017116" lat="31.307825474068522">
        <ele>381.20001220703125</ele>
        <time>2014-02-07T11:32:21.000Z</time>
      </trkpt>
      <trkpt lon="35.2558833360672" lat="31.307824635878205">
        <ele>381.79998779296875</ele>
        <time>2014-02-07T11:32:22.000Z</time>
      </trkpt>
      <trkpt lon="35.25571519508958" lat="31.30781994201243">
        <ele>382.20001220703125</ele>
        <time>2014-02-07T11:32:34.000Z</time>
      </trkpt>
      <trkpt lon="35.255577228963375" lat="31.307810051366687">
        <ele>383.79998779296875</ele>
        <time>2014-02-07T11:32:44.000Z</time>
      </trkpt>
      <trkpt lon="35.255442783236504" lat="31.307789934799075">
        <ele>385.6000061035156</ele>
        <time>2014-02-07T11:32:53.000Z</time>
      </trkpt>
      <trkpt lon="35.25533013045788" lat="31.307763950899243">
        <ele>388.0</ele>
        <time>2014-02-07T11:33:01.000Z</time>
      </trkpt>
      <trkpt lon="35.25525586679578" lat="31.30773209966719">
        <ele>389.3999938964844</ele>
        <time>2014-02-07T11:33:08.000Z</time>
      </trkpt>
      <trkpt lon="35.25524379685521" lat="31.307730171829462">
        <ele>389.3999938964844</ele>
        <time>2014-02-07T11:33:09.000Z</time>
      </trkpt>
      <trkpt lon="35.25521052069962" lat="31.30771248601377">
        <ele>389.3999938964844</ele>
        <time>2014-02-07T11:33:12.000Z</time>
      </trkpt>
      <trkpt lon="35.25514564476907" lat="31.307687759399414">
        <ele>389.3999938964844</ele>
        <time>2014-02-07T11:33:19.000Z</time>
      </trkpt>
      <trkpt lon="35.255083702504635" lat="31.307648196816444">
        <ele>390.0</ele>
        <time>2014-02-07T11:33:25.000Z</time>
      </trkpt>
      <trkpt lon="35.25503005832434" lat="31.307617519050837">
        <ele>390.3999938964844</ele>
        <time>2014-02-07T11:33:30.000Z</time>
      </trkpt>
      <trkpt lon="35.25491204112768" lat="31.30753562785685">
        <ele>392.3999938964844</ele>
        <time>2014-02-07T11:33:41.000Z</time>
      </trkpt>
      <trkpt lon="35.25489628314972" lat="31.307516768574715">
        <ele>392.79998779296875</ele>
        <time>2014-02-07T11:33:43.000Z</time>
      </trkpt>
      <trkpt lon="35.25489058345556" lat="31.307506039738655">
        <ele>392.79998779296875</ele>
        <time>2014-02-07T11:33:44.000Z</time>
      </trkpt>
      <trkpt lon="35.254878429695964" lat="31.30749941803515">
        <ele>393.3999938964844</ele>
        <time>2014-02-07T11:33:45.000Z</time>
      </trkpt>
      <trkpt lon="35.254850182682276" lat="31.307490784674883">
        <ele>393.3999938964844</ele>
        <time>2014-02-07T11:33:47.000Z</time>
      </trkpt>
      <trkpt lon="35.25484339334071" lat="31.307482486590743">
        <ele>393.3999938964844</ele>
        <time>2014-02-07T11:33:48.000Z</time>
      </trkpt>
      <trkpt lon="35.25483559817076" lat="31.307473434135318">
        <ele>393.3999938964844</ele>
        <time>2014-02-07T11:33:49.000Z</time>
      </trkpt>
      <trkpt lon="35.25475462898612" lat="31.307401601225138">
        <ele>393.3999938964844</ele>
        <time>2014-02-07T11:33:57.000Z</time>
      </trkpt>
      <trkpt lon="35.25466779246926" lat="31.30728148855269">
        <ele>395.20001220703125</ele>
        <time>2014-02-07T11:34:08.000Z</time>
      </trkpt>
      <trkpt lon="35.254519348964095" lat="31.307204039767385">
        <ele>396.6000061035156</ele>
        <time>2014-02-07T11:34:19.000Z</time>
      </trkpt>
      <trkpt lon="35.25439403951168" lat="31.307139582931995">
        <ele>399.0</ele>
        <time>2014-02-07T11:34:28.000Z</time>
      </trkpt>
      <trkpt lon="35.254265712574124" lat="31.30707001313567">
        <ele>400.6000061035156</ele>
        <time>2014-02-07T11:34:38.000Z</time>
      </trkpt>
      <trkpt lon="35.25415414944291" lat="31.306984769180417">
        <ele>402.3999938964844</ele>
        <time>2014-02-07T11:34:49.000Z</time>
      </trkpt>
      <trkpt lon="35.25408273562789" lat="31.306847892701626">
        <ele>403.79998779296875</ele>
        <time>2014-02-07T11:35:00.000Z</time>
      </trkpt>
      <trkpt lon="35.25399221107364" lat="31.306651337072253">
        <ele>405.3999938964844</ele>
        <time>2014-02-07T11:35:12.000Z</time>
      </trkpt>
      <trkpt lon="35.253861621022224" lat="31.306482274085283">
        <ele>407.79998779296875</ele>
        <time>2014-02-07T11:35:23.000Z</time>
      </trkpt>
      <trkpt lon="35.25373002514243" lat="31.306279432028532">
        <ele>410.6000061035156</ele>
        <time>2014-02-07T11:35:36.000Z</time>
      </trkpt>
      <trkpt lon="35.25364603847265" lat="31.30611078813672">
        <ele>413.6000061035156</ele>
        <time>2014-02-07T11:35:47.000Z</time>
      </trkpt>
      <trkpt lon="35.25359499268234" lat="31.305956225842237">
        <ele>414.3999938964844</ele>
        <time>2014-02-07T11:35:57.000Z</time>
      </trkpt>
      <trkpt lon="35.253573367372155" lat="31.30581608042121">
        <ele>416.0</ele>
        <time>2014-02-07T11:36:06.000Z</time>
      </trkpt>
      <trkpt lon="35.253555262461305" lat="31.305655483156443">
        <ele>417.79998779296875</ele>
        <time>2014-02-07T11:36:16.000Z</time>
      </trkpt>
      <trkpt lon="35.25356230325997" lat="31.30551064386964">
        <ele>418.3999938964844</ele>
        <time>2014-02-07T11:36:26.000Z</time>
      </trkpt>
      <trkpt lon="35.253587951883674" lat="31.305380053818226">
        <ele>418.3999938964844</ele>
        <time>2014-02-07T11:36:33.000Z</time>
      </trkpt>
      <trkpt lon="35.25362349115312" lat="31.30515743046999">
        <ele>418.79998779296875</ele>
        <time>2014-02-07T11:36:41.000Z</time>
      </trkpt>
      <trkpt lon="35.25361561216414" lat="31.305033713579178">
        <ele>419.20001220703125</ele>
        <time>2014-02-07T11:36:47.000Z</time>
      </trkpt>
      <trkpt lon="35.253532296046615" lat="31.30483539775014">
        <ele>418.3999938964844</ele>
        <time>2014-02-07T11:36:57.000Z</time>
      </trkpt>
      <trkpt lon="35.2534294500947" lat="31.304663652554154">
        <ele>418.79998779296875</ele>
        <time>2014-02-07T11:37:07.000Z</time>
      </trkpt>
      <trkpt lon="35.253362730145454" lat="31.304417392238975">
        <ele>420.20001220703125</ele>
        <time>2014-02-07T11:37:18.000Z</time>
      </trkpt>
      <trkpt lon="35.25336583144963" lat="31.304325191304088">
        <ele>420.79998779296875</ele>
        <time>2014-02-07T11:37:24.000Z</time>
      </trkpt>
      <trkpt lon="35.253380415961146" lat="31.304278085008264">
        <ele>420.79998779296875</ele>
        <time>2014-02-07T11:37:27.000Z</time>
      </trkpt>
      <trkpt lon="35.25337706319988" lat="31.304260063916445">
        <ele>420.79998779296875</ele>
        <time>2014-02-07T11:37:28.000Z</time>
      </trkpt>
      <trkpt lon="35.25336658582091" lat="31.304244976490736">
        <ele>420.79998779296875</ele>
        <time>2014-02-07T11:37:29.000Z</time>
      </trkpt>
      <trkpt lon="35.25334697216749" lat="31.304239612072706">
        <ele>420.79998779296875</ele>
        <time>2014-02-07T11:37:30.000Z</time>
      </trkpt>
      <trkpt lon="35.253328531980515" lat="31.304233577102423">
        <ele>420.20001220703125</ele>
        <time>2014-02-07T11:37:31.000Z</time>
      </trkpt>
      <trkpt lon="35.25325225666165" lat="31.304114973172545">
        <ele>421.20001220703125</ele>
        <time>2014-02-07T11:37:40.000Z</time>
      </trkpt>
      <trkpt lon="35.253205485641956" lat="31.304001733660698">
        <ele>422.20001220703125</ele>
        <time>2014-02-07T11:37:48.000Z</time>
      </trkpt>
      <trkpt lon="35.253132060170174" lat="31.303869551047683">
        <ele>423.6000061035156</ele>
        <time>2014-02-07T11:37:57.000Z</time>
      </trkpt>
      <trkpt lon="35.25302242487669" lat="31.303737200796604">
        <ele>424.6000061035156</ele>
        <time>2014-02-07T11:38:06.000Z</time>
      </trkpt>
      <trkpt lon="35.252814050763845" lat="31.30363485775888">
        <ele>425.0</ele>
        <time>2014-02-07T11:38:16.000Z</time>
      </trkpt>
      <trkpt lon="35.25259595364332" lat="31.303525725379586">
        <ele>425.6000061035156</ele>
        <time>2014-02-07T11:38:28.000Z</time>
      </trkpt>
      <trkpt lon="35.25244826450944" lat="31.303451796993613">
        <ele>426.3999938964844</ele>
        <time>2014-02-07T11:38:36.000Z</time>
      </trkpt>
      <trkpt lon="35.252283811569214" lat="31.30335188470781">
        <ele>427.3999938964844</ele>
        <time>2014-02-07T11:38:46.000Z</time>
      </trkpt>
      <trkpt lon="35.25213955901563" lat="31.303272591903806">
        <ele>429.79998779296875</ele>
        <time>2014-02-07T11:38:55.000Z</time>
      </trkpt>
      <trkpt lon="35.251981392502785" lat="31.303184246644378">
        <ele>432.20001220703125</ele>
        <time>2014-02-07T11:39:05.000Z</time>
      </trkpt>
      <trkpt lon="35.25184225291014" lat="31.303062373772264">
        <ele>435.20001220703125</ele>
        <time>2014-02-07T11:39:16.000Z</time>
      </trkpt>
      <trkpt lon="35.25182666257024" lat="31.30303923971951">
        <ele>435.6000061035156</ele>
        <time>2014-02-07T11:39:18.000Z</time>
      </trkpt>
      <trkpt lon="35.25182087905705" lat="31.303025912493467">
        <ele>435.6000061035156</ele>
        <time>2014-02-07T11:39:19.000Z</time>
      </trkpt>
      <trkpt lon="35.25181517936289" lat="31.30301535129547">
        <ele>436.20001220703125</ele>
        <time>2014-02-07T11:39:20.000Z</time>
      </trkpt>
      <trkpt lon="35.25174074806273" lat="31.302889958024025">
        <ele>438.0</ele>
        <time>2014-02-07T11:39:31.000Z</time>
      </trkpt>
      <trkpt lon="35.25166539475322" lat="31.302758948877454">
        <ele>440.0</ele>
        <time>2014-02-07T11:39:42.000Z</time>
      </trkpt>
      <trkpt lon="35.251611080020666" lat="31.302619893103838">
        <ele>441.3999938964844</ele>
        <time>2014-02-07T11:39:52.000Z</time>
      </trkpt>
      <trkpt lon="35.25150957517326" lat="31.302470611408353">
        <ele>441.79998779296875</ele>
        <time>2014-02-07T11:40:02.000Z</time>
      </trkpt>
      <trkpt lon="35.251410752534866" lat="31.30236533470452">
        <ele>441.79998779296875</ele>
        <time>2014-02-07T11:40:10.000Z</time>
      </trkpt>
      <trkpt lon="35.2513193897903" lat="31.302264081314206">
        <ele>442.3999938964844</ele>
        <time>2014-02-07T11:40:20.000Z</time>
      </trkpt>
      <trkpt lon="35.25125602260232" lat="31.30215670913458">
        <ele>444.79998779296875</ele>
        <time>2014-02-07T11:40:30.000Z</time>
      </trkpt>
      <trkpt lon="35.25121201761067" lat="31.302064759656787">
        <ele>445.20001220703125</ele>
        <time>2014-02-07T11:40:38.000Z</time>
      </trkpt>
      <trkpt lon="35.25113389827311" lat="31.301947245374322">
        <ele>447.20001220703125</ele>
        <time>2014-02-07T11:40:49.000Z</time>
      </trkpt>
      <trkpt lon="35.251079918816686" lat="31.30185387097299">
        <ele>449.0</ele>
        <time>2014-02-07T11:40:57.000Z</time>
      </trkpt>
      <trkpt lon="35.2510323934257" lat="31.301754461601377">
        <ele>451.0</ele>
        <time>2014-02-07T11:41:06.000Z</time>
      </trkpt>
      <trkpt lon="35.25100531987846" lat="31.301722526550293">
        <ele>451.3999938964844</ele>
        <time>2014-02-07T11:41:09.000Z</time>
      </trkpt>
      <trkpt lon="35.25100439786911" lat="31.301713474094868">
        <ele>451.3999938964844</ele>
        <time>2014-02-07T11:41:10.000Z</time>
      </trkpt>
      <trkpt lon="35.251000206917524" lat="31.301705595105886">
        <ele>451.3999938964844</ele>
        <time>2014-02-07T11:41:11.000Z</time>
      </trkpt>
      <trkpt lon="35.25099651888013" lat="31.30169603973627">
        <ele>451.3999938964844</ele>
        <time>2014-02-07T11:41:12.000Z</time>
      </trkpt>
      <trkpt lon="35.250996267423034" lat="31.30168430507183">
        <ele>452.0</ele>
        <time>2014-02-07T11:41:13.000Z</time>
      </trkpt>
      <trkpt lon="35.25100238621235" lat="31.301573496311903">
        <ele>453.3999938964844</ele>
        <time>2014-02-07T11:41:22.000Z</time>
      </trkpt>
      <trkpt lon="35.25105703622103" lat="31.301467213779688">
        <ele>454.3999938964844</ele>
        <time>2014-02-07T11:41:31.000Z</time>
      </trkpt>
      <trkpt lon="35.251175640150905" lat="31.301370235159993">
        <ele>454.3999938964844</ele>
        <time>2014-02-07T11:41:40.000Z</time>
      </trkpt>
      <trkpt lon="35.25132483802736" lat="31.30126068368554">
        <ele>454.79998779296875</ele>
        <time>2014-02-07T11:41:49.000Z</time>
      </trkpt>
      <trkpt lon="35.251413183286786" lat="31.30119077861309">
        <ele>454.3999938964844</ele>
        <time>2014-02-07T11:41:55.000Z</time>
      </trkpt>
      <trkpt lon="35.25142667815089" lat="31.301179630681872">
        <ele>454.3999938964844</ele>
        <time>2014-02-07T11:41:56.000Z</time>
      </trkpt>
      <trkpt lon="35.251440005376935" lat="31.30116932094097">
        <ele>454.3999938964844</ele>
        <time>2014-02-07T11:41:57.000Z</time>
      </trkpt>
      <trkpt lon="35.25144956074655" lat="31.30115021020174">
        <ele>454.79998779296875</ele>
        <time>2014-02-07T11:41:58.000Z</time>
      </trkpt>
      <trkpt lon="35.2514607924968" lat="31.30113017745316">
        <ele>454.79998779296875</ele>
        <time>2014-02-07T11:41:59.000Z</time>
      </trkpt>
      <trkpt lon="35.25147235952318" lat="31.30110662430525">
        <ele>454.79998779296875</ele>
        <time>2014-02-07T11:42:00.000Z</time>
      </trkpt>
      <trkpt lon="35.251484429463744" lat="31.301083909347653">
        <ele>454.79998779296875</ele>
        <time>2014-02-07T11:42:01.000Z</time>
      </trkpt>
      <trkpt lon="35.25149851106107" lat="31.301060020923615">
        <ele>455.3999938964844</ele>
        <time>2014-02-07T11:42:02.000Z</time>
      </trkpt>
      <trkpt lon="35.25151435285807" lat="31.301035461947322">
        <ele>455.3999938964844</ele>
        <time>2014-02-07T11:42:03.000Z</time>
      </trkpt>
      <trkpt lon="35.2515281829983" lat="31.30101048387587">
        <ele>455.3999938964844</ele>
        <time>2014-02-07T11:42:04.000Z</time>
      </trkpt>
      <trkpt lon="35.25153983384371" lat="31.30098458379507">
        <ele>455.3999938964844</ele>
        <time>2014-02-07T11:42:05.000Z</time>
      </trkpt>
      <trkpt lon="35.25157009251416" lat="31.300797751173377">
        <ele>458.20001220703125</ele>
        <time>2014-02-07T11:42:13.000Z</time>
      </trkpt>
      <trkpt lon="35.25148015469313" lat="31.30063857883215">
        <ele>461.0</ele>
        <time>2014-02-07T11:42:22.000Z</time>
      </trkpt>
      <trkpt lon="35.25127521716058" lat="31.300445208325982">
        <ele>465.0</ele>
        <time>2014-02-07T11:42:35.000Z</time>
      </trkpt>
      <trkpt lon="35.25113088078797" lat="31.300345044583082">
        <ele>466.3999938964844</ele>
        <time>2014-02-07T11:42:44.000Z</time>
      </trkpt>
      <trkpt lon="35.25111914612353" lat="31.30033465102315">
        <ele>466.79998779296875</ele>
        <time>2014-02-07T11:42:45.000Z</time>
      </trkpt>
      <trkpt lon="35.25096952915192" lat="31.300239684060216">
        <ele>468.79998779296875</ele>
        <time>2014-02-07T11:42:55.000Z</time>
      </trkpt>
      <trkpt lon="35.25084748864174" lat="31.300154104828835">
        <ele>469.79998779296875</ele>
        <time>2014-02-07T11:43:04.000Z</time>
      </trkpt>
      <trkpt lon="35.25070860050619" lat="31.30006056278944">
        <ele>471.20001220703125</ele>
        <time>2014-02-07T11:43:13.000Z</time>
      </trkpt>
      <trkpt lon="35.25053140707314" lat="31.299958555027843">
        <ele>473.20001220703125</ele>
        <time>2014-02-07T11:43:24.000Z</time>
      </trkpt>
      <trkpt lon="35.25043560191989" lat="31.299917483702302">
        <ele>473.20001220703125</ele>
        <time>2014-02-07T11:43:30.000Z</time>
      </trkpt>
      <trkpt lon="35.25025438517332" lat="31.2998122908175">
        <ele>473.20001220703125</ele>
        <time>2014-02-07T11:43:41.000Z</time>
      </trkpt>
      <trkpt lon="35.250180792063475" lat="31.299736853688955">
        <ele>473.6000061035156</ele>
        <time>2014-02-07T11:43:48.000Z</time>
      </trkpt>
      <trkpt lon="35.2501087076962" lat="31.299603832885623">
        <ele>474.6000061035156</ele>
        <time>2014-02-07T11:43:58.000Z</time>
      </trkpt>
      <trkpt lon="35.25004676543176" lat="31.29948983900249">
        <ele>475.6000061035156</ele>
        <time>2014-02-07T11:44:08.000Z</time>
      </trkpt>
      <trkpt lon="35.250028911978006" lat="31.29943460226059">
        <ele>476.0</ele>
        <time>2014-02-07T11:44:13.000Z</time>
      </trkpt>
      <trkpt lon="35.25002321228385" lat="31.29942395724356">
        <ele>476.0</ele>
        <time>2014-02-07T11:44:14.000Z</time>
      </trkpt>
      <trkpt lon="35.249930173158646" lat="31.29930610768497">
        <ele>477.3999938964844</ele>
        <time>2014-02-07T11:44:26.000Z</time>
      </trkpt>
      <trkpt lon="35.249849455431104" lat="31.2991801276803">
        <ele>479.3999938964844</ele>
        <time>2014-02-07T11:44:37.000Z</time>
      </trkpt>
      <trkpt lon="35.249759098514915" lat="31.29904811270535">
        <ele>481.20001220703125</ele>
        <time>2014-02-07T11:44:49.000Z</time>
      </trkpt>
      <trkpt lon="35.24967628531158" lat="31.29896513186395">
        <ele>482.20001220703125</ele>
        <time>2014-02-07T11:44:58.000Z</time>
      </trkpt>
      <trkpt lon="35.24956690147519" lat="31.298869494348764">
        <ele>482.79998779296875</ele>
        <time>2014-02-07T11:45:09.000Z</time>
      </trkpt>
      <trkpt lon="35.24951887317002" lat="31.29883856512606">
        <ele>482.79998779296875</ele>
        <time>2014-02-07T11:45:13.000Z</time>
      </trkpt>
      <trkpt lon="35.2495061326772" lat="31.29883060231805">
        <ele>482.79998779296875</ele>
        <time>2014-02-07T11:45:14.000Z</time>
      </trkpt>
      <trkpt lon="35.24949121288955" lat="31.298823729157448">
        <ele>482.79998779296875</ele>
        <time>2014-02-07T11:45:15.000Z</time>
      </trkpt>
      <trkpt lon="35.249477215111256" lat="31.298816353082657">
        <ele>482.79998779296875</ele>
        <time>2014-02-07T11:45:16.000Z</time>
      </trkpt>
      <trkpt lon="35.24946372024715" lat="31.298807384446263">
        <ele>483.20001220703125</ele>
        <time>2014-02-07T11:45:17.000Z</time>
      </trkpt>
      <trkpt lon="35.24945156648755" lat="31.298800008371472">
        <ele>483.20001220703125</ele>
        <time>2014-02-07T11:45:18.000Z</time>
      </trkpt>
      <trkpt lon="35.249436898157" lat="31.29879305139184">
        <ele>483.20001220703125</ele>
        <time>2014-02-07T11:45:19.000Z</time>
      </trkpt>
      <trkpt lon="35.24942139163613" lat="31.298786932602525">
        <ele>483.6000061035156</ele>
        <time>2014-02-07T11:45:20.000Z</time>
      </trkpt>
      <trkpt lon="35.249406388029456" lat="31.298782154917717">
        <ele>483.6000061035156</ele>
        <time>2014-02-07T11:45:21.000Z</time>
      </trkpt>
      <trkpt lon="35.24939155206084" lat="31.29877645522356">
        <ele>483.6000061035156</ele>
        <time>2014-02-07T11:45:22.000Z</time>
      </trkpt>
      <trkpt lon="35.2493766322732" lat="31.29877209663391">
        <ele>483.6000061035156</ele>
        <time>2014-02-07T11:45:23.000Z</time>
      </trkpt>
      <trkpt lon="35.249361880123615" lat="31.298768240958452">
        <ele>484.20001220703125</ele>
        <time>2014-02-07T11:45:24.000Z</time>
      </trkpt>
      <trkpt lon="35.24921896867454" lat="31.298736222088337">
        <ele>485.20001220703125</ele>
        <time>2014-02-07T11:45:34.000Z</time>
      </trkpt>
      <trkpt lon="35.24910447187722" lat="31.29871685989201">
        <ele>487.0</ele>
        <time>2014-02-07T11:45:42.000Z</time>
      </trkpt>
      <trkpt lon="35.24897321127355" lat="31.298666149377823">
        <ele>489.0</ele>
        <time>2014-02-07T11:45:52.000Z</time>
      </trkpt>
      <trkpt lon="35.24885485880077" lat="31.29860596731305">
        <ele>491.79998779296875</ele>
        <time>2014-02-07T11:46:01.000Z</time>
      </trkpt>
      <trkpt lon="35.24877238087356" lat="31.298551568761468">
        <ele>492.79998779296875</ele>
        <time>2014-02-07T11:46:09.000Z</time>
      </trkpt>
      <trkpt lon="35.248650424182415" lat="31.298505384474993">
        <ele>494.79998779296875</ele>
        <time>2014-02-07T11:46:18.000Z</time>
      </trkpt>
      <trkpt lon="35.24854464456439" lat="31.298449728637934">
        <ele>495.79998779296875</ele>
        <time>2014-02-07T11:46:27.000Z</time>
      </trkpt>
      <trkpt lon="35.24841363541782" lat="31.298401029780507">
        <ele>499.0</ele>
        <time>2014-02-07T11:46:37.000Z</time>
      </trkpt>
      <trkpt lon="35.248252199962735" lat="31.298378398641944">
        <ele>500.6000061035156</ele>
        <time>2014-02-07T11:46:48.000Z</time>
      </trkpt>
      <trkpt lon="35.24817215278745" lat="31.298369765281677">
        <ele>501.3999938964844</ele>
        <time>2014-02-07T11:46:56.000Z</time>
      </trkpt>
      <trkpt lon="35.24815077893436" lat="31.298379069194198">
        <ele>501.0</ele>
        <time>2014-02-07T11:47:11.000Z</time>
      </trkpt>
      <trkpt lon="35.24814097210765" lat="31.2983737885952">
        <ele>501.0</ele>
        <time>2014-02-07T11:47:28.000Z</time>
      </trkpt>
      <trkpt lon="35.24813971482217" lat="31.2983703520149">
        <ele>501.3999938964844</ele>
        <time>2014-02-07T11:47:44.000Z</time>
      </trkpt>
      <trkpt lon="35.248138373717666" lat="31.298378985375166">
        <ele>503.0</ele>
        <time>2014-02-07T11:48:02.000Z</time>
      </trkpt>
      <trkpt lon="35.24814600124955" lat="31.298389127478004">
        <ele>507.20001220703125</ele>
        <time>2014-02-07T11:48:19.000Z</time>
      </trkpt>
      <trkpt lon="35.248151114210486" lat="31.298393988981843">
        <ele>508.20001220703125</ele>
        <time>2014-02-07T11:48:32.000Z</time>
      </trkpt>
      <trkpt lon="35.248150611296296" lat="31.29839088767767">
        <ele>511.0</ele>
        <time>2014-02-07T11:48:45.000Z</time>
      </trkpt>
      <trkpt lon="35.248127141967416" lat="31.29838560707867">
        <ele>514.4000244140625</ele>
        <time>2014-02-07T11:49:07.000Z</time>
      </trkpt>
      <trkpt lon="35.24813083000481" lat="31.298381332308054">
        <ele>515.4000244140625</ele>
        <time>2014-02-07T11:49:21.000Z</time>
      </trkpt>
      <trkpt lon="35.24812554940581" lat="31.298384852707386">
        <ele>517.7999877929688</ele>
        <time>2014-02-07T11:49:37.000Z</time>
      </trkpt>
      <trkpt lon="35.248078275471926" lat="31.298391306772828">
        <ele>519.2000122070312</ele>
        <time>2014-02-07T11:49:55.000Z</time>
      </trkpt>
      <trkpt lon="35.24805556051433" lat="31.29838359542191">
        <ele>520.2000122070312</ele>
        <time>2014-02-07T11:50:11.000Z</time>
      </trkpt>
      <trkpt lon="35.24805589579046" lat="31.298369765281677">
        <ele>520.5999755859375</ele>
        <time>2014-02-07T11:50:31.000Z</time>
      </trkpt>
      <trkpt lon="35.248033767566085" lat="31.298370687291026">
        <ele>521.2000122070312</ele>
        <time>2014-02-07T11:50:51.000Z</time>
      </trkpt>
      <trkpt lon="35.24805103428662" lat="31.29833866842091">
        <ele>523.5999755859375</ele>
        <time>2014-02-07T11:51:05.000Z</time>
      </trkpt>
      <trkpt lon="35.24805111810565" lat="31.298327771946788">
        <ele>523.0</ele>
        <time>2014-02-07T11:51:07.000Z</time>
      </trkpt>
      <trkpt lon="35.24799261242151" lat="31.298310002312064">
        <ele>523.5999755859375</ele>
        <time>2014-02-07T11:51:14.000Z</time>
      </trkpt>
      <trkpt lon="35.24787761271" lat="31.298249401152134">
        <ele>523.0</ele>
        <time>2014-02-07T11:51:24.000Z</time>
      </trkpt>
      <trkpt lon="35.24784249253571" lat="31.29821696318686">
        <ele>523.5999755859375</ele>
        <time>2014-02-07T11:51:28.000Z</time>
      </trkpt>
      <trkpt lon="35.247847186401486" lat="31.298202965408564">
        <ele>523.5999755859375</ele>
        <time>2014-02-07T11:51:29.000Z</time>
      </trkpt>
      <trkpt lon="35.247854478657246" lat="31.298188380897045">
        <ele>523.0</ele>
        <time>2014-02-07T11:51:30.000Z</time>
      </trkpt>
      <trkpt lon="35.24785657413304" lat="31.298175053671002">
        <ele>522.5999755859375</ele>
        <time>2014-02-07T11:51:31.000Z</time>
      </trkpt>
      <trkpt lon="35.24785338900983" lat="31.298162061721087">
        <ele>522.5999755859375</ele>
        <time>2014-02-07T11:51:32.000Z</time>
      </trkpt>
      <trkpt lon="35.24784391745925" lat="31.298155020922422">
        <ele>522.2000122070312</ele>
        <time>2014-02-07T11:51:33.000Z</time>
      </trkpt>
      <trkpt lon="35.24782991968095" lat="31.298150159418583">
        <ele>521.5999755859375</ele>
        <time>2014-02-07T11:51:34.000Z</time>
      </trkpt>
      <trkpt lon="35.247735204175115" lat="31.298060892149806">
        <ele>520.2000122070312</ele>
        <time>2014-02-07T11:51:44.000Z</time>
      </trkpt>
      <trkpt lon="35.24765239097178" lat="31.29797304980457">
        <ele>519.7999877929688</ele>
        <time>2014-02-07T11:51:53.000Z</time>
      </trkpt>
      <trkpt lon="35.24757946841419" lat="31.29788218997419">
        <ele>519.7999877929688</ele>
        <time>2014-02-07T11:52:02.000Z</time>
      </trkpt>
      <trkpt lon="35.24749464355409" lat="31.297790240496397">
        <ele>519.2000122070312</ele>
        <time>2014-02-07T11:52:12.000Z</time>
      </trkpt>
      <trkpt lon="35.24742566049099" lat="31.297707008197904">
        <ele>519.2000122070312</ele>
        <time>2014-02-07T11:52:21.000Z</time>
      </trkpt>
      <trkpt lon="35.24739724583924" lat="31.297581447288394">
        <ele>519.2000122070312</ele>
        <time>2014-02-07T11:52:31.000Z</time>
      </trkpt>
      <trkpt lon="35.24741769768298" lat="31.29750458523631">
        <ele>519.2000122070312</ele>
        <time>2014-02-07T11:52:37.000Z</time>
      </trkpt>
      <trkpt lon="35.24742037989199" lat="31.29748983308673">
        <ele>519.2000122070312</ele>
        <time>2014-02-07T11:52:38.000Z</time>
      </trkpt>
      <trkpt lon="35.24742423556745" lat="31.297475080937147">
        <ele>518.7999877929688</ele>
        <time>2014-02-07T11:52:39.000Z</time>
      </trkpt>
      <trkpt lon="35.24742582812905" lat="31.297460664063692">
        <ele>518.7999877929688</ele>
        <time>2014-02-07T11:52:40.000Z</time>
      </trkpt>
      <trkpt lon="35.24742532521486" lat="31.297446163371205">
        <ele>518.7999877929688</ele>
        <time>2014-02-07T11:52:41.000Z</time>
      </trkpt>
      <trkpt lon="35.247407304123044" lat="31.297278441488743">
        <ele>519.7999877929688</ele>
        <time>2014-02-07T11:52:53.000Z</time>
      </trkpt>
      <trkpt lon="35.24736128747463" lat="31.297151623293757">
        <ele>525.5999755859375</ele>
        <time>2014-02-07T11:53:03.000Z</time>
      </trkpt>
      <trkpt lon="35.24723128415644" lat="31.297038635239005">
        <ele>531.2000122070312</ele>
        <time>2014-02-07T11:53:14.000Z</time>
      </trkpt>
      <trkpt lon="35.24703950621188" lat="31.296958504244685">
        <ele>533.2000122070312</ele>
        <time>2014-02-07T11:53:27.000Z</time>
      </trkpt>
      <trkpt lon="35.24686172604561" lat="31.29687569104135">
        <ele>535.2000122070312</ele>
        <time>2014-02-07T11:53:39.000Z</time>
      </trkpt>
      <trkpt lon="35.2466912381351" lat="31.296800253912807">
        <ele>536.0</ele>
        <time>2014-02-07T11:53:51.000Z</time>
      </trkpt>
      <trkpt lon="35.24656425230205" lat="31.29673982039094">
        <ele>537.0</ele>
        <time>2014-02-07T11:54:00.000Z</time>
      </trkpt>
      <trkpt lon="35.24641949683428" lat="31.296704029664397">
        <ele>538.0</ele>
        <time>2014-02-07T11:54:09.000Z</time>
      </trkpt>
      <trkpt lon="35.24618656374514" lat="31.296686679124832">
        <ele>539.0</ele>
        <time>2014-02-07T11:54:21.000Z</time>
      </trkpt>
      <trkpt lon="35.24597005918622" lat="31.296706460416317">
        <ele>539.0</ele>
        <time>2014-02-07T11:54:31.000Z</time>
      </trkpt>
      <trkpt lon="35.2457622718066" lat="31.296733785420656">
        <ele>540.0</ele>
        <time>2014-02-07T11:54:40.000Z</time>
      </trkpt>
      <trkpt lon="35.245455829426646" lat="31.29674468189478">
        <ele>540.7999877929688</ele>
        <time>2014-02-07T11:54:50.000Z</time>
      </trkpt>
      <trkpt lon="35.2451576013118" lat="31.29670411348343">
        <ele>540.4000244140625</ele>
        <time>2014-02-07T11:54:58.000Z</time>
      </trkpt>
      <trkpt lon="35.24492617696524" lat="31.296589532867074">
        <ele>539.0</ele>
        <time>2014-02-07T11:55:05.000Z</time>
      </trkpt>
      <trkpt lon="35.24462375789881" lat="31.29637084901333">
        <ele>536.0</ele>
        <time>2014-02-07T11:55:14.000Z</time>
      </trkpt>
      <trkpt lon="35.2444376796484" lat="31.296294908970594">
        <ele>535.5999755859375</ele>
        <time>2014-02-07T11:55:22.000Z</time>
      </trkpt>
      <trkpt lon="35.244213631376624" lat="31.296221148222685">
        <ele>535.2000122070312</ele>
        <time>2014-02-07T11:55:31.000Z</time>
      </trkpt>
      <trkpt lon="35.24398036301136" lat="31.29613682627678">
        <ele>536.5999755859375</ele>
        <time>2014-02-07T11:55:41.000Z</time>
      </trkpt>
      <trkpt lon="35.243746088817716" lat="31.295955693349242">
        <ele>540.7999877929688</ele>
        <time>2014-02-07T11:55:52.000Z</time>
      </trkpt>
      <trkpt lon="35.243585743010044" lat="31.295739943161607">
        <ele>544.7999877929688</ele>
        <time>2014-02-07T11:56:03.000Z</time>
      </trkpt>
      <trkpt lon="35.24350603111088" lat="31.29551731981337">
        <ele>546.5999755859375</ele>
        <time>2014-02-07T11:56:13.000Z</time>
      </trkpt>
      <trkpt lon="35.24345230311155" lat="31.295334678143263">
        <ele>549.5999755859375</ele>
        <time>2014-02-07T11:56:24.000Z</time>
      </trkpt>
      <trkpt lon="35.243446519598365" lat="31.29518212750554">
        <ele>551.0</ele>
        <time>2014-02-07T11:56:33.000Z</time>
      </trkpt>
      <trkpt lon="35.24340980686247" lat="31.29499001428485">
        <ele>553.0</ele>
        <time>2014-02-07T11:56:43.000Z</time>
      </trkpt>
      <trkpt lon="35.24329916574061" lat="31.29483654163778">
        <ele>554.7999877929688</ele>
        <time>2014-02-07T11:56:53.000Z</time>
      </trkpt>
      <trkpt lon="35.24317955598235" lat="31.294708801433444">
        <ele>553.4000244140625</ele>
        <time>2014-02-07T11:57:02.000Z</time>
      </trkpt>
      <trkpt lon="35.243017533794045" lat="31.294534876942635">
        <ele>554.4000244140625</ele>
        <time>2014-02-07T11:57:16.000Z</time>
      </trkpt>
      <trkpt lon="35.24294829927385" lat="31.294402861967683">
        <ele>556.2000122070312</ele>
        <time>2014-02-07T11:57:25.000Z</time>
      </trkpt>
      <trkpt lon="35.24288811720908" lat="31.29427906125784">
        <ele>558.2000122070312</ele>
        <time>2014-02-07T11:57:33.000Z</time>
      </trkpt>
      <trkpt lon="35.24282491765916" lat="31.294125001877546">
        <ele>559.2000122070312</ele>
        <time>2014-02-07T11:57:42.000Z</time>
      </trkpt>
      <trkpt lon="35.24275970645249" lat="31.293951077386737">
        <ele>560.5999755859375</ele>
        <time>2014-02-07T11:57:51.000Z</time>
      </trkpt>
      <trkpt lon="35.24271125905216" lat="31.293826270848513">
        <ele>561.5999755859375</ele>
        <time>2014-02-07T11:57:58.000Z</time>
      </trkpt>
      <trkpt lon="35.24266700260341" lat="31.293638767674565">
        <ele>564.0</ele>
        <time>2014-02-07T11:58:08.000Z</time>
      </trkpt>
      <trkpt lon="35.24268108420074" lat="31.293473225086927">
        <ele>565.0</ele>
        <time>2014-02-07T11:58:16.000Z</time>
      </trkpt>
      <trkpt lon="35.242738081142306" lat="31.293296786025167">
        <ele>566.4000244140625</ele>
        <time>2014-02-07T11:58:24.000Z</time>
      </trkpt>
      <trkpt lon="35.24274453520775" lat="31.293093524873257">
        <ele>566.4000244140625</ele>
        <time>2014-02-07T11:58:33.000Z</time>
      </trkpt>
      <trkpt lon="35.24266348220408" lat="31.292924713343382">
        <ele>567.7999877929688</ele>
        <time>2014-02-07T11:58:43.000Z</time>
      </trkpt>
      <trkpt lon="35.2425189781934" lat="31.292774509638548">
        <ele>567.4000244140625</ele>
        <time>2014-02-07T11:58:56.000Z</time>
      </trkpt>
      <trkpt lon="35.242412192747" lat="31.29265481606126">
        <ele>567.4000244140625</ele>
        <time>2014-02-07T11:59:07.000Z</time>
      </trkpt>
      <trkpt lon="35.242329547181726" lat="31.29254635423422">
        <ele>568.2000122070312</ele>
        <time>2014-02-07T11:59:17.000Z</time>
      </trkpt>
      <trkpt lon="35.24222812615335" lat="31.292417692020535">
        <ele>570.5999755859375</ele>
        <time>2014-02-07T11:59:29.000Z</time>
      </trkpt>
      <trkpt lon="35.24205814115703" lat="31.292304871603847">
        <ele>571.2000122070312</ele>
        <time>2014-02-07T11:59:41.000Z</time>
      </trkpt>
      <trkpt lon="35.241917073726654" lat="31.292227171361446">
        <ele>571.5999755859375</ele>
        <time>2014-02-07T11:59:51.000Z</time>
      </trkpt>
      <trkpt lon="35.241767121478915" lat="31.292190458625555">
        <ele>572.5999755859375</ele>
        <time>2014-02-07T12:00:01.000Z</time>
      </trkpt>
      <trkpt lon="35.24162077344954" lat="31.292185932397842">
        <ele>574.5999755859375</ele>
        <time>2014-02-07T12:00:10.000Z</time>
      </trkpt>
      <trkpt lon="35.241534523665905" lat="31.29218392074108">
        <ele>574.5999755859375</ele>
        <time>2014-02-07T12:00:15.000Z</time>
      </trkpt>
      <trkpt lon="35.24151465855539" lat="31.292179645970464">
        <ele>575.0</ele>
        <time>2014-02-07T12:00:16.000Z</time>
      </trkpt>
      <trkpt lon="35.24149680510163" lat="31.292178137227893">
        <ele>575.0</ele>
        <time>2014-02-07T12:00:17.000Z</time>
      </trkpt>
      <trkpt lon="35.24147652089596" lat="31.292177718132734">
        <ele>575.0</ele>
        <time>2014-02-07T12:00:18.000Z</time>
      </trkpt>
      <trkpt lon="35.24145556613803" lat="31.292174449190497">
        <ele>575.0</ele>
        <time>2014-02-07T12:00:19.000Z</time>
      </trkpt>
      <trkpt lon="35.24126756004989" lat="31.292161205783486">
        <ele>576.0</ele>
        <time>2014-02-07T12:00:29.000Z</time>
      </trkpt>
      <trkpt lon="35.241112411022186" lat="31.292107058688998">
        <ele>577.0</ele>
        <time>2014-02-07T12:00:39.000Z</time>
      </trkpt>
      <trkpt lon="35.24099439382553" lat="31.292030699551105">
        <ele>577.7999877929688</ele>
        <time>2014-02-07T12:00:47.000Z</time>
      </trkpt>
      <trkpt lon="35.24093429557979" lat="31.291917795315385">
        <ele>578.4000244140625</ele>
        <time>2014-02-07T12:00:56.000Z</time>
      </trkpt>
      <trkpt lon="35.24098693393171" lat="31.291754599660635">
        <ele>577.7999877929688</ele>
        <time>2014-02-07T12:01:05.000Z</time>
      </trkpt>
      <trkpt lon="35.241148537024856" lat="31.29164253361523">
        <ele>576.4000244140625</ele>
        <time>2014-02-07T12:01:13.000Z</time>
      </trkpt>
      <trkpt lon="35.2413413207978" lat="31.291610430926085">
        <ele>574.0</ele>
        <time>2014-02-07T12:01:20.000Z</time>
      </trkpt>
      <trkpt lon="35.241618594154716" lat="31.291557122021914">
        <ele>573.5999755859375</ele>
        <time>2014-02-07T12:01:30.000Z</time>
      </trkpt>
      <trkpt lon="35.24167022667825" lat="31.291560055688024">
        <ele>573.0</ele>
        <time>2014-02-07T12:01:33.000Z</time>
      </trkpt>
      <trkpt lon="35.24168338626623" lat="31.29156567156315">
        <ele>573.0</ele>
        <time>2014-02-07T12:01:34.000Z</time>
      </trkpt>
      <trkpt lon="35.2417007368058" lat="31.291564665734768">
        <ele>573.0</ele>
        <time>2014-02-07T12:01:35.000Z</time>
      </trkpt>
      <trkpt lon="35.241899555549026" lat="31.291484031826258">
        <ele>572.5999755859375</ele>
        <time>2014-02-07T12:01:43.000Z</time>
      </trkpt>
      <trkpt lon="35.24211639538407" lat="31.291318237781525">
        <ele>573.0</ele>
        <time>2014-02-07T12:01:53.000Z</time>
      </trkpt>
      <trkpt lon="35.24231253191829" lat="31.291132494807243">
        <ele>573.0</ele>
        <time>2014-02-07T12:02:03.000Z</time>
      </trkpt>
      <trkpt lon="35.242506908252835" lat="31.290905848145485">
        <ele>573.5999755859375</ele>
        <time>2014-02-07T12:02:13.000Z</time>
      </trkpt>
      <trkpt lon="35.24270203895867" lat="31.290698731318116">
        <ele>573.0</ele>
        <time>2014-02-07T12:02:21.000Z</time>
      </trkpt>
      <trkpt lon="35.242932541295886" lat="31.29049077630043">
        <ele>574.0</ele>
        <time>2014-02-07T12:02:31.000Z</time>
      </trkpt>
      <trkpt lon="35.24312557652593" lat="31.290269996970892">
        <ele>575.4000244140625</ele>
        <time>2014-02-07T12:02:41.000Z</time>
      </trkpt>
      <trkpt lon="35.24323143996298" lat="31.290075536817312">
        <ele>576.4000244140625</ele>
        <time>2014-02-07T12:02:49.000Z</time>
      </trkpt>
      <trkpt lon="35.24330201558769" lat="31.28986531868577">
        <ele>578.4000244140625</ele>
        <time>2014-02-07T12:02:58.000Z</time>
      </trkpt>
      <trkpt lon="35.24325809441507" lat="31.289654597640038">
        <ele>581.7999877929688</ele>
        <time>2014-02-07T12:03:07.000Z</time>
      </trkpt>
      <trkpt lon="35.24317419156432" lat="31.289519732818007">
        <ele>584.5999755859375</ele>
        <time>2014-02-07T12:03:15.000Z</time>
      </trkpt>
      <trkpt lon="35.24303580634296" lat="31.289388304576278">
        <ele>587.0</ele>
        <time>2014-02-07T12:03:23.000Z</time>
      </trkpt>
      <trkpt lon="35.242865486070514" lat="31.289284117519855">
        <ele>589.4000244140625</ele>
        <time>2014-02-07T12:03:32.000Z</time>
      </trkpt>
      <trkpt lon="35.242693992331624" lat="31.289200969040394">
        <ele>591.7999877929688</ele>
        <time>2014-02-07T12:03:43.000Z</time>
      </trkpt>
      <trkpt lon="35.24256197735667" lat="31.289144726470113">
        <ele>593.7999877929688</ele>
        <time>2014-02-07T12:03:52.000Z</time>
      </trkpt>
      <trkpt lon="35.24239559657872" lat="31.289083370938897">
        <ele>596.2000122070312</ele>
        <time>2014-02-07T12:04:01.000Z</time>
      </trkpt>
      <trkpt lon="35.24218822829425" lat="31.289021344855428">
        <ele>597.5999755859375</ele>
        <time>2014-02-07T12:04:11.000Z</time>
      </trkpt>
      <trkpt lon="35.2420009765774" lat="31.288967952132225">
        <ele>599.0</ele>
        <time>2014-02-07T12:04:20.000Z</time>
      </trkpt>
      <trkpt lon="35.24172387085855" lat="31.288894778117537">
        <ele>602.0</ele>
        <time>2014-02-07T12:04:32.000Z</time>
      </trkpt>
      <trkpt lon="35.24153418838978" lat="31.288866195827723">
        <ele>603.7999877929688</ele>
        <time>2014-02-07T12:04:42.000Z</time>
      </trkpt>
      <trkpt lon="35.24135297164321" lat="31.288838535547256">
        <ele>607.2000122070312</ele>
        <time>2014-02-07T12:04:52.000Z</time>
      </trkpt>
      <trkpt lon="35.24118985980749" lat="31.288822442293167">
        <ele>609.5999755859375</ele>
        <time>2014-02-07T12:05:02.000Z</time>
      </trkpt>
      <trkpt lon="35.2410461101681" lat="31.288809031248093">
        <ele>612.5999755859375</ele>
        <time>2014-02-07T12:05:12.000Z</time>
      </trkpt>
      <trkpt lon="35.240942761301994" lat="31.28879612311721">
        <ele>614.4000244140625</ele>
        <time>2014-02-07T12:05:19.000Z</time>
      </trkpt>
      <trkpt lon="35.240790881216526" lat="31.28880400210619">
        <ele>616.7999877929688</ele>
        <time>2014-02-07T12:05:28.000Z</time>
      </trkpt>
      <trkpt lon="35.24077545851469" lat="31.288800984621048">
        <ele>616.7999877929688</ele>
        <time>2014-02-07T12:05:29.000Z</time>
      </trkpt>
      <trkpt lon="35.24075944907963" lat="31.288800314068794">
        <ele>616.7999877929688</ele>
        <time>2014-02-07T12:05:30.000Z</time>
      </trkpt>
      <trkpt lon="35.240742517635226" lat="31.288801236078143">
        <ele>617.2000122070312</ele>
        <time>2014-02-07T12:05:31.000Z</time>
      </trkpt>
      <trkpt lon="35.240725418552756" lat="31.288803499192">
        <ele>617.2000122070312</ele>
        <time>2014-02-07T12:05:32.000Z</time>
      </trkpt>
      <trkpt lon="35.24052609689534" lat="31.288823867216706">
        <ele>619.2000122070312</ele>
        <time>2014-02-07T12:05:44.000Z</time>
      </trkpt>
      <trkpt lon="35.240432135760784" lat="31.2888190895319">
        <ele>620.2000122070312</ele>
        <time>2014-02-07T12:05:50.000Z</time>
      </trkpt>
      <trkpt lon="35.240414533764124" lat="31.288816407322884">
        <ele>620.2000122070312</ele>
        <time>2014-02-07T12:05:51.000Z</time>
      </trkpt>
      <trkpt lon="35.24029358290136" lat="31.288802828639746">
        <ele>622.5999755859375</ele>
        <time>2014-02-07T12:06:00.000Z</time>
      </trkpt>
      <trkpt lon="35.240128794685006" lat="31.28879721276462">
        <ele>623.5999755859375</ele>
        <time>2014-02-07T12:06:08.000Z</time>
      </trkpt>
      <trkpt lon="35.24001957848668" lat="31.28876695409417">
        <ele>625.0</ele>
        <time>2014-02-07T12:06:16.000Z</time>
      </trkpt>
      <trkpt lon="35.23995394818485" lat="31.2887723185122">
        <ele>626.0</ele>
        <time>2014-02-07T12:06:20.000Z</time>
      </trkpt>
      <trkpt lon="35.239835511893034" lat="31.288699563592672">
        <ele>627.7999877929688</ele>
        <time>2014-02-07T12:06:32.000Z</time>
      </trkpt>
      <trkpt lon="35.2397646009922" lat="31.288679279386997">
        <ele>627.7999877929688</ele>
        <time>2014-02-07T12:06:40.000Z</time>
      </trkpt>
      <trkpt lon="35.23978454992175" lat="31.288672322407365">
        <ele>627.4000244140625</ele>
        <time>2014-02-07T12:06:49.000Z</time>
      </trkpt>
      <trkpt lon="35.23974783718586" lat="31.288714399561286">
        <ele>625.4000244140625</ele>
        <time>2014-02-07T12:07:09.000Z</time>
      </trkpt>
      <trkpt lon="35.23970978334546" lat="31.28872194327414">
        <ele>625.0</ele>
        <time>2014-02-07T12:07:26.000Z</time>
      </trkpt>
      <trkpt lon="35.23974699899554" lat="31.28867793828249">
        <ele>625.0</ele>
        <time>2014-02-07T12:07:36.000Z</time>
      </trkpt>
      <trkpt lon="35.23982059210539" lat="31.2886671256274">
        <ele>626.4000244140625</ele>
        <time>2014-02-07T12:07:51.000Z</time>
      </trkpt>
      <trkpt lon="35.23985395208001" lat="31.288634268566966">
        <ele>628.4000244140625</ele>
        <time>2014-02-07T12:08:12.000Z</time>
      </trkpt>
      <trkpt lon="35.239855125546455" lat="31.288615493103862">
        <ele>629.7999877929688</ele>
        <time>2014-02-07T12:08:25.000Z</time>
      </trkpt>
      <trkpt lon="35.23984691128135" lat="31.288602082058787">
        <ele>630.2000122070312</ele>
        <time>2014-02-07T12:08:37.000Z</time>
      </trkpt>
      <trkpt lon="35.23983090184629" lat="31.288599651306868">
        <ele>630.7999877929688</ele>
        <time>2014-02-07T12:09:00.000Z</time>
      </trkpt>
      <trkpt lon="35.23982947692275" lat="31.288592191413045">
        <ele>632.2000122070312</ele>
        <time>2014-02-07T12:09:21.000Z</time>
      </trkpt>
      <trkpt lon="35.23982402868569" lat="31.2885719910264">
        <ele>631.7999877929688</ele>
        <time>2014-02-07T12:09:30.000Z</time>
      </trkpt>
      <trkpt lon="35.2397526986897" lat="31.288536954671144">
        <ele>632.5999755859375</ele>
        <time>2014-02-07T12:09:36.000Z</time>
      </trkpt>
      <trkpt lon="35.239608362317085" lat="31.288525722920895">
        <ele>634.5999755859375</ele>
        <time>2014-02-07T12:09:45.000Z</time>
      </trkpt>
      <trkpt lon="35.239600986242294" lat="31.288519436493516">
        <ele>634.5999755859375</ele>
        <time>2014-02-07T12:09:46.000Z</time>
      </trkpt>
      <trkpt lon="35.239591682329774" lat="31.288512563332915">
        <ele>634.5999755859375</ele>
        <time>2014-02-07T12:09:47.000Z</time>
      </trkpt>
      <trkpt lon="35.23949051275849" lat="31.288441736251116">
        <ele>635.5999755859375</ele>
        <time>2014-02-07T12:09:57.000Z</time>
      </trkpt>
      <trkpt lon="35.239364532753825" lat="31.28835112787783">
        <ele>637.4000244140625</ele>
        <time>2014-02-07T12:10:08.000Z</time>
      </trkpt>
      <trkpt lon="35.23919245228171" lat="31.288272170349956">
        <ele>639.0</ele>
        <time>2014-02-07T12:10:20.000Z</time>
      </trkpt>
      <trkpt lon="35.23905306123197" lat="31.288191033527255">
        <ele>639.4000244140625</ele>
        <time>2014-02-07T12:10:31.000Z</time>
      </trkpt>
      <trkpt lon="35.238867653533816" lat="31.288090031594038">
        <ele>639.0</ele>
        <time>2014-02-07T12:10:43.000Z</time>
      </trkpt>
      <trkpt lon="35.23871191777289" lat="31.287999926134944">
        <ele>639.4000244140625</ele>
        <time>2014-02-07T12:10:54.000Z</time>
      </trkpt>
      <trkpt lon="35.23853254504502" lat="31.287903198972344">
        <ele>640.4000244140625</ele>
        <time>2014-02-07T12:11:05.000Z</time>
      </trkpt>
      <trkpt lon="35.23832039907575" lat="31.28782818093896">
        <ele>640.4000244140625</ele>
        <time>2014-02-07T12:11:12.000Z</time>
      </trkpt>
      <trkpt lon="35.23786551319063" lat="31.287698345258832">
        <ele>637.4000244140625</ele>
        <time>2014-02-07T12:11:23.000Z</time>
      </trkpt>
      <trkpt lon="35.23744842968881" lat="31.287551829591393">
        <ele>635.0</ele>
        <time>2014-02-07T12:11:30.000Z</time>
      </trkpt>
      <trkpt lon="35.23684652522206" lat="31.287242118269205">
        <ele>632.5999755859375</ele>
        <time>2014-02-07T12:11:39.000Z</time>
      </trkpt>
      <trkpt lon="35.236470429226756" lat="31.28693651407957">
        <ele>629.4000244140625</ele>
        <time>2014-02-07T12:11:44.000Z</time>
      </trkpt>
      <trkpt lon="35.23592040874064" lat="31.286408621817827">
        <ele>623.0</ele>
        <time>2014-02-07T12:11:51.000Z</time>
      </trkpt>
      <trkpt lon="35.235191183164716" lat="31.28577017225325">
        <ele>616.4000244140625</ele>
        <time>2014-02-07T12:11:59.000Z</time>
      </trkpt>
      <trkpt lon="35.23512949235737" lat="31.285675456747413">
        <ele>615.4000244140625</ele>
        <time>2014-02-07T12:12:00.000Z</time>
      </trkpt>
      <trkpt lon="35.23508372716606" lat="31.285577891394496">
        <ele>615.0</ele>
        <time>2014-02-07T12:12:01.000Z</time>
      </trkpt>
      <trkpt lon="35.235050451010466" lat="31.285482002422214">
        <ele>615.0</ele>
        <time>2014-02-07T12:12:02.000Z</time>
      </trkpt>
      <trkpt lon="35.23495975881815" lat="31.285102805122733">
        <ele>617.7999877929688</ele>
        <time>2014-02-07T12:12:07.000Z</time>
      </trkpt>
      <trkpt lon="35.23491684347391" lat="31.284897029399872">
        <ele>620.2000122070312</ele>
        <time>2014-02-07T12:12:12.000Z</time>
      </trkpt>
      <trkpt lon="35.23490812629461" lat="31.284710196778178">
        <ele>621.2000122070312</ele>
        <time>2014-02-07T12:12:19.000Z</time>
      </trkpt>
      <trkpt lon="35.234922459349036" lat="31.284501738846302">
        <ele>622.5999755859375</ele>
        <time>2014-02-07T12:12:28.000Z</time>
      </trkpt>
      <trkpt lon="35.23494894616306" lat="31.284262938424945">
        <ele>623.5999755859375</ele>
        <time>2014-02-07T12:12:37.000Z</time>
      </trkpt>
      <trkpt lon="35.23491432890296" lat="31.284061521291733">
        <ele>623.5999755859375</ele>
        <time>2014-02-07T12:12:43.000Z</time>
      </trkpt>
      <trkpt lon="35.234890105202794" lat="31.284019947052002">
        <ele>623.5999755859375</ele>
        <time>2014-02-07T12:12:44.000Z</time>
      </trkpt>
      <trkpt lon="35.23463881574571" lat="31.283756671473384">
        <ele>623.0</ele>
        <time>2014-02-07T12:12:50.000Z</time>
      </trkpt>
      <trkpt lon="35.234444020316005" lat="31.28356833010912">
        <ele>623.5999755859375</ele>
        <time>2014-02-07T12:12:56.000Z</time>
      </trkpt>
      <trkpt lon="35.234214439988136" lat="31.2832498177886">
        <ele>626.0</ele>
        <time>2014-02-07T12:13:08.000Z</time>
      </trkpt>
      <trkpt lon="35.23402894847095" lat="31.282955277711153">
        <ele>627.7999877929688</ele>
        <time>2014-02-07T12:13:18.000Z</time>
      </trkpt>
      <trkpt lon="35.23376885801554" lat="31.282597705721855">
        <ele>629.4000244140625</ele>
        <time>2014-02-07T12:13:29.000Z</time>
      </trkpt>
      <trkpt lon="35.233663665130734" lat="31.28237172961235">
        <ele>630.2000122070312</ele>
        <time>2014-02-07T12:13:37.000Z</time>
      </trkpt>
      <trkpt lon="35.2336136251688" lat="31.282157488167286">
        <ele>631.2000122070312</ele>
        <time>2014-02-07T12:13:47.000Z</time>
      </trkpt>
      <trkpt lon="35.23359568789601" lat="31.281895386055112">
        <ele>629.7999877929688</ele>
        <time>2014-02-07T12:13:55.000Z</time>
      </trkpt>
      <trkpt lon="35.23363223299384" lat="31.281523229554296">
        <ele>626.4000244140625</ele>
        <time>2014-02-07T12:14:04.000Z</time>
      </trkpt>
      <trkpt lon="35.23367992602289" lat="31.28118342719972">
        <ele>624.0</ele>
        <time>2014-02-07T12:14:09.000Z</time>
      </trkpt>
      <trkpt lon="35.233588479459286" lat="31.28076223656535">
        <ele>623.5999755859375</ele>
        <time>2014-02-07T12:14:14.000Z</time>
      </trkpt>
      <trkpt lon="35.23342008702457" lat="31.28025789745152">
        <ele>626.0</ele>
        <time>2014-02-07T12:14:21.000Z</time>
      </trkpt>
      <trkpt lon="35.23333786055446" lat="31.279662949964404">
        <ele>624.0</ele>
        <time>2014-02-07T12:14:29.000Z</time>
      </trkpt>
      <trkpt lon="35.23327608592808" lat="31.27874747850001">
        <ele>620.2000122070312</ele>
        <time>2014-02-07T12:14:40.000Z</time>
      </trkpt>
      <trkpt lon="35.23327290080488" lat="31.27827800810337">
        <ele>619.2000122070312</ele>
        <time>2014-02-07T12:14:47.000Z</time>
      </trkpt>
      <trkpt lon="35.23326971568167" lat="31.278152782469988">
        <ele>619.2000122070312</ele>
        <time>2014-02-07T12:14:49.000Z</time>
      </trkpt>
      <trkpt lon="35.2332544606179" lat="31.278086565434933">
        <ele>618.7999877929688</ele>
        <time>2014-02-07T12:14:50.000Z</time>
      </trkpt>
      <trkpt lon="35.23322596214712" lat="31.27801850438118">
        <ele>618.2000122070312</ele>
        <time>2014-02-07T12:14:51.000Z</time>
      </trkpt>
      <trkpt lon="35.233049942180514" lat="31.277587423101068">
        <ele>618.7999877929688</ele>
        <time>2014-02-07T12:14:58.000Z</time>
      </trkpt>
      <trkpt lon="35.23302680812776" lat="31.27715173177421">
        <ele>619.7999877929688</ele>
        <time>2014-02-07T12:15:05.000Z</time>
      </trkpt>
      <trkpt lon="35.233082715421915" lat="31.27668997272849">
        <ele>618.7999877929688</ele>
        <time>2014-02-07T12:15:13.000Z</time>
      </trkpt>
      <trkpt lon="35.2330781891942" lat="31.276635490357876">
        <ele>618.7999877929688</ele>
        <time>2014-02-07T12:15:14.000Z</time>
      </trkpt>
      <trkpt lon="35.23296335712075" lat="31.2761611584574">
        <ele>616.7999877929688</ele>
        <time>2014-02-07T12:15:22.000Z</time>
      </trkpt>
      <trkpt lon="35.232879454270005" lat="31.275665117427707">
        <ele>613.4000244140625</ele>
        <time>2014-02-07T12:15:28.000Z</time>
      </trkpt>
      <trkpt lon="35.23284316062927" lat="31.275569647550583">
        <ele>612.0</ele>
        <time>2014-02-07T12:15:29.000Z</time>
      </trkpt>
      <trkpt lon="35.23279018700123" lat="31.27547669224441">
        <ele>610.5999755859375</ele>
        <time>2014-02-07T12:15:30.000Z</time>
      </trkpt>
      <trkpt lon="35.23271416313946" lat="31.27539069391787">
        <ele>609.5999755859375</ele>
        <time>2014-02-07T12:15:31.000Z</time>
      </trkpt>
      <trkpt lon="35.23262497968972" lat="31.275306791067123">
        <ele>608.2000122070312</ele>
        <time>2014-02-07T12:15:32.000Z</time>
      </trkpt>
      <trkpt lon="35.23252984508872" lat="31.275224145501852">
        <ele>607.2000122070312</ele>
        <time>2014-02-07T12:15:33.000Z</time>
      </trkpt>
      <trkpt lon="35.231982255354524" lat="31.274764062836766">
        <ele>599.5999755859375</ele>
        <time>2014-02-07T12:15:38.000Z</time>
      </trkpt>
      <trkpt lon="35.231381775811315" lat="31.274350751191378">
        <ele>595.2000122070312</ele>
        <time>2014-02-07T12:15:43.000Z</time>
      </trkpt>
      <trkpt lon="35.23068004287779" lat="31.273735519498587">
        <ele>585.5999755859375</ele>
        <time>2014-02-07T12:15:49.000Z</time>
      </trkpt>
      <trkpt lon="35.22993229329586" lat="31.27304082736373">
        <ele>580.7999877929688</ele>
        <time>2014-02-07T12:15:56.000Z</time>
      </trkpt>
      <trkpt lon="35.22968611679971" lat="31.272664228454232">
        <ele>582.2000122070312</ele>
        <time>2014-02-07T12:16:00.000Z</time>
      </trkpt>
      <trkpt lon="35.229559214785695" lat="31.272238176316023">
        <ele>582.7999877929688</ele>
        <time>2014-02-07T12:16:05.000Z</time>
      </trkpt>
      <trkpt lon="35.22943055257201" lat="31.27158765681088">
        <ele>581.2000122070312</ele>
        <time>2014-02-07T12:16:13.000Z</time>
      </trkpt>
      <trkpt lon="35.229318318888545" lat="31.27113377675414">
        <ele>582.2000122070312</ele>
        <time>2014-02-07T12:16:20.000Z</time>
      </trkpt>
      <trkpt lon="35.22925470024347" lat="31.27098474651575">
        <ele>583.2000122070312</ele>
        <time>2014-02-07T12:16:23.000Z</time>
      </trkpt>
      <trkpt lon="35.22912260144949" lat="31.270800596103072">
        <ele>583.2000122070312</ele>
        <time>2014-02-07T12:16:27.000Z</time>
      </trkpt>
      <trkpt lon="35.22906979545951" lat="31.27075801603496">
        <ele>582.7999877929688</ele>
        <time>2014-02-07T12:16:28.000Z</time>
      </trkpt>
      <trkpt lon="35.229011960327625" lat="31.270718788728118">
        <ele>582.2000122070312</ele>
        <time>2014-02-07T12:16:29.000Z</time>
      </trkpt>
      <trkpt lon="35.22847183048725" lat="31.270310506224632">
        <ele>579.7999877929688</ele>
        <time>2014-02-07T12:16:39.000Z</time>
      </trkpt>
      <trkpt lon="35.22805952467024" lat="31.26993080601096">
        <ele>576.4000244140625</ele>
        <time>2014-02-07T12:16:46.000Z</time>
      </trkpt>
      <trkpt lon="35.22754839621484" lat="31.26950316131115">
        <ele>570.5999755859375</ele>
        <time>2014-02-07T12:16:52.000Z</time>
      </trkpt>
      <trkpt lon="35.22709200158715" lat="31.26908532343805">
        <ele>570.5999755859375</ele>
        <time>2014-02-07T12:16:58.000Z</time>
      </trkpt>
      <trkpt lon="35.22704204544425" lat="31.26901692710817">
        <ele>570.5999755859375</ele>
        <time>2014-02-07T12:16:59.000Z</time>
      </trkpt>
      <trkpt lon="35.22701228968799" lat="31.26895062625408">
        <ele>570.5999755859375</ele>
        <time>2014-02-07T12:17:00.000Z</time>
      </trkpt>
      <trkpt lon="35.22700633853674" lat="31.26889002509415">
        <ele>570.5999755859375</ele>
        <time>2014-02-07T12:17:01.000Z</time>
      </trkpt>
      <trkpt lon="35.22702679038048" lat="31.268838392570615">
        <ele>571.2000122070312</ele>
        <time>2014-02-07T12:17:02.000Z</time>
      </trkpt>
      <trkpt lon="35.22705813869834" lat="31.26879815943539">
        <ele>571.2000122070312</ele>
        <time>2014-02-07T12:17:03.000Z</time>
      </trkpt>
      <trkpt lon="35.2270966116339" lat="31.268764464184642">
        <ele>571.2000122070312</ele>
        <time>2014-02-07T12:17:04.000Z</time>
      </trkpt>
      <trkpt lon="35.22713433019817" lat="31.268731774762273">
        <ele>571.5999755859375</ele>
        <time>2014-02-07T12:17:05.000Z</time>
      </trkpt>
      <trkpt lon="35.22723885253072" lat="31.26863043755293">
        <ele>571.5999755859375</ele>
        <time>2014-02-07T12:17:08.000Z</time>
      </trkpt>
      <trkpt lon="35.22741227410734" lat="31.268326761201024">
        <ele>572.5999755859375</ele>
        <time>2014-02-07T12:17:16.000Z</time>
      </trkpt>
      <trkpt lon="35.22760832682252" lat="31.267896434292197">
        <ele>571.5999755859375</ele>
        <time>2014-02-07T12:17:27.000Z</time>
      </trkpt>
      <trkpt lon="35.227797254920006" lat="31.267549004405737">
        <ele>571.5999755859375</ele>
        <time>2014-02-07T12:17:35.000Z</time>
      </trkpt>
      <trkpt lon="35.227868082001805" lat="31.267457390204072">
        <ele>571.5999755859375</ele>
        <time>2014-02-07T12:17:37.000Z</time>
      </trkpt>
      <trkpt lon="35.22807846777141" lat="31.267227893695235">
        <ele>570.5999755859375</ele>
        <time>2014-02-07T12:17:42.000Z</time>
      </trkpt>
      <trkpt lon="35.22812859155238" lat="31.26718564890325">
        <ele>570.2000122070312</ele>
        <time>2014-02-07T12:17:43.000Z</time>
      </trkpt>
      <trkpt lon="35.22862195037305" lat="31.266921535134315">
        <ele>567.4000244140625</ele>
        <time>2014-02-07T12:17:51.000Z</time>
      </trkpt>
      <trkpt lon="35.22917138412595" lat="31.266832603141665">
        <ele>565.4000244140625</ele>
        <time>2014-02-07T12:17:58.000Z</time>
      </trkpt>
      <trkpt lon="35.22975333966315" lat="31.26680544577539">
        <ele>565.0</ele>
        <time>2014-02-07T12:18:05.000Z</time>
      </trkpt>
      <trkpt lon="35.22983715869486" lat="31.266784826293588">
        <ele>565.0</ele>
        <time>2014-02-07T12:18:06.000Z</time>
      </trkpt>
      <trkpt lon="35.229916954413056" lat="31.26675808802247">
        <ele>565.0</ele>
        <time>2014-02-07T12:18:07.000Z</time>
      </trkpt>
      <trkpt lon="35.22999155335128" lat="31.26672531478107">
        <ele>565.0</ele>
        <time>2014-02-07T12:18:08.000Z</time>
      </trkpt>
      <trkpt lon="35.23005835711956" lat="31.266688099130988">
        <ele>565.0</ele>
        <time>2014-02-07T12:18:09.000Z</time>
      </trkpt>
      <trkpt lon="35.230120215564966" lat="31.266645854339004">
        <ele>564.4000244140625</ele>
        <time>2014-02-07T12:18:10.000Z</time>
      </trkpt>
      <trkpt lon="35.230171428993344" lat="31.266595982015133">
        <ele>564.4000244140625</ele>
        <time>2014-02-07T12:18:11.000Z</time>
      </trkpt>
      <trkpt lon="35.23021576926112" lat="31.266543678939342">
        <ele>565.0</ele>
        <time>2014-02-07T12:18:12.000Z</time>
      </trkpt>
      <trkpt lon="35.230252062901855" lat="31.2664907053113">
        <ele>565.0</ele>
        <time>2014-02-07T12:18:13.000Z</time>
      </trkpt>
      <trkpt lon="35.23028022609651" lat="31.26643697731197">
        <ele>565.0</ele>
        <time>2014-02-07T12:18:14.000Z</time>
      </trkpt>
      <trkpt lon="35.23030067794025" lat="31.26638375222683">
        <ele>565.0</ele>
        <time>2014-02-07T12:18:15.000Z</time>
      </trkpt>
      <trkpt lon="35.23031576536596" lat="31.26633195206523">
        <ele>565.4000244140625</ele>
        <time>2014-02-07T12:18:16.000Z</time>
      </trkpt>
      <trkpt lon="35.23032791912556" lat="31.266008829697967">
        <ele>568.2000122070312</ele>
        <time>2014-02-07T12:18:23.000Z</time>
      </trkpt>
      <trkpt lon="35.23031492717564" lat="31.265968680381775">
        <ele>568.7999877929688</ele>
        <time>2014-02-07T12:18:24.000Z</time>
      </trkpt>
      <trkpt lon="35.23029539734125" lat="31.265928950160742">
        <ele>569.7999877929688</ele>
        <time>2014-02-07T12:18:25.000Z</time>
      </trkpt>
      <trkpt lon="35.230128513649106" lat="31.265668105334044">
        <ele>574.5999755859375</ele>
        <time>2014-02-07T12:18:34.000Z</time>
      </trkpt>
      <trkpt lon="35.23003111593425" lat="31.265574982389808">
        <ele>576.0</ele>
        <time>2014-02-07T12:18:41.000Z</time>
      </trkpt>
      <trkpt lon="35.22991661913693" lat="31.26542209647596">
        <ele>577.4000244140625</ele>
        <time>2014-02-07T12:18:48.000Z</time>
      </trkpt>
      <trkpt lon="35.22978426888585" lat="31.265205340459943">
        <ele>580.2000122070312</ele>
        <time>2014-02-07T12:18:59.000Z</time>
      </trkpt>
      <trkpt lon="35.229721991345286" lat="31.26500635407865">
        <ele>581.7999877929688</ele>
        <time>2014-02-07T12:19:10.000Z</time>
      </trkpt>
      <trkpt lon="35.229669101536274" lat="31.26487006433308">
        <ele>582.2000122070312</ele>
        <time>2014-02-07T12:19:18.000Z</time>
      </trkpt>
      <trkpt lon="35.229621743783355" lat="31.264704186469316">
        <ele>583.2000122070312</ele>
        <time>2014-02-07T12:19:28.000Z</time>
      </trkpt>
      <trkpt lon="35.22958871908486" lat="31.26454694196582">
        <ele>584.5999755859375</ele>
        <time>2014-02-07T12:19:38.000Z</time>
      </trkpt>
      <trkpt lon="35.229579666629434" lat="31.264334293082356">
        <ele>586.0</ele>
        <time>2014-02-07T12:19:50.000Z</time>
      </trkpt>
      <trkpt lon="35.22954882122576" lat="31.26416875049472">
        <ele>586.5999755859375</ele>
        <time>2014-02-07T12:20:00.000Z</time>
      </trkpt>
      <trkpt lon="35.22948763333261" lat="31.26403061673045">
        <ele>587.5999755859375</ele>
        <time>2014-02-07T12:20:09.000Z</time>
      </trkpt>
      <trkpt lon="35.229416051879525" lat="31.26388887874782">
        <ele>590.7999877929688</ele>
        <time>2014-02-07T12:20:19.000Z</time>
      </trkpt>
      <trkpt lon="35.22940255701542" lat="31.263877395540476">
        <ele>591.4000244140625</ele>
        <time>2014-02-07T12:20:20.000Z</time>
      </trkpt>
      <trkpt lon="35.22938688285649" lat="31.263867169618607">
        <ele>591.7999877929688</ele>
        <time>2014-02-07T12:20:21.000Z</time>
      </trkpt>
      <trkpt lon="35.229374561458826" lat="31.26385610550642">
        <ele>592.4000244140625</ele>
        <time>2014-02-07T12:20:22.000Z</time>
      </trkpt>
      <trkpt lon="35.22936441935599" lat="31.26384638249874">
        <ele>592.4000244140625</ele>
        <time>2014-02-07T12:20:23.000Z</time>
      </trkpt>
      <trkpt lon="35.22935193032026" lat="31.263838168233633">
        <ele>592.7999877929688</ele>
        <time>2014-02-07T12:20:24.000Z</time>
      </trkpt>
      <trkpt lon="35.22934111766517" lat="31.26382869668305">
        <ele>593.2000122070312</ele>
        <time>2014-02-07T12:20:25.000Z</time>
      </trkpt>
      <trkpt lon="35.22932779043913" lat="31.263817297294736">
        <ele>592.7999877929688</ele>
        <time>2014-02-07T12:20:26.000Z</time>
      </trkpt>
      <trkpt lon="35.22931513376534" lat="31.26380673609674">
        <ele>592.7999877929688</ele>
        <time>2014-02-07T12:20:27.000Z</time>
      </trkpt>
      <trkpt lon="35.22930138744414" lat="31.263799192383885">
        <ele>592.7999877929688</ele>
        <time>2014-02-07T12:20:28.000Z</time>
      </trkpt>
      <trkpt lon="35.22928814403713" lat="31.263791816309094">
        <ele>593.2000122070312</ele>
        <time>2014-02-07T12:20:29.000Z</time>
      </trkpt>
      <trkpt lon="35.22916937246919" lat="31.26371922902763">
        <ele>595.2000122070312</ele>
        <time>2014-02-07T12:20:38.000Z</time>
      </trkpt>
      <trkpt lon="35.22902671247721" lat="31.26366994343698">
        <ele>597.5999755859375</ele>
        <time>2014-02-07T12:20:47.000Z</time>
      </trkpt>
      <trkpt lon="35.22889444604516" lat="31.263617053627968">
        <ele>598.0</ele>
        <time>2014-02-07T12:20:57.000Z</time>
      </trkpt>
      <trkpt lon="35.22887726314366" lat="31.2636137008667">
        <ele>598.5999755859375</ele>
        <time>2014-02-07T12:20:58.000Z</time>
      </trkpt>
      <trkpt lon="35.22886116988957" lat="31.263605738058686">
        <ele>598.5999755859375</ele>
        <time>2014-02-07T12:20:59.000Z</time>
      </trkpt>
      <trkpt lon="35.22884641773999" lat="31.26359760761261">
        <ele>598.5999755859375</ele>
        <time>2014-02-07T12:21:00.000Z</time>
      </trkpt>
      <trkpt lon="35.22883141413331" lat="31.263590147718787">
        <ele>599.0</ele>
        <time>2014-02-07T12:21:01.000Z</time>
      </trkpt>
      <trkpt lon="35.228819008916616" lat="31.263581765815616">
        <ele>599.0</ele>
        <time>2014-02-07T12:21:02.000Z</time>
      </trkpt>
      <trkpt lon="35.228713899850845" lat="31.263505658134818">
        <ele>601.0</ele>
        <time>2014-02-07T12:21:11.000Z</time>
      </trkpt>
      <trkpt lon="35.228633685037494" lat="31.26338453963399">
        <ele>600.0</ele>
        <time>2014-02-07T12:21:22.000Z</time>
      </trkpt>
      <trkpt lon="35.22855564951897" lat="31.263274988159537">
        <ele>600.4000244140625</ele>
        <time>2014-02-07T12:21:32.000Z</time>
      </trkpt>
      <trkpt lon="35.22849488072097" lat="31.263168202713132">
        <ele>601.4000244140625</ele>
        <time>2014-02-07T12:21:41.000Z</time>
      </trkpt>
      <trkpt lon="35.228459341451526" lat="31.26306409947574">
        <ele>603.4000244140625</ele>
        <time>2014-02-07T12:21:49.000Z</time>
      </trkpt>
      <trkpt lon="35.22845129482448" lat="31.26294683665037">
        <ele>606.2000122070312</ele>
        <time>2014-02-07T12:21:58.000Z</time>
      </trkpt>
      <trkpt lon="35.22852195426822" lat="31.262778947129846">
        <ele>604.4000244140625</ele>
        <time>2014-02-07T12:22:10.000Z</time>
      </trkpt>
      <trkpt lon="35.22858129814267" lat="31.26260904595256">
        <ele>603.4000244140625</ele>
        <time>2014-02-07T12:22:23.000Z</time>
      </trkpt>
      <trkpt lon="35.22865581326187" lat="31.262491950765252">
        <ele>603.4000244140625</ele>
        <time>2014-02-07T12:22:33.000Z</time>
      </trkpt>
      <trkpt lon="35.228732423856854" lat="31.262402599677444">
        <ele>603.4000244140625</ele>
        <time>2014-02-07T12:22:42.000Z</time>
      </trkpt>
      <trkpt lon="35.22879377938807" lat="31.262325486168265">
        <ele>601.4000244140625</ele>
        <time>2014-02-07T12:22:50.000Z</time>
      </trkpt>
      <trkpt lon="35.22892562672496" lat="31.262230603024364">
        <ele>602.0</ele>
        <time>2014-02-07T12:23:02.000Z</time>
      </trkpt>
      <trkpt lon="35.22902679629624" lat="31.262161200866103">
        <ele>602.4000244140625</ele>
        <time>2014-02-07T12:23:11.000Z</time>
      </trkpt>
      <trkpt lon="35.22918161004782" lat="31.262049386277795">
        <ele>604.4000244140625</ele>
        <time>2014-02-07T12:23:23.000Z</time>
      </trkpt>
      <trkpt lon="35.229293340817094" lat="31.261955006048083">
        <ele>605.2000122070312</ele>
        <time>2014-02-07T12:23:34.000Z</time>
      </trkpt>
      <trkpt lon="35.229373471811414" lat="31.26184780150652">
        <ele>605.7999877929688</ele>
        <time>2014-02-07T12:23:44.000Z</time>
      </trkpt>
      <trkpt lon="35.22945544682443" lat="31.26171779818833">
        <ele>606.7999877929688</ele>
        <time>2014-02-07T12:23:56.000Z</time>
      </trkpt>
      <trkpt lon="35.229539601132274" lat="31.261585699394345">
        <ele>612.0</ele>
        <time>2014-02-07T12:24:08.000Z</time>
      </trkpt>
      <trkpt lon="35.22957162000239" lat="31.261455360800028">
        <ele>614.4000244140625</ele>
        <time>2014-02-07T12:24:18.000Z</time>
      </trkpt>
      <trkpt lon="35.22959902882576" lat="31.261327117681503">
        <ele>616.4000244140625</ele>
        <time>2014-02-07T12:24:27.000Z</time>
      </trkpt>
      <trkpt lon="35.22959257476032" lat="31.26117113046348">
        <ele>616.4000244140625</ele>
        <time>2014-02-07T12:24:37.000Z</time>
      </trkpt>
      <trkpt lon="35.22959399968386" lat="31.261155623942614">
        <ele>616.4000244140625</ele>
        <time>2014-02-07T12:24:38.000Z</time>
      </trkpt>
      <trkpt lon="35.22957547567785" lat="31.26098739914596">
        <ele>617.7999877929688</ele>
        <time>2014-02-07T12:24:48.000Z</time>
      </trkpt>
      <trkpt lon="35.22965535521507" lat="31.26091011799872">
        <ele>617.2000122070312</ele>
        <time>2014-02-07T12:24:53.000Z</time>
      </trkpt>
      <trkpt lon="35.22982265800238" lat="31.260830154642463">
        <ele>615.7999877929688</ele>
        <time>2014-02-07T12:25:02.000Z</time>
      </trkpt>
      <trkpt lon="35.23003673180938" lat="31.26073921099305">
        <ele>614.4000244140625</ele>
        <time>2014-02-07T12:25:11.000Z</time>
      </trkpt>
      <trkpt lon="35.23030419833958" lat="31.260667210444808">
        <ele>615.0</ele>
        <time>2014-02-07T12:25:21.000Z</time>
      </trkpt>
      <trkpt lon="35.23057878948748" lat="31.2606330960989">
        <ele>615.4000244140625</ele>
        <time>2014-02-07T12:25:32.000Z</time>
      </trkpt>
      <trkpt lon="35.23084977641702" lat="31.260579703375697">
        <ele>617.2000122070312</ele>
        <time>2014-02-07T12:25:42.000Z</time>
      </trkpt>
      <trkpt lon="35.231144316494465" lat="31.26052999868989">
        <ele>618.7999877929688</ele>
        <time>2014-02-07T12:25:52.000Z</time>
      </trkpt>
      <trkpt lon="35.2314274571836" lat="31.26049588434398">
        <ele>620.2000122070312</ele>
        <time>2014-02-07T12:26:03.000Z</time>
      </trkpt>
      <trkpt lon="35.231621162965894" lat="31.26047140918672">
        <ele>621.5999755859375</ele>
        <time>2014-02-07T12:26:12.000Z</time>
      </trkpt>
      <trkpt lon="35.23180916905403" lat="31.26044685021043">
        <ele>622.5999755859375</ele>
        <time>2014-02-07T12:26:21.000Z</time>
      </trkpt>
      <trkpt lon="35.23208233527839" lat="31.260430002585053">
        <ele>624.0</ele>
        <time>2014-02-07T12:26:32.000Z</time>
      </trkpt>
      <trkpt lon="35.232337648049" lat="31.260413574054837">
        <ele>624.0</ele>
        <time>2014-02-07T12:26:43.000Z</time>
      </trkpt>
      <trkpt lon="35.232579382136464" lat="31.260405527427793">
        <ele>624.5999755859375</ele>
        <time>2014-02-07T12:26:53.000Z</time>
      </trkpt>
      <trkpt lon="35.23293603211641" lat="31.260409047827125">
        <ele>624.0</ele>
        <time>2014-02-07T12:27:06.000Z</time>
      </trkpt>
      <trkpt lon="35.23323643952608" lat="31.260415837168694">
        <ele>623.0</ele>
        <time>2014-02-07T12:27:16.000Z</time>
      </trkpt>
      <trkpt lon="35.23350357078016" lat="31.260430170223117">
        <ele>622.2000122070312</ele>
        <time>2014-02-07T12:27:25.000Z</time>
      </trkpt>
      <trkpt lon="35.233694426715374" lat="31.260432098060846">
        <ele>621.5999755859375</ele>
        <time>2014-02-07T12:27:32.000Z</time>
      </trkpt>
      <trkpt lon="35.233950577676296" lat="31.26047031953931">
        <ele>621.2000122070312</ele>
        <time>2014-02-07T12:27:42.000Z</time>
      </trkpt>
      <trkpt lon="35.23426045663655" lat="31.26055045053363">
        <ele>620.5999755859375</ele>
        <time>2014-02-07T12:27:54.000Z</time>
      </trkpt>
      <trkpt lon="35.23428744636476" lat="31.260574171319604">
        <ele>620.5999755859375</ele>
        <time>2014-02-07T12:28:01.000Z</time>
      </trkpt>
      <trkpt lon="35.23429188877344" lat="31.260583894327283">
        <ele>621.2000122070312</ele>
        <time>2014-02-07T12:28:14.000Z</time>
      </trkpt>
      <trkpt lon="35.23428149521351" lat="31.260584900155663">
        <ele>621.5999755859375</ele>
        <time>2014-02-07T12:28:30.000Z</time>
      </trkpt>
      <trkpt lon="35.23427898064256" lat="31.26058464869857">
        <ele>621.5999755859375</ele>
        <time>2014-02-07T12:28:34.000Z</time>
      </trkpt>
    </trkseg>
  </trk>
</gpx>
